<?xml version="1.0" encoding="utf-8"?>
<gpx xmlns:xsi="http://www.w3.org/2001/XMLSchema-instance" xmlns:xsd="http://www.w3.org/2001/XMLSchema" version="1.1" creator="Shapelink.com" xmlns="http://www.topografix.com/GPX/1/1" xmlns:gpxtpx="http://www.garmin.com/xmlschemas/TrackPointExtension/v1">
  <metadata>
    <name>Terrengsykkel 20.40 km, 2014-06-21</name>
    <desc></desc>
    <author><name>Mikael Blom</name></author> 
    <time>2014-06-21T12:48:16Z</time>
  </metadata>
  <trk>
    <name>Terrengsykkel 20.40 km, 2014-06-21</name>
    <trkseg>
      <trkpt lat="59.9787497" lon="17.7392901">
        <ele>39.0707</ele>
        <time>2014-06-21T12:48:16Z</time>
      </trkpt>
      <trkpt lat="59.9787133" lon="17.7392912">
        <ele>39.0707</ele>
        <time>2014-06-21T12:48:17Z</time>
      </trkpt>
      <trkpt lat="59.9786675" lon="17.7392994">
        <ele>38.1094</ele>
        <time>2014-06-21T12:48:18Z</time>
      </trkpt>
      <trkpt lat="59.9786191" lon="17.739303">
        <ele>37.6287</ele>
        <time>2014-06-21T12:48:19Z</time>
      </trkpt>
      <trkpt lat="59.978575" lon="17.7392978">
        <ele>36.6675</ele>
        <time>2014-06-21T12:48:20Z</time>
      </trkpt>
      <trkpt lat="59.9785217" lon="17.7392994">
        <ele>35.2255</ele>
        <time>2014-06-21T12:48:21Z</time>
      </trkpt>
      <trkpt lat="59.9784743" lon="17.7392937">
        <ele>34.7449</ele>
        <time>2014-06-21T12:48:22Z</time>
      </trkpt>
      <trkpt lat="59.9784274" lon="17.7392884">
        <ele>34.2642</ele>
        <time>2014-06-21T12:48:23Z</time>
      </trkpt>
      <trkpt lat="59.978384" lon="17.7392797">
        <ele>34.2642</ele>
        <time>2014-06-21T12:48:24Z</time>
      </trkpt>
      <trkpt lat="59.9783403" lon="17.7392731">
        <ele>34.2642</ele>
        <time>2014-06-21T12:48:25Z</time>
      </trkpt>
      <trkpt lat="59.9782869" lon="17.7392757">
        <ele>33.7834</ele>
        <time>2014-06-21T12:48:26Z</time>
      </trkpt>
      <trkpt lat="59.9782352" lon="17.7392744">
        <ele>33.3029</ele>
        <time>2014-06-21T12:48:27Z</time>
      </trkpt>
      <trkpt lat="59.97819" lon="17.7392718">
        <ele>33.7834</ele>
        <time>2014-06-21T12:48:28Z</time>
      </trkpt>
      <trkpt lat="59.9781444" lon="17.7392864">
        <ele>33.3029</ele>
        <time>2014-06-21T12:48:29Z</time>
      </trkpt>
      <trkpt lat="59.9780864" lon="17.7393299">
        <ele>33.3029</ele>
        <time>2014-06-21T12:48:30Z</time>
      </trkpt>
      <trkpt lat="59.9780301" lon="17.7394095">
        <ele>33.3029</ele>
        <time>2014-06-21T12:48:31Z</time>
      </trkpt>
      <trkpt lat="59.9780347" lon="17.7394766">
        <ele>34.2642</ele>
        <time>2014-06-21T12:48:32Z</time>
      </trkpt>
      <trkpt lat="59.9780219" lon="17.7395656">
        <ele>34.2642</ele>
        <time>2014-06-21T12:48:33Z</time>
      </trkpt>
      <trkpt lat="59.9780021" lon="17.739658">
        <ele>34.2642</ele>
        <time>2014-06-21T12:48:34Z</time>
      </trkpt>
      <trkpt lat="59.9780102" lon="17.7397343">
        <ele>34.7449</ele>
        <time>2014-06-21T12:48:35Z</time>
      </trkpt>
      <trkpt lat="59.9780244" lon="17.739791">
        <ele>35.7061</ele>
        <time>2014-06-21T12:48:36Z</time>
      </trkpt>
      <trkpt lat="59.9780441" lon="17.7398468">
        <ele>36.6675</ele>
        <time>2014-06-21T12:48:37Z</time>
      </trkpt>
      <trkpt lat="59.9780582" lon="17.7399101">
        <ele>37.1481</ele>
        <time>2014-06-21T12:48:38Z</time>
      </trkpt>
      <trkpt lat="59.9780699" lon="17.739981">
        <ele>37.1481</ele>
        <time>2014-06-21T12:48:39Z</time>
      </trkpt>
      <trkpt lat="59.9780789" lon="17.7400571">
        <ele>37.1481</ele>
        <time>2014-06-21T12:48:40Z</time>
      </trkpt>
      <trkpt lat="59.978084" lon="17.740137">
        <ele>36.6675</ele>
        <time>2014-06-21T12:48:41Z</time>
      </trkpt>
      <trkpt lat="59.9780972" lon="17.7402147">
        <ele>38.1094</ele>
        <time>2014-06-21T12:48:42Z</time>
      </trkpt>
      <trkpt lat="59.9781079" lon="17.7402888">
        <ele>39.0707</ele>
        <time>2014-06-21T12:48:43Z</time>
      </trkpt>
      <trkpt lat="59.9781154" lon="17.7403705">
        <ele>40.5128</ele>
        <time>2014-06-21T12:48:44Z</time>
      </trkpt>
      <trkpt lat="59.9781036" lon="17.7404603">
        <ele>40.5128</ele>
        <time>2014-06-21T12:48:45Z</time>
      </trkpt>
      <trkpt lat="59.9780895" lon="17.7405464">
        <ele>40.0321</ele>
        <time>2014-06-21T12:48:46Z</time>
      </trkpt>
      <trkpt lat="59.9780696" lon="17.7406333">
        <ele>39.5513</ele>
        <time>2014-06-21T12:48:47Z</time>
      </trkpt>
      <trkpt lat="59.9780627" lon="17.7407191">
        <ele>40.9934</ele>
        <time>2014-06-21T12:48:48Z</time>
      </trkpt>
      <trkpt lat="59.9780495" lon="17.7408063">
        <ele>41.474</ele>
        <time>2014-06-21T12:48:49Z</time>
      </trkpt>
      <trkpt lat="59.9780407" lon="17.740897">
        <ele>41.474</ele>
        <time>2014-06-21T12:48:50Z</time>
      </trkpt>
      <trkpt lat="59.9780374" lon="17.7409906">
        <ele>41.474</ele>
        <time>2014-06-21T12:48:51Z</time>
      </trkpt>
      <trkpt lat="59.9780477" lon="17.7410772">
        <ele>41.474</ele>
        <time>2014-06-21T12:48:52Z</time>
      </trkpt>
      <trkpt lat="59.9780651" lon="17.7411585">
        <ele>42.4354</ele>
        <time>2014-06-21T12:48:53Z</time>
      </trkpt>
      <trkpt lat="59.9780813" lon="17.7412361">
        <ele>41.9547</ele>
        <time>2014-06-21T12:48:54Z</time>
      </trkpt>
      <trkpt lat="59.9781006" lon="17.7413114">
        <ele>42.4354</ele>
        <time>2014-06-21T12:48:55Z</time>
      </trkpt>
      <trkpt lat="59.978118" lon="17.7413852">
        <ele>42.4354</ele>
        <time>2014-06-21T12:48:56Z</time>
      </trkpt>
      <trkpt lat="59.9781361" lon="17.7414543">
        <ele>41.9547</ele>
        <time>2014-06-21T12:48:57Z</time>
      </trkpt>
      <trkpt lat="59.978157" lon="17.7415185">
        <ele>41.9547</ele>
        <time>2014-06-21T12:48:58Z</time>
      </trkpt>
      <trkpt lat="59.978183" lon="17.7415779">
        <ele>42.4354</ele>
        <time>2014-06-21T12:48:59Z</time>
      </trkpt>
      <trkpt lat="59.9782104" lon="17.7416352">
        <ele>42.916</ele>
        <time>2014-06-21T12:49:00Z</time>
      </trkpt>
      <trkpt lat="59.9782364" lon="17.7416921">
        <ele>42.916</ele>
        <time>2014-06-21T12:49:01Z</time>
      </trkpt>
      <trkpt lat="59.9782622" lon="17.741748">
        <ele>42.916</ele>
        <time>2014-06-21T12:49:02Z</time>
      </trkpt>
      <trkpt lat="59.9782896" lon="17.7418002">
        <ele>43.3966</ele>
        <time>2014-06-21T12:49:03Z</time>
      </trkpt>
      <trkpt lat="59.9783186" lon="17.7418484">
        <ele>43.3966</ele>
        <time>2014-06-21T12:49:04Z</time>
      </trkpt>
      <trkpt lat="59.9783502" lon="17.7418914">
        <ele>43.8773</ele>
        <time>2014-06-21T12:49:05Z</time>
      </trkpt>
      <trkpt lat="59.9783812" lon="17.741936">
        <ele>43.8773</ele>
        <time>2014-06-21T12:49:06Z</time>
      </trkpt>
      <trkpt lat="59.9784054" lon="17.7419952">
        <ele>42.916</ele>
        <time>2014-06-21T12:49:07Z</time>
      </trkpt>
      <trkpt lat="59.9784322" lon="17.7420556">
        <ele>42.916</ele>
        <time>2014-06-21T12:49:08Z</time>
      </trkpt>
      <trkpt lat="59.9784678" lon="17.7421059">
        <ele>43.3966</ele>
        <time>2014-06-21T12:49:09Z</time>
      </trkpt>
      <trkpt lat="59.9785036" lon="17.7421568">
        <ele>43.8773</ele>
        <time>2014-06-21T12:49:10Z</time>
      </trkpt>
      <trkpt lat="59.9785383" lon="17.7422142">
        <ele>43.8773</ele>
        <time>2014-06-21T12:49:11Z</time>
      </trkpt>
      <trkpt lat="59.9785759" lon="17.7422753">
        <ele>43.8773</ele>
        <time>2014-06-21T12:49:12Z</time>
      </trkpt>
      <trkpt lat="59.978617" lon="17.7423374">
        <ele>43.3966</ele>
        <time>2014-06-21T12:49:13Z</time>
      </trkpt>
      <trkpt lat="59.9786582" lon="17.7424001">
        <ele>42.916</ele>
        <time>2014-06-21T12:49:14Z</time>
      </trkpt>
      <trkpt lat="59.9787035" lon="17.7424555">
        <ele>42.916</ele>
        <time>2014-06-21T12:49:15Z</time>
      </trkpt>
      <trkpt lat="59.9787563" lon="17.7424946">
        <ele>42.916</ele>
        <time>2014-06-21T12:49:16Z</time>
      </trkpt>
      <trkpt lat="59.9788072" lon="17.7425327">
        <ele>42.4354</ele>
        <time>2014-06-21T12:49:17Z</time>
      </trkpt>
      <trkpt lat="59.9788682" lon="17.7425678">
        <ele>42.916</ele>
        <time>2014-06-21T12:49:18Z</time>
      </trkpt>
      <trkpt lat="59.9789284" lon="17.7426038">
        <ele>42.916</ele>
        <time>2014-06-21T12:49:19Z</time>
      </trkpt>
      <trkpt lat="59.9789894" lon="17.7426404">
        <ele>43.3966</ele>
        <time>2014-06-21T12:49:20Z</time>
      </trkpt>
      <trkpt lat="59.9790493" lon="17.7426851">
        <ele>43.3966</ele>
        <time>2014-06-21T12:49:21Z</time>
      </trkpt>
      <trkpt lat="59.9791065" lon="17.7427469">
        <ele>43.3966</ele>
        <time>2014-06-21T12:49:22Z</time>
      </trkpt>
      <trkpt lat="59.9791568" lon="17.7428232">
        <ele>43.3966</ele>
        <time>2014-06-21T12:49:23Z</time>
      </trkpt>
      <trkpt lat="59.9792018" lon="17.7429077">
        <ele>43.3966</ele>
        <time>2014-06-21T12:49:24Z</time>
      </trkpt>
      <trkpt lat="59.979242" lon="17.7429962">
        <ele>43.8773</ele>
        <time>2014-06-21T12:49:25Z</time>
      </trkpt>
      <trkpt lat="59.9792762" lon="17.7430828">
        <ele>43.8773</ele>
        <time>2014-06-21T12:49:26Z</time>
      </trkpt>
      <trkpt lat="59.9793044" lon="17.7431651">
        <ele>43.8773</ele>
        <time>2014-06-21T12:49:27Z</time>
      </trkpt>
      <trkpt lat="59.9793299" lon="17.7432435">
        <ele>43.3966</ele>
        <time>2014-06-21T12:49:28Z</time>
      </trkpt>
      <trkpt lat="59.9793634" lon="17.7433041">
        <ele>43.3966</ele>
        <time>2014-06-21T12:49:29Z</time>
      </trkpt>
      <trkpt lat="59.97941" lon="17.7433399">
        <ele>42.916</ele>
        <time>2014-06-21T12:49:30Z</time>
      </trkpt>
      <trkpt lat="59.9794653" lon="17.7433518">
        <ele>42.4354</ele>
        <time>2014-06-21T12:49:31Z</time>
      </trkpt>
      <trkpt lat="59.9795298" lon="17.7433361">
        <ele>42.4354</ele>
        <time>2014-06-21T12:49:32Z</time>
      </trkpt>
      <trkpt lat="59.9795922" lon="17.7433103">
        <ele>42.4354</ele>
        <time>2014-06-21T12:49:33Z</time>
      </trkpt>
      <trkpt lat="59.979649" lon="17.7432815">
        <ele>42.4354</ele>
        <time>2014-06-21T12:49:34Z</time>
      </trkpt>
      <trkpt lat="59.9797052" lon="17.7432373">
        <ele>42.916</ele>
        <time>2014-06-21T12:49:35Z</time>
      </trkpt>
      <trkpt lat="59.9797585" lon="17.7431836">
        <ele>43.3966</ele>
        <time>2014-06-21T12:49:36Z</time>
      </trkpt>
      <trkpt lat="59.9798066" lon="17.7431445">
        <ele>42.916</ele>
        <time>2014-06-21T12:49:37Z</time>
      </trkpt>
      <trkpt lat="59.9798659" lon="17.7431083">
        <ele>43.8773</ele>
        <time>2014-06-21T12:49:38Z</time>
      </trkpt>
      <trkpt lat="59.979926" lon="17.743069">
        <ele>43.8773</ele>
        <time>2014-06-21T12:49:39Z</time>
      </trkpt>
      <trkpt lat="59.9799869" lon="17.7430161">
        <ele>44.358</ele>
        <time>2014-06-21T12:49:40Z</time>
      </trkpt>
      <trkpt lat="59.9800436" lon="17.74297">
        <ele>44.8386</ele>
        <time>2014-06-21T12:49:41Z</time>
      </trkpt>
      <trkpt lat="59.9801009" lon="17.7429389">
        <ele>45.7999</ele>
        <time>2014-06-21T12:49:42Z</time>
      </trkpt>
      <trkpt lat="59.9801498" lon="17.7429301">
        <ele>45.3192</ele>
        <time>2014-06-21T12:49:43Z</time>
      </trkpt>
      <trkpt lat="59.9801902" lon="17.7429365">
        <ele>44.8386</ele>
        <time>2014-06-21T12:49:44Z</time>
      </trkpt>
      <trkpt lat="59.9802098" lon="17.7429776">
        <ele>43.3966</ele>
        <time>2014-06-21T12:49:45Z</time>
      </trkpt>
      <trkpt lat="59.9802309" lon="17.7430418">
        <ele>41.474</ele>
        <time>2014-06-21T12:49:46Z</time>
      </trkpt>
      <trkpt lat="59.9802631" lon="17.7431052">
        <ele>40.5128</ele>
        <time>2014-06-21T12:49:47Z</time>
      </trkpt>
      <trkpt lat="59.9802838" lon="17.7431897">
        <ele>40.5128</ele>
        <time>2014-06-21T12:49:48Z</time>
      </trkpt>
      <trkpt lat="59.9802942" lon="17.7432767">
        <ele>40.5128</ele>
        <time>2014-06-21T12:49:49Z</time>
      </trkpt>
      <trkpt lat="59.9803056" lon="17.7433617">
        <ele>41.474</ele>
        <time>2014-06-21T12:49:50Z</time>
      </trkpt>
      <trkpt lat="59.9803216" lon="17.7434399">
        <ele>43.3966</ele>
        <time>2014-06-21T12:49:51Z</time>
      </trkpt>
      <trkpt lat="59.9803386" lon="17.7435075">
        <ele>44.358</ele>
        <time>2014-06-21T12:49:52Z</time>
      </trkpt>
      <trkpt lat="59.9803581" lon="17.7435776">
        <ele>45.7999</ele>
        <time>2014-06-21T12:49:53Z</time>
      </trkpt>
      <trkpt lat="59.9803864" lon="17.7436439">
        <ele>48.684</ele>
        <time>2014-06-21T12:49:54Z</time>
      </trkpt>
      <trkpt lat="59.9803999" lon="17.7437216">
        <ele>50.126</ele>
        <time>2014-06-21T12:49:55Z</time>
      </trkpt>
      <trkpt lat="59.9804113" lon="17.7437922">
        <ele>51.0872</ele>
        <time>2014-06-21T12:49:56Z</time>
      </trkpt>
      <trkpt lat="59.9804365" lon="17.7438614">
        <ele>53.4905</ele>
        <time>2014-06-21T12:49:57Z</time>
      </trkpt>
      <trkpt lat="59.9804503" lon="17.7439551">
        <ele>54.9324</ele>
        <time>2014-06-21T12:49:58Z</time>
      </trkpt>
      <trkpt lat="59.9804614" lon="17.7440624">
        <ele>55.4131</ele>
        <time>2014-06-21T12:49:59Z</time>
      </trkpt>
      <trkpt lat="59.9804636" lon="17.7441778">
        <ele>54.4518</ele>
        <time>2014-06-21T12:50:00Z</time>
      </trkpt>
      <trkpt lat="59.9804745" lon="17.7442828">
        <ele>53.9712</ele>
        <time>2014-06-21T12:50:01Z</time>
      </trkpt>
      <trkpt lat="59.9804858" lon="17.7444044">
        <ele>53.9712</ele>
        <time>2014-06-21T12:50:02Z</time>
      </trkpt>
      <trkpt lat="59.9804953" lon="17.7445239">
        <ele>53.0098</ele>
        <time>2014-06-21T12:50:03Z</time>
      </trkpt>
      <trkpt lat="59.9805155" lon="17.744623">
        <ele>52.5292</ele>
        <time>2014-06-21T12:50:04Z</time>
      </trkpt>
      <trkpt lat="59.9805552" lon="17.744697">
        <ele>52.5292</ele>
        <time>2014-06-21T12:50:05Z</time>
      </trkpt>
      <trkpt lat="59.9806039" lon="17.7447404">
        <ele>53.0098</ele>
        <time>2014-06-21T12:50:06Z</time>
      </trkpt>
      <trkpt lat="59.9806508" lon="17.7447686">
        <ele>53.0098</ele>
        <time>2014-06-21T12:50:07Z</time>
      </trkpt>
      <trkpt lat="59.9806978" lon="17.7448091">
        <ele>53.4905</ele>
        <time>2014-06-21T12:50:08Z</time>
      </trkpt>
      <trkpt lat="59.980746" lon="17.744856">
        <ele>54.4518</ele>
        <time>2014-06-21T12:50:09Z</time>
      </trkpt>
      <trkpt lat="59.9807828" lon="17.7449194">
        <ele>54.4518</ele>
        <time>2014-06-21T12:50:10Z</time>
      </trkpt>
      <trkpt lat="59.9808154" lon="17.7449809">
        <ele>53.4905</ele>
        <time>2014-06-21T12:50:11Z</time>
      </trkpt>
      <trkpt lat="59.9808616" lon="17.745032">
        <ele>54.4518</ele>
        <time>2014-06-21T12:50:12Z</time>
      </trkpt>
      <trkpt lat="59.9808836" lon="17.7450928">
        <ele>53.0098</ele>
        <time>2014-06-21T12:50:13Z</time>
      </trkpt>
      <trkpt lat="59.9809036" lon="17.7451545">
        <ele>52.0486</ele>
        <time>2014-06-21T12:50:14Z</time>
      </trkpt>
      <trkpt lat="59.9809181" lon="17.7452211">
        <ele>51.0872</ele>
        <time>2014-06-21T12:50:15Z</time>
      </trkpt>
      <trkpt lat="59.9809298" lon="17.7452934">
        <ele>49.1646</ele>
        <time>2014-06-21T12:50:16Z</time>
      </trkpt>
      <trkpt lat="59.9809452" lon="17.7453663">
        <ele>48.684</ele>
        <time>2014-06-21T12:50:17Z</time>
      </trkpt>
      <trkpt lat="59.980965" lon="17.7454379">
        <ele>48.684</ele>
        <time>2014-06-21T12:50:18Z</time>
      </trkpt>
      <trkpt lat="59.9809887" lon="17.7455073">
        <ele>48.2034</ele>
        <time>2014-06-21T12:50:19Z</time>
      </trkpt>
      <trkpt lat="59.9810185" lon="17.7455719">
        <ele>48.684</ele>
        <time>2014-06-21T12:50:20Z</time>
      </trkpt>
      <trkpt lat="59.9810511" lon="17.7456337">
        <ele>49.1646</ele>
        <time>2014-06-21T12:50:21Z</time>
      </trkpt>
      <trkpt lat="59.9810799" lon="17.7457008">
        <ele>49.6453</ele>
        <time>2014-06-21T12:50:22Z</time>
      </trkpt>
      <trkpt lat="59.9811072" lon="17.7457673">
        <ele>49.1646</ele>
        <time>2014-06-21T12:50:23Z</time>
      </trkpt>
      <trkpt lat="59.981138" lon="17.74583">
        <ele>49.6453</ele>
        <time>2014-06-21T12:50:24Z</time>
      </trkpt>
      <trkpt lat="59.9811687" lon="17.7458948">
        <ele>49.6453</ele>
        <time>2014-06-21T12:50:25Z</time>
      </trkpt>
      <trkpt lat="59.9811978" lon="17.745967">
        <ele>49.6453</ele>
        <time>2014-06-21T12:50:26Z</time>
      </trkpt>
      <trkpt lat="59.981224" lon="17.7460424">
        <ele>49.1646</ele>
        <time>2014-06-21T12:50:27Z</time>
      </trkpt>
      <trkpt lat="59.9812507" lon="17.7461172">
        <ele>49.6453</ele>
        <time>2014-06-21T12:50:28Z</time>
      </trkpt>
      <trkpt lat="59.981276" lon="17.7461976">
        <ele>49.6453</ele>
        <time>2014-06-21T12:50:29Z</time>
      </trkpt>
      <trkpt lat="59.9813002" lon="17.7462843">
        <ele>49.1646</ele>
        <time>2014-06-21T12:50:30Z</time>
      </trkpt>
      <trkpt lat="59.9813288" lon="17.7463688">
        <ele>49.6453</ele>
        <time>2014-06-21T12:50:31Z</time>
      </trkpt>
      <trkpt lat="59.9813506" lon="17.7464562">
        <ele>48.684</ele>
        <time>2014-06-21T12:50:32Z</time>
      </trkpt>
      <trkpt lat="59.9813757" lon="17.7465443">
        <ele>48.2034</ele>
        <time>2014-06-21T12:50:33Z</time>
      </trkpt>
      <trkpt lat="59.9813964" lon="17.746641">
        <ele>47.7225</ele>
        <time>2014-06-21T12:50:34Z</time>
      </trkpt>
      <trkpt lat="59.9814133" lon="17.7467431">
        <ele>47.7225</ele>
        <time>2014-06-21T12:50:35Z</time>
      </trkpt>
      <trkpt lat="59.9814348" lon="17.7468441">
        <ele>48.684</ele>
        <time>2014-06-21T12:50:36Z</time>
      </trkpt>
      <trkpt lat="59.9814563" lon="17.7469425">
        <ele>48.684</ele>
        <time>2014-06-21T12:50:37Z</time>
      </trkpt>
      <trkpt lat="59.9814703" lon="17.7470466">
        <ele>48.2034</ele>
        <time>2014-06-21T12:50:38Z</time>
      </trkpt>
      <trkpt lat="59.9814898" lon="17.7471468">
        <ele>48.2034</ele>
        <time>2014-06-21T12:50:39Z</time>
      </trkpt>
      <trkpt lat="59.9815142" lon="17.7472466">
        <ele>47.7225</ele>
        <time>2014-06-21T12:50:40Z</time>
      </trkpt>
      <trkpt lat="59.9815423" lon="17.7473493">
        <ele>46.7612</ele>
        <time>2014-06-21T12:50:41Z</time>
      </trkpt>
      <trkpt lat="59.9815783" lon="17.7474441">
        <ele>46.7612</ele>
        <time>2014-06-21T12:50:42Z</time>
      </trkpt>
      <trkpt lat="59.9816122" lon="17.7475315">
        <ele>46.7612</ele>
        <time>2014-06-21T12:50:43Z</time>
      </trkpt>
      <trkpt lat="59.9816513" lon="17.7476036">
        <ele>47.7225</ele>
        <time>2014-06-21T12:50:44Z</time>
      </trkpt>
      <trkpt lat="59.9816943" lon="17.7476555">
        <ele>48.2034</ele>
        <time>2014-06-21T12:50:45Z</time>
      </trkpt>
      <trkpt lat="59.9817422" lon="17.7476716">
        <ele>48.684</ele>
        <time>2014-06-21T12:50:46Z</time>
      </trkpt>
      <trkpt lat="59.9817862" lon="17.7476906">
        <ele>48.684</ele>
        <time>2014-06-21T12:50:47Z</time>
      </trkpt>
      <trkpt lat="59.9818265" lon="17.7477196">
        <ele>49.1646</ele>
        <time>2014-06-21T12:50:48Z</time>
      </trkpt>
      <trkpt lat="59.9818717" lon="17.7477461">
        <ele>50.126</ele>
        <time>2014-06-21T12:50:49Z</time>
      </trkpt>
      <trkpt lat="59.9819224" lon="17.7477781">
        <ele>51.5679</ele>
        <time>2014-06-21T12:50:50Z</time>
      </trkpt>
      <trkpt lat="59.9819608" lon="17.7478108">
        <ele>52.0486</ele>
        <time>2014-06-21T12:50:51Z</time>
      </trkpt>
      <trkpt lat="59.981994" lon="17.7478467">
        <ele>52.0486</ele>
        <time>2014-06-21T12:50:52Z</time>
      </trkpt>
      <trkpt lat="59.9820378" lon="17.7478782">
        <ele>53.9712</ele>
        <time>2014-06-21T12:50:53Z</time>
      </trkpt>
      <trkpt lat="59.9820582" lon="17.7479182">
        <ele>53.9712</ele>
        <time>2014-06-21T12:50:54Z</time>
      </trkpt>
      <trkpt lat="59.9820776" lon="17.7479557">
        <ele>53.4905</ele>
        <time>2014-06-21T12:50:55Z</time>
      </trkpt>
      <trkpt lat="59.9821035" lon="17.7479951">
        <ele>53.9712</ele>
        <time>2014-06-21T12:50:56Z</time>
      </trkpt>
      <trkpt lat="59.9821165" lon="17.748038">
        <ele>52.5292</ele>
        <time>2014-06-21T12:50:57Z</time>
      </trkpt>
      <trkpt lat="59.9821339" lon="17.7480743">
        <ele>51.5679</ele>
        <time>2014-06-21T12:50:58Z</time>
      </trkpt>
      <trkpt lat="59.9821673" lon="17.7480937">
        <ele>52.5292</ele>
        <time>2014-06-21T12:50:59Z</time>
      </trkpt>
      <trkpt lat="59.9821985" lon="17.7481165">
        <ele>53.4905</ele>
        <time>2014-06-21T12:51:00Z</time>
      </trkpt>
      <trkpt lat="59.982226" lon="17.7481537">
        <ele>53.9712</ele>
        <time>2014-06-21T12:51:01Z</time>
      </trkpt>
      <trkpt lat="59.9822546" lon="17.7482035">
        <ele>54.4518</ele>
        <time>2014-06-21T12:51:02Z</time>
      </trkpt>
      <trkpt lat="59.982281" lon="17.7482588">
        <ele>54.4518</ele>
        <time>2014-06-21T12:51:03Z</time>
      </trkpt>
      <trkpt lat="59.9823026" lon="17.748316">
        <ele>53.9712</ele>
        <time>2014-06-21T12:51:04Z</time>
      </trkpt>
      <trkpt lat="59.9823363" lon="17.7483661">
        <ele>54.9324</ele>
        <time>2014-06-21T12:51:05Z</time>
      </trkpt>
      <trkpt lat="59.9823766" lon="17.7484212">
        <ele>57.3358</ele>
        <time>2014-06-21T12:51:06Z</time>
      </trkpt>
      <trkpt lat="59.9824086" lon="17.7484763">
        <ele>57.3358</ele>
        <time>2014-06-21T12:51:07Z</time>
      </trkpt>
      <trkpt lat="59.9824457" lon="17.7485301">
        <ele>58.2971</ele>
        <time>2014-06-21T12:51:08Z</time>
      </trkpt>
      <trkpt lat="59.9824979" lon="17.7485838">
        <ele>61.6617</ele>
        <time>2014-06-21T12:51:09Z</time>
      </trkpt>
      <trkpt lat="59.9825435" lon="17.7486384">
        <ele>64.5457</ele>
        <time>2014-06-21T12:51:10Z</time>
      </trkpt>
      <trkpt lat="59.9825823" lon="17.7486947">
        <ele>67.4297</ele>
        <time>2014-06-21T12:51:11Z</time>
      </trkpt>
      <trkpt lat="59.9826099" lon="17.7487501">
        <ele>68.3909</ele>
        <time>2014-06-21T12:51:12Z</time>
      </trkpt>
      <trkpt lat="59.9826388" lon="17.7488022">
        <ele>69.8329</ele>
        <time>2014-06-21T12:51:13Z</time>
      </trkpt>
      <trkpt lat="59.9826668" lon="17.748855">
        <ele>69.3523</ele>
        <time>2014-06-21T12:51:14Z</time>
      </trkpt>
      <trkpt lat="59.9827082" lon="17.7489065">
        <ele>70.7942</ele>
        <time>2014-06-21T12:51:15Z</time>
      </trkpt>
      <trkpt lat="59.9827382" lon="17.7489732">
        <ele>70.7942</ele>
        <time>2014-06-21T12:51:16Z</time>
      </trkpt>
      <trkpt lat="59.9827754" lon="17.7490353">
        <ele>71.7555</ele>
        <time>2014-06-21T12:51:17Z</time>
      </trkpt>
      <trkpt lat="59.98282" lon="17.7490911">
        <ele>73.1976</ele>
        <time>2014-06-21T12:51:18Z</time>
      </trkpt>
      <trkpt lat="59.9828614" lon="17.7491538">
        <ele>74.1588</ele>
        <time>2014-06-21T12:51:19Z</time>
      </trkpt>
      <trkpt lat="59.9829035" lon="17.7492152">
        <ele>75.1202</ele>
        <time>2014-06-21T12:51:20Z</time>
      </trkpt>
      <trkpt lat="59.9829434" lon="17.7492781">
        <ele>74.6395</ele>
        <time>2014-06-21T12:51:21Z</time>
      </trkpt>
      <trkpt lat="59.9829827" lon="17.7493389">
        <ele>73.1976</ele>
        <time>2014-06-21T12:51:22Z</time>
      </trkpt>
      <trkpt lat="59.9830252" lon="17.7494019">
        <ele>72.7169</ele>
        <time>2014-06-21T12:51:23Z</time>
      </trkpt>
      <trkpt lat="59.9830627" lon="17.7494762">
        <ele>72.7169</ele>
        <time>2014-06-21T12:51:24Z</time>
      </trkpt>
      <trkpt lat="59.9830859" lon="17.7495569">
        <ele>70.7942</ele>
        <time>2014-06-21T12:51:25Z</time>
      </trkpt>
      <trkpt lat="59.9831184" lon="17.7496314">
        <ele>69.8329</ele>
        <time>2014-06-21T12:51:26Z</time>
      </trkpt>
      <trkpt lat="59.9831471" lon="17.7497088">
        <ele>67.9103</ele>
        <time>2014-06-21T12:51:27Z</time>
      </trkpt>
      <trkpt lat="59.9831858" lon="17.7497901">
        <ele>67.9103</ele>
        <time>2014-06-21T12:51:28Z</time>
      </trkpt>
      <trkpt lat="59.9832216" lon="17.7498679">
        <ele>66.949</ele>
        <time>2014-06-21T12:51:29Z</time>
      </trkpt>
      <trkpt lat="59.9832683" lon="17.7499419">
        <ele>66.949</ele>
        <time>2014-06-21T12:51:30Z</time>
      </trkpt>
      <trkpt lat="59.9833167" lon="17.750013">
        <ele>66.4683</ele>
        <time>2014-06-21T12:51:31Z</time>
      </trkpt>
      <trkpt lat="59.983368" lon="17.7500871">
        <ele>67.4297</ele>
        <time>2014-06-21T12:51:32Z</time>
      </trkpt>
      <trkpt lat="59.9834165" lon="17.7501666">
        <ele>68.3909</ele>
        <time>2014-06-21T12:51:33Z</time>
      </trkpt>
      <trkpt lat="59.983449" lon="17.7502537">
        <ele>67.4297</ele>
        <time>2014-06-21T12:51:34Z</time>
      </trkpt>
      <trkpt lat="59.9834909" lon="17.7503347">
        <ele>67.9103</ele>
        <time>2014-06-21T12:51:35Z</time>
      </trkpt>
      <trkpt lat="59.9835377" lon="17.7504128">
        <ele>68.3909</ele>
        <time>2014-06-21T12:51:36Z</time>
      </trkpt>
      <trkpt lat="59.9835744" lon="17.7504952">
        <ele>67.4297</ele>
        <time>2014-06-21T12:51:37Z</time>
      </trkpt>
      <trkpt lat="59.9836085" lon="17.7505817">
        <ele>66.4683</ele>
        <time>2014-06-21T12:51:38Z</time>
      </trkpt>
      <trkpt lat="59.9836417" lon="17.7506686">
        <ele>65.9877</ele>
        <time>2014-06-21T12:51:39Z</time>
      </trkpt>
      <trkpt lat="59.9836716" lon="17.7507475">
        <ele>65.0264</ele>
        <time>2014-06-21T12:51:40Z</time>
      </trkpt>
      <trkpt lat="59.9837059" lon="17.7508114">
        <ele>65.0264</ele>
        <time>2014-06-21T12:51:41Z</time>
      </trkpt>
      <trkpt lat="59.9837322" lon="17.7508816">
        <ele>64.5457</ele>
        <time>2014-06-21T12:51:42Z</time>
      </trkpt>
      <trkpt lat="59.9837536" lon="17.7509608">
        <ele>63.1036</ele>
        <time>2014-06-21T12:51:43Z</time>
      </trkpt>
      <trkpt lat="59.9837623" lon="17.7510571">
        <ele>60.7003</ele>
        <time>2014-06-21T12:51:44Z</time>
      </trkpt>
      <trkpt lat="59.9837966" lon="17.751121">
        <ele>60.2197</ele>
        <time>2014-06-21T12:51:45Z</time>
      </trkpt>
      <trkpt lat="59.983837" lon="17.7511737">
        <ele>59.2584</ele>
        <time>2014-06-21T12:51:46Z</time>
      </trkpt>
      <trkpt lat="59.9838834" lon="17.7512272">
        <ele>58.2971</ele>
        <time>2014-06-21T12:51:47Z</time>
      </trkpt>
      <trkpt lat="59.9839328" lon="17.7512882">
        <ele>57.8165</ele>
        <time>2014-06-21T12:51:48Z</time>
      </trkpt>
      <trkpt lat="59.9839815" lon="17.7513464">
        <ele>56.8551</ele>
        <time>2014-06-21T12:51:49Z</time>
      </trkpt>
      <trkpt lat="59.9840393" lon="17.7513934">
        <ele>57.3358</ele>
        <time>2014-06-21T12:51:50Z</time>
      </trkpt>
      <trkpt lat="59.9840963" lon="17.7514353">
        <ele>58.2971</ele>
        <time>2014-06-21T12:51:51Z</time>
      </trkpt>
      <trkpt lat="59.9841602" lon="17.7514663">
        <ele>60.2197</ele>
        <time>2014-06-21T12:51:52Z</time>
      </trkpt>
      <trkpt lat="59.9842274" lon="17.7514881">
        <ele>62.1423</ele>
        <time>2014-06-21T12:51:53Z</time>
      </trkpt>
      <trkpt lat="59.9842822" lon="17.7515121">
        <ele>62.6229</ele>
        <time>2014-06-21T12:51:54Z</time>
      </trkpt>
      <trkpt lat="59.9843351" lon="17.7515374">
        <ele>63.5844</ele>
        <time>2014-06-21T12:51:55Z</time>
      </trkpt>
      <trkpt lat="59.984377" lon="17.7515725">
        <ele>62.6229</ele>
        <time>2014-06-21T12:51:56Z</time>
      </trkpt>
      <trkpt lat="59.9844177" lon="17.7516192">
        <ele>61.181</ele>
        <time>2014-06-21T12:51:57Z</time>
      </trkpt>
      <trkpt lat="59.9844534" lon="17.7516796">
        <ele>60.2197</ele>
        <time>2014-06-21T12:51:58Z</time>
      </trkpt>
      <trkpt lat="59.984497" lon="17.7517411">
        <ele>59.7391</ele>
        <time>2014-06-21T12:51:59Z</time>
      </trkpt>
      <trkpt lat="59.9845332" lon="17.7518037">
        <ele>58.7777</ele>
        <time>2014-06-21T12:52:00Z</time>
      </trkpt>
      <trkpt lat="59.9845752" lon="17.7518575">
        <ele>58.7777</ele>
        <time>2014-06-21T12:52:01Z</time>
      </trkpt>
      <trkpt lat="59.9846135" lon="17.7519098">
        <ele>58.2971</ele>
        <time>2014-06-21T12:52:02Z</time>
      </trkpt>
      <trkpt lat="59.9846617" lon="17.7519549">
        <ele>59.2584</ele>
        <time>2014-06-21T12:52:03Z</time>
      </trkpt>
      <trkpt lat="59.9847093" lon="17.7520024">
        <ele>59.7391</ele>
        <time>2014-06-21T12:52:04Z</time>
      </trkpt>
      <trkpt lat="59.9847528" lon="17.752051">
        <ele>59.7391</ele>
        <time>2014-06-21T12:52:05Z</time>
      </trkpt>
      <trkpt lat="59.9847974" lon="17.7520948">
        <ele>59.2584</ele>
        <time>2014-06-21T12:52:06Z</time>
      </trkpt>
      <trkpt lat="59.9848475" lon="17.7521404">
        <ele>59.2584</ele>
        <time>2014-06-21T12:52:07Z</time>
      </trkpt>
      <trkpt lat="59.9848839" lon="17.7522004">
        <ele>58.7777</ele>
        <time>2014-06-21T12:52:08Z</time>
      </trkpt>
      <trkpt lat="59.9849064" lon="17.7522783">
        <ele>57.8165</ele>
        <time>2014-06-21T12:52:09Z</time>
      </trkpt>
      <trkpt lat="59.9849246" lon="17.7523544">
        <ele>55.8938</ele>
        <time>2014-06-21T12:52:10Z</time>
      </trkpt>
      <trkpt lat="59.9849564" lon="17.752423">
        <ele>55.8938</ele>
        <time>2014-06-21T12:52:11Z</time>
      </trkpt>
      <trkpt lat="59.9849783" lon="17.752505">
        <ele>54.9324</ele>
        <time>2014-06-21T12:52:12Z</time>
      </trkpt>
      <trkpt lat="59.9850069" lon="17.7525844">
        <ele>54.9324</ele>
        <time>2014-06-21T12:52:13Z</time>
      </trkpt>
      <trkpt lat="59.9850321" lon="17.7526647">
        <ele>54.9324</ele>
        <time>2014-06-21T12:52:14Z</time>
      </trkpt>
      <trkpt lat="59.9850603" lon="17.7527431">
        <ele>54.9324</ele>
        <time>2014-06-21T12:52:15Z</time>
      </trkpt>
      <trkpt lat="59.9850895" lon="17.7528205">
        <ele>54.4518</ele>
        <time>2014-06-21T12:52:16Z</time>
      </trkpt>
      <trkpt lat="59.985118" lon="17.7529007">
        <ele>53.4905</ele>
        <time>2014-06-21T12:52:17Z</time>
      </trkpt>
      <trkpt lat="59.9851451" lon="17.7529807">
        <ele>52.0486</ele>
        <time>2014-06-21T12:52:18Z</time>
      </trkpt>
      <trkpt lat="59.985172" lon="17.753063">
        <ele>51.0872</ele>
        <time>2014-06-21T12:52:19Z</time>
      </trkpt>
      <trkpt lat="59.9851984" lon="17.7531501">
        <ele>50.126</ele>
        <time>2014-06-21T12:52:20Z</time>
      </trkpt>
      <trkpt lat="59.9852214" lon="17.7532437">
        <ele>49.1646</ele>
        <time>2014-06-21T12:52:21Z</time>
      </trkpt>
      <trkpt lat="59.9852406" lon="17.7533437">
        <ele>48.684</ele>
        <time>2014-06-21T12:52:22Z</time>
      </trkpt>
      <trkpt lat="59.9852547" lon="17.7534472">
        <ele>48.2034</ele>
        <time>2014-06-21T12:52:23Z</time>
      </trkpt>
      <trkpt lat="59.9852704" lon="17.7535478">
        <ele>48.2034</ele>
        <time>2014-06-21T12:52:24Z</time>
      </trkpt>
      <trkpt lat="59.9852864" lon="17.7536447">
        <ele>48.684</ele>
        <time>2014-06-21T12:52:25Z</time>
      </trkpt>
      <trkpt lat="59.9853071" lon="17.7537344">
        <ele>48.2034</ele>
        <time>2014-06-21T12:52:26Z</time>
      </trkpt>
      <trkpt lat="59.9853345" lon="17.7538195">
        <ele>49.1646</ele>
        <time>2014-06-21T12:52:27Z</time>
      </trkpt>
      <trkpt lat="59.9853521" lon="17.7539124">
        <ele>49.1646</ele>
        <time>2014-06-21T12:52:28Z</time>
      </trkpt>
      <trkpt lat="59.9853769" lon="17.7539949">
        <ele>49.1646</ele>
        <time>2014-06-21T12:52:29Z</time>
      </trkpt>
      <trkpt lat="59.9854221" lon="17.7540581">
        <ele>50.6066</ele>
        <time>2014-06-21T12:52:30Z</time>
      </trkpt>
      <trkpt lat="59.9854698" lon="17.7541172">
        <ele>52.0486</ele>
        <time>2014-06-21T12:52:31Z</time>
      </trkpt>
      <trkpt lat="59.9855136" lon="17.7541776">
        <ele>53.0098</ele>
        <time>2014-06-21T12:52:32Z</time>
      </trkpt>
      <trkpt lat="59.98555" lon="17.7542389">
        <ele>53.4905</ele>
        <time>2014-06-21T12:52:33Z</time>
      </trkpt>
      <trkpt lat="59.9855909" lon="17.7542922">
        <ele>53.4905</ele>
        <time>2014-06-21T12:52:34Z</time>
      </trkpt>
      <trkpt lat="59.9856323" lon="17.7543445">
        <ele>53.9712</ele>
        <time>2014-06-21T12:52:35Z</time>
      </trkpt>
      <trkpt lat="59.9856784" lon="17.7543947">
        <ele>54.4518</ele>
        <time>2014-06-21T12:52:36Z</time>
      </trkpt>
      <trkpt lat="59.9857272" lon="17.7544429">
        <ele>54.9324</ele>
        <time>2014-06-21T12:52:37Z</time>
      </trkpt>
      <trkpt lat="59.9857708" lon="17.7544945">
        <ele>55.4131</ele>
        <time>2014-06-21T12:52:38Z</time>
      </trkpt>
      <trkpt lat="59.9858114" lon="17.7545558">
        <ele>55.4131</ele>
        <time>2014-06-21T12:52:39Z</time>
      </trkpt>
      <trkpt lat="59.9858501" lon="17.7546262">
        <ele>55.8938</ele>
        <time>2014-06-21T12:52:40Z</time>
      </trkpt>
      <trkpt lat="59.9858847" lon="17.7547051">
        <ele>55.8938</ele>
        <time>2014-06-21T12:52:41Z</time>
      </trkpt>
      <trkpt lat="59.9859145" lon="17.7547922">
        <ele>56.3745</ele>
        <time>2014-06-21T12:52:42Z</time>
      </trkpt>
      <trkpt lat="59.9859364" lon="17.7548843">
        <ele>56.3745</ele>
        <time>2014-06-21T12:52:43Z</time>
      </trkpt>
      <trkpt lat="59.9859551" lon="17.754978">
        <ele>56.8551</ele>
        <time>2014-06-21T12:52:44Z</time>
      </trkpt>
      <trkpt lat="59.9859779" lon="17.755069">
        <ele>57.3358</ele>
        <time>2014-06-21T12:52:45Z</time>
      </trkpt>
      <trkpt lat="59.985997" lon="17.7551664">
        <ele>57.8165</ele>
        <time>2014-06-21T12:52:46Z</time>
      </trkpt>
      <trkpt lat="59.986015" lon="17.7552653">
        <ele>57.8165</ele>
        <time>2014-06-21T12:52:47Z</time>
      </trkpt>
      <trkpt lat="59.9860354" lon="17.7553613">
        <ele>58.2971</ele>
        <time>2014-06-21T12:52:48Z</time>
      </trkpt>
      <trkpt lat="59.9860452" lon="17.755468">
        <ele>57.3358</ele>
        <time>2014-06-21T12:52:49Z</time>
      </trkpt>
      <trkpt lat="59.9860482" lon="17.7555832">
        <ele>55.8938</ele>
        <time>2014-06-21T12:52:50Z</time>
      </trkpt>
      <trkpt lat="59.9860629" lon="17.7556893">
        <ele>55.4131</ele>
        <time>2014-06-21T12:52:51Z</time>
      </trkpt>
      <trkpt lat="59.986082" lon="17.7557923">
        <ele>54.9324</ele>
        <time>2014-06-21T12:52:52Z</time>
      </trkpt>
      <trkpt lat="59.9861053" lon="17.7558918">
        <ele>54.9324</ele>
        <time>2014-06-21T12:52:53Z</time>
      </trkpt>
      <trkpt lat="59.9861284" lon="17.7559915">
        <ele>54.9324</ele>
        <time>2014-06-21T12:52:54Z</time>
      </trkpt>
      <trkpt lat="59.9861456" lon="17.7560973">
        <ele>54.9324</ele>
        <time>2014-06-21T12:52:55Z</time>
      </trkpt>
      <trkpt lat="59.9861633" lon="17.7562024">
        <ele>54.4518</ele>
        <time>2014-06-21T12:52:56Z</time>
      </trkpt>
      <trkpt lat="59.9861871" lon="17.756301">
        <ele>54.9324</ele>
        <time>2014-06-21T12:52:57Z</time>
      </trkpt>
      <trkpt lat="59.986214" lon="17.7563989">
        <ele>55.4131</ele>
        <time>2014-06-21T12:52:58Z</time>
      </trkpt>
      <trkpt lat="59.9862343" lon="17.7565065">
        <ele>55.4131</ele>
        <time>2014-06-21T12:52:59Z</time>
      </trkpt>
      <trkpt lat="59.9862556" lon="17.756616">
        <ele>55.8938</ele>
        <time>2014-06-21T12:53:00Z</time>
      </trkpt>
      <trkpt lat="59.9862816" lon="17.756722">
        <ele>55.8938</ele>
        <time>2014-06-21T12:53:01Z</time>
      </trkpt>
      <trkpt lat="59.9863087" lon="17.7568271">
        <ele>56.3745</ele>
        <time>2014-06-21T12:53:02Z</time>
      </trkpt>
      <trkpt lat="59.9863382" lon="17.7569297">
        <ele>56.3745</ele>
        <time>2014-06-21T12:53:03Z</time>
      </trkpt>
      <trkpt lat="59.9863652" lon="17.7570353">
        <ele>56.3745</ele>
        <time>2014-06-21T12:53:04Z</time>
      </trkpt>
      <trkpt lat="59.9864016" lon="17.7571324">
        <ele>56.8551</ele>
        <time>2014-06-21T12:53:05Z</time>
      </trkpt>
      <trkpt lat="59.9864395" lon="17.7572287">
        <ele>56.8551</ele>
        <time>2014-06-21T12:53:06Z</time>
      </trkpt>
      <trkpt lat="59.9864747" lon="17.7573292">
        <ele>56.8551</ele>
        <time>2014-06-21T12:53:07Z</time>
      </trkpt>
      <trkpt lat="59.9865125" lon="17.7574268">
        <ele>56.8551</ele>
        <time>2014-06-21T12:53:08Z</time>
      </trkpt>
      <trkpt lat="59.9865466" lon="17.75753">
        <ele>56.8551</ele>
        <time>2014-06-21T12:53:09Z</time>
      </trkpt>
      <trkpt lat="59.9865755" lon="17.7576407">
        <ele>56.3745</ele>
        <time>2014-06-21T12:53:10Z</time>
      </trkpt>
      <trkpt lat="59.9866105" lon="17.7577494">
        <ele>56.8551</ele>
        <time>2014-06-21T12:53:11Z</time>
      </trkpt>
      <trkpt lat="59.9866492" lon="17.7578551">
        <ele>56.8551</ele>
        <time>2014-06-21T12:53:12Z</time>
      </trkpt>
      <trkpt lat="59.9866912" lon="17.757955">
        <ele>57.3358</ele>
        <time>2014-06-21T12:53:13Z</time>
      </trkpt>
      <trkpt lat="59.9867301" lon="17.7580539">
        <ele>57.3358</ele>
        <time>2014-06-21T12:53:14Z</time>
      </trkpt>
      <trkpt lat="59.9867819" lon="17.7581368">
        <ele>57.3358</ele>
        <time>2014-06-21T12:53:15Z</time>
      </trkpt>
      <trkpt lat="59.9868334" lon="17.7582162">
        <ele>57.8165</ele>
        <time>2014-06-21T12:53:16Z</time>
      </trkpt>
      <trkpt lat="59.9868792" lon="17.7582995">
        <ele>57.3358</ele>
        <time>2014-06-21T12:53:17Z</time>
      </trkpt>
      <trkpt lat="59.9869205" lon="17.7583899">
        <ele>56.8551</ele>
        <time>2014-06-21T12:53:18Z</time>
      </trkpt>
      <trkpt lat="59.9869548" lon="17.7584913">
        <ele>56.3745</ele>
        <time>2014-06-21T12:53:19Z</time>
      </trkpt>
      <trkpt lat="59.9869844" lon="17.7586015">
        <ele>55.8938</ele>
        <time>2014-06-21T12:53:20Z</time>
      </trkpt>
      <trkpt lat="59.9870124" lon="17.7587133">
        <ele>55.8938</ele>
        <time>2014-06-21T12:53:21Z</time>
      </trkpt>
      <trkpt lat="59.9870318" lon="17.758831">
        <ele>54.9324</ele>
        <time>2014-06-21T12:53:22Z</time>
      </trkpt>
      <trkpt lat="59.9870604" lon="17.7589432">
        <ele>55.4131</ele>
        <time>2014-06-21T12:53:23Z</time>
      </trkpt>
      <trkpt lat="59.9870883" lon="17.7590564">
        <ele>55.4131</ele>
        <time>2014-06-21T12:53:24Z</time>
      </trkpt>
      <trkpt lat="59.9871156" lon="17.7591682">
        <ele>54.9324</ele>
        <time>2014-06-21T12:53:25Z</time>
      </trkpt>
      <trkpt lat="59.9871422" lon="17.7592765">
        <ele>54.4518</ele>
        <time>2014-06-21T12:53:26Z</time>
      </trkpt>
      <trkpt lat="59.9871684" lon="17.7593779">
        <ele>53.9712</ele>
        <time>2014-06-21T12:53:27Z</time>
      </trkpt>
      <trkpt lat="59.9871971" lon="17.7594711">
        <ele>53.0098</ele>
        <time>2014-06-21T12:53:28Z</time>
      </trkpt>
      <trkpt lat="59.9872295" lon="17.7595608">
        <ele>52.5292</ele>
        <time>2014-06-21T12:53:29Z</time>
      </trkpt>
      <trkpt lat="59.9872574" lon="17.7596562">
        <ele>52.0486</ele>
        <time>2014-06-21T12:53:30Z</time>
      </trkpt>
      <trkpt lat="59.9872758" lon="17.7597635">
        <ele>51.5679</ele>
        <time>2014-06-21T12:53:31Z</time>
      </trkpt>
      <trkpt lat="59.9872911" lon="17.7598751">
        <ele>51.0872</ele>
        <time>2014-06-21T12:53:32Z</time>
      </trkpt>
      <trkpt lat="59.9872973" lon="17.7599953">
        <ele>50.6066</ele>
        <time>2014-06-21T12:53:33Z</time>
      </trkpt>
      <trkpt lat="59.9873105" lon="17.7601049">
        <ele>51.0872</ele>
        <time>2014-06-21T12:53:34Z</time>
      </trkpt>
      <trkpt lat="59.9873092" lon="17.7602206">
        <ele>50.126</ele>
        <time>2014-06-21T12:53:35Z</time>
      </trkpt>
      <trkpt lat="59.9873292" lon="17.7603162">
        <ele>51.5679</ele>
        <time>2014-06-21T12:53:36Z</time>
      </trkpt>
      <trkpt lat="59.9873606" lon="17.7604648">
        <ele>53.4905</ele>
        <time>2014-06-21T12:53:37Z</time>
      </trkpt>
      <trkpt lat="59.9873681" lon="17.7605663">
        <ele>53.4905</ele>
        <time>2014-06-21T12:53:38Z</time>
      </trkpt>
      <trkpt lat="59.9873848" lon="17.7606721">
        <ele>53.4905</ele>
        <time>2014-06-21T12:53:39Z</time>
      </trkpt>
      <trkpt lat="59.9874031" lon="17.7607782">
        <ele>53.4905</ele>
        <time>2014-06-21T12:53:40Z</time>
      </trkpt>
      <trkpt lat="59.9874107" lon="17.760906">
        <ele>52.0486</ele>
        <time>2014-06-21T12:53:41Z</time>
      </trkpt>
      <trkpt lat="59.9874147" lon="17.761046">
        <ele>50.6066</ele>
        <time>2014-06-21T12:53:42Z</time>
      </trkpt>
      <trkpt lat="59.9874284" lon="17.7611739">
        <ele>50.126</ele>
        <time>2014-06-21T12:53:43Z</time>
      </trkpt>
      <trkpt lat="59.9874474" lon="17.7613003">
        <ele>50.126</ele>
        <time>2014-06-21T12:53:44Z</time>
      </trkpt>
      <trkpt lat="59.9874698" lon="17.7614215">
        <ele>50.126</ele>
        <time>2014-06-21T12:53:45Z</time>
      </trkpt>
      <trkpt lat="59.9875058" lon="17.7615282">
        <ele>50.126</ele>
        <time>2014-06-21T12:53:46Z</time>
      </trkpt>
      <trkpt lat="59.987548" lon="17.7616293">
        <ele>50.6066</ele>
        <time>2014-06-21T12:53:47Z</time>
      </trkpt>
      <trkpt lat="59.9875972" lon="17.7617221">
        <ele>51.0872</ele>
        <time>2014-06-21T12:53:48Z</time>
      </trkpt>
      <trkpt lat="59.9876583" lon="17.7617979">
        <ele>51.5679</ele>
        <time>2014-06-21T12:53:49Z</time>
      </trkpt>
      <trkpt lat="59.9877257" lon="17.7618554">
        <ele>52.0486</ele>
        <time>2014-06-21T12:53:50Z</time>
      </trkpt>
      <trkpt lat="59.9877946" lon="17.7618981">
        <ele>52.0486</ele>
        <time>2014-06-21T12:53:51Z</time>
      </trkpt>
      <trkpt lat="59.9878629" lon="17.7619313">
        <ele>51.5679</ele>
        <time>2014-06-21T12:53:52Z</time>
      </trkpt>
      <trkpt lat="59.9879311" lon="17.7619567">
        <ele>51.5679</ele>
        <time>2014-06-21T12:53:53Z</time>
      </trkpt>
      <trkpt lat="59.9879986" lon="17.7619777">
        <ele>51.0872</ele>
        <time>2014-06-21T12:53:54Z</time>
      </trkpt>
      <trkpt lat="59.988065" lon="17.7619923">
        <ele>51.0872</ele>
        <time>2014-06-21T12:53:55Z</time>
      </trkpt>
      <trkpt lat="59.9881252" lon="17.7620064">
        <ele>50.6066</ele>
        <time>2014-06-21T12:53:56Z</time>
      </trkpt>
      <trkpt lat="59.9881858" lon="17.7620172">
        <ele>50.6066</ele>
        <time>2014-06-21T12:53:57Z</time>
      </trkpt>
      <trkpt lat="59.9882442" lon="17.7620298">
        <ele>50.126</ele>
        <time>2014-06-21T12:53:58Z</time>
      </trkpt>
      <trkpt lat="59.9883022" lon="17.7620461">
        <ele>50.6066</ele>
        <time>2014-06-21T12:53:59Z</time>
      </trkpt>
      <trkpt lat="59.9883543" lon="17.7620737">
        <ele>49.6453</ele>
        <time>2014-06-21T12:54:00Z</time>
      </trkpt>
      <trkpt lat="59.9884052" lon="17.7621115">
        <ele>49.6453</ele>
        <time>2014-06-21T12:54:01Z</time>
      </trkpt>
      <trkpt lat="59.9884524" lon="17.7621564">
        <ele>49.1646</ele>
        <time>2014-06-21T12:54:02Z</time>
      </trkpt>
      <trkpt lat="59.9885053" lon="17.7622032">
        <ele>49.6453</ele>
        <time>2014-06-21T12:54:03Z</time>
      </trkpt>
      <trkpt lat="59.9885535" lon="17.7622554">
        <ele>50.126</ele>
        <time>2014-06-21T12:54:04Z</time>
      </trkpt>
      <trkpt lat="59.9886058" lon="17.7623066">
        <ele>50.126</ele>
        <time>2014-06-21T12:54:05Z</time>
      </trkpt>
      <trkpt lat="59.9886649" lon="17.7623612">
        <ele>51.0872</ele>
        <time>2014-06-21T12:54:06Z</time>
      </trkpt>
      <trkpt lat="59.9887203" lon="17.7624214">
        <ele>51.0872</ele>
        <time>2014-06-21T12:54:07Z</time>
      </trkpt>
      <trkpt lat="59.9887771" lon="17.7624735">
        <ele>51.0872</ele>
        <time>2014-06-21T12:54:08Z</time>
      </trkpt>
      <trkpt lat="59.9888389" lon="17.7625156">
        <ele>51.5679</ele>
        <time>2014-06-21T12:54:09Z</time>
      </trkpt>
      <trkpt lat="59.9889073" lon="17.7625478">
        <ele>52.0486</ele>
        <time>2014-06-21T12:54:10Z</time>
      </trkpt>
      <trkpt lat="59.9889761" lon="17.7625689">
        <ele>52.0486</ele>
        <time>2014-06-21T12:54:11Z</time>
      </trkpt>
      <trkpt lat="59.9890434" lon="17.7625777">
        <ele>51.5679</ele>
        <time>2014-06-21T12:54:12Z</time>
      </trkpt>
      <trkpt lat="59.9891139" lon="17.7625724">
        <ele>52.0486</ele>
        <time>2014-06-21T12:54:13Z</time>
      </trkpt>
      <trkpt lat="59.9891823" lon="17.7625581">
        <ele>52.5292</ele>
        <time>2014-06-21T12:54:14Z</time>
      </trkpt>
      <trkpt lat="59.9892495" lon="17.7625414">
        <ele>52.0486</ele>
        <time>2014-06-21T12:54:15Z</time>
      </trkpt>
      <trkpt lat="59.9893164" lon="17.7625233">
        <ele>52.0486</ele>
        <time>2014-06-21T12:54:16Z</time>
      </trkpt>
      <trkpt lat="59.9893808" lon="17.7625068">
        <ele>52.5292</ele>
        <time>2014-06-21T12:54:17Z</time>
      </trkpt>
      <trkpt lat="59.9894414" lon="17.7624984">
        <ele>52.5292</ele>
        <time>2014-06-21T12:54:18Z</time>
      </trkpt>
      <trkpt lat="59.9894999" lon="17.7624964">
        <ele>53.0098</ele>
        <time>2014-06-21T12:54:19Z</time>
      </trkpt>
      <trkpt lat="59.9895537" lon="17.7625024">
        <ele>53.4905</ele>
        <time>2014-06-21T12:54:20Z</time>
      </trkpt>
      <trkpt lat="59.9896025" lon="17.7625152">
        <ele>53.9712</ele>
        <time>2014-06-21T12:54:21Z</time>
      </trkpt>
      <trkpt lat="59.9896466" lon="17.762532">
        <ele>53.9712</ele>
        <time>2014-06-21T12:54:22Z</time>
      </trkpt>
      <trkpt lat="59.9896883" lon="17.7625523">
        <ele>54.4518</ele>
        <time>2014-06-21T12:54:23Z</time>
      </trkpt>
      <trkpt lat="59.9897276" lon="17.7625763">
        <ele>54.4518</ele>
        <time>2014-06-21T12:54:24Z</time>
      </trkpt>
      <trkpt lat="59.989765" lon="17.7626029">
        <ele>54.4518</ele>
        <time>2014-06-21T12:54:25Z</time>
      </trkpt>
      <trkpt lat="59.9898016" lon="17.762632">
        <ele>54.4518</ele>
        <time>2014-06-21T12:54:26Z</time>
      </trkpt>
      <trkpt lat="59.9898386" lon="17.762662">
        <ele>54.4518</ele>
        <time>2014-06-21T12:54:27Z</time>
      </trkpt>
      <trkpt lat="59.989877" lon="17.7626915">
        <ele>53.9712</ele>
        <time>2014-06-21T12:54:28Z</time>
      </trkpt>
      <trkpt lat="59.9899168" lon="17.7627291">
        <ele>53.9712</ele>
        <time>2014-06-21T12:54:29Z</time>
      </trkpt>
      <trkpt lat="59.9899588" lon="17.7627674">
        <ele>53.4905</ele>
        <time>2014-06-21T12:54:30Z</time>
      </trkpt>
      <trkpt lat="59.9900048" lon="17.7627972">
        <ele>53.4905</ele>
        <time>2014-06-21T12:54:31Z</time>
      </trkpt>
      <trkpt lat="59.9900513" lon="17.7628264">
        <ele>53.4905</ele>
        <time>2014-06-21T12:54:32Z</time>
      </trkpt>
      <trkpt lat="59.9900987" lon="17.762859">
        <ele>53.0098</ele>
        <time>2014-06-21T12:54:33Z</time>
      </trkpt>
      <trkpt lat="59.9901468" lon="17.7628949">
        <ele>53.0098</ele>
        <time>2014-06-21T12:54:34Z</time>
      </trkpt>
      <trkpt lat="59.9901956" lon="17.762937">
        <ele>52.5292</ele>
        <time>2014-06-21T12:54:35Z</time>
      </trkpt>
      <trkpt lat="59.9902454" lon="17.7629859">
        <ele>52.5292</ele>
        <time>2014-06-21T12:54:36Z</time>
      </trkpt>
      <trkpt lat="59.9902966" lon="17.7630398">
        <ele>52.0486</ele>
        <time>2014-06-21T12:54:37Z</time>
      </trkpt>
      <trkpt lat="59.9903488" lon="17.7630971">
        <ele>51.5679</ele>
        <time>2014-06-21T12:54:38Z</time>
      </trkpt>
      <trkpt lat="59.9904006" lon="17.7631582">
        <ele>51.5679</ele>
        <time>2014-06-21T12:54:39Z</time>
      </trkpt>
      <trkpt lat="59.9904524" lon="17.7632216">
        <ele>51.0872</ele>
        <time>2014-06-21T12:54:40Z</time>
      </trkpt>
      <trkpt lat="59.9905053" lon="17.7632886">
        <ele>50.6066</ele>
        <time>2014-06-21T12:54:41Z</time>
      </trkpt>
      <trkpt lat="59.9905598" lon="17.7633571">
        <ele>50.6066</ele>
        <time>2014-06-21T12:54:42Z</time>
      </trkpt>
      <trkpt lat="59.9906136" lon="17.7634255">
        <ele>50.126</ele>
        <time>2014-06-21T12:54:43Z</time>
      </trkpt>
      <trkpt lat="59.9906669" lon="17.7634927">
        <ele>50.126</ele>
        <time>2014-06-21T12:54:44Z</time>
      </trkpt>
      <trkpt lat="59.9907196" lon="17.7635563">
        <ele>49.6453</ele>
        <time>2014-06-21T12:54:45Z</time>
      </trkpt>
      <trkpt lat="59.9907721" lon="17.763619">
        <ele>49.6453</ele>
        <time>2014-06-21T12:54:46Z</time>
      </trkpt>
      <trkpt lat="59.990824" lon="17.7636821">
        <ele>49.6453</ele>
        <time>2014-06-21T12:54:47Z</time>
      </trkpt>
      <trkpt lat="59.9908762" lon="17.7637447">
        <ele>49.6453</ele>
        <time>2014-06-21T12:54:48Z</time>
      </trkpt>
      <trkpt lat="59.9909275" lon="17.7638203">
        <ele>50.126</ele>
        <time>2014-06-21T12:54:49Z</time>
      </trkpt>
      <trkpt lat="59.9909786" lon="17.7638946">
        <ele>50.126</ele>
        <time>2014-06-21T12:54:50Z</time>
      </trkpt>
      <trkpt lat="59.9910267" lon="17.7639615">
        <ele>49.6453</ele>
        <time>2014-06-21T12:54:51Z</time>
      </trkpt>
      <trkpt lat="59.9910706" lon="17.7640331">
        <ele>48.684</ele>
        <time>2014-06-21T12:54:52Z</time>
      </trkpt>
      <trkpt lat="59.9911145" lon="17.7640996">
        <ele>49.1646</ele>
        <time>2014-06-21T12:54:53Z</time>
      </trkpt>
      <trkpt lat="59.9911512" lon="17.7641727">
        <ele>48.684</ele>
        <time>2014-06-21T12:54:54Z</time>
      </trkpt>
      <trkpt lat="59.9911892" lon="17.7642504">
        <ele>48.684</ele>
        <time>2014-06-21T12:54:55Z</time>
      </trkpt>
      <trkpt lat="59.9912248" lon="17.764337">
        <ele>48.2034</ele>
        <time>2014-06-21T12:54:56Z</time>
      </trkpt>
      <trkpt lat="59.991258" lon="17.7644334">
        <ele>48.2034</ele>
        <time>2014-06-21T12:54:57Z</time>
      </trkpt>
      <trkpt lat="59.991289" lon="17.7645364">
        <ele>47.7225</ele>
        <time>2014-06-21T12:54:58Z</time>
      </trkpt>
      <trkpt lat="59.9913175" lon="17.7646415">
        <ele>47.7225</ele>
        <time>2014-06-21T12:54:59Z</time>
      </trkpt>
      <trkpt lat="59.9913434" lon="17.764744">
        <ele>47.2418</ele>
        <time>2014-06-21T12:55:00Z</time>
      </trkpt>
      <trkpt lat="59.9913662" lon="17.764841">
        <ele>47.2418</ele>
        <time>2014-06-21T12:55:01Z</time>
      </trkpt>
      <trkpt lat="59.9913915" lon="17.7649265">
        <ele>46.7612</ele>
        <time>2014-06-21T12:55:02Z</time>
      </trkpt>
      <trkpt lat="59.9914246" lon="17.7649949">
        <ele>46.7612</ele>
        <time>2014-06-21T12:55:03Z</time>
      </trkpt>
      <trkpt lat="59.9914652" lon="17.765043">
        <ele>46.2806</ele>
        <time>2014-06-21T12:55:04Z</time>
      </trkpt>
      <trkpt lat="59.9915106" lon="17.7650599">
        <ele>46.2806</ele>
        <time>2014-06-21T12:55:05Z</time>
      </trkpt>
      <trkpt lat="59.9915544" lon="17.7650435">
        <ele>46.7612</ele>
        <time>2014-06-21T12:55:06Z</time>
      </trkpt>
      <trkpt lat="59.9915936" lon="17.7650092">
        <ele>46.7612</ele>
        <time>2014-06-21T12:55:07Z</time>
      </trkpt>
      <trkpt lat="59.9916307" lon="17.7649653">
        <ele>46.7612</ele>
        <time>2014-06-21T12:55:08Z</time>
      </trkpt>
      <trkpt lat="59.9916636" lon="17.7649092">
        <ele>46.7612</ele>
        <time>2014-06-21T12:55:09Z</time>
      </trkpt>
      <trkpt lat="59.9916967" lon="17.7648471">
        <ele>46.2806</ele>
        <time>2014-06-21T12:55:10Z</time>
      </trkpt>
      <trkpt lat="59.9917302" lon="17.7647851">
        <ele>45.7999</ele>
        <time>2014-06-21T12:55:11Z</time>
      </trkpt>
      <trkpt lat="59.9917654" lon="17.7647201">
        <ele>45.7999</ele>
        <time>2014-06-21T12:55:12Z</time>
      </trkpt>
      <trkpt lat="59.9918028" lon="17.7646539">
        <ele>45.7999</ele>
        <time>2014-06-21T12:55:13Z</time>
      </trkpt>
      <trkpt lat="59.9918408" lon="17.7645864">
        <ele>45.7999</ele>
        <time>2014-06-21T12:55:14Z</time>
      </trkpt>
      <trkpt lat="59.9918795" lon="17.7645183">
        <ele>45.7999</ele>
        <time>2014-06-21T12:55:15Z</time>
      </trkpt>
      <trkpt lat="59.9919174" lon="17.7644507">
        <ele>45.7999</ele>
        <time>2014-06-21T12:55:16Z</time>
      </trkpt>
      <trkpt lat="59.9919547" lon="17.7643852">
        <ele>45.7999</ele>
        <time>2014-06-21T12:55:17Z</time>
      </trkpt>
      <trkpt lat="59.9919913" lon="17.7643232">
        <ele>45.7999</ele>
        <time>2014-06-21T12:55:18Z</time>
      </trkpt>
      <trkpt lat="59.9920268" lon="17.7642631">
        <ele>45.7999</ele>
        <time>2014-06-21T12:55:19Z</time>
      </trkpt>
      <trkpt lat="59.992061" lon="17.7642026">
        <ele>46.2806</ele>
        <time>2014-06-21T12:55:20Z</time>
      </trkpt>
      <trkpt lat="59.9920949" lon="17.7641426">
        <ele>46.2806</ele>
        <time>2014-06-21T12:55:21Z</time>
      </trkpt>
      <trkpt lat="59.9921302" lon="17.7640821">
        <ele>45.7999</ele>
        <time>2014-06-21T12:55:22Z</time>
      </trkpt>
      <trkpt lat="59.9921662" lon="17.7640198">
        <ele>45.7999</ele>
        <time>2014-06-21T12:55:23Z</time>
      </trkpt>
      <trkpt lat="59.9922039" lon="17.7639546">
        <ele>45.7999</ele>
        <time>2014-06-21T12:55:24Z</time>
      </trkpt>
      <trkpt lat="59.9922432" lon="17.7638857">
        <ele>45.3192</ele>
        <time>2014-06-21T12:55:25Z</time>
      </trkpt>
      <trkpt lat="59.9922839" lon="17.7638111">
        <ele>45.3192</ele>
        <time>2014-06-21T12:55:26Z</time>
      </trkpt>
      <trkpt lat="59.9923254" lon="17.7637328">
        <ele>45.3192</ele>
        <time>2014-06-21T12:55:27Z</time>
      </trkpt>
      <trkpt lat="59.9923675" lon="17.7636526">
        <ele>45.3192</ele>
        <time>2014-06-21T12:55:28Z</time>
      </trkpt>
      <trkpt lat="59.9924084" lon="17.7635706">
        <ele>44.8386</ele>
        <time>2014-06-21T12:55:29Z</time>
      </trkpt>
      <trkpt lat="59.9924477" lon="17.7634844">
        <ele>44.8386</ele>
        <time>2014-06-21T12:55:30Z</time>
      </trkpt>
      <trkpt lat="59.9924844" lon="17.7633956">
        <ele>44.8386</ele>
        <time>2014-06-21T12:55:31Z</time>
      </trkpt>
      <trkpt lat="59.9925184" lon="17.763304">
        <ele>44.8386</ele>
        <time>2014-06-21T12:55:32Z</time>
      </trkpt>
      <trkpt lat="59.9925489" lon="17.7632088">
        <ele>44.8386</ele>
        <time>2014-06-21T12:55:33Z</time>
      </trkpt>
      <trkpt lat="59.9925753" lon="17.7631081">
        <ele>44.8386</ele>
        <time>2014-06-21T12:55:34Z</time>
      </trkpt>
      <trkpt lat="59.9925974" lon="17.7630035">
        <ele>44.8386</ele>
        <time>2014-06-21T12:55:35Z</time>
      </trkpt>
      <trkpt lat="59.9926166" lon="17.7628954">
        <ele>44.8386</ele>
        <time>2014-06-21T12:55:36Z</time>
      </trkpt>
      <trkpt lat="59.992632" lon="17.7627906">
        <ele>44.8386</ele>
        <time>2014-06-21T12:55:37Z</time>
      </trkpt>
      <trkpt lat="59.9926441" lon="17.7626927">
        <ele>44.8386</ele>
        <time>2014-06-21T12:55:38Z</time>
      </trkpt>
      <trkpt lat="59.9926561" lon="17.7625905">
        <ele>44.8386</ele>
        <time>2014-06-21T12:55:39Z</time>
      </trkpt>
      <trkpt lat="59.9926665" lon="17.7624872">
        <ele>45.3192</ele>
        <time>2014-06-21T12:55:40Z</time>
      </trkpt>
      <trkpt lat="59.9926737" lon="17.7623901">
        <ele>45.7999</ele>
        <time>2014-06-21T12:55:41Z</time>
      </trkpt>
      <trkpt lat="59.9926834" lon="17.7622913">
        <ele>46.2806</ele>
        <time>2014-06-21T12:55:42Z</time>
      </trkpt>
      <trkpt lat="59.9926924" lon="17.7621934">
        <ele>46.7612</ele>
        <time>2014-06-21T12:55:43Z</time>
      </trkpt>
      <trkpt lat="59.9927012" lon="17.762094">
        <ele>47.2418</ele>
        <time>2014-06-21T12:55:44Z</time>
      </trkpt>
      <trkpt lat="59.9927084" lon="17.7619965">
        <ele>47.2418</ele>
        <time>2014-06-21T12:55:45Z</time>
      </trkpt>
      <trkpt lat="59.9927161" lon="17.7618971">
        <ele>47.7225</ele>
        <time>2014-06-21T12:55:46Z</time>
      </trkpt>
      <trkpt lat="59.9927239" lon="17.7618008">
        <ele>47.7225</ele>
        <time>2014-06-21T12:55:47Z</time>
      </trkpt>
      <trkpt lat="59.9927337" lon="17.7617009">
        <ele>47.7225</ele>
        <time>2014-06-21T12:55:48Z</time>
      </trkpt>
      <trkpt lat="59.9927443" lon="17.761604">
        <ele>48.2034</ele>
        <time>2014-06-21T12:55:49Z</time>
      </trkpt>
      <trkpt lat="59.9927567" lon="17.7614964">
        <ele>49.1646</ele>
        <time>2014-06-21T12:55:50Z</time>
      </trkpt>
      <trkpt lat="59.99277" lon="17.7613915">
        <ele>51.0872</ele>
        <time>2014-06-21T12:55:51Z</time>
      </trkpt>
      <trkpt lat="59.9927805" lon="17.7613029">
        <ele>52.0486</ele>
        <time>2014-06-21T12:55:52Z</time>
      </trkpt>
      <trkpt lat="59.9927873" lon="17.7612107">
        <ele>53.0098</ele>
        <time>2014-06-21T12:55:53Z</time>
      </trkpt>
      <trkpt lat="59.9927958" lon="17.7611159">
        <ele>53.9712</ele>
        <time>2014-06-21T12:55:54Z</time>
      </trkpt>
      <trkpt lat="59.9928045" lon="17.7610227">
        <ele>54.9324</ele>
        <time>2014-06-21T12:55:55Z</time>
      </trkpt>
      <trkpt lat="59.9928114" lon="17.7609381">
        <ele>54.9324</ele>
        <time>2014-06-21T12:55:56Z</time>
      </trkpt>
      <trkpt lat="59.9928191" lon="17.7608441">
        <ele>55.4131</ele>
        <time>2014-06-21T12:55:57Z</time>
      </trkpt>
      <trkpt lat="59.9928284" lon="17.7607458">
        <ele>55.4131</ele>
        <time>2014-06-21T12:55:58Z</time>
      </trkpt>
      <trkpt lat="59.9928343" lon="17.7606445">
        <ele>55.8938</ele>
        <time>2014-06-21T12:55:59Z</time>
      </trkpt>
      <trkpt lat="59.9928419" lon="17.7605459">
        <ele>55.8938</ele>
        <time>2014-06-21T12:56:00Z</time>
      </trkpt>
      <trkpt lat="59.9928503" lon="17.7604456">
        <ele>55.8938</ele>
        <time>2014-06-21T12:56:01Z</time>
      </trkpt>
      <trkpt lat="59.9928544" lon="17.7603392">
        <ele>56.3745</ele>
        <time>2014-06-21T12:56:02Z</time>
      </trkpt>
      <trkpt lat="59.9928584" lon="17.7602397">
        <ele>56.3745</ele>
        <time>2014-06-21T12:56:03Z</time>
      </trkpt>
      <trkpt lat="59.9928648" lon="17.7601344">
        <ele>56.8551</ele>
        <time>2014-06-21T12:56:04Z</time>
      </trkpt>
      <trkpt lat="59.9928683" lon="17.7600307">
        <ele>57.3358</ele>
        <time>2014-06-21T12:56:05Z</time>
      </trkpt>
      <trkpt lat="59.992869" lon="17.7599219">
        <ele>58.2971</ele>
        <time>2014-06-21T12:56:06Z</time>
      </trkpt>
      <trkpt lat="59.9928674" lon="17.7598083">
        <ele>59.2584</ele>
        <time>2014-06-21T12:56:07Z</time>
      </trkpt>
      <trkpt lat="59.9928601" lon="17.7597023">
        <ele>59.7391</ele>
        <time>2014-06-21T12:56:08Z</time>
      </trkpt>
      <trkpt lat="59.9928489" lon="17.7595951">
        <ele>60.2197</ele>
        <time>2014-06-21T12:56:09Z</time>
      </trkpt>
      <trkpt lat="59.9928328" lon="17.7594977">
        <ele>60.2197</ele>
        <time>2014-06-21T12:56:10Z</time>
      </trkpt>
      <trkpt lat="59.9928156" lon="17.7593995">
        <ele>59.7391</ele>
        <time>2014-06-21T12:56:11Z</time>
      </trkpt>
      <trkpt lat="59.9928001" lon="17.7592967">
        <ele>60.7003</ele>
        <time>2014-06-21T12:56:12Z</time>
      </trkpt>
      <trkpt lat="59.9927835" lon="17.7591963">
        <ele>60.7003</ele>
        <time>2014-06-21T12:56:13Z</time>
      </trkpt>
      <trkpt lat="59.9927649" lon="17.759101">
        <ele>60.7003</ele>
        <time>2014-06-21T12:56:14Z</time>
      </trkpt>
      <trkpt lat="59.9927452" lon="17.7590084">
        <ele>60.2197</ele>
        <time>2014-06-21T12:56:15Z</time>
      </trkpt>
      <trkpt lat="59.9927259" lon="17.7589144">
        <ele>59.7391</ele>
        <time>2014-06-21T12:56:16Z</time>
      </trkpt>
      <trkpt lat="59.9927087" lon="17.7588196">
        <ele>60.7003</ele>
        <time>2014-06-21T12:56:17Z</time>
      </trkpt>
      <trkpt lat="59.9926883" lon="17.7587254">
        <ele>60.7003</ele>
        <time>2014-06-21T12:56:18Z</time>
      </trkpt>
      <trkpt lat="59.9926772" lon="17.7586186">
        <ele>61.181</ele>
        <time>2014-06-21T12:56:19Z</time>
      </trkpt>
      <trkpt lat="59.9926593" lon="17.7585194">
        <ele>61.6617</ele>
        <time>2014-06-21T12:56:20Z</time>
      </trkpt>
      <trkpt lat="59.9926427" lon="17.7584246">
        <ele>62.1423</ele>
        <time>2014-06-21T12:56:21Z</time>
      </trkpt>
      <trkpt lat="59.9926258" lon="17.7583311">
        <ele>62.6229</ele>
        <time>2014-06-21T12:56:22Z</time>
      </trkpt>
      <trkpt lat="59.9926082" lon="17.7582363">
        <ele>62.6229</ele>
        <time>2014-06-21T12:56:23Z</time>
      </trkpt>
      <trkpt lat="59.9925909" lon="17.7581404">
        <ele>63.1036</ele>
        <time>2014-06-21T12:56:24Z</time>
      </trkpt>
      <trkpt lat="59.9925722" lon="17.7580453">
        <ele>62.6229</ele>
        <time>2014-06-21T12:56:25Z</time>
      </trkpt>
      <trkpt lat="59.9925544" lon="17.7579497">
        <ele>63.1036</ele>
        <time>2014-06-21T12:56:26Z</time>
      </trkpt>
      <trkpt lat="59.9925371" lon="17.7578556">
        <ele>63.1036</ele>
        <time>2014-06-21T12:56:27Z</time>
      </trkpt>
      <trkpt lat="59.9925189" lon="17.7577624">
        <ele>62.6229</ele>
        <time>2014-06-21T12:56:28Z</time>
      </trkpt>
      <trkpt lat="59.9925002" lon="17.7576687">
        <ele>62.1423</ele>
        <time>2014-06-21T12:56:29Z</time>
      </trkpt>
      <trkpt lat="59.9924826" lon="17.7575712">
        <ele>62.1423</ele>
        <time>2014-06-21T12:56:30Z</time>
      </trkpt>
      <trkpt lat="59.9924649" lon="17.7574738">
        <ele>62.1423</ele>
        <time>2014-06-21T12:56:31Z</time>
      </trkpt>
      <trkpt lat="59.9924467" lon="17.7573779">
        <ele>62.1423</ele>
        <time>2014-06-21T12:56:32Z</time>
      </trkpt>
      <trkpt lat="59.9924291" lon="17.7572852">
        <ele>62.1423</ele>
        <time>2014-06-21T12:56:33Z</time>
      </trkpt>
      <trkpt lat="59.9924116" lon="17.7571952">
        <ele>62.1423</ele>
        <time>2014-06-21T12:56:34Z</time>
      </trkpt>
      <trkpt lat="59.9923935" lon="17.7571076">
        <ele>62.1423</ele>
        <time>2014-06-21T12:56:35Z</time>
      </trkpt>
      <trkpt lat="59.9923753" lon="17.7570203">
        <ele>62.1423</ele>
        <time>2014-06-21T12:56:36Z</time>
      </trkpt>
      <trkpt lat="59.9923565" lon="17.7569354">
        <ele>62.1423</ele>
        <time>2014-06-21T12:56:37Z</time>
      </trkpt>
      <trkpt lat="59.9923387" lon="17.7568527">
        <ele>62.6229</ele>
        <time>2014-06-21T12:56:38Z</time>
      </trkpt>
      <trkpt lat="59.9923231" lon="17.7567698">
        <ele>63.1036</ele>
        <time>2014-06-21T12:56:39Z</time>
      </trkpt>
      <trkpt lat="59.9923069" lon="17.7566884">
        <ele>63.5844</ele>
        <time>2014-06-21T12:56:40Z</time>
      </trkpt>
      <trkpt lat="59.9922887" lon="17.7566092">
        <ele>63.5844</ele>
        <time>2014-06-21T12:56:41Z</time>
      </trkpt>
      <trkpt lat="59.9922702" lon="17.7565305">
        <ele>63.1036</ele>
        <time>2014-06-21T12:56:42Z</time>
      </trkpt>
      <trkpt lat="59.9922537" lon="17.7564493">
        <ele>63.1036</ele>
        <time>2014-06-21T12:56:43Z</time>
      </trkpt>
      <trkpt lat="59.9922392" lon="17.7563637">
        <ele>63.5844</ele>
        <time>2014-06-21T12:56:44Z</time>
      </trkpt>
      <trkpt lat="59.9922208" lon="17.7562772">
        <ele>63.5844</ele>
        <time>2014-06-21T12:56:45Z</time>
      </trkpt>
      <trkpt lat="59.9922044" lon="17.7561842">
        <ele>63.5844</ele>
        <time>2014-06-21T12:56:46Z</time>
      </trkpt>
      <trkpt lat="59.9921883" lon="17.7560896">
        <ele>64.0651</ele>
        <time>2014-06-21T12:56:47Z</time>
      </trkpt>
      <trkpt lat="59.9921702" lon="17.7559957">
        <ele>64.5457</ele>
        <time>2014-06-21T12:56:48Z</time>
      </trkpt>
      <trkpt lat="59.9921517" lon="17.7559">
        <ele>65.0264</ele>
        <time>2014-06-21T12:56:49Z</time>
      </trkpt>
      <trkpt lat="59.9921335" lon="17.7558053">
        <ele>65.5071</ele>
        <time>2014-06-21T12:56:50Z</time>
      </trkpt>
      <trkpt lat="59.9921137" lon="17.7557119">
        <ele>65.9877</ele>
        <time>2014-06-21T12:56:51Z</time>
      </trkpt>
      <trkpt lat="59.9920941" lon="17.7556175">
        <ele>66.4683</ele>
        <time>2014-06-21T12:56:52Z</time>
      </trkpt>
      <trkpt lat="59.9920744" lon="17.755524">
        <ele>66.949</ele>
        <time>2014-06-21T12:56:53Z</time>
      </trkpt>
      <trkpt lat="59.9920557" lon="17.7554283">
        <ele>66.949</ele>
        <time>2014-06-21T12:56:54Z</time>
      </trkpt>
      <trkpt lat="59.9920392" lon="17.7553293">
        <ele>67.9103</ele>
        <time>2014-06-21T12:56:55Z</time>
      </trkpt>
      <trkpt lat="59.9920209" lon="17.7552324">
        <ele>68.3909</ele>
        <time>2014-06-21T12:56:56Z</time>
      </trkpt>
      <trkpt lat="59.9920047" lon="17.755137">
        <ele>69.3523</ele>
        <time>2014-06-21T12:56:57Z</time>
      </trkpt>
      <trkpt lat="59.9919849" lon="17.755051">
        <ele>69.3523</ele>
        <time>2014-06-21T12:56:58Z</time>
      </trkpt>
      <trkpt lat="59.9919703" lon="17.7549646">
        <ele>70.3135</ele>
        <time>2014-06-21T12:56:59Z</time>
      </trkpt>
      <trkpt lat="59.9919552" lon="17.7548805">
        <ele>70.7942</ele>
        <time>2014-06-21T12:57:00Z</time>
      </trkpt>
      <trkpt lat="59.99194" lon="17.7547978">
        <ele>71.2749</ele>
        <time>2014-06-21T12:57:01Z</time>
      </trkpt>
      <trkpt lat="59.9919215" lon="17.7547191">
        <ele>70.7942</ele>
        <time>2014-06-21T12:57:02Z</time>
      </trkpt>
      <trkpt lat="59.9919022" lon="17.7546425">
        <ele>70.7942</ele>
        <time>2014-06-21T12:57:03Z</time>
      </trkpt>
      <trkpt lat="59.9918859" lon="17.7545657">
        <ele>70.7942</ele>
        <time>2014-06-21T12:57:04Z</time>
      </trkpt>
      <trkpt lat="59.9918713" lon="17.7544873">
        <ele>71.2749</ele>
        <time>2014-06-21T12:57:05Z</time>
      </trkpt>
      <trkpt lat="59.9918589" lon="17.7544056">
        <ele>71.7555</ele>
        <time>2014-06-21T12:57:06Z</time>
      </trkpt>
      <trkpt lat="59.9918439" lon="17.7543256">
        <ele>71.7555</ele>
        <time>2014-06-21T12:57:07Z</time>
      </trkpt>
      <trkpt lat="59.9918274" lon="17.7542466">
        <ele>72.2362</ele>
        <time>2014-06-21T12:57:08Z</time>
      </trkpt>
      <trkpt lat="59.9918117" lon="17.7541662">
        <ele>72.2362</ele>
        <time>2014-06-21T12:57:09Z</time>
      </trkpt>
      <trkpt lat="59.9917967" lon="17.7540829">
        <ele>72.7169</ele>
        <time>2014-06-21T12:57:10Z</time>
      </trkpt>
      <trkpt lat="59.9917817" lon="17.7539994">
        <ele>72.7169</ele>
        <time>2014-06-21T12:57:11Z</time>
      </trkpt>
      <trkpt lat="59.9917654" lon="17.7539162">
        <ele>72.7169</ele>
        <time>2014-06-21T12:57:12Z</time>
      </trkpt>
      <trkpt lat="59.9917473" lon="17.7538323">
        <ele>72.2362</ele>
        <time>2014-06-21T12:57:13Z</time>
      </trkpt>
      <trkpt lat="59.9917268" lon="17.7537503">
        <ele>72.2362</ele>
        <time>2014-06-21T12:57:14Z</time>
      </trkpt>
      <trkpt lat="59.9917108" lon="17.7536633">
        <ele>72.2362</ele>
        <time>2014-06-21T12:57:15Z</time>
      </trkpt>
      <trkpt lat="59.991695" lon="17.753575">
        <ele>72.2362</ele>
        <time>2014-06-21T12:57:16Z</time>
      </trkpt>
      <trkpt lat="59.9916784" lon="17.7534861">
        <ele>72.7169</ele>
        <time>2014-06-21T12:57:17Z</time>
      </trkpt>
      <trkpt lat="59.9916583" lon="17.7534002">
        <ele>73.1976</ele>
        <time>2014-06-21T12:57:18Z</time>
      </trkpt>
      <trkpt lat="59.9916387" lon="17.7533147">
        <ele>72.7169</ele>
        <time>2014-06-21T12:57:19Z</time>
      </trkpt>
      <trkpt lat="59.9916232" lon="17.7532276">
        <ele>73.6782</ele>
        <time>2014-06-21T12:57:20Z</time>
      </trkpt>
      <trkpt lat="59.9916057" lon="17.7531443">
        <ele>73.6782</ele>
        <time>2014-06-21T12:57:21Z</time>
      </trkpt>
      <trkpt lat="59.9915891" lon="17.7530629">
        <ele>73.6782</ele>
        <time>2014-06-21T12:57:22Z</time>
      </trkpt>
      <trkpt lat="59.9915722" lon="17.7529846">
        <ele>74.1588</ele>
        <time>2014-06-21T12:57:23Z</time>
      </trkpt>
      <trkpt lat="59.9915565" lon="17.7529074">
        <ele>74.1588</ele>
        <time>2014-06-21T12:57:24Z</time>
      </trkpt>
      <trkpt lat="59.9915409" lon="17.7528309">
        <ele>74.1588</ele>
        <time>2014-06-21T12:57:25Z</time>
      </trkpt>
      <trkpt lat="59.9915248" lon="17.7527568">
        <ele>74.6395</ele>
        <time>2014-06-21T12:57:26Z</time>
      </trkpt>
      <trkpt lat="59.9915067" lon="17.7526822">
        <ele>74.6395</ele>
        <time>2014-06-21T12:57:27Z</time>
      </trkpt>
      <trkpt lat="59.9914875" lon="17.7526076">
        <ele>74.1588</ele>
        <time>2014-06-21T12:57:28Z</time>
      </trkpt>
      <trkpt lat="59.9914698" lon="17.7525319">
        <ele>73.6782</ele>
        <time>2014-06-21T12:57:29Z</time>
      </trkpt>
      <trkpt lat="59.9914552" lon="17.7524506">
        <ele>73.6782</ele>
        <time>2014-06-21T12:57:30Z</time>
      </trkpt>
      <trkpt lat="59.9914404" lon="17.7523645">
        <ele>74.1588</ele>
        <time>2014-06-21T12:57:31Z</time>
      </trkpt>
      <trkpt lat="59.9914244" lon="17.7522792">
        <ele>74.6395</ele>
        <time>2014-06-21T12:57:32Z</time>
      </trkpt>
      <trkpt lat="59.991408" lon="17.7521954">
        <ele>74.6395</ele>
        <time>2014-06-21T12:57:33Z</time>
      </trkpt>
      <trkpt lat="59.9913917" lon="17.7521127">
        <ele>74.6395</ele>
        <time>2014-06-21T12:57:34Z</time>
      </trkpt>
      <trkpt lat="59.9913749" lon="17.7520308">
        <ele>74.6395</ele>
        <time>2014-06-21T12:57:35Z</time>
      </trkpt>
      <trkpt lat="59.991358" lon="17.7519485">
        <ele>75.1202</ele>
        <time>2014-06-21T12:57:36Z</time>
      </trkpt>
      <trkpt lat="59.9913404" lon="17.7518652">
        <ele>75.1202</ele>
        <time>2014-06-21T12:57:37Z</time>
      </trkpt>
      <trkpt lat="59.9913221" lon="17.7517817">
        <ele>75.1202</ele>
        <time>2014-06-21T12:57:38Z</time>
      </trkpt>
      <trkpt lat="59.9913045" lon="17.7516969">
        <ele>75.1202</ele>
        <time>2014-06-21T12:57:39Z</time>
      </trkpt>
      <trkpt lat="59.9912868" lon="17.7516124">
        <ele>75.1202</ele>
        <time>2014-06-21T12:57:40Z</time>
      </trkpt>
      <trkpt lat="59.991271" lon="17.7515265">
        <ele>75.1202</ele>
        <time>2014-06-21T12:57:41Z</time>
      </trkpt>
      <trkpt lat="59.9912573" lon="17.751439">
        <ele>75.1202</ele>
        <time>2014-06-21T12:57:42Z</time>
      </trkpt>
      <trkpt lat="59.9912451" lon="17.7513487">
        <ele>74.6395</ele>
        <time>2014-06-21T12:57:43Z</time>
      </trkpt>
      <trkpt lat="59.9912346" lon="17.751255">
        <ele>73.6782</ele>
        <time>2014-06-21T12:57:44Z</time>
      </trkpt>
      <trkpt lat="59.991227" lon="17.7511564">
        <ele>73.6782</ele>
        <time>2014-06-21T12:57:45Z</time>
      </trkpt>
      <trkpt lat="59.9912234" lon="17.7510536">
        <ele>73.1976</ele>
        <time>2014-06-21T12:57:46Z</time>
      </trkpt>
      <trkpt lat="59.9912225" lon="17.7509446">
        <ele>73.1976</ele>
        <time>2014-06-21T12:57:47Z</time>
      </trkpt>
      <trkpt lat="59.9912212" lon="17.750835">
        <ele>72.7169</ele>
        <time>2014-06-21T12:57:48Z</time>
      </trkpt>
      <trkpt lat="59.9912218" lon="17.7507221">
        <ele>72.7169</ele>
        <time>2014-06-21T12:57:49Z</time>
      </trkpt>
      <trkpt lat="59.9912239" lon="17.7506096">
        <ele>72.2362</ele>
        <time>2014-06-21T12:57:50Z</time>
      </trkpt>
      <trkpt lat="59.9912273" lon="17.7504908">
        <ele>72.7169</ele>
        <time>2014-06-21T12:57:51Z</time>
      </trkpt>
      <trkpt lat="59.9912295" lon="17.7503782">
        <ele>72.2362</ele>
        <time>2014-06-21T12:57:52Z</time>
      </trkpt>
      <trkpt lat="59.9912289" lon="17.7502655">
        <ele>72.2362</ele>
        <time>2014-06-21T12:57:53Z</time>
      </trkpt>
      <trkpt lat="59.9912265" lon="17.7501621">
        <ele>70.7942</ele>
        <time>2014-06-21T12:57:54Z</time>
      </trkpt>
      <trkpt lat="59.9912282" lon="17.7500501">
        <ele>70.3135</ele>
        <time>2014-06-21T12:57:55Z</time>
      </trkpt>
      <trkpt lat="59.99123" lon="17.749936">
        <ele>70.3135</ele>
        <time>2014-06-21T12:57:56Z</time>
      </trkpt>
      <trkpt lat="59.9912301" lon="17.7498226">
        <ele>69.8329</ele>
        <time>2014-06-21T12:57:57Z</time>
      </trkpt>
      <trkpt lat="59.991229" lon="17.749714">
        <ele>68.8716</ele>
        <time>2014-06-21T12:57:58Z</time>
      </trkpt>
      <trkpt lat="59.9912268" lon="17.7496003">
        <ele>68.3909</ele>
        <time>2014-06-21T12:57:59Z</time>
      </trkpt>
      <trkpt lat="59.9912252" lon="17.7494825">
        <ele>67.9103</ele>
        <time>2014-06-21T12:58:00Z</time>
      </trkpt>
      <trkpt lat="59.9912293" lon="17.7493617">
        <ele>67.4297</ele>
        <time>2014-06-21T12:58:01Z</time>
      </trkpt>
      <trkpt lat="59.991231" lon="17.7492434">
        <ele>66.4683</ele>
        <time>2014-06-21T12:58:02Z</time>
      </trkpt>
      <trkpt lat="59.9912351" lon="17.7491243">
        <ele>65.9877</ele>
        <time>2014-06-21T12:58:03Z</time>
      </trkpt>
      <trkpt lat="59.9912398" lon="17.7490081">
        <ele>65.5071</ele>
        <time>2014-06-21T12:58:04Z</time>
      </trkpt>
      <trkpt lat="59.9912502" lon="17.7488904">
        <ele>64.5457</ele>
        <time>2014-06-21T12:58:05Z</time>
      </trkpt>
      <trkpt lat="59.9912615" lon="17.7487738">
        <ele>63.5844</ele>
        <time>2014-06-21T12:58:06Z</time>
      </trkpt>
      <trkpt lat="59.9912797" lon="17.748653">
        <ele>63.5844</ele>
        <time>2014-06-21T12:58:07Z</time>
      </trkpt>
      <trkpt lat="59.9913004" lon="17.7485386">
        <ele>63.1036</ele>
        <time>2014-06-21T12:58:08Z</time>
      </trkpt>
      <trkpt lat="59.99132" lon="17.7484335">
        <ele>62.6229</ele>
        <time>2014-06-21T12:58:09Z</time>
      </trkpt>
      <trkpt lat="59.9913362" lon="17.7483312">
        <ele>61.6617</ele>
        <time>2014-06-21T12:58:10Z</time>
      </trkpt>
      <trkpt lat="59.9913557" lon="17.7482276">
        <ele>61.6617</ele>
        <time>2014-06-21T12:58:11Z</time>
      </trkpt>
      <trkpt lat="59.9913766" lon="17.7481222">
        <ele>62.1423</ele>
        <time>2014-06-21T12:58:12Z</time>
      </trkpt>
      <trkpt lat="59.9913997" lon="17.7480071">
        <ele>62.6229</ele>
        <time>2014-06-21T12:58:13Z</time>
      </trkpt>
      <trkpt lat="59.9914212" lon="17.7478869">
        <ele>63.5844</ele>
        <time>2014-06-21T12:58:14Z</time>
      </trkpt>
      <trkpt lat="59.9914414" lon="17.7477647">
        <ele>63.5844</ele>
        <time>2014-06-21T12:58:15Z</time>
      </trkpt>
      <trkpt lat="59.9914619" lon="17.7476332">
        <ele>64.5457</ele>
        <time>2014-06-21T12:58:16Z</time>
      </trkpt>
      <trkpt lat="59.991479" lon="17.7475056">
        <ele>65.0264</ele>
        <time>2014-06-21T12:58:17Z</time>
      </trkpt>
      <trkpt lat="59.9914919" lon="17.7473856">
        <ele>64.5457</ele>
        <time>2014-06-21T12:58:18Z</time>
      </trkpt>
      <trkpt lat="59.9915087" lon="17.7472598">
        <ele>65.5071</ele>
        <time>2014-06-21T12:58:19Z</time>
      </trkpt>
      <trkpt lat="59.9915243" lon="17.7471375">
        <ele>65.5071</ele>
        <time>2014-06-21T12:58:20Z</time>
      </trkpt>
      <trkpt lat="59.9915401" lon="17.7470136">
        <ele>65.9877</ele>
        <time>2014-06-21T12:58:21Z</time>
      </trkpt>
      <trkpt lat="59.9915569" lon="17.7468888">
        <ele>66.4683</ele>
        <time>2014-06-21T12:58:22Z</time>
      </trkpt>
      <trkpt lat="59.9915704" lon="17.7467712">
        <ele>66.4683</ele>
        <time>2014-06-21T12:58:23Z</time>
      </trkpt>
      <trkpt lat="59.9915837" lon="17.7466618">
        <ele>65.9877</ele>
        <time>2014-06-21T12:58:24Z</time>
      </trkpt>
      <trkpt lat="59.9915962" lon="17.7465553">
        <ele>65.0264</ele>
        <time>2014-06-21T12:58:25Z</time>
      </trkpt>
      <trkpt lat="59.9916087" lon="17.7464468">
        <ele>64.5457</ele>
        <time>2014-06-21T12:58:26Z</time>
      </trkpt>
      <trkpt lat="59.9916204" lon="17.7463418">
        <ele>63.5844</ele>
        <time>2014-06-21T12:58:27Z</time>
      </trkpt>
      <trkpt lat="59.991632" lon="17.7462356">
        <ele>63.5844</ele>
        <time>2014-06-21T12:58:28Z</time>
      </trkpt>
      <trkpt lat="59.9916432" lon="17.7461307">
        <ele>63.1036</ele>
        <time>2014-06-21T12:58:29Z</time>
      </trkpt>
      <trkpt lat="59.9916552" lon="17.7460245">
        <ele>63.1036</ele>
        <time>2014-06-21T12:58:30Z</time>
      </trkpt>
      <trkpt lat="59.9916671" lon="17.7459242">
        <ele>62.1423</ele>
        <time>2014-06-21T12:58:31Z</time>
      </trkpt>
      <trkpt lat="59.9916802" lon="17.7458202">
        <ele>62.1423</ele>
        <time>2014-06-21T12:58:32Z</time>
      </trkpt>
      <trkpt lat="59.9916926" lon="17.7457186">
        <ele>62.1423</ele>
        <time>2014-06-21T12:58:33Z</time>
      </trkpt>
      <trkpt lat="59.9917039" lon="17.7456165">
        <ele>62.1423</ele>
        <time>2014-06-21T12:58:34Z</time>
      </trkpt>
      <trkpt lat="59.9917145" lon="17.7455197">
        <ele>61.181</ele>
        <time>2014-06-21T12:58:35Z</time>
      </trkpt>
      <trkpt lat="59.991726" lon="17.7454229">
        <ele>60.7003</ele>
        <time>2014-06-21T12:58:36Z</time>
      </trkpt>
      <trkpt lat="59.9917387" lon="17.7453244">
        <ele>60.7003</ele>
        <time>2014-06-21T12:58:37Z</time>
      </trkpt>
      <trkpt lat="59.9917511" lon="17.7452281">
        <ele>60.2197</ele>
        <time>2014-06-21T12:58:38Z</time>
      </trkpt>
      <trkpt lat="59.9917642" lon="17.745127">
        <ele>60.2197</ele>
        <time>2014-06-21T12:58:39Z</time>
      </trkpt>
      <trkpt lat="59.9917791" lon="17.7450275">
        <ele>60.2197</ele>
        <time>2014-06-21T12:58:40Z</time>
      </trkpt>
      <trkpt lat="59.9917963" lon="17.7449315">
        <ele>59.7391</ele>
        <time>2014-06-21T12:58:41Z</time>
      </trkpt>
      <trkpt lat="59.9918167" lon="17.7448336">
        <ele>59.2584</ele>
        <time>2014-06-21T12:58:42Z</time>
      </trkpt>
      <trkpt lat="59.9918391" lon="17.7447347">
        <ele>59.2584</ele>
        <time>2014-06-21T12:58:43Z</time>
      </trkpt>
      <trkpt lat="59.9918652" lon="17.7446349">
        <ele>59.2584</ele>
        <time>2014-06-21T12:58:44Z</time>
      </trkpt>
      <trkpt lat="59.9918962" lon="17.744538">
        <ele>59.7391</ele>
        <time>2014-06-21T12:58:45Z</time>
      </trkpt>
      <trkpt lat="59.9919308" lon="17.7444459">
        <ele>60.2197</ele>
        <time>2014-06-21T12:58:46Z</time>
      </trkpt>
      <trkpt lat="59.9919655" lon="17.744355">
        <ele>60.7003</ele>
        <time>2014-06-21T12:58:47Z</time>
      </trkpt>
      <trkpt lat="59.9920003" lon="17.7442638">
        <ele>60.7003</ele>
        <time>2014-06-21T12:58:48Z</time>
      </trkpt>
      <trkpt lat="59.9920365" lon="17.7441781">
        <ele>61.181</ele>
        <time>2014-06-21T12:58:49Z</time>
      </trkpt>
      <trkpt lat="59.9920759" lon="17.7440879">
        <ele>62.6229</ele>
        <time>2014-06-21T12:58:50Z</time>
      </trkpt>
      <trkpt lat="59.9921131" lon="17.7440036">
        <ele>63.1036</ele>
        <time>2014-06-21T12:58:51Z</time>
      </trkpt>
      <trkpt lat="59.992149" lon="17.7439117">
        <ele>63.5844</ele>
        <time>2014-06-21T12:58:52Z</time>
      </trkpt>
      <trkpt lat="59.992186" lon="17.7438209">
        <ele>64.0651</ele>
        <time>2014-06-21T12:58:53Z</time>
      </trkpt>
      <trkpt lat="59.9922216" lon="17.7437365">
        <ele>64.0651</ele>
        <time>2014-06-21T12:58:54Z</time>
      </trkpt>
      <trkpt lat="59.9922557" lon="17.7436511">
        <ele>64.0651</ele>
        <time>2014-06-21T12:58:55Z</time>
      </trkpt>
      <trkpt lat="59.9922883" lon="17.7435676">
        <ele>64.0651</ele>
        <time>2014-06-21T12:58:56Z</time>
      </trkpt>
      <trkpt lat="59.9923198" lon="17.7434803">
        <ele>64.5457</ele>
        <time>2014-06-21T12:58:57Z</time>
      </trkpt>
      <trkpt lat="59.9923504" lon="17.7433964">
        <ele>64.0651</ele>
        <time>2014-06-21T12:58:58Z</time>
      </trkpt>
      <trkpt lat="59.9923813" lon="17.7433107">
        <ele>64.0651</ele>
        <time>2014-06-21T12:58:59Z</time>
      </trkpt>
      <trkpt lat="59.9924111" lon="17.7432148">
        <ele>64.0651</ele>
        <time>2014-06-21T12:59:00Z</time>
      </trkpt>
      <trkpt lat="59.9924388" lon="17.7431188">
        <ele>63.5844</ele>
        <time>2014-06-21T12:59:01Z</time>
      </trkpt>
      <trkpt lat="59.9924654" lon="17.7430203">
        <ele>63.5844</ele>
        <time>2014-06-21T12:59:02Z</time>
      </trkpt>
      <trkpt lat="59.9924896" lon="17.7429217">
        <ele>63.1036</ele>
        <time>2014-06-21T12:59:03Z</time>
      </trkpt>
      <trkpt lat="59.992512" lon="17.7428211">
        <ele>63.1036</ele>
        <time>2014-06-21T12:59:04Z</time>
      </trkpt>
      <trkpt lat="59.9925324" lon="17.7427188">
        <ele>62.6229</ele>
        <time>2014-06-21T12:59:05Z</time>
      </trkpt>
      <trkpt lat="59.992553" lon="17.7426166">
        <ele>62.6229</ele>
        <time>2014-06-21T12:59:06Z</time>
      </trkpt>
      <trkpt lat="59.9925736" lon="17.7425148">
        <ele>62.6229</ele>
        <time>2014-06-21T12:59:07Z</time>
      </trkpt>
      <trkpt lat="59.9925933" lon="17.7424132">
        <ele>62.6229</ele>
        <time>2014-06-21T12:59:08Z</time>
      </trkpt>
      <trkpt lat="59.9926119" lon="17.742313">
        <ele>62.6229</ele>
        <time>2014-06-21T12:59:09Z</time>
      </trkpt>
      <trkpt lat="59.9926302" lon="17.7422152">
        <ele>62.6229</ele>
        <time>2014-06-21T12:59:10Z</time>
      </trkpt>
      <trkpt lat="59.9926488" lon="17.7421205">
        <ele>62.6229</ele>
        <time>2014-06-21T12:59:11Z</time>
      </trkpt>
      <trkpt lat="59.9926674" lon="17.7420288">
        <ele>62.1423</ele>
        <time>2014-06-21T12:59:12Z</time>
      </trkpt>
      <trkpt lat="59.9926861" lon="17.7419371">
        <ele>62.1423</ele>
        <time>2014-06-21T12:59:13Z</time>
      </trkpt>
      <trkpt lat="59.9927061" lon="17.7418434">
        <ele>62.1423</ele>
        <time>2014-06-21T12:59:14Z</time>
      </trkpt>
      <trkpt lat="59.9927265" lon="17.7417481">
        <ele>62.1423</ele>
        <time>2014-06-21T12:59:15Z</time>
      </trkpt>
      <trkpt lat="59.9927447" lon="17.7416525">
        <ele>61.6617</ele>
        <time>2014-06-21T12:59:16Z</time>
      </trkpt>
      <trkpt lat="59.99276" lon="17.7415549">
        <ele>61.6617</ele>
        <time>2014-06-21T12:59:17Z</time>
      </trkpt>
      <trkpt lat="59.9927705" lon="17.7414547">
        <ele>61.6617</ele>
        <time>2014-06-21T12:59:18Z</time>
      </trkpt>
      <trkpt lat="59.9927751" lon="17.7413521">
        <ele>61.6617</ele>
        <time>2014-06-21T12:59:19Z</time>
      </trkpt>
      <trkpt lat="59.9927727" lon="17.7412482">
        <ele>61.6617</ele>
        <time>2014-06-21T12:59:20Z</time>
      </trkpt>
      <trkpt lat="59.9927647" lon="17.7411429">
        <ele>61.6617</ele>
        <time>2014-06-21T12:59:21Z</time>
      </trkpt>
      <trkpt lat="59.9927519" lon="17.7410351">
        <ele>61.6617</ele>
        <time>2014-06-21T12:59:22Z</time>
      </trkpt>
      <trkpt lat="59.9927362" lon="17.740924">
        <ele>61.6617</ele>
        <time>2014-06-21T12:59:23Z</time>
      </trkpt>
      <trkpt lat="59.9927184" lon="17.7408083">
        <ele>61.6617</ele>
        <time>2014-06-21T12:59:24Z</time>
      </trkpt>
      <trkpt lat="59.9927002" lon="17.7406878">
        <ele>61.181</ele>
        <time>2014-06-21T12:59:25Z</time>
      </trkpt>
      <trkpt lat="59.9926818" lon="17.7405635">
        <ele>61.181</ele>
        <time>2014-06-21T12:59:26Z</time>
      </trkpt>
      <trkpt lat="59.9926628" lon="17.7404364">
        <ele>61.181</ele>
        <time>2014-06-21T12:59:27Z</time>
      </trkpt>
      <trkpt lat="59.9926446" lon="17.7403094">
        <ele>61.181</ele>
        <time>2014-06-21T12:59:28Z</time>
      </trkpt>
      <trkpt lat="59.9926279" lon="17.7401842">
        <ele>61.181</ele>
        <time>2014-06-21T12:59:29Z</time>
      </trkpt>
      <trkpt lat="59.9926129" lon="17.7400627">
        <ele>61.181</ele>
        <time>2014-06-21T12:59:30Z</time>
      </trkpt>
      <trkpt lat="59.9925992" lon="17.7399448">
        <ele>61.181</ele>
        <time>2014-06-21T12:59:31Z</time>
      </trkpt>
      <trkpt lat="59.9925857" lon="17.7398298">
        <ele>61.181</ele>
        <time>2014-06-21T12:59:32Z</time>
      </trkpt>
      <trkpt lat="59.9925722" lon="17.7397177">
        <ele>61.6617</ele>
        <time>2014-06-21T12:59:33Z</time>
      </trkpt>
      <trkpt lat="59.9925592" lon="17.7396071">
        <ele>61.6617</ele>
        <time>2014-06-21T12:59:34Z</time>
      </trkpt>
      <trkpt lat="59.9925459" lon="17.7394976">
        <ele>61.6617</ele>
        <time>2014-06-21T12:59:35Z</time>
      </trkpt>
      <trkpt lat="59.9925327" lon="17.7393894">
        <ele>61.6617</ele>
        <time>2014-06-21T12:59:36Z</time>
      </trkpt>
      <trkpt lat="59.9925204" lon="17.7392823">
        <ele>61.6617</ele>
        <time>2014-06-21T12:59:37Z</time>
      </trkpt>
      <trkpt lat="59.992509" lon="17.7391721">
        <ele>61.6617</ele>
        <time>2014-06-21T12:59:38Z</time>
      </trkpt>
      <trkpt lat="59.9924984" lon="17.7390588">
        <ele>61.6617</ele>
        <time>2014-06-21T12:59:39Z</time>
      </trkpt>
      <trkpt lat="59.9924861" lon="17.7389462">
        <ele>61.181</ele>
        <time>2014-06-21T12:59:40Z</time>
      </trkpt>
      <trkpt lat="59.9924757" lon="17.7388385">
        <ele>60.7003</ele>
        <time>2014-06-21T12:59:41Z</time>
      </trkpt>
      <trkpt lat="59.9924702" lon="17.7387336">
        <ele>60.7003</ele>
        <time>2014-06-21T12:59:42Z</time>
      </trkpt>
      <trkpt lat="59.9924637" lon="17.7386342">
        <ele>60.7003</ele>
        <time>2014-06-21T12:59:43Z</time>
      </trkpt>
      <trkpt lat="59.9924536" lon="17.7385463">
        <ele>60.2197</ele>
        <time>2014-06-21T12:59:44Z</time>
      </trkpt>
      <trkpt lat="59.9924447" lon="17.7384748">
        <ele>60.2197</ele>
        <time>2014-06-21T12:59:45Z</time>
      </trkpt>
      <trkpt lat="59.9924412" lon="17.7384201">
        <ele>60.2197</ele>
        <time>2014-06-21T12:59:46Z</time>
      </trkpt>
      <trkpt lat="59.992439" lon="17.7383821">
        <ele>60.2197</ele>
        <time>2014-06-21T12:59:47Z</time>
      </trkpt>
      <trkpt lat="59.9924468" lon="17.7383441">
        <ele>61.181</ele>
        <time>2014-06-21T12:59:48Z</time>
      </trkpt>
      <trkpt lat="59.9924645" lon="17.7383124">
        <ele>63.5844</ele>
        <time>2014-06-21T12:59:49Z</time>
      </trkpt>
      <trkpt lat="59.9924712" lon="17.7382989">
        <ele>63.5844</ele>
        <time>2014-06-21T12:59:50Z</time>
      </trkpt>
      <trkpt lat="59.9924748" lon="17.7382882">
        <ele>63.5844</ele>
        <time>2014-06-21T12:59:51Z</time>
      </trkpt>
      <trkpt lat="59.9924726" lon="17.7382836">
        <ele>63.1036</ele>
        <time>2014-06-21T12:59:52Z</time>
      </trkpt>
      <trkpt lat="59.9924644" lon="17.7382712">
        <ele>63.1036</ele>
        <time>2014-06-21T12:59:53Z</time>
      </trkpt>
      <trkpt lat="59.9924625" lon="17.7382477">
        <ele>64.0651</ele>
        <time>2014-06-21T12:59:54Z</time>
      </trkpt>
      <trkpt lat="59.9924571" lon="17.7382152">
        <ele>65.0264</ele>
        <time>2014-06-21T12:59:55Z</time>
      </trkpt>
      <trkpt lat="59.9924516" lon="17.7381658">
        <ele>65.9877</ele>
        <time>2014-06-21T12:59:56Z</time>
      </trkpt>
      <trkpt lat="59.9924521" lon="17.7381002">
        <ele>67.4297</ele>
        <time>2014-06-21T12:59:57Z</time>
      </trkpt>
      <trkpt lat="59.9924554" lon="17.7380208">
        <ele>69.3523</ele>
        <time>2014-06-21T12:59:58Z</time>
      </trkpt>
      <trkpt lat="59.9924468" lon="17.7379413">
        <ele>68.8716</ele>
        <time>2014-06-21T12:59:59Z</time>
      </trkpt>
      <trkpt lat="59.9924354" lon="17.7378516">
        <ele>68.8716</ele>
        <time>2014-06-21T13:00:00Z</time>
      </trkpt>
      <trkpt lat="59.9924204" lon="17.7377555">
        <ele>67.9103</ele>
        <time>2014-06-21T13:00:01Z</time>
      </trkpt>
      <trkpt lat="59.9924125" lon="17.7376587">
        <ele>66.949</ele>
        <time>2014-06-21T13:00:02Z</time>
      </trkpt>
      <trkpt lat="59.9924164" lon="17.7375589">
        <ele>66.4683</ele>
        <time>2014-06-21T13:00:03Z</time>
      </trkpt>
      <trkpt lat="59.9924406" lon="17.7374574">
        <ele>66.949</ele>
        <time>2014-06-21T13:00:04Z</time>
      </trkpt>
      <trkpt lat="59.9924804" lon="17.737376">
        <ele>67.4297</ele>
        <time>2014-06-21T13:00:05Z</time>
      </trkpt>
      <trkpt lat="59.9925248" lon="17.7373231">
        <ele>67.4297</ele>
        <time>2014-06-21T13:00:06Z</time>
      </trkpt>
      <trkpt lat="59.9925722" lon="17.7372777">
        <ele>67.4297</ele>
        <time>2014-06-21T13:00:07Z</time>
      </trkpt>
      <trkpt lat="59.9926248" lon="17.7372237">
        <ele>66.4683</ele>
        <time>2014-06-21T13:00:08Z</time>
      </trkpt>
      <trkpt lat="59.9926814" lon="17.7371626">
        <ele>66.4683</ele>
        <time>2014-06-21T13:00:09Z</time>
      </trkpt>
      <trkpt lat="59.9927365" lon="17.7370911">
        <ele>66.4683</ele>
        <time>2014-06-21T13:00:10Z</time>
      </trkpt>
      <trkpt lat="59.9927856" lon="17.7370139">
        <ele>65.5071</ele>
        <time>2014-06-21T13:00:11Z</time>
      </trkpt>
      <trkpt lat="59.9928394" lon="17.7369273">
        <ele>65.5071</ele>
        <time>2014-06-21T13:00:12Z</time>
      </trkpt>
      <trkpt lat="59.9928912" lon="17.7368298">
        <ele>64.5457</ele>
        <time>2014-06-21T13:00:13Z</time>
      </trkpt>
      <trkpt lat="59.9929431" lon="17.7367213">
        <ele>64.0651</ele>
        <time>2014-06-21T13:00:14Z</time>
      </trkpt>
      <trkpt lat="59.9929988" lon="17.7366046">
        <ele>64.0651</ele>
        <time>2014-06-21T13:00:15Z</time>
      </trkpt>
      <trkpt lat="59.9930529" lon="17.7364883">
        <ele>63.1036</ele>
        <time>2014-06-21T13:00:16Z</time>
      </trkpt>
      <trkpt lat="59.9931087" lon="17.7363698">
        <ele>63.1036</ele>
        <time>2014-06-21T13:00:17Z</time>
      </trkpt>
      <trkpt lat="59.9931657" lon="17.7362507">
        <ele>63.1036</ele>
        <time>2014-06-21T13:00:18Z</time>
      </trkpt>
      <trkpt lat="59.9932247" lon="17.7361251">
        <ele>63.1036</ele>
        <time>2014-06-21T13:00:19Z</time>
      </trkpt>
      <trkpt lat="59.99329" lon="17.7360127">
        <ele>64.0651</ele>
        <time>2014-06-21T13:00:20Z</time>
      </trkpt>
      <trkpt lat="59.9933544" lon="17.7358997">
        <ele>64.0651</ele>
        <time>2014-06-21T13:00:21Z</time>
      </trkpt>
      <trkpt lat="59.9934217" lon="17.7357868">
        <ele>64.5457</ele>
        <time>2014-06-21T13:00:22Z</time>
      </trkpt>
      <trkpt lat="59.9934916" lon="17.7356858">
        <ele>64.0651</ele>
        <time>2014-06-21T13:00:23Z</time>
      </trkpt>
      <trkpt lat="59.9935717" lon="17.7356025">
        <ele>64.0651</ele>
        <time>2014-06-21T13:00:24Z</time>
      </trkpt>
      <trkpt lat="59.993661" lon="17.7355511">
        <ele>64.5457</ele>
        <time>2014-06-21T13:00:25Z</time>
      </trkpt>
      <trkpt lat="59.9937525" lon="17.7355543">
        <ele>62.6229</ele>
        <time>2014-06-21T13:00:26Z</time>
      </trkpt>
      <trkpt lat="59.9938414" lon="17.7355728">
        <ele>59.7391</ele>
        <time>2014-06-21T13:00:27Z</time>
      </trkpt>
      <trkpt lat="59.9939308" lon="17.7356027">
        <ele>56.8551</ele>
        <time>2014-06-21T13:00:28Z</time>
      </trkpt>
      <trkpt lat="59.994027" lon="17.7356288">
        <ele>55.4131</ele>
        <time>2014-06-21T13:00:29Z</time>
      </trkpt>
      <trkpt lat="59.9941206" lon="17.7356543">
        <ele>54.4518</ele>
        <time>2014-06-21T13:00:30Z</time>
      </trkpt>
      <trkpt lat="59.9942112" lon="17.7356676">
        <ele>53.0098</ele>
        <time>2014-06-21T13:00:31Z</time>
      </trkpt>
      <trkpt lat="59.9943039" lon="17.7356973">
        <ele>52.0486</ele>
        <time>2014-06-21T13:00:32Z</time>
      </trkpt>
      <trkpt lat="59.9943822" lon="17.7357427">
        <ele>50.126</ele>
        <time>2014-06-21T13:00:33Z</time>
      </trkpt>
      <trkpt lat="59.9944619" lon="17.7357892">
        <ele>48.684</ele>
        <time>2014-06-21T13:00:34Z</time>
      </trkpt>
      <trkpt lat="59.9945391" lon="17.735842">
        <ele>47.7225</ele>
        <time>2014-06-21T13:00:35Z</time>
      </trkpt>
      <trkpt lat="59.9946157" lon="17.7359013">
        <ele>47.7225</ele>
        <time>2014-06-21T13:00:36Z</time>
      </trkpt>
      <trkpt lat="59.9946888" lon="17.7359577">
        <ele>47.2418</ele>
        <time>2014-06-21T13:00:37Z</time>
      </trkpt>
      <trkpt lat="59.9947614" lon="17.7360106">
        <ele>46.7612</ele>
        <time>2014-06-21T13:00:38Z</time>
      </trkpt>
      <trkpt lat="59.9948322" lon="17.7360603">
        <ele>46.2806</ele>
        <time>2014-06-21T13:00:39Z</time>
      </trkpt>
      <trkpt lat="59.9949006" lon="17.7361059">
        <ele>45.3192</ele>
        <time>2014-06-21T13:00:40Z</time>
      </trkpt>
      <trkpt lat="59.9949769" lon="17.7361446">
        <ele>45.3192</ele>
        <time>2014-06-21T13:00:41Z</time>
      </trkpt>
      <trkpt lat="59.9950462" lon="17.7361706">
        <ele>44.8386</ele>
        <time>2014-06-21T13:00:42Z</time>
      </trkpt>
      <trkpt lat="59.9951208" lon="17.7361849">
        <ele>44.358</ele>
        <time>2014-06-21T13:00:43Z</time>
      </trkpt>
      <trkpt lat="59.9951928" lon="17.7361945">
        <ele>43.8773</ele>
        <time>2014-06-21T13:00:44Z</time>
      </trkpt>
      <trkpt lat="59.9952633" lon="17.7362007">
        <ele>43.3966</ele>
        <time>2014-06-21T13:00:45Z</time>
      </trkpt>
      <trkpt lat="59.9953326" lon="17.736211">
        <ele>42.916</ele>
        <time>2014-06-21T13:00:46Z</time>
      </trkpt>
      <trkpt lat="59.9954015" lon="17.7362167">
        <ele>42.916</ele>
        <time>2014-06-21T13:00:47Z</time>
      </trkpt>
      <trkpt lat="59.995471" lon="17.7362194">
        <ele>42.916</ele>
        <time>2014-06-21T13:00:48Z</time>
      </trkpt>
      <trkpt lat="59.9955352" lon="17.7362229">
        <ele>42.4354</ele>
        <time>2014-06-21T13:00:49Z</time>
      </trkpt>
      <trkpt lat="59.9955949" lon="17.7362229">
        <ele>42.4354</ele>
        <time>2014-06-21T13:00:50Z</time>
      </trkpt>
      <trkpt lat="59.9956479" lon="17.736222">
        <ele>41.9547</ele>
        <time>2014-06-21T13:00:51Z</time>
      </trkpt>
      <trkpt lat="59.9957041" lon="17.7362202">
        <ele>41.9547</ele>
        <time>2014-06-21T13:00:52Z</time>
      </trkpt>
      <trkpt lat="59.9957569" lon="17.7362126">
        <ele>41.9547</ele>
        <time>2014-06-21T13:00:53Z</time>
      </trkpt>
      <trkpt lat="59.9958128" lon="17.7362051">
        <ele>42.4354</ele>
        <time>2014-06-21T13:00:54Z</time>
      </trkpt>
      <trkpt lat="59.9958684" lon="17.7362064">
        <ele>42.916</ele>
        <time>2014-06-21T13:00:55Z</time>
      </trkpt>
      <trkpt lat="59.9959281" lon="17.736206">
        <ele>43.8773</ele>
        <time>2014-06-21T13:00:56Z</time>
      </trkpt>
      <trkpt lat="59.9959905" lon="17.7362064">
        <ele>44.8386</ele>
        <time>2014-06-21T13:00:57Z</time>
      </trkpt>
      <trkpt lat="59.9960554" lon="17.7362109">
        <ele>45.7999</ele>
        <time>2014-06-21T13:00:58Z</time>
      </trkpt>
      <trkpt lat="59.9961208" lon="17.7362207">
        <ele>47.2418</ele>
        <time>2014-06-21T13:00:59Z</time>
      </trkpt>
      <trkpt lat="59.9961783" lon="17.7362381">
        <ele>46.7612</ele>
        <time>2014-06-21T13:01:00Z</time>
      </trkpt>
      <trkpt lat="59.9962369" lon="17.7362601">
        <ele>47.2418</ele>
        <time>2014-06-21T13:01:01Z</time>
      </trkpt>
      <trkpt lat="59.996294" lon="17.7362854">
        <ele>47.2418</ele>
        <time>2014-06-21T13:01:02Z</time>
      </trkpt>
      <trkpt lat="59.9963598" lon="17.7363073">
        <ele>48.684</ele>
        <time>2014-06-21T13:01:03Z</time>
      </trkpt>
      <trkpt lat="59.9964201" lon="17.7363336">
        <ele>49.1646</ele>
        <time>2014-06-21T13:01:04Z</time>
      </trkpt>
      <trkpt lat="59.9964795" lon="17.7363642">
        <ele>50.126</ele>
        <time>2014-06-21T13:01:05Z</time>
      </trkpt>
      <trkpt lat="59.9965329" lon="17.7364004">
        <ele>49.6453</ele>
        <time>2014-06-21T13:01:06Z</time>
      </trkpt>
      <trkpt lat="59.996582" lon="17.7364348">
        <ele>49.1646</ele>
        <time>2014-06-21T13:01:07Z</time>
      </trkpt>
      <trkpt lat="59.996629" lon="17.7364654">
        <ele>48.2034</ele>
        <time>2014-06-21T13:01:08Z</time>
      </trkpt>
      <trkpt lat="59.9966782" lon="17.7364931">
        <ele>47.7225</ele>
        <time>2014-06-21T13:01:09Z</time>
      </trkpt>
      <trkpt lat="59.9967302" lon="17.736517">
        <ele>47.7225</ele>
        <time>2014-06-21T13:01:10Z</time>
      </trkpt>
      <trkpt lat="59.9967861" lon="17.7365404">
        <ele>48.2034</ele>
        <time>2014-06-21T13:01:11Z</time>
      </trkpt>
      <trkpt lat="59.9968433" lon="17.7365595">
        <ele>49.1646</ele>
        <time>2014-06-21T13:01:12Z</time>
      </trkpt>
      <trkpt lat="59.9968924" lon="17.7365766">
        <ele>48.684</ele>
        <time>2014-06-21T13:01:13Z</time>
      </trkpt>
      <trkpt lat="59.996938" lon="17.7365903">
        <ele>48.2034</ele>
        <time>2014-06-21T13:01:14Z</time>
      </trkpt>
      <trkpt lat="59.9969835" lon="17.7366048">
        <ele>47.2418</ele>
        <time>2014-06-21T13:01:15Z</time>
      </trkpt>
      <trkpt lat="59.9970276" lon="17.7366198">
        <ele>46.2806</ele>
        <time>2014-06-21T13:01:16Z</time>
      </trkpt>
      <trkpt lat="59.9970722" lon="17.7366322">
        <ele>45.7999</ele>
        <time>2014-06-21T13:01:17Z</time>
      </trkpt>
      <trkpt lat="59.9971156" lon="17.7366452">
        <ele>45.3192</ele>
        <time>2014-06-21T13:01:18Z</time>
      </trkpt>
      <trkpt lat="59.9971589" lon="17.7366568">
        <ele>44.358</ele>
        <time>2014-06-21T13:01:19Z</time>
      </trkpt>
      <trkpt lat="59.9972047" lon="17.7366582">
        <ele>44.358</ele>
        <time>2014-06-21T13:01:20Z</time>
      </trkpt>
      <trkpt lat="59.9972482" lon="17.7366601">
        <ele>43.8773</ele>
        <time>2014-06-21T13:01:21Z</time>
      </trkpt>
      <trkpt lat="59.9972919" lon="17.7366648">
        <ele>43.8773</ele>
        <time>2014-06-21T13:01:22Z</time>
      </trkpt>
      <trkpt lat="59.9973338" lon="17.7366696">
        <ele>43.8773</ele>
        <time>2014-06-21T13:01:23Z</time>
      </trkpt>
      <trkpt lat="59.9973757" lon="17.7366757">
        <ele>43.8773</ele>
        <time>2014-06-21T13:01:24Z</time>
      </trkpt>
      <trkpt lat="59.9974156" lon="17.7366793">
        <ele>44.358</ele>
        <time>2014-06-21T13:01:25Z</time>
      </trkpt>
      <trkpt lat="59.9974574" lon="17.736682">
        <ele>44.8386</ele>
        <time>2014-06-21T13:01:26Z</time>
      </trkpt>
      <trkpt lat="59.9974908" lon="17.7366905">
        <ele>44.8386</ele>
        <time>2014-06-21T13:01:27Z</time>
      </trkpt>
      <trkpt lat="59.9975223" lon="17.7366958">
        <ele>44.358</ele>
        <time>2014-06-21T13:01:28Z</time>
      </trkpt>
      <trkpt lat="59.9975591" lon="17.736701">
        <ele>45.3192</ele>
        <time>2014-06-21T13:01:29Z</time>
      </trkpt>
      <trkpt lat="59.9975905" lon="17.7367083">
        <ele>44.358</ele>
        <time>2014-06-21T13:01:30Z</time>
      </trkpt>
      <trkpt lat="59.9976249" lon="17.7367129">
        <ele>44.358</ele>
        <time>2014-06-21T13:01:31Z</time>
      </trkpt>
      <trkpt lat="59.997659" lon="17.7367208">
        <ele>43.8773</ele>
        <time>2014-06-21T13:01:32Z</time>
      </trkpt>
      <trkpt lat="59.9976952" lon="17.7367271">
        <ele>42.916</ele>
        <time>2014-06-21T13:01:33Z</time>
      </trkpt>
      <trkpt lat="59.997736" lon="17.736735">
        <ele>42.916</ele>
        <time>2014-06-21T13:01:34Z</time>
      </trkpt>
      <trkpt lat="59.9977802" lon="17.7367389">
        <ele>42.4354</ele>
        <time>2014-06-21T13:01:35Z</time>
      </trkpt>
      <trkpt lat="59.9978244" lon="17.7367373">
        <ele>41.9547</ele>
        <time>2014-06-21T13:01:36Z</time>
      </trkpt>
      <trkpt lat="59.9978834" lon="17.7367322">
        <ele>43.8773</ele>
        <time>2014-06-21T13:01:37Z</time>
      </trkpt>
      <trkpt lat="59.9979328" lon="17.7367299">
        <ele>43.3966</ele>
        <time>2014-06-21T13:01:38Z</time>
      </trkpt>
      <trkpt lat="59.9979846" lon="17.7367262">
        <ele>43.8773</ele>
        <time>2014-06-21T13:01:39Z</time>
      </trkpt>
      <trkpt lat="59.9980346" lon="17.7367238">
        <ele>43.3966</ele>
        <time>2014-06-21T13:01:40Z</time>
      </trkpt>
      <trkpt lat="59.9980924" lon="17.7367283">
        <ele>43.8773</ele>
        <time>2014-06-21T13:01:41Z</time>
      </trkpt>
      <trkpt lat="59.9981485" lon="17.7367383">
        <ele>43.8773</ele>
        <time>2014-06-21T13:01:42Z</time>
      </trkpt>
      <trkpt lat="59.9982055" lon="17.7367506">
        <ele>43.8773</ele>
        <time>2014-06-21T13:01:43Z</time>
      </trkpt>
      <trkpt lat="59.9982656" lon="17.7367636">
        <ele>43.8773</ele>
        <time>2014-06-21T13:01:44Z</time>
      </trkpt>
      <trkpt lat="59.9983282" lon="17.7367726">
        <ele>43.3966</ele>
        <time>2014-06-21T13:01:45Z</time>
      </trkpt>
      <trkpt lat="59.9983957" lon="17.7367848">
        <ele>43.8773</ele>
        <time>2014-06-21T13:01:46Z</time>
      </trkpt>
      <trkpt lat="59.9984646" lon="17.7367969">
        <ele>43.3966</ele>
        <time>2014-06-21T13:01:47Z</time>
      </trkpt>
      <trkpt lat="59.9985306" lon="17.7368091">
        <ele>42.916</ele>
        <time>2014-06-21T13:01:48Z</time>
      </trkpt>
      <trkpt lat="59.9985941" lon="17.7368243">
        <ele>41.9547</ele>
        <time>2014-06-21T13:01:49Z</time>
      </trkpt>
      <trkpt lat="59.9986603" lon="17.7368346">
        <ele>41.474</ele>
        <time>2014-06-21T13:01:50Z</time>
      </trkpt>
      <trkpt lat="59.9987247" lon="17.736846">
        <ele>40.9934</ele>
        <time>2014-06-21T13:01:51Z</time>
      </trkpt>
      <trkpt lat="59.9987944" lon="17.7368533">
        <ele>40.9934</ele>
        <time>2014-06-21T13:01:52Z</time>
      </trkpt>
      <trkpt lat="59.9988628" lon="17.7368607">
        <ele>40.9934</ele>
        <time>2014-06-21T13:01:53Z</time>
      </trkpt>
      <trkpt lat="59.9989323" lon="17.7368704">
        <ele>41.474</ele>
        <time>2014-06-21T13:01:54Z</time>
      </trkpt>
      <trkpt lat="59.9989955" lon="17.7368843">
        <ele>40.5128</ele>
        <time>2014-06-21T13:01:55Z</time>
      </trkpt>
      <trkpt lat="59.9990583" lon="17.7368969">
        <ele>40.0321</ele>
        <time>2014-06-21T13:01:56Z</time>
      </trkpt>
      <trkpt lat="59.9991207" lon="17.7369088">
        <ele>40.0321</ele>
        <time>2014-06-21T13:01:57Z</time>
      </trkpt>
      <trkpt lat="59.9991849" lon="17.736917">
        <ele>40.5128</ele>
        <time>2014-06-21T13:01:58Z</time>
      </trkpt>
      <trkpt lat="59.999246" lon="17.7369248">
        <ele>40.5128</ele>
        <time>2014-06-21T13:01:59Z</time>
      </trkpt>
      <trkpt lat="59.9993048" lon="17.7369321">
        <ele>40.9934</ele>
        <time>2014-06-21T13:02:00Z</time>
      </trkpt>
      <trkpt lat="59.9993553" lon="17.7369426">
        <ele>40.0321</ele>
        <time>2014-06-21T13:02:01Z</time>
      </trkpt>
      <trkpt lat="59.9994022" lon="17.7369547">
        <ele>39.5513</ele>
        <time>2014-06-21T13:02:02Z</time>
      </trkpt>
      <trkpt lat="59.999455" lon="17.7369605">
        <ele>40.0321</ele>
        <time>2014-06-21T13:02:03Z</time>
      </trkpt>
      <trkpt lat="59.9995063" lon="17.7369659">
        <ele>40.5128</ele>
        <time>2014-06-21T13:02:04Z</time>
      </trkpt>
      <trkpt lat="59.9995524" lon="17.7369746">
        <ele>40.5128</ele>
        <time>2014-06-21T13:02:05Z</time>
      </trkpt>
      <trkpt lat="59.999599" lon="17.7369808">
        <ele>40.5128</ele>
        <time>2014-06-21T13:02:06Z</time>
      </trkpt>
      <trkpt lat="59.9996455" lon="17.736986">
        <ele>40.5128</ele>
        <time>2014-06-21T13:02:07Z</time>
      </trkpt>
      <trkpt lat="59.9996912" lon="17.7369927">
        <ele>40.9934</ele>
        <time>2014-06-21T13:02:08Z</time>
      </trkpt>
      <trkpt lat="59.9997336" lon="17.7370025">
        <ele>40.9934</ele>
        <time>2014-06-21T13:02:09Z</time>
      </trkpt>
      <trkpt lat="59.9997764" lon="17.7370122">
        <ele>40.9934</ele>
        <time>2014-06-21T13:02:10Z</time>
      </trkpt>
      <trkpt lat="59.9998212" lon="17.7370197">
        <ele>40.9934</ele>
        <time>2014-06-21T13:02:11Z</time>
      </trkpt>
      <trkpt lat="59.9998657" lon="17.7370264">
        <ele>40.9934</ele>
        <time>2014-06-21T13:02:12Z</time>
      </trkpt>
      <trkpt lat="59.9999109" lon="17.7370298">
        <ele>40.5128</ele>
        <time>2014-06-21T13:02:13Z</time>
      </trkpt>
      <trkpt lat="59.9999688" lon="17.7370238">
        <ele>42.4354</ele>
        <time>2014-06-21T13:02:14Z</time>
      </trkpt>
      <trkpt lat="60.0000289" lon="17.7370145">
        <ele>43.3966</ele>
        <time>2014-06-21T13:02:15Z</time>
      </trkpt>
      <trkpt lat="60.0000858" lon="17.7370057">
        <ele>43.3966</ele>
        <time>2014-06-21T13:02:16Z</time>
      </trkpt>
      <trkpt lat="60.0001458" lon="17.7369901">
        <ele>43.3966</ele>
        <time>2014-06-21T13:02:17Z</time>
      </trkpt>
      <trkpt lat="60.0002122" lon="17.7369694">
        <ele>43.3966</ele>
        <time>2014-06-21T13:02:18Z</time>
      </trkpt>
      <trkpt lat="60.0002905" lon="17.7369383">
        <ele>45.3192</ele>
        <time>2014-06-21T13:02:19Z</time>
      </trkpt>
      <trkpt lat="60.0003584" lon="17.7369045">
        <ele>44.8386</ele>
        <time>2014-06-21T13:02:20Z</time>
      </trkpt>
      <trkpt lat="60.0004262" lon="17.736862">
        <ele>44.8386</ele>
        <time>2014-06-21T13:02:21Z</time>
      </trkpt>
      <trkpt lat="60.000493" lon="17.7368145">
        <ele>44.8386</ele>
        <time>2014-06-21T13:02:22Z</time>
      </trkpt>
      <trkpt lat="60.0005595" lon="17.7367607">
        <ele>44.8386</ele>
        <time>2014-06-21T13:02:23Z</time>
      </trkpt>
      <trkpt lat="60.0006262" lon="17.7367045">
        <ele>44.8386</ele>
        <time>2014-06-21T13:02:24Z</time>
      </trkpt>
      <trkpt lat="60.0006921" lon="17.7366493">
        <ele>44.8386</ele>
        <time>2014-06-21T13:02:25Z</time>
      </trkpt>
      <trkpt lat="60.0007561" lon="17.7365962">
        <ele>44.8386</ele>
        <time>2014-06-21T13:02:26Z</time>
      </trkpt>
      <trkpt lat="60.0008171" lon="17.7365498">
        <ele>44.358</ele>
        <time>2014-06-21T13:02:27Z</time>
      </trkpt>
      <trkpt lat="60.0008816" lon="17.7365102">
        <ele>45.3192</ele>
        <time>2014-06-21T13:02:28Z</time>
      </trkpt>
      <trkpt lat="60.0009457" lon="17.7364757">
        <ele>45.7999</ele>
        <time>2014-06-21T13:02:29Z</time>
      </trkpt>
      <trkpt lat="60.0010017" lon="17.7364492">
        <ele>45.3192</ele>
        <time>2014-06-21T13:02:30Z</time>
      </trkpt>
      <trkpt lat="60.0010613" lon="17.7364191">
        <ele>45.7999</ele>
        <time>2014-06-21T13:02:31Z</time>
      </trkpt>
      <trkpt lat="60.0011204" lon="17.7363883">
        <ele>45.7999</ele>
        <time>2014-06-21T13:02:32Z</time>
      </trkpt>
      <trkpt lat="60.0011768" lon="17.7363551">
        <ele>45.7999</ele>
        <time>2014-06-21T13:02:33Z</time>
      </trkpt>
      <trkpt lat="60.0012318" lon="17.7363166">
        <ele>46.2806</ele>
        <time>2014-06-21T13:02:34Z</time>
      </trkpt>
      <trkpt lat="60.0012845" lon="17.7362761">
        <ele>46.2806</ele>
        <time>2014-06-21T13:02:35Z</time>
      </trkpt>
      <trkpt lat="60.0013384" lon="17.7362327">
        <ele>46.7612</ele>
        <time>2014-06-21T13:02:36Z</time>
      </trkpt>
      <trkpt lat="60.0013871" lon="17.7361858">
        <ele>47.2418</ele>
        <time>2014-06-21T13:02:37Z</time>
      </trkpt>
      <trkpt lat="60.0014346" lon="17.7361349">
        <ele>47.2418</ele>
        <time>2014-06-21T13:02:38Z</time>
      </trkpt>
      <trkpt lat="60.0014815" lon="17.7360847">
        <ele>47.7225</ele>
        <time>2014-06-21T13:02:39Z</time>
      </trkpt>
      <trkpt lat="60.0015286" lon="17.7360349">
        <ele>47.7225</ele>
        <time>2014-06-21T13:02:40Z</time>
      </trkpt>
      <trkpt lat="60.0015774" lon="17.7359831">
        <ele>47.7225</ele>
        <time>2014-06-21T13:02:41Z</time>
      </trkpt>
      <trkpt lat="60.0016273" lon="17.735924">
        <ele>48.2034</ele>
        <time>2014-06-21T13:02:42Z</time>
      </trkpt>
      <trkpt lat="60.0016787" lon="17.7358588">
        <ele>48.2034</ele>
        <time>2014-06-21T13:02:43Z</time>
      </trkpt>
      <trkpt lat="60.001733" lon="17.735789">
        <ele>47.7225</ele>
        <time>2014-06-21T13:02:44Z</time>
      </trkpt>
      <trkpt lat="60.0017897" lon="17.7357111">
        <ele>47.2418</ele>
        <time>2014-06-21T13:02:45Z</time>
      </trkpt>
      <trkpt lat="60.0018486" lon="17.7356205">
        <ele>46.7612</ele>
        <time>2014-06-21T13:02:46Z</time>
      </trkpt>
      <trkpt lat="60.0019065" lon="17.7355142">
        <ele>46.7612</ele>
        <time>2014-06-21T13:02:47Z</time>
      </trkpt>
      <trkpt lat="60.0019588" lon="17.7353939">
        <ele>46.2806</ele>
        <time>2014-06-21T13:02:48Z</time>
      </trkpt>
      <trkpt lat="60.0020068" lon="17.7352619">
        <ele>45.7999</ele>
        <time>2014-06-21T13:02:49Z</time>
      </trkpt>
      <trkpt lat="60.0020506" lon="17.7351206">
        <ele>44.8386</ele>
        <time>2014-06-21T13:02:50Z</time>
      </trkpt>
      <trkpt lat="60.0020895" lon="17.734972">
        <ele>44.358</ele>
        <time>2014-06-21T13:02:51Z</time>
      </trkpt>
      <trkpt lat="60.0021237" lon="17.734819">
        <ele>43.8773</ele>
        <time>2014-06-21T13:02:52Z</time>
      </trkpt>
      <trkpt lat="60.0021544" lon="17.734661">
        <ele>43.8773</ele>
        <time>2014-06-21T13:02:53Z</time>
      </trkpt>
      <trkpt lat="60.0021901" lon="17.7344976">
        <ele>44.8386</ele>
        <time>2014-06-21T13:02:54Z</time>
      </trkpt>
      <trkpt lat="60.0022186" lon="17.7343467">
        <ele>44.8386</ele>
        <time>2014-06-21T13:02:55Z</time>
      </trkpt>
      <trkpt lat="60.0022424" lon="17.7341986">
        <ele>44.358</ele>
        <time>2014-06-21T13:02:56Z</time>
      </trkpt>
      <trkpt lat="60.0022678" lon="17.7340509">
        <ele>44.8386</ele>
        <time>2014-06-21T13:02:57Z</time>
      </trkpt>
      <trkpt lat="60.0022898" lon="17.7338977">
        <ele>45.3192</ele>
        <time>2014-06-21T13:02:58Z</time>
      </trkpt>
      <trkpt lat="60.0023128" lon="17.7337359">
        <ele>45.3192</ele>
        <time>2014-06-21T13:02:59Z</time>
      </trkpt>
      <trkpt lat="60.0023345" lon="17.7335578">
        <ele>45.3192</ele>
        <time>2014-06-21T13:03:00Z</time>
      </trkpt>
      <trkpt lat="60.0023533" lon="17.7333796">
        <ele>44.358</ele>
        <time>2014-06-21T13:03:01Z</time>
      </trkpt>
      <trkpt lat="60.0023387" lon="17.7332041">
        <ele>43.3966</ele>
        <time>2014-06-21T13:03:02Z</time>
      </trkpt>
      <trkpt lat="60.0023134" lon="17.733032">
        <ele>42.916</ele>
        <time>2014-06-21T13:03:03Z</time>
      </trkpt>
      <trkpt lat="60.0022999" lon="17.7328156">
        <ele>42.4354</ele>
        <time>2014-06-21T13:03:04Z</time>
      </trkpt>
      <trkpt lat="60.0023018" lon="17.7325958">
        <ele>41.9547</ele>
        <time>2014-06-21T13:03:05Z</time>
      </trkpt>
      <trkpt lat="60.0023287" lon="17.7324322">
        <ele>41.474</ele>
        <time>2014-06-21T13:03:06Z</time>
      </trkpt>
      <trkpt lat="60.0023585" lon="17.7322628">
        <ele>40.5128</ele>
        <time>2014-06-21T13:03:07Z</time>
      </trkpt>
      <trkpt lat="60.0023974" lon="17.7320965">
        <ele>39.5513</ele>
        <time>2014-06-21T13:03:08Z</time>
      </trkpt>
      <trkpt lat="60.0024367" lon="17.7319228">
        <ele>38.5901</ele>
        <time>2014-06-21T13:03:09Z</time>
      </trkpt>
      <trkpt lat="60.0024868" lon="17.7317716">
        <ele>38.1094</ele>
        <time>2014-06-21T13:03:10Z</time>
      </trkpt>
      <trkpt lat="60.0025357" lon="17.7316179">
        <ele>38.1094</ele>
        <time>2014-06-21T13:03:11Z</time>
      </trkpt>
      <trkpt lat="60.002587" lon="17.7314754">
        <ele>37.6287</ele>
        <time>2014-06-21T13:03:12Z</time>
      </trkpt>
      <trkpt lat="60.0026356" lon="17.7313317">
        <ele>37.6287</ele>
        <time>2014-06-21T13:03:13Z</time>
      </trkpt>
      <trkpt lat="60.0026851" lon="17.7311932">
        <ele>37.1481</ele>
        <time>2014-06-21T13:03:14Z</time>
      </trkpt>
      <trkpt lat="60.002737" lon="17.7310615">
        <ele>36.6675</ele>
        <time>2014-06-21T13:03:15Z</time>
      </trkpt>
      <trkpt lat="60.002791" lon="17.730934">
        <ele>36.1868</ele>
        <time>2014-06-21T13:03:16Z</time>
      </trkpt>
      <trkpt lat="60.0028469" lon="17.7308139">
        <ele>35.7061</ele>
        <time>2014-06-21T13:03:17Z</time>
      </trkpt>
      <trkpt lat="60.0029049" lon="17.7306994">
        <ele>35.7061</ele>
        <time>2014-06-21T13:03:18Z</time>
      </trkpt>
      <trkpt lat="60.0029661" lon="17.7305957">
        <ele>35.2255</ele>
        <time>2014-06-21T13:03:19Z</time>
      </trkpt>
      <trkpt lat="60.0030282" lon="17.7304939">
        <ele>34.7449</ele>
        <time>2014-06-21T13:03:20Z</time>
      </trkpt>
      <trkpt lat="60.0030893" lon="17.7303958">
        <ele>34.2642</ele>
        <time>2014-06-21T13:03:21Z</time>
      </trkpt>
      <trkpt lat="60.0031494" lon="17.7302995">
        <ele>34.2642</ele>
        <time>2014-06-21T13:03:22Z</time>
      </trkpt>
      <trkpt lat="60.0032077" lon="17.7302063">
        <ele>34.2642</ele>
        <time>2014-06-21T13:03:23Z</time>
      </trkpt>
      <trkpt lat="60.0032626" lon="17.730113">
        <ele>34.2642</ele>
        <time>2014-06-21T13:03:24Z</time>
      </trkpt>
      <trkpt lat="60.003315" lon="17.7300224">
        <ele>34.2642</ele>
        <time>2014-06-21T13:03:25Z</time>
      </trkpt>
      <trkpt lat="60.0033665" lon="17.7299321">
        <ele>33.7834</ele>
        <time>2014-06-21T13:03:26Z</time>
      </trkpt>
      <trkpt lat="60.0034171" lon="17.7298424">
        <ele>33.7834</ele>
        <time>2014-06-21T13:03:27Z</time>
      </trkpt>
      <trkpt lat="60.003468" lon="17.7297525">
        <ele>33.7834</ele>
        <time>2014-06-21T13:03:28Z</time>
      </trkpt>
      <trkpt lat="60.003517" lon="17.729652">
        <ele>33.7834</ele>
        <time>2014-06-21T13:03:29Z</time>
      </trkpt>
      <trkpt lat="60.0035679" lon="17.729562">
        <ele>33.7834</ele>
        <time>2014-06-21T13:03:30Z</time>
      </trkpt>
      <trkpt lat="60.003618" lon="17.7294749">
        <ele>33.3029</ele>
        <time>2014-06-21T13:03:31Z</time>
      </trkpt>
      <trkpt lat="60.0036653" lon="17.7293863">
        <ele>33.3029</ele>
        <time>2014-06-21T13:03:32Z</time>
      </trkpt>
      <trkpt lat="60.003711" lon="17.729297">
        <ele>33.3029</ele>
        <time>2014-06-21T13:03:33Z</time>
      </trkpt>
      <trkpt lat="60.0037581" lon="17.7292141">
        <ele>33.3029</ele>
        <time>2014-06-21T13:03:34Z</time>
      </trkpt>
      <trkpt lat="60.0038053" lon="17.7291407">
        <ele>33.3029</ele>
        <time>2014-06-21T13:03:35Z</time>
      </trkpt>
      <trkpt lat="60.0038512" lon="17.7290696">
        <ele>32.8223</ele>
        <time>2014-06-21T13:03:36Z</time>
      </trkpt>
      <trkpt lat="60.0038974" lon="17.729005">
        <ele>33.3029</ele>
        <time>2014-06-21T13:03:37Z</time>
      </trkpt>
      <trkpt lat="60.003944" lon="17.7289527">
        <ele>32.8223</ele>
        <time>2014-06-21T13:03:38Z</time>
      </trkpt>
      <trkpt lat="60.0039891" lon="17.728907">
        <ele>32.8223</ele>
        <time>2014-06-21T13:03:39Z</time>
      </trkpt>
      <trkpt lat="60.0040312" lon="17.7288646">
        <ele>32.8223</ele>
        <time>2014-06-21T13:03:40Z</time>
      </trkpt>
      <trkpt lat="60.0040659" lon="17.7288258">
        <ele>32.8223</ele>
        <time>2014-06-21T13:03:41Z</time>
      </trkpt>
      <trkpt lat="60.0040917" lon="17.7287874">
        <ele>32.8223</ele>
        <time>2014-06-21T13:03:42Z</time>
      </trkpt>
      <trkpt lat="60.0041125" lon="17.728747">
        <ele>32.8223</ele>
        <time>2014-06-21T13:03:43Z</time>
      </trkpt>
      <trkpt lat="60.00413" lon="17.7286982">
        <ele>32.8223</ele>
        <time>2014-06-21T13:03:44Z</time>
      </trkpt>
      <trkpt lat="60.0041409" lon="17.7286408">
        <ele>32.8223</ele>
        <time>2014-06-21T13:03:45Z</time>
      </trkpt>
      <trkpt lat="60.0041575" lon="17.72858">
        <ele>32.8223</ele>
        <time>2014-06-21T13:03:46Z</time>
      </trkpt>
      <trkpt lat="60.0041766" lon="17.7285207">
        <ele>32.8223</ele>
        <time>2014-06-21T13:03:47Z</time>
      </trkpt>
      <trkpt lat="60.0041968" lon="17.7284709">
        <ele>32.8223</ele>
        <time>2014-06-21T13:03:48Z</time>
      </trkpt>
      <trkpt lat="60.0042208" lon="17.7284241">
        <ele>32.8223</ele>
        <time>2014-06-21T13:03:49Z</time>
      </trkpt>
      <trkpt lat="60.0042476" lon="17.7283905">
        <ele>32.3416</ele>
        <time>2014-06-21T13:03:50Z</time>
      </trkpt>
      <trkpt lat="60.0042775" lon="17.7283736">
        <ele>31.8607</ele>
        <time>2014-06-21T13:03:51Z</time>
      </trkpt>
      <trkpt lat="60.0043148" lon="17.7283575">
        <ele>31.3801</ele>
        <time>2014-06-21T13:03:52Z</time>
      </trkpt>
      <trkpt lat="60.0043596" lon="17.7283404">
        <ele>31.3801</ele>
        <time>2014-06-21T13:03:53Z</time>
      </trkpt>
      <trkpt lat="60.0044071" lon="17.7283052">
        <ele>31.8607</ele>
        <time>2014-06-21T13:03:54Z</time>
      </trkpt>
      <trkpt lat="60.004458" lon="17.7282706">
        <ele>31.8607</ele>
        <time>2014-06-21T13:03:55Z</time>
      </trkpt>
      <trkpt lat="60.0045142" lon="17.7282457">
        <ele>31.8607</ele>
        <time>2014-06-21T13:03:56Z</time>
      </trkpt>
      <trkpt lat="60.0045694" lon="17.7282217">
        <ele>31.8607</ele>
        <time>2014-06-21T13:03:57Z</time>
      </trkpt>
      <trkpt lat="60.0046268" lon="17.7281962">
        <ele>31.8607</ele>
        <time>2014-06-21T13:03:58Z</time>
      </trkpt>
      <trkpt lat="60.0046869" lon="17.7281669">
        <ele>32.3416</ele>
        <time>2014-06-21T13:03:59Z</time>
      </trkpt>
      <trkpt lat="60.0047512" lon="17.7281367">
        <ele>33.3029</ele>
        <time>2014-06-21T13:04:00Z</time>
      </trkpt>
      <trkpt lat="60.0048177" lon="17.7281131">
        <ele>34.2642</ele>
        <time>2014-06-21T13:04:01Z</time>
      </trkpt>
      <trkpt lat="60.0048811" lon="17.728095">
        <ele>34.2642</ele>
        <time>2014-06-21T13:04:02Z</time>
      </trkpt>
      <trkpt lat="60.0049455" lon="17.7280798">
        <ele>33.7834</ele>
        <time>2014-06-21T13:04:03Z</time>
      </trkpt>
      <trkpt lat="60.0050127" lon="17.7280628">
        <ele>33.3029</ele>
        <time>2014-06-21T13:04:04Z</time>
      </trkpt>
      <trkpt lat="60.0050809" lon="17.7280451">
        <ele>32.8223</ele>
        <time>2014-06-21T13:04:05Z</time>
      </trkpt>
      <trkpt lat="60.0051508" lon="17.7280281">
        <ele>32.3416</ele>
        <time>2014-06-21T13:04:06Z</time>
      </trkpt>
      <trkpt lat="60.005222" lon="17.7280186">
        <ele>31.3801</ele>
        <time>2014-06-21T13:04:07Z</time>
      </trkpt>
      <trkpt lat="60.0052975" lon="17.7280125">
        <ele>31.3801</ele>
        <time>2014-06-21T13:04:08Z</time>
      </trkpt>
      <trkpt lat="60.0053707" lon="17.7280208">
        <ele>30.4188</ele>
        <time>2014-06-21T13:04:09Z</time>
      </trkpt>
      <trkpt lat="60.0054415" lon="17.7280441">
        <ele>29.9381</ele>
        <time>2014-06-21T13:04:10Z</time>
      </trkpt>
      <trkpt lat="60.0055118" lon="17.7280637">
        <ele>28.9769</ele>
        <time>2014-06-21T13:04:11Z</time>
      </trkpt>
      <trkpt lat="60.0055783" lon="17.7280866">
        <ele>27.5349</ele>
        <time>2014-06-21T13:04:12Z</time>
      </trkpt>
      <trkpt lat="60.0056472" lon="17.7281062">
        <ele>27.0543</ele>
        <time>2014-06-21T13:04:13Z</time>
      </trkpt>
      <trkpt lat="60.0057186" lon="17.7281094">
        <ele>27.0543</ele>
        <time>2014-06-21T13:04:14Z</time>
      </trkpt>
      <trkpt lat="60.0057862" lon="17.7280912">
        <ele>26.0929</ele>
        <time>2014-06-21T13:04:15Z</time>
      </trkpt>
      <trkpt lat="60.0058518" lon="17.7280471">
        <ele>25.6123</ele>
        <time>2014-06-21T13:04:16Z</time>
      </trkpt>
      <trkpt lat="60.0059146" lon="17.7279797">
        <ele>25.1317</ele>
        <time>2014-06-21T13:04:17Z</time>
      </trkpt>
      <trkpt lat="60.0059761" lon="17.7278979">
        <ele>24.651</ele>
        <time>2014-06-21T13:04:18Z</time>
      </trkpt>
      <trkpt lat="60.0060372" lon="17.7278141">
        <ele>24.651</ele>
        <time>2014-06-21T13:04:19Z</time>
      </trkpt>
      <trkpt lat="60.0060972" lon="17.7277336">
        <ele>24.1703</ele>
        <time>2014-06-21T13:04:20Z</time>
      </trkpt>
      <trkpt lat="60.0061599" lon="17.7276549">
        <ele>24.1703</ele>
        <time>2014-06-21T13:04:21Z</time>
      </trkpt>
      <trkpt lat="60.0062238" lon="17.7275799">
        <ele>23.6896</ele>
        <time>2014-06-21T13:04:22Z</time>
      </trkpt>
      <trkpt lat="60.0062886" lon="17.7275086">
        <ele>23.209</ele>
        <time>2014-06-21T13:04:23Z</time>
      </trkpt>
      <trkpt lat="60.006358" lon="17.7274453">
        <ele>22.7283</ele>
        <time>2014-06-21T13:04:24Z</time>
      </trkpt>
      <trkpt lat="60.0064309" lon="17.7273934">
        <ele>22.2476</ele>
        <time>2014-06-21T13:04:25Z</time>
      </trkpt>
      <trkpt lat="60.0065067" lon="17.7273454">
        <ele>22.7283</ele>
        <time>2014-06-21T13:04:26Z</time>
      </trkpt>
      <trkpt lat="60.0065819" lon="17.7273012">
        <ele>22.7283</ele>
        <time>2014-06-21T13:04:27Z</time>
      </trkpt>
      <trkpt lat="60.006658" lon="17.7272614">
        <ele>22.7283</ele>
        <time>2014-06-21T13:04:28Z</time>
      </trkpt>
      <trkpt lat="60.0067361" lon="17.7272239">
        <ele>23.6896</ele>
        <time>2014-06-21T13:04:29Z</time>
      </trkpt>
      <trkpt lat="60.0068081" lon="17.7271933">
        <ele>23.6896</ele>
        <time>2014-06-21T13:04:30Z</time>
      </trkpt>
      <trkpt lat="60.0068782" lon="17.7271648">
        <ele>23.6896</ele>
        <time>2014-06-21T13:04:31Z</time>
      </trkpt>
      <trkpt lat="60.0069506" lon="17.7271303">
        <ele>24.1703</ele>
        <time>2014-06-21T13:04:32Z</time>
      </trkpt>
      <trkpt lat="60.0070226" lon="17.7270915">
        <ele>24.651</ele>
        <time>2014-06-21T13:04:33Z</time>
      </trkpt>
      <trkpt lat="60.0070925" lon="17.7270509">
        <ele>25.1317</ele>
        <time>2014-06-21T13:04:34Z</time>
      </trkpt>
      <trkpt lat="60.0071614" lon="17.7270013">
        <ele>24.651</ele>
        <time>2014-06-21T13:04:35Z</time>
      </trkpt>
      <trkpt lat="60.0072286" lon="17.7269495">
        <ele>24.651</ele>
        <time>2014-06-21T13:04:36Z</time>
      </trkpt>
      <trkpt lat="60.0072955" lon="17.7269012">
        <ele>24.1703</ele>
        <time>2014-06-21T13:04:37Z</time>
      </trkpt>
      <trkpt lat="60.0073612" lon="17.7268583">
        <ele>24.1703</ele>
        <time>2014-06-21T13:04:38Z</time>
      </trkpt>
      <trkpt lat="60.0074307" lon="17.7268234">
        <ele>23.6896</ele>
        <time>2014-06-21T13:04:39Z</time>
      </trkpt>
      <trkpt lat="60.0075064" lon="17.7268056">
        <ele>23.209</ele>
        <time>2014-06-21T13:04:40Z</time>
      </trkpt>
      <trkpt lat="60.0075883" lon="17.726806">
        <ele>22.7283</ele>
        <time>2014-06-21T13:04:41Z</time>
      </trkpt>
      <trkpt lat="60.0076732" lon="17.7268291">
        <ele>22.2476</ele>
        <time>2014-06-21T13:04:42Z</time>
      </trkpt>
      <trkpt lat="60.0077601" lon="17.7268732">
        <ele>21.767</ele>
        <time>2014-06-21T13:04:43Z</time>
      </trkpt>
      <trkpt lat="60.0078462" lon="17.726934">
        <ele>21.767</ele>
        <time>2014-06-21T13:04:44Z</time>
      </trkpt>
      <trkpt lat="60.0079301" lon="17.7270095">
        <ele>21.2864</ele>
        <time>2014-06-21T13:04:45Z</time>
      </trkpt>
      <trkpt lat="60.0080097" lon="17.7270959">
        <ele>21.2864</ele>
        <time>2014-06-21T13:04:46Z</time>
      </trkpt>
      <trkpt lat="60.0080838" lon="17.7271897">
        <ele>21.2864</ele>
        <time>2014-06-21T13:04:47Z</time>
      </trkpt>
      <trkpt lat="60.0081514" lon="17.7272889">
        <ele>21.2864</ele>
        <time>2014-06-21T13:04:48Z</time>
      </trkpt>
      <trkpt lat="60.0082134" lon="17.7273901">
        <ele>21.2864</ele>
        <time>2014-06-21T13:04:49Z</time>
      </trkpt>
      <trkpt lat="60.008271" lon="17.7274906">
        <ele>20.8057</ele>
        <time>2014-06-21T13:04:50Z</time>
      </trkpt>
      <trkpt lat="60.0083255" lon="17.7275881">
        <ele>20.8057</ele>
        <time>2014-06-21T13:04:51Z</time>
      </trkpt>
      <trkpt lat="60.008378" lon="17.7276824">
        <ele>20.8057</ele>
        <time>2014-06-21T13:04:52Z</time>
      </trkpt>
      <trkpt lat="60.0084293" lon="17.7277698">
        <ele>20.8057</ele>
        <time>2014-06-21T13:04:53Z</time>
      </trkpt>
      <trkpt lat="60.0084812" lon="17.7278457">
        <ele>20.8057</ele>
        <time>2014-06-21T13:04:54Z</time>
      </trkpt>
      <trkpt lat="60.00853" lon="17.7279125">
        <ele>20.325</ele>
        <time>2014-06-21T13:04:55Z</time>
      </trkpt>
      <trkpt lat="60.0085818" lon="17.727972">
        <ele>20.325</ele>
        <time>2014-06-21T13:04:56Z</time>
      </trkpt>
      <trkpt lat="60.0086332" lon="17.7280285">
        <ele>20.325</ele>
        <time>2014-06-21T13:04:57Z</time>
      </trkpt>
      <trkpt lat="60.0086836" lon="17.728084">
        <ele>20.325</ele>
        <time>2014-06-21T13:04:58Z</time>
      </trkpt>
      <trkpt lat="60.0087326" lon="17.7281446">
        <ele>20.325</ele>
        <time>2014-06-21T13:04:59Z</time>
      </trkpt>
      <trkpt lat="60.0087818" lon="17.728214">
        <ele>20.8057</ele>
        <time>2014-06-21T13:05:00Z</time>
      </trkpt>
      <trkpt lat="60.0088282" lon="17.7282936">
        <ele>21.2864</ele>
        <time>2014-06-21T13:05:01Z</time>
      </trkpt>
      <trkpt lat="60.0088723" lon="17.7283808">
        <ele>21.767</ele>
        <time>2014-06-21T13:05:02Z</time>
      </trkpt>
      <trkpt lat="60.0089138" lon="17.7284746">
        <ele>22.2476</ele>
        <time>2014-06-21T13:05:03Z</time>
      </trkpt>
      <trkpt lat="60.0089531" lon="17.7285738">
        <ele>22.2476</ele>
        <time>2014-06-21T13:05:04Z</time>
      </trkpt>
      <trkpt lat="60.00899" lon="17.728677">
        <ele>22.7283</ele>
        <time>2014-06-21T13:05:05Z</time>
      </trkpt>
      <trkpt lat="60.0090261" lon="17.728781">
        <ele>23.209</ele>
        <time>2014-06-21T13:05:06Z</time>
      </trkpt>
      <trkpt lat="60.0090613" lon="17.7288837">
        <ele>23.6896</ele>
        <time>2014-06-21T13:05:07Z</time>
      </trkpt>
      <trkpt lat="60.0090956" lon="17.7289858">
        <ele>23.6896</ele>
        <time>2014-06-21T13:05:08Z</time>
      </trkpt>
      <trkpt lat="60.0091283" lon="17.7290877">
        <ele>24.1703</ele>
        <time>2014-06-21T13:05:09Z</time>
      </trkpt>
      <trkpt lat="60.0091603" lon="17.7291889">
        <ele>24.651</ele>
        <time>2014-06-21T13:05:10Z</time>
      </trkpt>
      <trkpt lat="60.0091925" lon="17.7292878">
        <ele>25.1317</ele>
        <time>2014-06-21T13:05:11Z</time>
      </trkpt>
      <trkpt lat="60.0092256" lon="17.7293831">
        <ele>25.1317</ele>
        <time>2014-06-21T13:05:12Z</time>
      </trkpt>
      <trkpt lat="60.0092587" lon="17.7294764">
        <ele>25.6123</ele>
        <time>2014-06-21T13:05:13Z</time>
      </trkpt>
      <trkpt lat="60.0092908" lon="17.7295676">
        <ele>26.0929</ele>
        <time>2014-06-21T13:05:14Z</time>
      </trkpt>
      <trkpt lat="60.0093218" lon="17.7296538">
        <ele>26.0929</ele>
        <time>2014-06-21T13:05:15Z</time>
      </trkpt>
      <trkpt lat="60.0093526" lon="17.729735">
        <ele>26.5736</ele>
        <time>2014-06-21T13:05:16Z</time>
      </trkpt>
      <trkpt lat="60.0093825" lon="17.7298136">
        <ele>27.0543</ele>
        <time>2014-06-21T13:05:17Z</time>
      </trkpt>
      <trkpt lat="60.0094096" lon="17.7298907">
        <ele>27.0543</ele>
        <time>2014-06-21T13:05:18Z</time>
      </trkpt>
      <trkpt lat="60.0094353" lon="17.7299654">
        <ele>27.5349</ele>
        <time>2014-06-21T13:05:19Z</time>
      </trkpt>
      <trkpt lat="60.0094609" lon="17.7300358">
        <ele>28.0155</ele>
        <time>2014-06-21T13:05:20Z</time>
      </trkpt>
      <trkpt lat="60.0094858" lon="17.730103">
        <ele>28.0155</ele>
        <time>2014-06-21T13:05:21Z</time>
      </trkpt>
      <trkpt lat="60.0095096" lon="17.7301669">
        <ele>28.0155</ele>
        <time>2014-06-21T13:05:22Z</time>
      </trkpt>
      <trkpt lat="60.009533" lon="17.730228">
        <ele>28.4962</ele>
        <time>2014-06-21T13:05:23Z</time>
      </trkpt>
      <trkpt lat="60.0095547" lon="17.7302879">
        <ele>28.9769</ele>
        <time>2014-06-21T13:05:24Z</time>
      </trkpt>
      <trkpt lat="60.0095751" lon="17.7303473">
        <ele>28.9769</ele>
        <time>2014-06-21T13:05:25Z</time>
      </trkpt>
      <trkpt lat="60.0095966" lon="17.7304035">
        <ele>29.4575</ele>
        <time>2014-06-21T13:05:26Z</time>
      </trkpt>
      <trkpt lat="60.0096178" lon="17.7304601">
        <ele>29.9381</ele>
        <time>2014-06-21T13:05:27Z</time>
      </trkpt>
      <trkpt lat="60.0096385" lon="17.7305195">
        <ele>29.9381</ele>
        <time>2014-06-21T13:05:28Z</time>
      </trkpt>
      <trkpt lat="60.0096608" lon="17.7305801">
        <ele>29.9381</ele>
        <time>2014-06-21T13:05:29Z</time>
      </trkpt>
      <trkpt lat="60.0096849" lon="17.7306409">
        <ele>30.4188</ele>
        <time>2014-06-21T13:05:30Z</time>
      </trkpt>
      <trkpt lat="60.009709" lon="17.7307039">
        <ele>30.4188</ele>
        <time>2014-06-21T13:05:31Z</time>
      </trkpt>
      <trkpt lat="60.0097329" lon="17.7307699">
        <ele>30.4188</ele>
        <time>2014-06-21T13:05:32Z</time>
      </trkpt>
      <trkpt lat="60.0097582" lon="17.7308372">
        <ele>30.8995</ele>
        <time>2014-06-21T13:05:33Z</time>
      </trkpt>
      <trkpt lat="60.0097851" lon="17.7309036">
        <ele>30.8995</ele>
        <time>2014-06-21T13:05:34Z</time>
      </trkpt>
      <trkpt lat="60.0098139" lon="17.7309687">
        <ele>31.3801</ele>
        <time>2014-06-21T13:05:35Z</time>
      </trkpt>
      <trkpt lat="60.0098442" lon="17.7310309">
        <ele>31.3801</ele>
        <time>2014-06-21T13:05:36Z</time>
      </trkpt>
      <trkpt lat="60.0098778" lon="17.7310878">
        <ele>31.3801</ele>
        <time>2014-06-21T13:05:37Z</time>
      </trkpt>
      <trkpt lat="60.009915" lon="17.7311426">
        <ele>31.3801</ele>
        <time>2014-06-21T13:05:38Z</time>
      </trkpt>
      <trkpt lat="60.0099538" lon="17.7311983">
        <ele>31.3801</ele>
        <time>2014-06-21T13:05:39Z</time>
      </trkpt>
      <trkpt lat="60.0099932" lon="17.7312555">
        <ele>31.8607</ele>
        <time>2014-06-21T13:05:40Z</time>
      </trkpt>
      <trkpt lat="60.010033" lon="17.7313133">
        <ele>31.3801</ele>
        <time>2014-06-21T13:05:41Z</time>
      </trkpt>
      <trkpt lat="60.0100743" lon="17.7313712">
        <ele>31.8607</ele>
        <time>2014-06-21T13:05:42Z</time>
      </trkpt>
      <trkpt lat="60.0101167" lon="17.7314284">
        <ele>31.8607</ele>
        <time>2014-06-21T13:05:43Z</time>
      </trkpt>
      <trkpt lat="60.0101592" lon="17.7314845">
        <ele>31.8607</ele>
        <time>2014-06-21T13:05:44Z</time>
      </trkpt>
      <trkpt lat="60.0102025" lon="17.7315387">
        <ele>32.3416</ele>
        <time>2014-06-21T13:05:45Z</time>
      </trkpt>
      <trkpt lat="60.0102457" lon="17.7315924">
        <ele>32.3416</ele>
        <time>2014-06-21T13:05:46Z</time>
      </trkpt>
      <trkpt lat="60.0102884" lon="17.7316489">
        <ele>32.3416</ele>
        <time>2014-06-21T13:05:47Z</time>
      </trkpt>
      <trkpt lat="60.01033" lon="17.7317121">
        <ele>32.3416</ele>
        <time>2014-06-21T13:05:48Z</time>
      </trkpt>
      <trkpt lat="60.0103701" lon="17.7317814">
        <ele>32.3416</ele>
        <time>2014-06-21T13:05:49Z</time>
      </trkpt>
      <trkpt lat="60.0104086" lon="17.7318566">
        <ele>32.3416</ele>
        <time>2014-06-21T13:05:50Z</time>
      </trkpt>
      <trkpt lat="60.0104462" lon="17.7319363">
        <ele>32.8223</ele>
        <time>2014-06-21T13:05:51Z</time>
      </trkpt>
      <trkpt lat="60.0104859" lon="17.7320153">
        <ele>32.8223</ele>
        <time>2014-06-21T13:05:52Z</time>
      </trkpt>
      <trkpt lat="60.0105254" lon="17.732095">
        <ele>32.8223</ele>
        <time>2014-06-21T13:05:53Z</time>
      </trkpt>
      <trkpt lat="60.0105612" lon="17.7321798">
        <ele>32.8223</ele>
        <time>2014-06-21T13:05:54Z</time>
      </trkpt>
      <trkpt lat="60.010588" lon="17.732275">
        <ele>33.3029</ele>
        <time>2014-06-21T13:05:55Z</time>
      </trkpt>
      <trkpt lat="60.0106274" lon="17.7324731">
        <ele>33.3029</ele>
        <time>2014-06-21T13:05:57Z</time>
      </trkpt>
      <trkpt lat="60.0106658" lon="17.7325492">
        <ele>33.3029</ele>
        <time>2014-06-21T13:05:58Z</time>
      </trkpt>
      <trkpt lat="60.0107164" lon="17.7326019">
        <ele>33.7834</ele>
        <time>2014-06-21T13:05:59Z</time>
      </trkpt>
      <trkpt lat="60.0107692" lon="17.7326474">
        <ele>33.7834</ele>
        <time>2014-06-21T13:06:00Z</time>
      </trkpt>
      <trkpt lat="60.0108217" lon="17.7326913">
        <ele>33.7834</ele>
        <time>2014-06-21T13:06:01Z</time>
      </trkpt>
      <trkpt lat="60.0108748" lon="17.7327273">
        <ele>33.7834</ele>
        <time>2014-06-21T13:06:02Z</time>
      </trkpt>
      <trkpt lat="60.0109278" lon="17.7327595">
        <ele>33.7834</ele>
        <time>2014-06-21T13:06:03Z</time>
      </trkpt>
      <trkpt lat="60.0109805" lon="17.7327916">
        <ele>33.7834</ele>
        <time>2014-06-21T13:06:04Z</time>
      </trkpt>
      <trkpt lat="60.0110329" lon="17.7328194">
        <ele>33.7834</ele>
        <time>2014-06-21T13:06:05Z</time>
      </trkpt>
      <trkpt lat="60.0110847" lon="17.7328444">
        <ele>33.7834</ele>
        <time>2014-06-21T13:06:06Z</time>
      </trkpt>
      <trkpt lat="60.0111356" lon="17.7328684">
        <ele>33.7834</ele>
        <time>2014-06-21T13:06:07Z</time>
      </trkpt>
      <trkpt lat="60.0111836" lon="17.7328979">
        <ele>33.7834</ele>
        <time>2014-06-21T13:06:08Z</time>
      </trkpt>
      <trkpt lat="60.0112296" lon="17.7329237">
        <ele>33.7834</ele>
        <time>2014-06-21T13:06:09Z</time>
      </trkpt>
      <trkpt lat="60.0112676" lon="17.7329412">
        <ele>33.7834</ele>
        <time>2014-06-21T13:06:10Z</time>
      </trkpt>
      <trkpt lat="60.0112941" lon="17.732964">
        <ele>33.7834</ele>
        <time>2014-06-21T13:06:11Z</time>
      </trkpt>
      <trkpt lat="60.0113173" lon="17.7329875">
        <ele>33.7834</ele>
        <time>2014-06-21T13:06:12Z</time>
      </trkpt>
      <trkpt lat="60.0113454" lon="17.7330071">
        <ele>33.7834</ele>
        <time>2014-06-21T13:06:13Z</time>
      </trkpt>
      <trkpt lat="60.0113781" lon="17.7330278">
        <ele>33.7834</ele>
        <time>2014-06-21T13:06:14Z</time>
      </trkpt>
      <trkpt lat="60.0114142" lon="17.7330447">
        <ele>33.7834</ele>
        <time>2014-06-21T13:06:15Z</time>
      </trkpt>
      <trkpt lat="60.0114472" lon="17.7330775">
        <ele>33.7834</ele>
        <time>2014-06-21T13:06:16Z</time>
      </trkpt>
      <trkpt lat="60.0114672" lon="17.7331408">
        <ele>33.7834</ele>
        <time>2014-06-21T13:06:17Z</time>
      </trkpt>
      <trkpt lat="60.0114677" lon="17.7332163">
        <ele>33.3029</ele>
        <time>2014-06-21T13:06:18Z</time>
      </trkpt>
      <trkpt lat="60.0114498" lon="17.7332875">
        <ele>33.3029</ele>
        <time>2014-06-21T13:06:19Z</time>
      </trkpt>
      <trkpt lat="60.0114219" lon="17.7333552">
        <ele>32.8223</ele>
        <time>2014-06-21T13:06:20Z</time>
      </trkpt>
      <trkpt lat="60.0113954" lon="17.7334307">
        <ele>32.8223</ele>
        <time>2014-06-21T13:06:21Z</time>
      </trkpt>
      <trkpt lat="60.0113726" lon="17.7335121">
        <ele>32.8223</ele>
        <time>2014-06-21T13:06:22Z</time>
      </trkpt>
      <trkpt lat="60.0113516" lon="17.7335936">
        <ele>33.3029</ele>
        <time>2014-06-21T13:06:23Z</time>
      </trkpt>
      <trkpt lat="60.0113324" lon="17.7336755">
        <ele>33.3029</ele>
        <time>2014-06-21T13:06:24Z</time>
      </trkpt>
      <trkpt lat="60.0113133" lon="17.7337565">
        <ele>33.7834</ele>
        <time>2014-06-21T13:06:25Z</time>
      </trkpt>
      <trkpt lat="60.0112936" lon="17.7338335">
        <ele>33.7834</ele>
        <time>2014-06-21T13:06:26Z</time>
      </trkpt>
      <trkpt lat="60.011273" lon="17.7339074">
        <ele>33.7834</ele>
        <time>2014-06-21T13:06:27Z</time>
      </trkpt>
      <trkpt lat="60.0112509" lon="17.7339757">
        <ele>33.7834</ele>
        <time>2014-06-21T13:06:28Z</time>
      </trkpt>
      <trkpt lat="60.0112239" lon="17.7340339">
        <ele>33.7834</ele>
        <time>2014-06-21T13:06:29Z</time>
      </trkpt>
      <trkpt lat="60.0111905" lon="17.7340714">
        <ele>33.7834</ele>
        <time>2014-06-21T13:06:30Z</time>
      </trkpt>
      <trkpt lat="60.0111536" lon="17.7340866">
        <ele>33.3029</ele>
        <time>2014-06-21T13:06:31Z</time>
      </trkpt>
      <trkpt lat="60.011117" lon="17.734083">
        <ele>32.8223</ele>
        <time>2014-06-21T13:06:32Z</time>
      </trkpt>
      <trkpt lat="60.0110827" lon="17.7340633">
        <ele>32.8223</ele>
        <time>2014-06-21T13:06:33Z</time>
      </trkpt>
      <trkpt lat="60.0110509" lon="17.7340338">
        <ele>32.3416</ele>
        <time>2014-06-21T13:06:34Z</time>
      </trkpt>
      <trkpt lat="60.0110204" lon="17.734002">
        <ele>32.3416</ele>
        <time>2014-06-21T13:06:35Z</time>
      </trkpt>
      <trkpt lat="60.0109917" lon="17.7339696">
        <ele>32.3416</ele>
        <time>2014-06-21T13:06:36Z</time>
      </trkpt>
      <trkpt lat="60.0109688" lon="17.733936">
        <ele>31.8607</ele>
        <time>2014-06-21T13:06:37Z</time>
      </trkpt>
      <trkpt lat="60.0109539" lon="17.7339037">
        <ele>31.8607</ele>
        <time>2014-06-21T13:06:38Z</time>
      </trkpt>
      <trkpt lat="60.0109459" lon="17.7338725">
        <ele>31.8607</ele>
        <time>2014-06-21T13:06:39Z</time>
      </trkpt>
      <trkpt lat="60.0109434" lon="17.7338425">
        <ele>31.3801</ele>
        <time>2014-06-21T13:06:40Z</time>
      </trkpt>
      <trkpt lat="60.0109468" lon="17.7338145">
        <ele>31.3801</ele>
        <time>2014-06-21T13:06:41Z</time>
      </trkpt>
      <trkpt lat="60.0109553" lon="17.7337919">
        <ele>31.3801</ele>
        <time>2014-06-21T13:06:42Z</time>
      </trkpt>
      <trkpt lat="60.0109718" lon="17.73378">
        <ele>31.3801</ele>
        <time>2014-06-21T13:06:43Z</time>
      </trkpt>
      <trkpt lat="60.010996" lon="17.7337705">
        <ele>31.3801</ele>
        <time>2014-06-21T13:06:44Z</time>
      </trkpt>
      <trkpt lat="60.0110207" lon="17.7337489">
        <ele>30.8995</ele>
        <time>2014-06-21T13:06:45Z</time>
      </trkpt>
      <trkpt lat="60.0110433" lon="17.733714">
        <ele>30.8995</ele>
        <time>2014-06-21T13:06:46Z</time>
      </trkpt>
      <trkpt lat="60.0110574" lon="17.7336686">
        <ele>30.4188</ele>
        <time>2014-06-21T13:06:47Z</time>
      </trkpt>
      <trkpt lat="60.0110635" lon="17.7336198">
        <ele>29.9381</ele>
        <time>2014-06-21T13:06:48Z</time>
      </trkpt>
      <trkpt lat="60.011061" lon="17.733568">
        <ele>29.9381</ele>
        <time>2014-06-21T13:06:49Z</time>
      </trkpt>
      <trkpt lat="60.0110491" lon="17.7335263">
        <ele>30.4188</ele>
        <time>2014-06-21T13:06:50Z</time>
      </trkpt>
      <trkpt lat="60.0110315" lon="17.7335004">
        <ele>30.4188</ele>
        <time>2014-06-21T13:06:51Z</time>
      </trkpt>
      <trkpt lat="60.0110143" lon="17.7334784">
        <ele>30.4188</ele>
        <time>2014-06-21T13:06:52Z</time>
      </trkpt>
      <trkpt lat="60.0110005" lon="17.7334547">
        <ele>30.4188</ele>
        <time>2014-06-21T13:06:53Z</time>
      </trkpt>
      <trkpt lat="60.0109906" lon="17.7334348">
        <ele>30.4188</ele>
        <time>2014-06-21T13:06:54Z</time>
      </trkpt>
      <trkpt lat="60.0109854" lon="17.7334263">
        <ele>29.9381</ele>
        <time>2014-06-21T13:06:55Z</time>
      </trkpt>
      <trkpt lat="60.0109843" lon="17.7334244">
        <ele>29.9381</ele>
        <time>2014-06-21T13:06:56Z</time>
      </trkpt>
      <trkpt lat="60.0109848" lon="17.7334241">
        <ele>29.9381</ele>
        <time>2014-06-21T13:06:57Z</time>
      </trkpt>
      <trkpt lat="60.0110005" lon="17.733344">
        <ele>31.3801</ele>
        <time>2014-06-21T13:13:32Z</time>
      </trkpt>
      <trkpt lat="60.0110209" lon="17.7333315">
        <ele>31.3801</ele>
        <time>2014-06-21T13:13:33Z</time>
      </trkpt>
      <trkpt lat="60.0110427" lon="17.7333227">
        <ele>31.3801</ele>
        <time>2014-06-21T13:13:34Z</time>
      </trkpt>
      <trkpt lat="60.0110635" lon="17.73331">
        <ele>31.3801</ele>
        <time>2014-06-21T13:13:35Z</time>
      </trkpt>
      <trkpt lat="60.0110808" lon="17.733283">
        <ele>31.3801</ele>
        <time>2014-06-21T13:13:36Z</time>
      </trkpt>
      <trkpt lat="60.011093" lon="17.7332447">
        <ele>31.3801</ele>
        <time>2014-06-21T13:13:37Z</time>
      </trkpt>
      <trkpt lat="60.011107" lon="17.7332072">
        <ele>31.8607</ele>
        <time>2014-06-21T13:13:38Z</time>
      </trkpt>
      <trkpt lat="60.0111264" lon="17.733175">
        <ele>31.8607</ele>
        <time>2014-06-21T13:13:39Z</time>
      </trkpt>
      <trkpt lat="60.0111485" lon="17.7331398">
        <ele>31.3801</ele>
        <time>2014-06-21T13:13:40Z</time>
      </trkpt>
      <trkpt lat="60.0111661" lon="17.7330921">
        <ele>31.3801</ele>
        <time>2014-06-21T13:13:41Z</time>
      </trkpt>
      <trkpt lat="60.0111837" lon="17.7330403">
        <ele>31.3801</ele>
        <time>2014-06-21T13:13:42Z</time>
      </trkpt>
      <trkpt lat="60.01121" lon="17.7330091">
        <ele>31.3801</ele>
        <time>2014-06-21T13:13:43Z</time>
      </trkpt>
      <trkpt lat="60.0112366" lon="17.7330012">
        <ele>31.3801</ele>
        <time>2014-06-21T13:13:44Z</time>
      </trkpt>
      <trkpt lat="60.0112576" lon="17.732999">
        <ele>31.3801</ele>
        <time>2014-06-21T13:13:45Z</time>
      </trkpt>
      <trkpt lat="60.0112778" lon="17.7329936">
        <ele>31.3801</ele>
        <time>2014-06-21T13:13:46Z</time>
      </trkpt>
      <trkpt lat="60.0112977" lon="17.732987">
        <ele>31.3801</ele>
        <time>2014-06-21T13:13:47Z</time>
      </trkpt>
      <trkpt lat="60.0113169" lon="17.7329808">
        <ele>31.8607</ele>
        <time>2014-06-21T13:13:48Z</time>
      </trkpt>
      <trkpt lat="60.0113408" lon="17.7329731">
        <ele>31.8607</ele>
        <time>2014-06-21T13:13:49Z</time>
      </trkpt>
      <trkpt lat="60.0113739" lon="17.732976">
        <ele>31.8607</ele>
        <time>2014-06-21T13:13:50Z</time>
      </trkpt>
      <trkpt lat="60.0114144" lon="17.7329936">
        <ele>32.3416</ele>
        <time>2014-06-21T13:13:51Z</time>
      </trkpt>
      <trkpt lat="60.0114594" lon="17.733016">
        <ele>32.3416</ele>
        <time>2014-06-21T13:13:52Z</time>
      </trkpt>
      <trkpt lat="60.0115084" lon="17.7330372">
        <ele>32.3416</ele>
        <time>2014-06-21T13:13:53Z</time>
      </trkpt>
      <trkpt lat="60.0115603" lon="17.7330551">
        <ele>32.3416</ele>
        <time>2014-06-21T13:13:54Z</time>
      </trkpt>
      <trkpt lat="60.0116153" lon="17.7330678">
        <ele>32.3416</ele>
        <time>2014-06-21T13:13:55Z</time>
      </trkpt>
      <trkpt lat="60.0116737" lon="17.7330724">
        <ele>32.3416</ele>
        <time>2014-06-21T13:13:56Z</time>
      </trkpt>
      <trkpt lat="60.0117348" lon="17.7330671">
        <ele>32.3416</ele>
        <time>2014-06-21T13:13:57Z</time>
      </trkpt>
      <trkpt lat="60.0117995" lon="17.7330552">
        <ele>32.3416</ele>
        <time>2014-06-21T13:13:58Z</time>
      </trkpt>
      <trkpt lat="60.0118678" lon="17.733038">
        <ele>32.3416</ele>
        <time>2014-06-21T13:13:59Z</time>
      </trkpt>
      <trkpt lat="60.0119372" lon="17.7330154">
        <ele>31.8607</ele>
        <time>2014-06-21T13:14:00Z</time>
      </trkpt>
      <trkpt lat="60.0120079" lon="17.7329915">
        <ele>32.3416</ele>
        <time>2014-06-21T13:14:01Z</time>
      </trkpt>
      <trkpt lat="60.0120805" lon="17.7329704">
        <ele>32.3416</ele>
        <time>2014-06-21T13:14:02Z</time>
      </trkpt>
      <trkpt lat="60.0121543" lon="17.7329506">
        <ele>32.3416</ele>
        <time>2014-06-21T13:14:03Z</time>
      </trkpt>
      <trkpt lat="60.0122289" lon="17.7329294">
        <ele>31.8607</ele>
        <time>2014-06-21T13:14:04Z</time>
      </trkpt>
      <trkpt lat="60.0123038" lon="17.7329054">
        <ele>31.8607</ele>
        <time>2014-06-21T13:14:05Z</time>
      </trkpt>
      <trkpt lat="60.0123792" lon="17.7328803">
        <ele>31.8607</ele>
        <time>2014-06-21T13:14:06Z</time>
      </trkpt>
      <trkpt lat="60.0124544" lon="17.7328562">
        <ele>31.8607</ele>
        <time>2014-06-21T13:14:07Z</time>
      </trkpt>
      <trkpt lat="60.012529" lon="17.7328308">
        <ele>31.8607</ele>
        <time>2014-06-21T13:14:08Z</time>
      </trkpt>
      <trkpt lat="60.0126034" lon="17.7328054">
        <ele>31.3801</ele>
        <time>2014-06-21T13:14:09Z</time>
      </trkpt>
      <trkpt lat="60.0126776" lon="17.7327823">
        <ele>31.3801</ele>
        <time>2014-06-21T13:14:10Z</time>
      </trkpt>
      <trkpt lat="60.0127526" lon="17.7327594">
        <ele>31.3801</ele>
        <time>2014-06-21T13:14:11Z</time>
      </trkpt>
      <trkpt lat="60.0128291" lon="17.7327381">
        <ele>30.8995</ele>
        <time>2014-06-21T13:14:12Z</time>
      </trkpt>
      <trkpt lat="60.0185714" lon="17.7638584">
        <ele>56.3745</ele>
        <time>2014-06-21T13:21:18Z</time>
      </trkpt>
      <trkpt lat="60.0185328" lon="17.7638412">
        <ele>56.3745</ele>
        <time>2014-06-21T13:21:19Z</time>
      </trkpt>
      <trkpt lat="60.0184974" lon="17.7638225">
        <ele>55.8938</ele>
        <time>2014-06-21T13:21:20Z</time>
      </trkpt>
      <trkpt lat="60.0184649" lon="17.7637971">
        <ele>55.8938</ele>
        <time>2014-06-21T13:21:21Z</time>
      </trkpt>
      <trkpt lat="60.0184243" lon="17.7637693">
        <ele>55.4131</ele>
        <time>2014-06-21T13:21:22Z</time>
      </trkpt>
      <trkpt lat="60.0183878" lon="17.7637443">
        <ele>54.9324</ele>
        <time>2014-06-21T13:21:23Z</time>
      </trkpt>
      <trkpt lat="60.0183495" lon="17.7637065">
        <ele>54.4518</ele>
        <time>2014-06-21T13:21:24Z</time>
      </trkpt>
      <trkpt lat="60.0183115" lon="17.7636654">
        <ele>53.9712</ele>
        <time>2014-06-21T13:21:25Z</time>
      </trkpt>
      <trkpt lat="60.0182739" lon="17.7636215">
        <ele>53.4905</ele>
        <time>2014-06-21T13:21:26Z</time>
      </trkpt>
      <trkpt lat="60.0182359" lon="17.7635728">
        <ele>53.4905</ele>
        <time>2014-06-21T13:21:27Z</time>
      </trkpt>
      <trkpt lat="60.0181972" lon="17.7635281">
        <ele>53.0098</ele>
        <time>2014-06-21T13:21:28Z</time>
      </trkpt>
      <trkpt lat="60.0181587" lon="17.7634822">
        <ele>53.0098</ele>
        <time>2014-06-21T13:21:29Z</time>
      </trkpt>
      <trkpt lat="60.0181184" lon="17.7634312">
        <ele>52.5292</ele>
        <time>2014-06-21T13:21:30Z</time>
      </trkpt>
      <trkpt lat="60.01808" lon="17.7633567">
        <ele>52.0486</ele>
        <time>2014-06-21T13:21:31Z</time>
      </trkpt>
      <trkpt lat="60.0180482" lon="17.7632584">
        <ele>51.5679</ele>
        <time>2014-06-21T13:21:32Z</time>
      </trkpt>
      <trkpt lat="60.0180195" lon="17.7631435">
        <ele>51.0872</ele>
        <time>2014-06-21T13:21:33Z</time>
      </trkpt>
      <trkpt lat="60.0179918" lon="17.7630187">
        <ele>50.6066</ele>
        <time>2014-06-21T13:21:34Z</time>
      </trkpt>
      <trkpt lat="60.017964" lon="17.7628857">
        <ele>50.126</ele>
        <time>2014-06-21T13:21:35Z</time>
      </trkpt>
      <trkpt lat="60.0179313" lon="17.7627523">
        <ele>50.126</ele>
        <time>2014-06-21T13:21:36Z</time>
      </trkpt>
      <trkpt lat="60.0178947" lon="17.7626269">
        <ele>50.126</ele>
        <time>2014-06-21T13:21:37Z</time>
      </trkpt>
      <trkpt lat="60.0178599" lon="17.7625125">
        <ele>50.126</ele>
        <time>2014-06-21T13:21:38Z</time>
      </trkpt>
      <trkpt lat="60.0178241" lon="17.7624011">
        <ele>50.126</ele>
        <time>2014-06-21T13:21:39Z</time>
      </trkpt>
      <trkpt lat="60.0177874" lon="17.762283">
        <ele>50.126</ele>
        <time>2014-06-21T13:21:40Z</time>
      </trkpt>
      <trkpt lat="60.0177484" lon="17.7621639">
        <ele>49.6453</ele>
        <time>2014-06-21T13:21:41Z</time>
      </trkpt>
      <trkpt lat="60.0176828" lon="17.7620476">
        <ele>49.6453</ele>
        <time>2014-06-21T13:21:42Z</time>
      </trkpt>
      <trkpt lat="60.0176242" lon="17.7619443">
        <ele>49.6453</ele>
        <time>2014-06-21T13:21:43Z</time>
      </trkpt>
      <trkpt lat="60.0175583" lon="17.7618349">
        <ele>49.1646</ele>
        <time>2014-06-21T13:21:44Z</time>
      </trkpt>
      <trkpt lat="60.0174896" lon="17.7617373">
        <ele>49.6453</ele>
        <time>2014-06-21T13:21:45Z</time>
      </trkpt>
      <trkpt lat="60.017432" lon="17.7616623">
        <ele>50.126</ele>
        <time>2014-06-21T13:21:46Z</time>
      </trkpt>
      <trkpt lat="60.0173755" lon="17.761589">
        <ele>50.126</ele>
        <time>2014-06-21T13:21:47Z</time>
      </trkpt>
      <trkpt lat="60.017321" lon="17.7615044">
        <ele>49.6453</ele>
        <time>2014-06-21T13:21:48Z</time>
      </trkpt>
      <trkpt lat="60.0172619" lon="17.7614073">
        <ele>50.126</ele>
        <time>2014-06-21T13:21:49Z</time>
      </trkpt>
      <trkpt lat="60.0172086" lon="17.7612936">
        <ele>50.126</ele>
        <time>2014-06-21T13:21:50Z</time>
      </trkpt>
      <trkpt lat="60.0171673" lon="17.7611692">
        <ele>49.6453</ele>
        <time>2014-06-21T13:21:51Z</time>
      </trkpt>
      <trkpt lat="60.0171375" lon="17.7610336">
        <ele>49.1646</ele>
        <time>2014-06-21T13:21:52Z</time>
      </trkpt>
      <trkpt lat="60.0171125" lon="17.7608942">
        <ele>49.1646</ele>
        <time>2014-06-21T13:21:53Z</time>
      </trkpt>
      <trkpt lat="60.017083" lon="17.7607562">
        <ele>49.1646</ele>
        <time>2014-06-21T13:21:54Z</time>
      </trkpt>
      <trkpt lat="60.0170507" lon="17.7606254">
        <ele>49.1646</ele>
        <time>2014-06-21T13:21:55Z</time>
      </trkpt>
      <trkpt lat="60.0170202" lon="17.760514">
        <ele>49.1646</ele>
        <time>2014-06-21T13:21:56Z</time>
      </trkpt>
      <trkpt lat="60.0169961" lon="17.7604187">
        <ele>49.1646</ele>
        <time>2014-06-21T13:21:57Z</time>
      </trkpt>
      <trkpt lat="60.0169786" lon="17.76033">
        <ele>48.684</ele>
        <time>2014-06-21T13:21:58Z</time>
      </trkpt>
      <trkpt lat="60.0169604" lon="17.7602273">
        <ele>47.7225</ele>
        <time>2014-06-21T13:21:59Z</time>
      </trkpt>
      <trkpt lat="60.0169441" lon="17.7601103">
        <ele>47.2418</ele>
        <time>2014-06-21T13:22:00Z</time>
      </trkpt>
      <trkpt lat="60.0169276" lon="17.7599523">
        <ele>46.7612</ele>
        <time>2014-06-21T13:22:01Z</time>
      </trkpt>
      <trkpt lat="60.0169136" lon="17.7598013">
        <ele>45.7999</ele>
        <time>2014-06-21T13:22:02Z</time>
      </trkpt>
      <trkpt lat="60.0168762" lon="17.7595765">
        <ele>45.3192</ele>
        <time>2014-06-21T13:22:03Z</time>
      </trkpt>
      <trkpt lat="60.0168502" lon="17.759374">
        <ele>44.358</ele>
        <time>2014-06-21T13:22:04Z</time>
      </trkpt>
      <trkpt lat="60.0168415" lon="17.7592282">
        <ele>44.358</ele>
        <time>2014-06-21T13:22:05Z</time>
      </trkpt>
      <trkpt lat="60.0168259" lon="17.7590791">
        <ele>43.3966</ele>
        <time>2014-06-21T13:22:06Z</time>
      </trkpt>
      <trkpt lat="60.0168118" lon="17.7589393">
        <ele>42.4354</ele>
        <time>2014-06-21T13:22:07Z</time>
      </trkpt>
      <trkpt lat="60.0167967" lon="17.7587987">
        <ele>42.4354</ele>
        <time>2014-06-21T13:22:08Z</time>
      </trkpt>
      <trkpt lat="60.0167855" lon="17.7586653">
        <ele>42.4354</ele>
        <time>2014-06-21T13:22:09Z</time>
      </trkpt>
      <trkpt lat="60.0167695" lon="17.7585253">
        <ele>41.9547</ele>
        <time>2014-06-21T13:22:10Z</time>
      </trkpt>
      <trkpt lat="60.0167508" lon="17.758387">
        <ele>42.4354</ele>
        <time>2014-06-21T13:22:11Z</time>
      </trkpt>
      <trkpt lat="60.0167117" lon="17.758311">
        <ele>41.9547</ele>
        <time>2014-06-21T13:22:12Z</time>
      </trkpt>
      <trkpt lat="60.0166648" lon="17.758258">
        <ele>41.474</ele>
        <time>2014-06-21T13:22:13Z</time>
      </trkpt>
      <trkpt lat="60.0166187" lon="17.758233">
        <ele>41.474</ele>
        <time>2014-06-21T13:22:14Z</time>
      </trkpt>
      <trkpt lat="60.0165628" lon="17.7582333">
        <ele>41.474</ele>
        <time>2014-06-21T13:22:15Z</time>
      </trkpt>
      <trkpt lat="60.0165099" lon="17.7582178">
        <ele>41.9547</ele>
        <time>2014-06-21T13:22:16Z</time>
      </trkpt>
      <trkpt lat="60.0164629" lon="17.7581737">
        <ele>41.474</ele>
        <time>2014-06-21T13:22:17Z</time>
      </trkpt>
      <trkpt lat="60.0164317" lon="17.7581145">
        <ele>41.9547</ele>
        <time>2014-06-21T13:22:18Z</time>
      </trkpt>
      <trkpt lat="60.0163939" lon="17.7580379">
        <ele>41.474</ele>
        <time>2014-06-21T13:22:19Z</time>
      </trkpt>
      <trkpt lat="60.0163534" lon="17.7579256">
        <ele>40.5128</ele>
        <time>2014-06-21T13:22:20Z</time>
      </trkpt>
      <trkpt lat="60.0163276" lon="17.7577956">
        <ele>40.0321</ele>
        <time>2014-06-21T13:22:21Z</time>
      </trkpt>
      <trkpt lat="60.0163048" lon="17.7576526">
        <ele>40.0321</ele>
        <time>2014-06-21T13:22:22Z</time>
      </trkpt>
      <trkpt lat="60.0162792" lon="17.7575019">
        <ele>39.5513</ele>
        <time>2014-06-21T13:22:23Z</time>
      </trkpt>
      <trkpt lat="60.0162509" lon="17.7573503">
        <ele>40.0321</ele>
        <time>2014-06-21T13:22:24Z</time>
      </trkpt>
      <trkpt lat="60.0162243" lon="17.7572022">
        <ele>40.0321</ele>
        <time>2014-06-21T13:22:25Z</time>
      </trkpt>
      <trkpt lat="60.0161999" lon="17.7570594">
        <ele>40.0321</ele>
        <time>2014-06-21T13:22:26Z</time>
      </trkpt>
      <trkpt lat="60.0161789" lon="17.7569101">
        <ele>40.0321</ele>
        <time>2014-06-21T13:22:27Z</time>
      </trkpt>
      <trkpt lat="60.0161633" lon="17.7567589">
        <ele>40.0321</ele>
        <time>2014-06-21T13:22:28Z</time>
      </trkpt>
      <trkpt lat="60.0161474" lon="17.7566145">
        <ele>39.5513</ele>
        <time>2014-06-21T13:22:29Z</time>
      </trkpt>
      <trkpt lat="60.016129" lon="17.7564824">
        <ele>39.5513</ele>
        <time>2014-06-21T13:22:30Z</time>
      </trkpt>
      <trkpt lat="60.0161101" lon="17.7563622">
        <ele>39.0707</ele>
        <time>2014-06-21T13:22:31Z</time>
      </trkpt>
      <trkpt lat="60.0161001" lon="17.7562351">
        <ele>39.0707</ele>
        <time>2014-06-21T13:22:32Z</time>
      </trkpt>
      <trkpt lat="60.0160892" lon="17.7560978">
        <ele>38.5901</ele>
        <time>2014-06-21T13:22:33Z</time>
      </trkpt>
      <trkpt lat="60.0160704" lon="17.7559589">
        <ele>38.5901</ele>
        <time>2014-06-21T13:22:34Z</time>
      </trkpt>
      <trkpt lat="60.0160458" lon="17.7558176">
        <ele>38.5901</ele>
        <time>2014-06-21T13:22:35Z</time>
      </trkpt>
      <trkpt lat="60.0160282" lon="17.7556794">
        <ele>38.1094</ele>
        <time>2014-06-21T13:22:36Z</time>
      </trkpt>
      <trkpt lat="60.0160101" lon="17.7554873">
        <ele>38.1094</ele>
        <time>2014-06-21T13:22:37Z</time>
      </trkpt>
      <trkpt lat="60.016024" lon="17.7553614">
        <ele>38.1094</ele>
        <time>2014-06-21T13:22:38Z</time>
      </trkpt>
      <trkpt lat="60.0160433" lon="17.755223">
        <ele>38.1094</ele>
        <time>2014-06-21T13:22:39Z</time>
      </trkpt>
      <trkpt lat="60.0160682" lon="17.7550991">
        <ele>37.6287</ele>
        <time>2014-06-21T13:22:40Z</time>
      </trkpt>
      <trkpt lat="60.0160933" lon="17.7549723">
        <ele>37.1481</ele>
        <time>2014-06-21T13:22:41Z</time>
      </trkpt>
      <trkpt lat="60.0161121" lon="17.7548396">
        <ele>37.1481</ele>
        <time>2014-06-21T13:22:42Z</time>
      </trkpt>
      <trkpt lat="60.0161246" lon="17.7547172">
        <ele>36.6675</ele>
        <time>2014-06-21T13:22:43Z</time>
      </trkpt>
      <trkpt lat="60.0161174" lon="17.7546029">
        <ele>36.1868</ele>
        <time>2014-06-21T13:22:44Z</time>
      </trkpt>
      <trkpt lat="60.0160914" lon="17.7545071">
        <ele>37.1481</ele>
        <time>2014-06-21T13:22:45Z</time>
      </trkpt>
      <trkpt lat="60.0160572" lon="17.7544375">
        <ele>37.1481</ele>
        <time>2014-06-21T13:22:46Z</time>
      </trkpt>
      <trkpt lat="60.0160202" lon="17.7543902">
        <ele>36.1868</ele>
        <time>2014-06-21T13:22:47Z</time>
      </trkpt>
      <trkpt lat="60.0159843" lon="17.7543684">
        <ele>36.1868</ele>
        <time>2014-06-21T13:22:48Z</time>
      </trkpt>
      <trkpt lat="60.01594" lon="17.7543629">
        <ele>36.1868</ele>
        <time>2014-06-21T13:22:49Z</time>
      </trkpt>
      <trkpt lat="60.0158904" lon="17.7543408">
        <ele>37.1481</ele>
        <time>2014-06-21T13:22:50Z</time>
      </trkpt>
      <trkpt lat="60.0158406" lon="17.7542968">
        <ele>37.6287</ele>
        <time>2014-06-21T13:22:51Z</time>
      </trkpt>
      <trkpt lat="60.0157883" lon="17.754234">
        <ele>37.1481</ele>
        <time>2014-06-21T13:22:52Z</time>
      </trkpt>
      <trkpt lat="60.0157584" lon="17.7541631">
        <ele>39.0707</ele>
        <time>2014-06-21T13:22:53Z</time>
      </trkpt>
      <trkpt lat="60.0157299" lon="17.7540917">
        <ele>40.0321</ele>
        <time>2014-06-21T13:22:54Z</time>
      </trkpt>
      <trkpt lat="60.0157008" lon="17.7540181">
        <ele>40.9934</ele>
        <time>2014-06-21T13:22:55Z</time>
      </trkpt>
      <trkpt lat="60.0156685" lon="17.7539511">
        <ele>40.5128</ele>
        <time>2014-06-21T13:22:56Z</time>
      </trkpt>
      <trkpt lat="60.0156333" lon="17.7538954">
        <ele>40.0321</ele>
        <time>2014-06-21T13:22:57Z</time>
      </trkpt>
      <trkpt lat="60.0155997" lon="17.7538498">
        <ele>40.0321</ele>
        <time>2014-06-21T13:22:58Z</time>
      </trkpt>
      <trkpt lat="60.0155662" lon="17.7538109">
        <ele>39.5513</ele>
        <time>2014-06-21T13:22:59Z</time>
      </trkpt>
      <trkpt lat="60.0155281" lon="17.7537769">
        <ele>39.5513</ele>
        <time>2014-06-21T13:23:00Z</time>
      </trkpt>
      <trkpt lat="60.015489" lon="17.7537323">
        <ele>39.5513</ele>
        <time>2014-06-21T13:23:01Z</time>
      </trkpt>
      <trkpt lat="60.0154567" lon="17.7536647">
        <ele>39.0707</ele>
        <time>2014-06-21T13:23:02Z</time>
      </trkpt>
      <trkpt lat="60.015434" lon="17.7535844">
        <ele>38.5901</ele>
        <time>2014-06-21T13:23:03Z</time>
      </trkpt>
      <trkpt lat="60.0154274" lon="17.7534877">
        <ele>37.6287</ele>
        <time>2014-06-21T13:23:04Z</time>
      </trkpt>
      <trkpt lat="60.0154331" lon="17.7533816">
        <ele>37.1481</ele>
        <time>2014-06-21T13:23:05Z</time>
      </trkpt>
      <trkpt lat="60.015451" lon="17.753285">
        <ele>37.6287</ele>
        <time>2014-06-21T13:23:06Z</time>
      </trkpt>
      <trkpt lat="60.0154846" lon="17.753201">
        <ele>38.1094</ele>
        <time>2014-06-21T13:23:07Z</time>
      </trkpt>
      <trkpt lat="60.0155253" lon="17.7531163">
        <ele>38.5901</ele>
        <time>2014-06-21T13:23:08Z</time>
      </trkpt>
      <trkpt lat="60.015561" lon="17.7530142">
        <ele>39.5513</ele>
        <time>2014-06-21T13:23:09Z</time>
      </trkpt>
      <trkpt lat="60.0155809" lon="17.7528992">
        <ele>39.0707</ele>
        <time>2014-06-21T13:23:10Z</time>
      </trkpt>
      <trkpt lat="60.015602" lon="17.7527921">
        <ele>39.5513</ele>
        <time>2014-06-21T13:23:11Z</time>
      </trkpt>
      <trkpt lat="60.0156314" lon="17.7526675">
        <ele>41.474</ele>
        <time>2014-06-21T13:23:12Z</time>
      </trkpt>
      <trkpt lat="60.0156364" lon="17.7525342">
        <ele>40.9934</ele>
        <time>2014-06-21T13:23:13Z</time>
      </trkpt>
      <trkpt lat="60.0156356" lon="17.7523976">
        <ele>40.0321</ele>
        <time>2014-06-21T13:23:14Z</time>
      </trkpt>
      <trkpt lat="60.015648" lon="17.7522564">
        <ele>39.5513</ele>
        <time>2014-06-21T13:23:15Z</time>
      </trkpt>
      <trkpt lat="60.0156516" lon="17.7521065">
        <ele>38.5901</ele>
        <time>2014-06-21T13:23:16Z</time>
      </trkpt>
      <trkpt lat="60.0156678" lon="17.7519513">
        <ele>39.5513</ele>
        <time>2014-06-21T13:23:17Z</time>
      </trkpt>
      <trkpt lat="60.0156728" lon="17.7517803">
        <ele>39.0707</ele>
        <time>2014-06-21T13:23:18Z</time>
      </trkpt>
      <trkpt lat="60.0156899" lon="17.751618">
        <ele>39.0707</ele>
        <time>2014-06-21T13:23:19Z</time>
      </trkpt>
      <trkpt lat="60.0157172" lon="17.7514724">
        <ele>39.0707</ele>
        <time>2014-06-21T13:23:20Z</time>
      </trkpt>
      <trkpt lat="60.0157356" lon="17.7513338">
        <ele>37.6287</ele>
        <time>2014-06-21T13:23:21Z</time>
      </trkpt>
      <trkpt lat="60.0157443" lon="17.7511231">
        <ele>36.6675</ele>
        <time>2014-06-21T13:23:22Z</time>
      </trkpt>
      <trkpt lat="60.015765" lon="17.7510143">
        <ele>37.6287</ele>
        <time>2014-06-21T13:23:23Z</time>
      </trkpt>
      <trkpt lat="60.0157795" lon="17.7508943">
        <ele>37.6287</ele>
        <time>2014-06-21T13:23:24Z</time>
      </trkpt>
      <trkpt lat="60.0157774" lon="17.7507586">
        <ele>37.1481</ele>
        <time>2014-06-21T13:23:25Z</time>
      </trkpt>
      <trkpt lat="60.0157738" lon="17.750618">
        <ele>36.6675</ele>
        <time>2014-06-21T13:23:26Z</time>
      </trkpt>
      <trkpt lat="60.0157634" lon="17.75048">
        <ele>36.6675</ele>
        <time>2014-06-21T13:23:27Z</time>
      </trkpt>
      <trkpt lat="60.015746" lon="17.7503434">
        <ele>35.7061</ele>
        <time>2014-06-21T13:23:28Z</time>
      </trkpt>
      <trkpt lat="60.0157566" lon="17.7501989">
        <ele>36.1868</ele>
        <time>2014-06-21T13:23:29Z</time>
      </trkpt>
      <trkpt lat="60.0157677" lon="17.7500651">
        <ele>36.6675</ele>
        <time>2014-06-21T13:23:30Z</time>
      </trkpt>
      <trkpt lat="60.0158021" lon="17.7499461">
        <ele>37.1481</ele>
        <time>2014-06-21T13:23:31Z</time>
      </trkpt>
      <trkpt lat="60.0158384" lon="17.7498289">
        <ele>37.6287</ele>
        <time>2014-06-21T13:23:32Z</time>
      </trkpt>
      <trkpt lat="60.0158743" lon="17.7497263">
        <ele>37.6287</ele>
        <time>2014-06-21T13:23:33Z</time>
      </trkpt>
      <trkpt lat="60.0159048" lon="17.7496223">
        <ele>37.6287</ele>
        <time>2014-06-21T13:23:34Z</time>
      </trkpt>
      <trkpt lat="60.0159319" lon="17.7495247">
        <ele>37.6287</ele>
        <time>2014-06-21T13:23:35Z</time>
      </trkpt>
      <trkpt lat="60.0159583" lon="17.7494369">
        <ele>38.1094</ele>
        <time>2014-06-21T13:23:36Z</time>
      </trkpt>
      <trkpt lat="60.0159881" lon="17.7493462">
        <ele>39.5513</ele>
        <time>2014-06-21T13:23:37Z</time>
      </trkpt>
      <trkpt lat="60.0160229" lon="17.7492727">
        <ele>40.0321</ele>
        <time>2014-06-21T13:23:38Z</time>
      </trkpt>
      <trkpt lat="60.0160529" lon="17.7491912">
        <ele>40.5128</ele>
        <time>2014-06-21T13:23:39Z</time>
      </trkpt>
      <trkpt lat="60.016071" lon="17.7490955">
        <ele>40.0321</ele>
        <time>2014-06-21T13:23:40Z</time>
      </trkpt>
      <trkpt lat="60.0160857" lon="17.7489898">
        <ele>40.5128</ele>
        <time>2014-06-21T13:23:41Z</time>
      </trkpt>
      <trkpt lat="60.0160932" lon="17.7488744">
        <ele>39.5513</ele>
        <time>2014-06-21T13:23:42Z</time>
      </trkpt>
      <trkpt lat="60.0161028" lon="17.7487484">
        <ele>39.5513</ele>
        <time>2014-06-21T13:23:43Z</time>
      </trkpt>
      <trkpt lat="60.0161105" lon="17.748619">
        <ele>39.0707</ele>
        <time>2014-06-21T13:23:44Z</time>
      </trkpt>
      <trkpt lat="60.0161266" lon="17.7484695">
        <ele>39.5513</ele>
        <time>2014-06-21T13:23:45Z</time>
      </trkpt>
      <trkpt lat="60.0161381" lon="17.7483561">
        <ele>38.5901</ele>
        <time>2014-06-21T13:23:46Z</time>
      </trkpt>
      <trkpt lat="60.0161507" lon="17.748247">
        <ele>38.1094</ele>
        <time>2014-06-21T13:23:47Z</time>
      </trkpt>
      <trkpt lat="60.0161694" lon="17.7481594">
        <ele>37.6287</ele>
        <time>2014-06-21T13:23:48Z</time>
      </trkpt>
      <trkpt lat="60.0161922" lon="17.7480688">
        <ele>37.6287</ele>
        <time>2014-06-21T13:23:49Z</time>
      </trkpt>
      <trkpt lat="60.0162103" lon="17.7479577">
        <ele>37.6287</ele>
        <time>2014-06-21T13:23:50Z</time>
      </trkpt>
      <trkpt lat="60.0162293" lon="17.7478581">
        <ele>37.1481</ele>
        <time>2014-06-21T13:23:51Z</time>
      </trkpt>
      <trkpt lat="60.0162495" lon="17.7477642">
        <ele>37.6287</ele>
        <time>2014-06-21T13:23:52Z</time>
      </trkpt>
      <trkpt lat="60.0162705" lon="17.747671">
        <ele>37.1481</ele>
        <time>2014-06-21T13:23:53Z</time>
      </trkpt>
      <trkpt lat="60.0162917" lon="17.7475804">
        <ele>36.6675</ele>
        <time>2014-06-21T13:23:54Z</time>
      </trkpt>
      <trkpt lat="60.0162997" lon="17.7474742">
        <ele>36.1868</ele>
        <time>2014-06-21T13:23:55Z</time>
      </trkpt>
      <trkpt lat="60.0163121" lon="17.7473664">
        <ele>35.7061</ele>
        <time>2014-06-21T13:23:56Z</time>
      </trkpt>
      <trkpt lat="60.0163254" lon="17.7472327">
        <ele>35.2255</ele>
        <time>2014-06-21T13:23:57Z</time>
      </trkpt>
      <trkpt lat="60.0163504" lon="17.7470868">
        <ele>35.7061</ele>
        <time>2014-06-21T13:23:58Z</time>
      </trkpt>
      <trkpt lat="60.0163763" lon="17.7469461">
        <ele>36.1868</ele>
        <time>2014-06-21T13:23:59Z</time>
      </trkpt>
      <trkpt lat="60.0164088" lon="17.7468212">
        <ele>37.6287</ele>
        <time>2014-06-21T13:24:00Z</time>
      </trkpt>
      <trkpt lat="60.0164393" lon="17.746697">
        <ele>38.1094</ele>
        <time>2014-06-21T13:24:01Z</time>
      </trkpt>
      <trkpt lat="60.0164673" lon="17.7465733">
        <ele>38.5901</ele>
        <time>2014-06-21T13:24:02Z</time>
      </trkpt>
      <trkpt lat="60.0164928" lon="17.746451">
        <ele>38.5901</ele>
        <time>2014-06-21T13:24:03Z</time>
      </trkpt>
      <trkpt lat="60.0165188" lon="17.746349">
        <ele>38.5901</ele>
        <time>2014-06-21T13:24:04Z</time>
      </trkpt>
      <trkpt lat="60.0165506" lon="17.7462764">
        <ele>38.5901</ele>
        <time>2014-06-21T13:24:05Z</time>
      </trkpt>
      <trkpt lat="60.0165902" lon="17.7462283">
        <ele>39.0707</ele>
        <time>2014-06-21T13:24:06Z</time>
      </trkpt>
      <trkpt lat="60.0166296" lon="17.7461812">
        <ele>39.0707</ele>
        <time>2014-06-21T13:24:07Z</time>
      </trkpt>
      <trkpt lat="60.0166705" lon="17.7461623">
        <ele>39.5513</ele>
        <time>2014-06-21T13:24:08Z</time>
      </trkpt>
      <trkpt lat="60.0167114" lon="17.7461744">
        <ele>40.0321</ele>
        <time>2014-06-21T13:24:09Z</time>
      </trkpt>
      <trkpt lat="60.0167524" lon="17.746194">
        <ele>39.5513</ele>
        <time>2014-06-21T13:24:10Z</time>
      </trkpt>
      <trkpt lat="60.0167949" lon="17.7462242">
        <ele>40.5128</ele>
        <time>2014-06-21T13:24:11Z</time>
      </trkpt>
      <trkpt lat="60.0168393" lon="17.7462579">
        <ele>40.5128</ele>
        <time>2014-06-21T13:24:12Z</time>
      </trkpt>
      <trkpt lat="60.0168925" lon="17.7462704">
        <ele>41.9547</ele>
        <time>2014-06-21T13:24:13Z</time>
      </trkpt>
      <trkpt lat="60.0169472" lon="17.7462827">
        <ele>41.9547</ele>
        <time>2014-06-21T13:24:14Z</time>
      </trkpt>
      <trkpt lat="60.017002" lon="17.746292">
        <ele>41.9547</ele>
        <time>2014-06-21T13:24:15Z</time>
      </trkpt>
      <trkpt lat="60.0170648" lon="17.7463049">
        <ele>43.3966</ele>
        <time>2014-06-21T13:24:16Z</time>
      </trkpt>
      <trkpt lat="60.017127" lon="17.7463156">
        <ele>43.3966</ele>
        <time>2014-06-21T13:24:17Z</time>
      </trkpt>
      <trkpt lat="60.0171901" lon="17.7463358">
        <ele>43.3966</ele>
        <time>2014-06-21T13:24:18Z</time>
      </trkpt>
      <trkpt lat="60.0172555" lon="17.746366">
        <ele>44.358</ele>
        <time>2014-06-21T13:24:19Z</time>
      </trkpt>
      <trkpt lat="60.017314" lon="17.7464112">
        <ele>44.8386</ele>
        <time>2014-06-21T13:24:20Z</time>
      </trkpt>
      <trkpt lat="60.0173707" lon="17.7464687">
        <ele>44.8386</ele>
        <time>2014-06-21T13:24:21Z</time>
      </trkpt>
      <trkpt lat="60.0174272" lon="17.7465324">
        <ele>44.358</ele>
        <time>2014-06-21T13:24:22Z</time>
      </trkpt>
      <trkpt lat="60.017482" lon="17.7466009">
        <ele>44.358</ele>
        <time>2014-06-21T13:24:23Z</time>
      </trkpt>
      <trkpt lat="60.0175274" lon="17.7466748">
        <ele>44.358</ele>
        <time>2014-06-21T13:24:24Z</time>
      </trkpt>
      <trkpt lat="60.0175723" lon="17.7467297">
        <ele>43.8773</ele>
        <time>2014-06-21T13:24:25Z</time>
      </trkpt>
      <trkpt lat="60.0176277" lon="17.746758">
        <ele>44.358</ele>
        <time>2014-06-21T13:24:26Z</time>
      </trkpt>
      <trkpt lat="60.0176832" lon="17.7467624">
        <ele>44.358</ele>
        <time>2014-06-21T13:24:27Z</time>
      </trkpt>
      <trkpt lat="60.0177364" lon="17.7467567">
        <ele>43.3966</ele>
        <time>2014-06-21T13:24:28Z</time>
      </trkpt>
      <trkpt lat="60.0177924" lon="17.7467483">
        <ele>42.916</ele>
        <time>2014-06-21T13:24:29Z</time>
      </trkpt>
      <trkpt lat="60.0178493" lon="17.7467391">
        <ele>42.4354</ele>
        <time>2014-06-21T13:24:30Z</time>
      </trkpt>
      <trkpt lat="60.0179065" lon="17.7467345">
        <ele>41.9547</ele>
        <time>2014-06-21T13:24:31Z</time>
      </trkpt>
      <trkpt lat="60.0179628" lon="17.7467464">
        <ele>42.4354</ele>
        <time>2014-06-21T13:24:32Z</time>
      </trkpt>
      <trkpt lat="60.0180116" lon="17.746763">
        <ele>41.9547</ele>
        <time>2014-06-21T13:24:33Z</time>
      </trkpt>
      <trkpt lat="60.0180598" lon="17.7467881">
        <ele>40.9934</ele>
        <time>2014-06-21T13:24:34Z</time>
      </trkpt>
      <trkpt lat="60.0181097" lon="17.746814">
        <ele>40.5128</ele>
        <time>2014-06-21T13:24:35Z</time>
      </trkpt>
      <trkpt lat="60.0181627" lon="17.7468323">
        <ele>40.5128</ele>
        <time>2014-06-21T13:24:36Z</time>
      </trkpt>
      <trkpt lat="60.0182126" lon="17.7468503">
        <ele>39.5513</ele>
        <time>2014-06-21T13:24:37Z</time>
      </trkpt>
      <trkpt lat="60.0182637" lon="17.7468702">
        <ele>38.5901</ele>
        <time>2014-06-21T13:24:38Z</time>
      </trkpt>
      <trkpt lat="60.0183136" lon="17.7468961">
        <ele>37.6287</ele>
        <time>2014-06-21T13:24:39Z</time>
      </trkpt>
      <trkpt lat="60.0183685" lon="17.7469214">
        <ele>37.6287</ele>
        <time>2014-06-21T13:24:40Z</time>
      </trkpt>
      <trkpt lat="60.018424" lon="17.7469405">
        <ele>38.1094</ele>
        <time>2014-06-21T13:24:41Z</time>
      </trkpt>
      <trkpt lat="60.0184811" lon="17.7469488">
        <ele>38.1094</ele>
        <time>2014-06-21T13:24:42Z</time>
      </trkpt>
      <trkpt lat="60.0185396" lon="17.7469411">
        <ele>38.1094</ele>
        <time>2014-06-21T13:24:43Z</time>
      </trkpt>
      <trkpt lat="60.0185964" lon="17.7469202">
        <ele>37.6287</ele>
        <time>2014-06-21T13:24:44Z</time>
      </trkpt>
      <trkpt lat="60.018655" lon="17.7468955">
        <ele>37.6287</ele>
        <time>2014-06-21T13:24:45Z</time>
      </trkpt>
      <trkpt lat="60.0187149" lon="17.7468744">
        <ele>37.6287</ele>
        <time>2014-06-21T13:24:46Z</time>
      </trkpt>
      <trkpt lat="60.0187731" lon="17.7468542">
        <ele>38.1094</ele>
        <time>2014-06-21T13:24:47Z</time>
      </trkpt>
      <trkpt lat="60.0188297" lon="17.7468344">
        <ele>38.1094</ele>
        <time>2014-06-21T13:24:48Z</time>
      </trkpt>
      <trkpt lat="60.0188839" lon="17.7468184">
        <ele>38.5901</ele>
        <time>2014-06-21T13:24:49Z</time>
      </trkpt>
      <trkpt lat="60.0189346" lon="17.7468016">
        <ele>38.1094</ele>
        <time>2014-06-21T13:24:50Z</time>
      </trkpt>
      <trkpt lat="60.0189833" lon="17.7467883">
        <ele>38.5901</ele>
        <time>2014-06-21T13:24:51Z</time>
      </trkpt>
      <trkpt lat="60.019033" lon="17.7467738">
        <ele>38.5901</ele>
        <time>2014-06-21T13:24:52Z</time>
      </trkpt>
      <trkpt lat="60.0190835" lon="17.7467535">
        <ele>38.5901</ele>
        <time>2014-06-21T13:24:53Z</time>
      </trkpt>
      <trkpt lat="60.0191414" lon="17.7467387">
        <ele>38.1094</ele>
        <time>2014-06-21T13:24:54Z</time>
      </trkpt>
      <trkpt lat="60.0191973" lon="17.746723">
        <ele>37.6287</ele>
        <time>2014-06-21T13:24:55Z</time>
      </trkpt>
      <trkpt lat="60.0192542" lon="17.7467041">
        <ele>37.6287</ele>
        <time>2014-06-21T13:24:56Z</time>
      </trkpt>
      <trkpt lat="60.0193125" lon="17.7466957">
        <ele>37.6287</ele>
        <time>2014-06-21T13:24:57Z</time>
      </trkpt>
      <trkpt lat="60.0193715" lon="17.7466977">
        <ele>37.6287</ele>
        <time>2014-06-21T13:24:58Z</time>
      </trkpt>
      <trkpt lat="60.0194279" lon="17.746708">
        <ele>37.6287</ele>
        <time>2014-06-21T13:24:59Z</time>
      </trkpt>
      <trkpt lat="60.0194857" lon="17.7467244">
        <ele>37.6287</ele>
        <time>2014-06-21T13:25:00Z</time>
      </trkpt>
      <trkpt lat="60.0195416" lon="17.7467417">
        <ele>38.1094</ele>
        <time>2014-06-21T13:25:01Z</time>
      </trkpt>
      <trkpt lat="60.0195931" lon="17.7467546">
        <ele>37.1481</ele>
        <time>2014-06-21T13:25:02Z</time>
      </trkpt>
      <trkpt lat="60.0196463" lon="17.7467622">
        <ele>37.1481</ele>
        <time>2014-06-21T13:25:03Z</time>
      </trkpt>
      <trkpt lat="60.0197017" lon="17.7467723">
        <ele>37.1481</ele>
        <time>2014-06-21T13:25:04Z</time>
      </trkpt>
      <trkpt lat="60.0197551" lon="17.7467899">
        <ele>36.6675</ele>
        <time>2014-06-21T13:25:05Z</time>
      </trkpt>
      <trkpt lat="60.0198055" lon="17.7468038">
        <ele>36.1868</ele>
        <time>2014-06-21T13:25:06Z</time>
      </trkpt>
      <trkpt lat="60.0198602" lon="17.746824">
        <ele>36.1868</ele>
        <time>2014-06-21T13:25:07Z</time>
      </trkpt>
      <trkpt lat="60.0199133" lon="17.7468459">
        <ele>36.1868</ele>
        <time>2014-06-21T13:25:08Z</time>
      </trkpt>
      <trkpt lat="60.0199678" lon="17.7468701">
        <ele>36.1868</ele>
        <time>2014-06-21T13:25:09Z</time>
      </trkpt>
      <trkpt lat="60.020018" lon="17.7469033">
        <ele>37.1481</ele>
        <time>2014-06-21T13:25:10Z</time>
      </trkpt>
      <trkpt lat="60.0200484" lon="17.7469762">
        <ele>36.1868</ele>
        <time>2014-06-21T13:25:11Z</time>
      </trkpt>
      <trkpt lat="60.0200778" lon="17.7470664">
        <ele>37.1481</ele>
        <time>2014-06-21T13:25:12Z</time>
      </trkpt>
      <trkpt lat="60.020106" lon="17.7471557">
        <ele>37.6287</ele>
        <time>2014-06-21T13:25:13Z</time>
      </trkpt>
      <trkpt lat="60.0201324" lon="17.7472509">
        <ele>38.1094</ele>
        <time>2014-06-21T13:25:14Z</time>
      </trkpt>
      <trkpt lat="60.0201623" lon="17.7473476">
        <ele>39.0707</ele>
        <time>2014-06-21T13:25:15Z</time>
      </trkpt>
      <trkpt lat="60.0201978" lon="17.7474436">
        <ele>40.9934</ele>
        <time>2014-06-21T13:25:16Z</time>
      </trkpt>
      <trkpt lat="60.0202267" lon="17.7475387">
        <ele>41.9547</ele>
        <time>2014-06-21T13:25:17Z</time>
      </trkpt>
      <trkpt lat="60.0202456" lon="17.7476508">
        <ele>43.8773</ele>
        <time>2014-06-21T13:25:18Z</time>
      </trkpt>
      <trkpt lat="60.0202593" lon="17.7477549">
        <ele>44.8386</ele>
        <time>2014-06-21T13:25:19Z</time>
      </trkpt>
      <trkpt lat="60.0202671" lon="17.7478293">
        <ele>44.8386</ele>
        <time>2014-06-21T13:25:20Z</time>
      </trkpt>
      <trkpt lat="60.0202439" lon="17.7479292">
        <ele>44.8386</ele>
        <time>2014-06-21T13:25:21Z</time>
      </trkpt>
      <trkpt lat="60.0202431" lon="17.7479978">
        <ele>44.358</ele>
        <time>2014-06-21T13:25:22Z</time>
      </trkpt>
      <trkpt lat="60.0202369" lon="17.7480775">
        <ele>44.8386</ele>
        <time>2014-06-21T13:25:23Z</time>
      </trkpt>
      <trkpt lat="60.0202292" lon="17.7481537">
        <ele>45.7999</ele>
        <time>2014-06-21T13:25:24Z</time>
      </trkpt>
      <trkpt lat="60.0202334" lon="17.7482295">
        <ele>46.2806</ele>
        <time>2014-06-21T13:25:25Z</time>
      </trkpt>
      <trkpt lat="60.0202337" lon="17.7483146">
        <ele>47.2418</ele>
        <time>2014-06-21T13:25:26Z</time>
      </trkpt>
      <trkpt lat="60.0202396" lon="17.7483961">
        <ele>47.7225</ele>
        <time>2014-06-21T13:25:27Z</time>
      </trkpt>
      <trkpt lat="60.0202466" lon="17.7484848">
        <ele>48.684</ele>
        <time>2014-06-21T13:25:28Z</time>
      </trkpt>
      <trkpt lat="60.0202649" lon="17.7485687">
        <ele>49.6453</ele>
        <time>2014-06-21T13:25:29Z</time>
      </trkpt>
      <trkpt lat="60.0202877" lon="17.748648">
        <ele>50.126</ele>
        <time>2014-06-21T13:25:30Z</time>
      </trkpt>
      <trkpt lat="60.0203153" lon="17.7487148">
        <ele>50.6066</ele>
        <time>2014-06-21T13:25:31Z</time>
      </trkpt>
      <trkpt lat="60.0203474" lon="17.7487721">
        <ele>50.6066</ele>
        <time>2014-06-21T13:25:32Z</time>
      </trkpt>
      <trkpt lat="60.0203825" lon="17.748822">
        <ele>50.6066</ele>
        <time>2014-06-21T13:25:33Z</time>
      </trkpt>
      <trkpt lat="60.0204205" lon="17.7488685">
        <ele>51.5679</ele>
        <time>2014-06-21T13:25:34Z</time>
      </trkpt>
      <trkpt lat="60.0204529" lon="17.7489142">
        <ele>52.0486</ele>
        <time>2014-06-21T13:25:35Z</time>
      </trkpt>
      <trkpt lat="60.0204839" lon="17.7489658">
        <ele>53.0098</ele>
        <time>2014-06-21T13:25:36Z</time>
      </trkpt>
      <trkpt lat="60.0205189" lon="17.7490146">
        <ele>53.0098</ele>
        <time>2014-06-21T13:25:37Z</time>
      </trkpt>
      <trkpt lat="60.0205591" lon="17.7490629">
        <ele>53.4905</ele>
        <time>2014-06-21T13:25:38Z</time>
      </trkpt>
      <trkpt lat="60.0205996" lon="17.7491174">
        <ele>53.4905</ele>
        <time>2014-06-21T13:25:39Z</time>
      </trkpt>
      <trkpt lat="60.0206447" lon="17.7491779">
        <ele>53.9712</ele>
        <time>2014-06-21T13:25:40Z</time>
      </trkpt>
      <trkpt lat="60.0206934" lon="17.749244">
        <ele>54.4518</ele>
        <time>2014-06-21T13:25:41Z</time>
      </trkpt>
      <trkpt lat="60.020743" lon="17.7492956">
        <ele>54.4518</ele>
        <time>2014-06-21T13:25:42Z</time>
      </trkpt>
      <trkpt lat="60.0207902" lon="17.7493543">
        <ele>54.4518</ele>
        <time>2014-06-21T13:25:43Z</time>
      </trkpt>
      <trkpt lat="60.0208375" lon="17.749412">
        <ele>54.4518</ele>
        <time>2014-06-21T13:25:44Z</time>
      </trkpt>
      <trkpt lat="60.0208841" lon="17.7494731">
        <ele>54.4518</ele>
        <time>2014-06-21T13:25:45Z</time>
      </trkpt>
      <trkpt lat="60.0209283" lon="17.7495471">
        <ele>54.9324</ele>
        <time>2014-06-21T13:25:46Z</time>
      </trkpt>
      <trkpt lat="60.0209736" lon="17.7496325">
        <ele>54.9324</ele>
        <time>2014-06-21T13:25:47Z</time>
      </trkpt>
      <trkpt lat="60.0210213" lon="17.7497293">
        <ele>55.4131</ele>
        <time>2014-06-21T13:25:48Z</time>
      </trkpt>
      <trkpt lat="60.0210662" lon="17.7498373">
        <ele>55.4131</ele>
        <time>2014-06-21T13:25:49Z</time>
      </trkpt>
      <trkpt lat="60.0211042" lon="17.7499658">
        <ele>55.8938</ele>
        <time>2014-06-21T13:25:50Z</time>
      </trkpt>
      <trkpt lat="60.0211347" lon="17.7501003">
        <ele>56.3745</ele>
        <time>2014-06-21T13:25:51Z</time>
      </trkpt>
      <trkpt lat="60.0211537" lon="17.7502411">
        <ele>56.3745</ele>
        <time>2014-06-21T13:25:52Z</time>
      </trkpt>
      <trkpt lat="60.0211616" lon="17.7503815">
        <ele>55.8938</ele>
        <time>2014-06-21T13:25:53Z</time>
      </trkpt>
      <trkpt lat="60.0211599" lon="17.7505257">
        <ele>54.4518</ele>
        <time>2014-06-21T13:25:54Z</time>
      </trkpt>
      <trkpt lat="60.0211575" lon="17.7506776">
        <ele>53.9712</ele>
        <time>2014-06-21T13:25:55Z</time>
      </trkpt>
      <trkpt lat="60.0211497" lon="17.7508246">
        <ele>53.4905</ele>
        <time>2014-06-21T13:25:56Z</time>
      </trkpt>
      <trkpt lat="60.0211305" lon="17.7509629">
        <ele>52.5292</ele>
        <time>2014-06-21T13:25:57Z</time>
      </trkpt>
      <trkpt lat="60.0211025" lon="17.7510975">
        <ele>52.0486</ele>
        <time>2014-06-21T13:25:58Z</time>
      </trkpt>
      <trkpt lat="60.02107" lon="17.7512233">
        <ele>51.0872</ele>
        <time>2014-06-21T13:25:59Z</time>
      </trkpt>
      <trkpt lat="60.0210362" lon="17.7513509">
        <ele>50.6066</ele>
        <time>2014-06-21T13:26:00Z</time>
      </trkpt>
      <trkpt lat="60.0210029" lon="17.7514761">
        <ele>50.126</ele>
        <time>2014-06-21T13:26:01Z</time>
      </trkpt>
      <trkpt lat="60.0209617" lon="17.7515942">
        <ele>49.6453</ele>
        <time>2014-06-21T13:26:02Z</time>
      </trkpt>
      <trkpt lat="60.020918" lon="17.7516959">
        <ele>48.2034</ele>
        <time>2014-06-21T13:26:03Z</time>
      </trkpt>
      <trkpt lat="60.0208824" lon="17.7517974">
        <ele>47.7225</ele>
        <time>2014-06-21T13:26:04Z</time>
      </trkpt>
      <trkpt lat="60.0208483" lon="17.7518983">
        <ele>47.2418</ele>
        <time>2014-06-21T13:26:05Z</time>
      </trkpt>
      <trkpt lat="60.0208156" lon="17.7520067">
        <ele>47.2418</ele>
        <time>2014-06-21T13:26:06Z</time>
      </trkpt>
      <trkpt lat="60.0207793" lon="17.7521119">
        <ele>46.7612</ele>
        <time>2014-06-21T13:26:07Z</time>
      </trkpt>
      <trkpt lat="60.0207437" lon="17.7522206">
        <ele>46.2806</ele>
        <time>2014-06-21T13:26:08Z</time>
      </trkpt>
      <trkpt lat="60.0207062" lon="17.7523283">
        <ele>45.3192</ele>
        <time>2014-06-21T13:26:09Z</time>
      </trkpt>
      <trkpt lat="60.020673" lon="17.7524398">
        <ele>45.3192</ele>
        <time>2014-06-21T13:26:10Z</time>
      </trkpt>
      <trkpt lat="60.0206384" lon="17.7525507">
        <ele>45.3192</ele>
        <time>2014-06-21T13:26:11Z</time>
      </trkpt>
      <trkpt lat="60.0206038" lon="17.7526657">
        <ele>44.8386</ele>
        <time>2014-06-21T13:26:12Z</time>
      </trkpt>
      <trkpt lat="60.0205684" lon="17.7527805">
        <ele>44.8386</ele>
        <time>2014-06-21T13:26:13Z</time>
      </trkpt>
      <trkpt lat="60.0205295" lon="17.7528935">
        <ele>44.358</ele>
        <time>2014-06-21T13:26:14Z</time>
      </trkpt>
      <trkpt lat="60.020493" lon="17.7530094">
        <ele>44.358</ele>
        <time>2014-06-21T13:26:15Z</time>
      </trkpt>
      <trkpt lat="60.0204598" lon="17.7531189">
        <ele>44.358</ele>
        <time>2014-06-21T13:26:16Z</time>
      </trkpt>
      <trkpt lat="60.0204243" lon="17.7532213">
        <ele>43.8773</ele>
        <time>2014-06-21T13:26:17Z</time>
      </trkpt>
      <trkpt lat="60.0203976" lon="17.7533257">
        <ele>44.358</ele>
        <time>2014-06-21T13:26:18Z</time>
      </trkpt>
      <trkpt lat="60.0203696" lon="17.75343">
        <ele>44.358</ele>
        <time>2014-06-21T13:26:19Z</time>
      </trkpt>
      <trkpt lat="60.020344" lon="17.7535367">
        <ele>44.8386</ele>
        <time>2014-06-21T13:26:20Z</time>
      </trkpt>
      <trkpt lat="60.0203189" lon="17.7536487">
        <ele>45.3192</ele>
        <time>2014-06-21T13:26:21Z</time>
      </trkpt>
      <trkpt lat="60.0202957" lon="17.7537642">
        <ele>45.3192</ele>
        <time>2014-06-21T13:26:22Z</time>
      </trkpt>
      <trkpt lat="60.0202708" lon="17.7538798">
        <ele>45.3192</ele>
        <time>2014-06-21T13:26:23Z</time>
      </trkpt>
      <trkpt lat="60.0202466" lon="17.7540036">
        <ele>45.7999</ele>
        <time>2014-06-21T13:26:24Z</time>
      </trkpt>
      <trkpt lat="60.0202241" lon="17.7541272">
        <ele>46.2806</ele>
        <time>2014-06-21T13:26:25Z</time>
      </trkpt>
      <trkpt lat="60.0202013" lon="17.7542451">
        <ele>45.7999</ele>
        <time>2014-06-21T13:26:26Z</time>
      </trkpt>
      <trkpt lat="60.0201805" lon="17.7543629">
        <ele>46.2806</ele>
        <time>2014-06-21T13:26:27Z</time>
      </trkpt>
      <trkpt lat="60.0201571" lon="17.7544791">
        <ele>46.2806</ele>
        <time>2014-06-21T13:26:28Z</time>
      </trkpt>
      <trkpt lat="60.0201296" lon="17.7545971">
        <ele>46.2806</ele>
        <time>2014-06-21T13:26:29Z</time>
      </trkpt>
      <trkpt lat="60.0201004" lon="17.7547148">
        <ele>46.2806</ele>
        <time>2014-06-21T13:26:30Z</time>
      </trkpt>
      <trkpt lat="60.0200734" lon="17.7548354">
        <ele>46.2806</ele>
        <time>2014-06-21T13:26:31Z</time>
      </trkpt>
      <trkpt lat="60.0200448" lon="17.7549489">
        <ele>45.7999</ele>
        <time>2014-06-21T13:26:32Z</time>
      </trkpt>
      <trkpt lat="60.0200214" lon="17.755078">
        <ele>46.7612</ele>
        <time>2014-06-21T13:26:33Z</time>
      </trkpt>
      <trkpt lat="60.0199959" lon="17.7551986">
        <ele>46.7612</ele>
        <time>2014-06-21T13:26:34Z</time>
      </trkpt>
      <trkpt lat="60.0199733" lon="17.7553239">
        <ele>46.7612</ele>
        <time>2014-06-21T13:26:35Z</time>
      </trkpt>
      <trkpt lat="60.0199532" lon="17.7554484">
        <ele>46.7612</ele>
        <time>2014-06-21T13:26:36Z</time>
      </trkpt>
      <trkpt lat="60.0199366" lon="17.7555793">
        <ele>46.7612</ele>
        <time>2014-06-21T13:26:37Z</time>
      </trkpt>
      <trkpt lat="60.0199231" lon="17.7557096">
        <ele>46.7612</ele>
        <time>2014-06-21T13:26:38Z</time>
      </trkpt>
      <trkpt lat="60.0199122" lon="17.7558357">
        <ele>46.2806</ele>
        <time>2014-06-21T13:26:39Z</time>
      </trkpt>
      <trkpt lat="60.0199037" lon="17.7559638">
        <ele>45.3192</ele>
        <time>2014-06-21T13:26:40Z</time>
      </trkpt>
      <trkpt lat="60.0198966" lon="17.7560983">
        <ele>45.3192</ele>
        <time>2014-06-21T13:26:41Z</time>
      </trkpt>
      <trkpt lat="60.0198867" lon="17.7562332">
        <ele>45.3192</ele>
        <time>2014-06-21T13:26:42Z</time>
      </trkpt>
      <trkpt lat="60.0198775" lon="17.7563723">
        <ele>45.3192</ele>
        <time>2014-06-21T13:26:43Z</time>
      </trkpt>
      <trkpt lat="60.0198669" lon="17.7565114">
        <ele>44.8386</ele>
        <time>2014-06-21T13:26:44Z</time>
      </trkpt>
      <trkpt lat="60.0198584" lon="17.7566522">
        <ele>44.8386</ele>
        <time>2014-06-21T13:26:45Z</time>
      </trkpt>
      <trkpt lat="60.0198479" lon="17.7567931">
        <ele>45.3192</ele>
        <time>2014-06-21T13:26:46Z</time>
      </trkpt>
      <trkpt lat="60.01982" lon="17.7569157">
        <ele>44.8386</ele>
        <time>2014-06-21T13:26:47Z</time>
      </trkpt>
      <trkpt lat="60.0197863" lon="17.7570258">
        <ele>44.358</ele>
        <time>2014-06-21T13:26:48Z</time>
      </trkpt>
      <trkpt lat="60.0197473" lon="17.7571319">
        <ele>43.8773</ele>
        <time>2014-06-21T13:26:49Z</time>
      </trkpt>
      <trkpt lat="60.0197014" lon="17.7572327">
        <ele>43.3966</ele>
        <time>2014-06-21T13:26:50Z</time>
      </trkpt>
      <trkpt lat="60.019666" lon="17.7573417">
        <ele>43.3966</ele>
        <time>2014-06-21T13:26:51Z</time>
      </trkpt>
      <trkpt lat="60.0196395" lon="17.7574549">
        <ele>43.8773</ele>
        <time>2014-06-21T13:26:52Z</time>
      </trkpt>
      <trkpt lat="60.0196232" lon="17.7575718">
        <ele>44.358</ele>
        <time>2014-06-21T13:26:53Z</time>
      </trkpt>
      <trkpt lat="60.0196138" lon="17.7576924">
        <ele>44.358</ele>
        <time>2014-06-21T13:26:54Z</time>
      </trkpt>
      <trkpt lat="60.0196118" lon="17.757821">
        <ele>44.8386</ele>
        <time>2014-06-21T13:26:55Z</time>
      </trkpt>
      <trkpt lat="60.0196114" lon="17.7579538">
        <ele>45.3192</ele>
        <time>2014-06-21T13:26:56Z</time>
      </trkpt>
      <trkpt lat="60.0196056" lon="17.758083">
        <ele>45.3192</ele>
        <time>2014-06-21T13:26:57Z</time>
      </trkpt>
      <trkpt lat="60.0196009" lon="17.7582161">
        <ele>45.7999</ele>
        <time>2014-06-21T13:26:58Z</time>
      </trkpt>
      <trkpt lat="60.019589" lon="17.7583332">
        <ele>46.7612</ele>
        <time>2014-06-21T13:26:59Z</time>
      </trkpt>
      <trkpt lat="60.0195717" lon="17.7584358">
        <ele>46.7612</ele>
        <time>2014-06-21T13:27:00Z</time>
      </trkpt>
      <trkpt lat="60.0195552" lon="17.7585414">
        <ele>47.2418</ele>
        <time>2014-06-21T13:27:01Z</time>
      </trkpt>
      <trkpt lat="60.019544" lon="17.7586547">
        <ele>47.7225</ele>
        <time>2014-06-21T13:27:02Z</time>
      </trkpt>
      <trkpt lat="60.0195366" lon="17.7587728">
        <ele>48.2034</ele>
        <time>2014-06-21T13:27:03Z</time>
      </trkpt>
      <trkpt lat="60.0195333" lon="17.7588934">
        <ele>48.684</ele>
        <time>2014-06-21T13:27:04Z</time>
      </trkpt>
      <trkpt lat="60.0195371" lon="17.7590154">
        <ele>48.684</ele>
        <time>2014-06-21T13:27:05Z</time>
      </trkpt>
      <trkpt lat="60.0195473" lon="17.759138">
        <ele>48.684</ele>
        <time>2014-06-21T13:27:06Z</time>
      </trkpt>
      <trkpt lat="60.0195517" lon="17.7592863">
        <ele>49.6453</ele>
        <time>2014-06-21T13:27:07Z</time>
      </trkpt>
      <trkpt lat="60.0195642" lon="17.7594004">
        <ele>49.6453</ele>
        <time>2014-06-21T13:27:08Z</time>
      </trkpt>
      <trkpt lat="60.0195641" lon="17.759525">
        <ele>49.1646</ele>
        <time>2014-06-21T13:27:09Z</time>
      </trkpt>
      <trkpt lat="60.0195542" lon="17.7596466">
        <ele>49.1646</ele>
        <time>2014-06-21T13:27:10Z</time>
      </trkpt>
      <trkpt lat="60.0195401" lon="17.7597616">
        <ele>49.1646</ele>
        <time>2014-06-21T13:27:11Z</time>
      </trkpt>
      <trkpt lat="60.0195335" lon="17.7598881">
        <ele>49.1646</ele>
        <time>2014-06-21T13:27:12Z</time>
      </trkpt>
      <trkpt lat="60.0195303" lon="17.7600085">
        <ele>49.1646</ele>
        <time>2014-06-21T13:27:13Z</time>
      </trkpt>
      <trkpt lat="60.0195238" lon="17.7601312">
        <ele>49.6453</ele>
        <time>2014-06-21T13:27:14Z</time>
      </trkpt>
      <trkpt lat="60.0195092" lon="17.7602444">
        <ele>49.6453</ele>
        <time>2014-06-21T13:27:15Z</time>
      </trkpt>
      <trkpt lat="60.0194781" lon="17.7603548">
        <ele>49.6453</ele>
        <time>2014-06-21T13:27:16Z</time>
      </trkpt>
      <trkpt lat="60.0194455" lon="17.7604623">
        <ele>49.6453</ele>
        <time>2014-06-21T13:27:17Z</time>
      </trkpt>
      <trkpt lat="60.0194222" lon="17.7605866">
        <ele>49.6453</ele>
        <time>2014-06-21T13:27:18Z</time>
      </trkpt>
      <trkpt lat="60.0194062" lon="17.7607207">
        <ele>49.6453</ele>
        <time>2014-06-21T13:27:19Z</time>
      </trkpt>
      <trkpt lat="60.0193925" lon="17.7608615">
        <ele>49.1646</ele>
        <time>2014-06-21T13:27:20Z</time>
      </trkpt>
      <trkpt lat="60.0193808" lon="17.7610038">
        <ele>49.6453</ele>
        <time>2014-06-21T13:27:21Z</time>
      </trkpt>
      <trkpt lat="60.0193672" lon="17.7611382">
        <ele>49.1646</ele>
        <time>2014-06-21T13:27:22Z</time>
      </trkpt>
      <trkpt lat="60.0193526" lon="17.7612629">
        <ele>48.684</ele>
        <time>2014-06-21T13:27:23Z</time>
      </trkpt>
      <trkpt lat="60.0193355" lon="17.7613864">
        <ele>48.684</ele>
        <time>2014-06-21T13:27:24Z</time>
      </trkpt>
      <trkpt lat="60.0193176" lon="17.7614978">
        <ele>48.684</ele>
        <time>2014-06-21T13:27:25Z</time>
      </trkpt>
      <trkpt lat="60.0193011" lon="17.7616044">
        <ele>48.684</ele>
        <time>2014-06-21T13:27:26Z</time>
      </trkpt>
      <trkpt lat="60.0192873" lon="17.7617117">
        <ele>48.684</ele>
        <time>2014-06-21T13:27:27Z</time>
      </trkpt>
      <trkpt lat="60.0192735" lon="17.7618234">
        <ele>48.684</ele>
        <time>2014-06-21T13:27:28Z</time>
      </trkpt>
      <trkpt lat="60.019258" lon="17.7619314">
        <ele>48.684</ele>
        <time>2014-06-21T13:27:29Z</time>
      </trkpt>
      <trkpt lat="60.019245" lon="17.7620349">
        <ele>49.1646</ele>
        <time>2014-06-21T13:27:30Z</time>
      </trkpt>
      <trkpt lat="60.0192314" lon="17.7621277">
        <ele>48.684</ele>
        <time>2014-06-21T13:27:31Z</time>
      </trkpt>
      <trkpt lat="60.0192212" lon="17.7622177">
        <ele>48.684</ele>
        <time>2014-06-21T13:27:32Z</time>
      </trkpt>
      <trkpt lat="60.0192174" lon="17.7623059">
        <ele>48.684</ele>
        <time>2014-06-21T13:27:33Z</time>
      </trkpt>
      <trkpt lat="60.0192189" lon="17.7623959">
        <ele>49.1646</ele>
        <time>2014-06-21T13:27:34Z</time>
      </trkpt>
      <trkpt lat="60.0192248" lon="17.7624861">
        <ele>49.6453</ele>
        <time>2014-06-21T13:27:35Z</time>
      </trkpt>
      <trkpt lat="60.019231" lon="17.76257">
        <ele>49.6453</ele>
        <time>2014-06-21T13:27:36Z</time>
      </trkpt>
      <trkpt lat="60.0192362" lon="17.7626589">
        <ele>50.6066</ele>
        <time>2014-06-21T13:27:37Z</time>
      </trkpt>
      <trkpt lat="60.0192341" lon="17.7627476">
        <ele>51.5679</ele>
        <time>2014-06-21T13:27:38Z</time>
      </trkpt>
      <trkpt lat="60.0192242" lon="17.7628295">
        <ele>51.5679</ele>
        <time>2014-06-21T13:27:39Z</time>
      </trkpt>
      <trkpt lat="60.0192035" lon="17.7628999">
        <ele>51.0872</ele>
        <time>2014-06-21T13:27:40Z</time>
      </trkpt>
      <trkpt lat="60.0191785" lon="17.7629593">
        <ele>51.0872</ele>
        <time>2014-06-21T13:27:41Z</time>
      </trkpt>
      <trkpt lat="60.0191482" lon="17.763016">
        <ele>51.5679</ele>
        <time>2014-06-21T13:27:42Z</time>
      </trkpt>
      <trkpt lat="60.0191125" lon="17.76306">
        <ele>50.6066</ele>
        <time>2014-06-21T13:27:43Z</time>
      </trkpt>
      <trkpt lat="60.0190799" lon="17.7630973">
        <ele>50.126</ele>
        <time>2014-06-21T13:27:44Z</time>
      </trkpt>
      <trkpt lat="60.0190564" lon="17.7631342">
        <ele>50.126</ele>
        <time>2014-06-21T13:27:45Z</time>
      </trkpt>
      <trkpt lat="60.0190332" lon="17.7631662">
        <ele>50.126</ele>
        <time>2014-06-21T13:27:46Z</time>
      </trkpt>
      <trkpt lat="60.0190104" lon="17.7632087">
        <ele>51.0872</ele>
        <time>2014-06-21T13:27:47Z</time>
      </trkpt>
      <trkpt lat="60.0189889" lon="17.7632382">
        <ele>51.0872</ele>
        <time>2014-06-21T13:27:48Z</time>
      </trkpt>
      <trkpt lat="60.0189666" lon="17.7632811">
        <ele>52.0486</ele>
        <time>2014-06-21T13:27:49Z</time>
      </trkpt>
      <trkpt lat="60.0189456" lon="17.7633238">
        <ele>53.4905</ele>
        <time>2014-06-21T13:27:50Z</time>
      </trkpt>
      <trkpt lat="60.0189275" lon="17.7633696">
        <ele>55.4131</ele>
        <time>2014-06-21T13:27:51Z</time>
      </trkpt>
      <trkpt lat="60.0189117" lon="17.7634043">
        <ele>56.8551</ele>
        <time>2014-06-21T13:27:52Z</time>
      </trkpt>
      <trkpt lat="60.0188898" lon="17.7634431">
        <ele>57.8165</ele>
        <time>2014-06-21T13:27:53Z</time>
      </trkpt>
      <trkpt lat="60.018874" lon="17.7634822">
        <ele>58.7777</ele>
        <time>2014-06-21T13:27:54Z</time>
      </trkpt>
      <trkpt lat="60.0188592" lon="17.7635148">
        <ele>59.2584</ele>
        <time>2014-06-21T13:27:55Z</time>
      </trkpt>
      <trkpt lat="60.0188428" lon="17.7635475">
        <ele>59.2584</ele>
        <time>2014-06-21T13:27:56Z</time>
      </trkpt>
      <trkpt lat="60.0188286" lon="17.7635837">
        <ele>59.2584</ele>
        <time>2014-06-21T13:27:57Z</time>
      </trkpt>
      <trkpt lat="60.0188077" lon="17.7636175">
        <ele>59.2584</ele>
        <time>2014-06-21T13:27:58Z</time>
      </trkpt>
      <trkpt lat="60.0187927" lon="17.7636599">
        <ele>60.2197</ele>
        <time>2014-06-21T13:27:59Z</time>
      </trkpt>
      <trkpt lat="60.0187705" lon="17.763697">
        <ele>60.7003</ele>
        <time>2014-06-21T13:28:00Z</time>
      </trkpt>
      <trkpt lat="60.0187493" lon="17.763738">
        <ele>61.6617</ele>
        <time>2014-06-21T13:28:01Z</time>
      </trkpt>
      <trkpt lat="60.0187147" lon="17.7637674">
        <ele>60.2197</ele>
        <time>2014-06-21T13:28:02Z</time>
      </trkpt>
      <trkpt lat="60.0186757" lon="17.7637928">
        <ele>59.2584</ele>
        <time>2014-06-21T13:28:03Z</time>
      </trkpt>
      <trkpt lat="60.0186286" lon="17.7638142">
        <ele>58.2971</ele>
        <time>2014-06-21T13:28:04Z</time>
      </trkpt>
      <trkpt lat="60.0185732" lon="17.7638204">
        <ele>56.8551</ele>
        <time>2014-06-21T13:28:05Z</time>
      </trkpt>
      <trkpt lat="60.018523" lon="17.7638111">
        <ele>55.8938</ele>
        <time>2014-06-21T13:28:06Z</time>
      </trkpt>
      <trkpt lat="60.018481" lon="17.7637972">
        <ele>55.8938</ele>
        <time>2014-06-21T13:28:07Z</time>
      </trkpt>
      <trkpt lat="60.0184344" lon="17.7637703">
        <ele>54.9324</ele>
        <time>2014-06-21T13:28:08Z</time>
      </trkpt>
      <trkpt lat="60.0183829" lon="17.763733">
        <ele>53.9712</ele>
        <time>2014-06-21T13:28:09Z</time>
      </trkpt>
      <trkpt lat="60.0183329" lon="17.7636918">
        <ele>53.0098</ele>
        <time>2014-06-21T13:28:10Z</time>
      </trkpt>
      <trkpt lat="60.0182877" lon="17.763649">
        <ele>52.5292</ele>
        <time>2014-06-21T13:28:11Z</time>
      </trkpt>
      <trkpt lat="60.0182416" lon="17.7635977">
        <ele>52.5292</ele>
        <time>2014-06-21T13:28:12Z</time>
      </trkpt>
      <trkpt lat="60.0181961" lon="17.7635441">
        <ele>52.0486</ele>
        <time>2014-06-21T13:28:13Z</time>
      </trkpt>
      <trkpt lat="60.0181506" lon="17.763493">
        <ele>52.0486</ele>
        <time>2014-06-21T13:28:14Z</time>
      </trkpt>
      <trkpt lat="60.018109" lon="17.7634464">
        <ele>52.0486</ele>
        <time>2014-06-21T13:28:15Z</time>
      </trkpt>
      <trkpt lat="60.0180707" lon="17.763376">
        <ele>52.0486</ele>
        <time>2014-06-21T13:28:16Z</time>
      </trkpt>
      <trkpt lat="60.0180363" lon="17.7632865">
        <ele>52.0486</ele>
        <time>2014-06-21T13:28:17Z</time>
      </trkpt>
      <trkpt lat="60.0180083" lon="17.7631746">
        <ele>51.0872</ele>
        <time>2014-06-21T13:28:18Z</time>
      </trkpt>
      <trkpt lat="60.017978" lon="17.7630419">
        <ele>50.6066</ele>
        <time>2014-06-21T13:28:19Z</time>
      </trkpt>
      <trkpt lat="60.0179441" lon="17.7628969">
        <ele>50.126</ele>
        <time>2014-06-21T13:28:20Z</time>
      </trkpt>
      <trkpt lat="60.017908" lon="17.7627542">
        <ele>50.126</ele>
        <time>2014-06-21T13:28:21Z</time>
      </trkpt>
      <trkpt lat="60.0178716" lon="17.7626195">
        <ele>50.126</ele>
        <time>2014-06-21T13:28:22Z</time>
      </trkpt>
      <trkpt lat="60.0178349" lon="17.7624938">
        <ele>49.6453</ele>
        <time>2014-06-21T13:28:23Z</time>
      </trkpt>
      <trkpt lat="60.0177999" lon="17.7623721">
        <ele>49.1646</ele>
        <time>2014-06-21T13:28:24Z</time>
      </trkpt>
      <trkpt lat="60.0177617" lon="17.7622431">
        <ele>48.684</ele>
        <time>2014-06-21T13:28:25Z</time>
      </trkpt>
      <trkpt lat="60.0177167" lon="17.762115">
        <ele>48.684</ele>
        <time>2014-06-21T13:28:26Z</time>
      </trkpt>
      <trkpt lat="60.0176599" lon="17.761994">
        <ele>48.2034</ele>
        <time>2014-06-21T13:28:27Z</time>
      </trkpt>
      <trkpt lat="60.0175983" lon="17.7618809">
        <ele>47.7225</ele>
        <time>2014-06-21T13:28:28Z</time>
      </trkpt>
      <trkpt lat="60.0175281" lon="17.761771">
        <ele>47.2418</ele>
        <time>2014-06-21T13:28:29Z</time>
      </trkpt>
      <trkpt lat="60.0174593" lon="17.7616799">
        <ele>46.7612</ele>
        <time>2014-06-21T13:28:30Z</time>
      </trkpt>
      <trkpt lat="60.0173974" lon="17.7616011">
        <ele>46.2806</ele>
        <time>2014-06-21T13:28:31Z</time>
      </trkpt>
      <trkpt lat="60.0173385" lon="17.761525">
        <ele>45.3192</ele>
        <time>2014-06-21T13:28:32Z</time>
      </trkpt>
      <trkpt lat="60.0172832" lon="17.761436">
        <ele>45.7999</ele>
        <time>2014-06-21T13:28:33Z</time>
      </trkpt>
      <trkpt lat="60.0172331" lon="17.7613344">
        <ele>45.3192</ele>
        <time>2014-06-21T13:28:34Z</time>
      </trkpt>
      <trkpt lat="60.0171937" lon="17.7612196">
        <ele>45.3192</ele>
        <time>2014-06-21T13:28:35Z</time>
      </trkpt>
      <trkpt lat="60.0171611" lon="17.7610931">
        <ele>44.8386</ele>
        <time>2014-06-21T13:28:36Z</time>
      </trkpt>
      <trkpt lat="60.0171311" lon="17.7609585">
        <ele>44.8386</ele>
        <time>2014-06-21T13:28:37Z</time>
      </trkpt>
      <trkpt lat="60.0171035" lon="17.7608191">
        <ele>44.358</ele>
        <time>2014-06-21T13:28:38Z</time>
      </trkpt>
      <trkpt lat="60.0170728" lon="17.7606829">
        <ele>44.8386</ele>
        <time>2014-06-21T13:28:39Z</time>
      </trkpt>
      <trkpt lat="60.0170378" lon="17.7605574">
        <ele>44.8386</ele>
        <time>2014-06-21T13:28:40Z</time>
      </trkpt>
      <trkpt lat="60.017007" lon="17.7604497">
        <ele>44.8386</ele>
        <time>2014-06-21T13:28:41Z</time>
      </trkpt>
      <trkpt lat="60.0169843" lon="17.7603466">
        <ele>44.8386</ele>
        <time>2014-06-21T13:28:42Z</time>
      </trkpt>
      <trkpt lat="60.0169609" lon="17.7602343">
        <ele>44.358</ele>
        <time>2014-06-21T13:28:43Z</time>
      </trkpt>
      <trkpt lat="60.0169459" lon="17.7601166">
        <ele>43.3966</ele>
        <time>2014-06-21T13:28:44Z</time>
      </trkpt>
      <trkpt lat="60.0169276" lon="17.7599545">
        <ele>43.3966</ele>
        <time>2014-06-21T13:28:45Z</time>
      </trkpt>
      <trkpt lat="60.0169175" lon="17.759799">
        <ele>42.4354</ele>
        <time>2014-06-21T13:28:46Z</time>
      </trkpt>
      <trkpt lat="60.016901" lon="17.7596075">
        <ele>42.916</ele>
        <time>2014-06-21T13:28:47Z</time>
      </trkpt>
      <trkpt lat="60.0168558" lon="17.7594083">
        <ele>41.9547</ele>
        <time>2014-06-21T13:28:48Z</time>
      </trkpt>
      <trkpt lat="60.0168056" lon="17.7591992">
        <ele>41.474</ele>
        <time>2014-06-21T13:28:49Z</time>
      </trkpt>
      <trkpt lat="60.0167789" lon="17.7590252">
        <ele>41.474</ele>
        <time>2014-06-21T13:28:50Z</time>
      </trkpt>
      <trkpt lat="60.0167678" lon="17.7588911">
        <ele>41.474</ele>
        <time>2014-06-21T13:28:51Z</time>
      </trkpt>
      <trkpt lat="60.0167586" lon="17.7587424">
        <ele>41.474</ele>
        <time>2014-06-21T13:28:52Z</time>
      </trkpt>
      <trkpt lat="60.0167415" lon="17.7585661">
        <ele>41.474</ele>
        <time>2014-06-21T13:28:53Z</time>
      </trkpt>
      <trkpt lat="60.0167301" lon="17.7584254">
        <ele>41.474</ele>
        <time>2014-06-21T13:28:54Z</time>
      </trkpt>
      <trkpt lat="60.016719" lon="17.7583446">
        <ele>41.474</ele>
        <time>2014-06-21T13:28:55Z</time>
      </trkpt>
      <trkpt lat="60.0166968" lon="17.7582819">
        <ele>41.474</ele>
        <time>2014-06-21T13:28:56Z</time>
      </trkpt>
      <trkpt lat="60.016669" lon="17.7582741">
        <ele>41.474</ele>
        <time>2014-06-21T13:28:57Z</time>
      </trkpt>
      <trkpt lat="60.0166112" lon="17.7582464">
        <ele>41.474</ele>
        <time>2014-06-21T13:28:58Z</time>
      </trkpt>
      <trkpt lat="60.0165603" lon="17.7582551">
        <ele>41.474</ele>
        <time>2014-06-21T13:28:59Z</time>
      </trkpt>
      <trkpt lat="60.0164981" lon="17.7582366">
        <ele>41.474</ele>
        <time>2014-06-21T13:29:00Z</time>
      </trkpt>
      <trkpt lat="60.0164452" lon="17.7582">
        <ele>41.474</ele>
        <time>2014-06-21T13:29:01Z</time>
      </trkpt>
      <trkpt lat="60.0163954" lon="17.7581196">
        <ele>40.9934</ele>
        <time>2014-06-21T13:29:02Z</time>
      </trkpt>
      <trkpt lat="60.0163437" lon="17.7580071">
        <ele>40.0321</ele>
        <time>2014-06-21T13:29:03Z</time>
      </trkpt>
      <trkpt lat="60.0163303" lon="17.7578608">
        <ele>39.5513</ele>
        <time>2014-06-21T13:29:04Z</time>
      </trkpt>
      <trkpt lat="60.0163121" lon="17.757716">
        <ele>39.5513</ele>
        <time>2014-06-21T13:29:05Z</time>
      </trkpt>
      <trkpt lat="60.0162912" lon="17.75758">
        <ele>39.0707</ele>
        <time>2014-06-21T13:29:06Z</time>
      </trkpt>
      <trkpt lat="60.0162689" lon="17.7574394">
        <ele>38.5901</ele>
        <time>2014-06-21T13:29:07Z</time>
      </trkpt>
      <trkpt lat="60.0162451" lon="17.757308">
        <ele>38.1094</ele>
        <time>2014-06-21T13:29:08Z</time>
      </trkpt>
      <trkpt lat="60.0162198" lon="17.7571771">
        <ele>38.1094</ele>
        <time>2014-06-21T13:29:09Z</time>
      </trkpt>
      <trkpt lat="60.0161954" lon="17.7570428">
        <ele>37.6287</ele>
        <time>2014-06-21T13:29:10Z</time>
      </trkpt>
      <trkpt lat="60.0161793" lon="17.756904">
        <ele>37.1481</ele>
        <time>2014-06-21T13:29:11Z</time>
      </trkpt>
      <trkpt lat="60.0161658" lon="17.7567655">
        <ele>36.6675</ele>
        <time>2014-06-21T13:29:12Z</time>
      </trkpt>
      <trkpt lat="60.0161529" lon="17.7566289">
        <ele>36.1868</ele>
        <time>2014-06-21T13:29:13Z</time>
      </trkpt>
      <trkpt lat="60.0161364" lon="17.7565004">
        <ele>36.1868</ele>
        <time>2014-06-21T13:29:14Z</time>
      </trkpt>
      <trkpt lat="60.0161226" lon="17.7563767">
        <ele>36.1868</ele>
        <time>2014-06-21T13:29:15Z</time>
      </trkpt>
      <trkpt lat="60.0161176" lon="17.7562529">
        <ele>36.1868</ele>
        <time>2014-06-21T13:29:16Z</time>
      </trkpt>
      <trkpt lat="60.0161121" lon="17.7561336">
        <ele>35.7061</ele>
        <time>2014-06-21T13:29:17Z</time>
      </trkpt>
      <trkpt lat="60.0160975" lon="17.7560143">
        <ele>35.2255</ele>
        <time>2014-06-21T13:29:18Z</time>
      </trkpt>
      <trkpt lat="60.0160749" lon="17.7558938">
        <ele>35.2255</ele>
        <time>2014-06-21T13:29:19Z</time>
      </trkpt>
      <trkpt lat="60.0160536" lon="17.755765">
        <ele>34.7449</ele>
        <time>2014-06-21T13:29:20Z</time>
      </trkpt>
      <trkpt lat="60.0160411" lon="17.7556282">
        <ele>33.7834</ele>
        <time>2014-06-21T13:29:21Z</time>
      </trkpt>
      <trkpt lat="60.0160468" lon="17.7554889">
        <ele>33.3029</ele>
        <time>2014-06-21T13:29:22Z</time>
      </trkpt>
      <trkpt lat="60.0160619" lon="17.7553391">
        <ele>32.8223</ele>
        <time>2014-06-21T13:29:23Z</time>
      </trkpt>
      <trkpt lat="60.0160806" lon="17.7551886">
        <ele>32.3416</ele>
        <time>2014-06-21T13:29:24Z</time>
      </trkpt>
      <trkpt lat="60.0161011" lon="17.7550401">
        <ele>32.3416</ele>
        <time>2014-06-21T13:29:25Z</time>
      </trkpt>
      <trkpt lat="60.0161153" lon="17.7548858">
        <ele>32.3416</ele>
        <time>2014-06-21T13:29:26Z</time>
      </trkpt>
      <trkpt lat="60.016123" lon="17.7547452">
        <ele>32.3416</ele>
        <time>2014-06-21T13:29:27Z</time>
      </trkpt>
      <trkpt lat="60.0161131" lon="17.7545973">
        <ele>32.3416</ele>
        <time>2014-06-21T13:29:28Z</time>
      </trkpt>
      <trkpt lat="60.0160598" lon="17.7544608">
        <ele>32.8223</ele>
        <time>2014-06-21T13:29:29Z</time>
      </trkpt>
      <trkpt lat="60.0160246" lon="17.7543652">
        <ele>33.3029</ele>
        <time>2014-06-21T13:29:30Z</time>
      </trkpt>
      <trkpt lat="60.0159753" lon="17.7543301">
        <ele>33.3029</ele>
        <time>2014-06-21T13:29:31Z</time>
      </trkpt>
      <trkpt lat="60.0159137" lon="17.7543339">
        <ele>33.3029</ele>
        <time>2014-06-21T13:29:32Z</time>
      </trkpt>
      <trkpt lat="60.0158496" lon="17.7543191">
        <ele>32.8223</ele>
        <time>2014-06-21T13:29:33Z</time>
      </trkpt>
      <trkpt lat="60.0157873" lon="17.7542705">
        <ele>32.8223</ele>
        <time>2014-06-21T13:29:34Z</time>
      </trkpt>
      <trkpt lat="60.0157314" lon="17.7542062">
        <ele>32.3416</ele>
        <time>2014-06-21T13:29:35Z</time>
      </trkpt>
      <trkpt lat="60.01568" lon="17.7541289">
        <ele>31.8607</ele>
        <time>2014-06-21T13:29:36Z</time>
      </trkpt>
      <trkpt lat="60.0156485" lon="17.7540315">
        <ele>32.8223</ele>
        <time>2014-06-21T13:29:37Z</time>
      </trkpt>
      <trkpt lat="60.0156054" lon="17.7539188">
        <ele>33.7834</ele>
        <time>2014-06-21T13:29:38Z</time>
      </trkpt>
      <trkpt lat="60.0155383" lon="17.753801">
        <ele>33.3029</ele>
        <time>2014-06-21T13:29:39Z</time>
      </trkpt>
      <trkpt lat="60.0154808" lon="17.7537204">
        <ele>33.3029</ele>
        <time>2014-06-21T13:29:40Z</time>
      </trkpt>
      <trkpt lat="60.0154299" lon="17.7536377">
        <ele>32.8223</ele>
        <time>2014-06-21T13:29:41Z</time>
      </trkpt>
      <trkpt lat="60.015406" lon="17.753521">
        <ele>31.8607</ele>
        <time>2014-06-21T13:29:42Z</time>
      </trkpt>
      <trkpt lat="60.0153936" lon="17.7533942">
        <ele>32.3416</ele>
        <time>2014-06-21T13:29:43Z</time>
      </trkpt>
      <trkpt lat="60.0154019" lon="17.753295">
        <ele>32.3416</ele>
        <time>2014-06-21T13:29:44Z</time>
      </trkpt>
      <trkpt lat="60.0154272" lon="17.7532121">
        <ele>32.8223</ele>
        <time>2014-06-21T13:29:45Z</time>
      </trkpt>
      <trkpt lat="60.0154764" lon="17.7531399">
        <ele>33.3029</ele>
        <time>2014-06-21T13:29:46Z</time>
      </trkpt>
      <trkpt lat="60.0155185" lon="17.7530397">
        <ele>34.2642</ele>
        <time>2014-06-21T13:29:47Z</time>
      </trkpt>
      <trkpt lat="60.0155631" lon="17.7528909">
        <ele>34.7449</ele>
        <time>2014-06-21T13:29:48Z</time>
      </trkpt>
      <trkpt lat="60.0155835" lon="17.7527833">
        <ele>34.2642</ele>
        <time>2014-06-21T13:29:49Z</time>
      </trkpt>
      <trkpt lat="60.0156053" lon="17.7526644">
        <ele>34.2642</ele>
        <time>2014-06-21T13:29:50Z</time>
      </trkpt>
      <trkpt lat="60.0156257" lon="17.7525354">
        <ele>35.7061</ele>
        <time>2014-06-21T13:29:51Z</time>
      </trkpt>
      <trkpt lat="60.0156369" lon="17.7523992">
        <ele>36.1868</ele>
        <time>2014-06-21T13:29:52Z</time>
      </trkpt>
      <trkpt lat="60.0156405" lon="17.7522657">
        <ele>37.1481</ele>
        <time>2014-06-21T13:29:53Z</time>
      </trkpt>
      <trkpt lat="60.0156495" lon="17.7521247">
        <ele>37.1481</ele>
        <time>2014-06-21T13:29:54Z</time>
      </trkpt>
      <trkpt lat="60.0156557" lon="17.7519829">
        <ele>37.1481</ele>
        <time>2014-06-21T13:29:55Z</time>
      </trkpt>
      <trkpt lat="60.0156619" lon="17.7518397">
        <ele>37.1481</ele>
        <time>2014-06-21T13:29:56Z</time>
      </trkpt>
      <trkpt lat="60.0156797" lon="17.7517088">
        <ele>38.1094</ele>
        <time>2014-06-21T13:29:57Z</time>
      </trkpt>
      <trkpt lat="60.0156887" lon="17.7515654">
        <ele>37.6287</ele>
        <time>2014-06-21T13:29:58Z</time>
      </trkpt>
      <trkpt lat="60.0157007" lon="17.7513837">
        <ele>37.1481</ele>
        <time>2014-06-21T13:29:59Z</time>
      </trkpt>
      <trkpt lat="60.0157281" lon="17.7512832">
        <ele>37.1481</ele>
        <time>2014-06-21T13:30:00Z</time>
      </trkpt>
      <trkpt lat="60.0157602" lon="17.7511723">
        <ele>37.1481</ele>
        <time>2014-06-21T13:30:01Z</time>
      </trkpt>
      <trkpt lat="60.0157904" lon="17.7510649">
        <ele>37.6287</ele>
        <time>2014-06-21T13:30:02Z</time>
      </trkpt>
      <trkpt lat="60.015805" lon="17.7509368">
        <ele>37.6287</ele>
        <time>2014-06-21T13:30:03Z</time>
      </trkpt>
      <trkpt lat="60.0158101" lon="17.7507978">
        <ele>37.6287</ele>
        <time>2014-06-21T13:30:04Z</time>
      </trkpt>
      <trkpt lat="60.0157915" lon="17.7506329">
        <ele>38.1094</ele>
        <time>2014-06-21T13:30:05Z</time>
      </trkpt>
      <trkpt lat="60.0157841" lon="17.7505067">
        <ele>38.1094</ele>
        <time>2014-06-21T13:30:06Z</time>
      </trkpt>
      <trkpt lat="60.0157753" lon="17.7503754">
        <ele>38.5901</ele>
        <time>2014-06-21T13:30:07Z</time>
      </trkpt>
      <trkpt lat="60.0157785" lon="17.7502121">
        <ele>39.0707</ele>
        <time>2014-06-21T13:30:08Z</time>
      </trkpt>
      <trkpt lat="60.0157947" lon="17.7500782">
        <ele>39.5513</ele>
        <time>2014-06-21T13:30:09Z</time>
      </trkpt>
      <trkpt lat="60.0158236" lon="17.7499433">
        <ele>39.5513</ele>
        <time>2014-06-21T13:30:10Z</time>
      </trkpt>
      <trkpt lat="60.0158545" lon="17.7498087">
        <ele>39.5513</ele>
        <time>2014-06-21T13:30:11Z</time>
      </trkpt>
      <trkpt lat="60.0158926" lon="17.7496933">
        <ele>40.0321</ele>
        <time>2014-06-21T13:30:12Z</time>
      </trkpt>
      <trkpt lat="60.0159267" lon="17.7495902">
        <ele>40.0321</ele>
        <time>2014-06-21T13:30:13Z</time>
      </trkpt>
      <trkpt lat="60.0159635" lon="17.7494969">
        <ele>40.9934</ele>
        <time>2014-06-21T13:30:14Z</time>
      </trkpt>
      <trkpt lat="60.0159961" lon="17.7493947">
        <ele>41.474</ele>
        <time>2014-06-21T13:30:15Z</time>
      </trkpt>
      <trkpt lat="60.0160335" lon="17.7492975">
        <ele>42.4354</ele>
        <time>2014-06-21T13:30:16Z</time>
      </trkpt>
      <trkpt lat="60.0160624" lon="17.749188">
        <ele>42.916</ele>
        <time>2014-06-21T13:30:17Z</time>
      </trkpt>
      <trkpt lat="60.0160891" lon="17.7490774">
        <ele>44.358</ele>
        <time>2014-06-21T13:30:18Z</time>
      </trkpt>
      <trkpt lat="60.0161101" lon="17.7489152">
        <ele>44.358</ele>
        <time>2014-06-21T13:30:19Z</time>
      </trkpt>
      <trkpt lat="60.0161257" lon="17.7487961">
        <ele>44.358</ele>
        <time>2014-06-21T13:30:20Z</time>
      </trkpt>
      <trkpt lat="60.016134" lon="17.7486645">
        <ele>43.8773</ele>
        <time>2014-06-21T13:30:21Z</time>
      </trkpt>
      <trkpt lat="60.01614" lon="17.7485329">
        <ele>43.3966</ele>
        <time>2014-06-21T13:30:22Z</time>
      </trkpt>
      <trkpt lat="60.0161525" lon="17.7484204">
        <ele>43.3966</ele>
        <time>2014-06-21T13:30:23Z</time>
      </trkpt>
      <trkpt lat="60.0161633" lon="17.7483107">
        <ele>43.3966</ele>
        <time>2014-06-21T13:30:24Z</time>
      </trkpt>
      <trkpt lat="60.0161742" lon="17.7481988">
        <ele>42.916</ele>
        <time>2014-06-21T13:30:25Z</time>
      </trkpt>
      <trkpt lat="60.0161955" lon="17.7480921">
        <ele>42.916</ele>
        <time>2014-06-21T13:30:26Z</time>
      </trkpt>
      <trkpt lat="60.0162234" lon="17.7479964">
        <ele>42.916</ele>
        <time>2014-06-21T13:30:27Z</time>
      </trkpt>
      <trkpt lat="60.0162494" lon="17.747901">
        <ele>41.9547</ele>
        <time>2014-06-21T13:30:28Z</time>
      </trkpt>
      <trkpt lat="60.016279" lon="17.7478165">
        <ele>41.9547</ele>
        <time>2014-06-21T13:30:29Z</time>
      </trkpt>
      <trkpt lat="60.0162999" lon="17.7477091">
        <ele>42.4354</ele>
        <time>2014-06-21T13:30:30Z</time>
      </trkpt>
      <trkpt lat="60.0163199" lon="17.747599">
        <ele>42.4354</ele>
        <time>2014-06-21T13:30:31Z</time>
      </trkpt>
      <trkpt lat="60.0163389" lon="17.747481">
        <ele>41.474</ele>
        <time>2014-06-21T13:30:32Z</time>
      </trkpt>
      <trkpt lat="60.0163408" lon="17.7472819">
        <ele>40.5128</ele>
        <time>2014-06-21T13:30:33Z</time>
      </trkpt>
      <trkpt lat="60.0163446" lon="17.7471365">
        <ele>40.0321</ele>
        <time>2014-06-21T13:30:34Z</time>
      </trkpt>
      <trkpt lat="60.0163582" lon="17.7470001">
        <ele>39.5513</ele>
        <time>2014-06-21T13:30:35Z</time>
      </trkpt>
      <trkpt lat="60.0163826" lon="17.7468652">
        <ele>39.0707</ele>
        <time>2014-06-21T13:30:36Z</time>
      </trkpt>
      <trkpt lat="60.0164016" lon="17.7467185">
        <ele>38.5901</ele>
        <time>2014-06-21T13:30:37Z</time>
      </trkpt>
      <trkpt lat="60.0164175" lon="17.7465672">
        <ele>38.5901</ele>
        <time>2014-06-21T13:30:38Z</time>
      </trkpt>
      <trkpt lat="60.0164384" lon="17.7464271">
        <ele>38.5901</ele>
        <time>2014-06-21T13:30:39Z</time>
      </trkpt>
      <trkpt lat="60.0164657" lon="17.7463152">
        <ele>38.5901</ele>
        <time>2014-06-21T13:30:40Z</time>
      </trkpt>
      <trkpt lat="60.0164932" lon="17.7462235">
        <ele>38.1094</ele>
        <time>2014-06-21T13:30:41Z</time>
      </trkpt>
      <trkpt lat="60.0165224" lon="17.7461434">
        <ele>38.5901</ele>
        <time>2014-06-21T13:30:42Z</time>
      </trkpt>
      <trkpt lat="60.0165657" lon="17.7460931">
        <ele>38.5901</ele>
        <time>2014-06-21T13:30:43Z</time>
      </trkpt>
      <trkpt lat="60.0166192" lon="17.7460843">
        <ele>39.0707</ele>
        <time>2014-06-21T13:30:44Z</time>
      </trkpt>
      <trkpt lat="60.0166654" lon="17.7460993">
        <ele>37.6287</ele>
        <time>2014-06-21T13:30:45Z</time>
      </trkpt>
      <trkpt lat="60.0167143" lon="17.7461287">
        <ele>36.6675</ele>
        <time>2014-06-21T13:30:46Z</time>
      </trkpt>
      <trkpt lat="60.0167617" lon="17.7461506">
        <ele>36.1868</ele>
        <time>2014-06-21T13:30:47Z</time>
      </trkpt>
      <trkpt lat="60.0168093" lon="17.746168">
        <ele>35.7061</ele>
        <time>2014-06-21T13:30:48Z</time>
      </trkpt>
      <trkpt lat="60.0168575" lon="17.746181">
        <ele>34.7449</ele>
        <time>2014-06-21T13:30:49Z</time>
      </trkpt>
      <trkpt lat="60.0169128" lon="17.7461874">
        <ele>34.2642</ele>
        <time>2014-06-21T13:30:50Z</time>
      </trkpt>
      <trkpt lat="60.0169674" lon="17.7461983">
        <ele>33.7834</ele>
        <time>2014-06-21T13:30:51Z</time>
      </trkpt>
      <trkpt lat="60.0170264" lon="17.7462046">
        <ele>33.7834</ele>
        <time>2014-06-21T13:30:52Z</time>
      </trkpt>
      <trkpt lat="60.0170942" lon="17.7462238">
        <ele>34.7449</ele>
        <time>2014-06-21T13:30:53Z</time>
      </trkpt>
      <trkpt lat="60.0171658" lon="17.7462499">
        <ele>36.1868</ele>
        <time>2014-06-21T13:30:54Z</time>
      </trkpt>
      <trkpt lat="60.0172362" lon="17.7462822">
        <ele>37.1481</ele>
        <time>2014-06-21T13:30:55Z</time>
      </trkpt>
      <trkpt lat="60.0172983" lon="17.7463274">
        <ele>37.1481</ele>
        <time>2014-06-21T13:30:56Z</time>
      </trkpt>
      <trkpt lat="60.0173554" lon="17.746394">
        <ele>37.1481</ele>
        <time>2014-06-21T13:30:57Z</time>
      </trkpt>
      <trkpt lat="60.0174118" lon="17.7464696">
        <ele>37.1481</ele>
        <time>2014-06-21T13:30:58Z</time>
      </trkpt>
      <trkpt lat="60.0174673" lon="17.7465483">
        <ele>37.1481</ele>
        <time>2014-06-21T13:30:59Z</time>
      </trkpt>
      <trkpt lat="60.0175176" lon="17.7466223">
        <ele>36.6675</ele>
        <time>2014-06-21T13:31:00Z</time>
      </trkpt>
      <trkpt lat="60.0175707" lon="17.7466793">
        <ele>37.1481</ele>
        <time>2014-06-21T13:31:01Z</time>
      </trkpt>
      <trkpt lat="60.0176247" lon="17.7467116">
        <ele>37.6287</ele>
        <time>2014-06-21T13:31:02Z</time>
      </trkpt>
      <trkpt lat="60.0176817" lon="17.7467153">
        <ele>37.6287</ele>
        <time>2014-06-21T13:31:03Z</time>
      </trkpt>
      <trkpt lat="60.0177408" lon="17.7467104">
        <ele>38.5901</ele>
        <time>2014-06-21T13:31:04Z</time>
      </trkpt>
      <trkpt lat="60.0178012" lon="17.7467039">
        <ele>39.5513</ele>
        <time>2014-06-21T13:31:05Z</time>
      </trkpt>
      <trkpt lat="60.0178599" lon="17.7466992">
        <ele>39.5513</ele>
        <time>2014-06-21T13:31:06Z</time>
      </trkpt>
      <trkpt lat="60.0179244" lon="17.7467064">
        <ele>40.9934</ele>
        <time>2014-06-21T13:31:07Z</time>
      </trkpt>
      <trkpt lat="60.0179805" lon="17.7467202">
        <ele>40.9934</ele>
        <time>2014-06-21T13:31:08Z</time>
      </trkpt>
      <trkpt lat="60.0180338" lon="17.7467423">
        <ele>40.9934</ele>
        <time>2014-06-21T13:31:09Z</time>
      </trkpt>
      <trkpt lat="60.0180874" lon="17.746768">
        <ele>41.474</ele>
        <time>2014-06-21T13:31:10Z</time>
      </trkpt>
      <trkpt lat="60.0181453" lon="17.7467928">
        <ele>41.9547</ele>
        <time>2014-06-21T13:31:11Z</time>
      </trkpt>
      <trkpt lat="60.0182024" lon="17.7468114">
        <ele>41.9547</ele>
        <time>2014-06-21T13:31:12Z</time>
      </trkpt>
      <trkpt lat="60.0182618" lon="17.7468303">
        <ele>41.9547</ele>
        <time>2014-06-21T13:31:13Z</time>
      </trkpt>
      <trkpt lat="60.0183224" lon="17.7468502">
        <ele>41.9547</ele>
        <time>2014-06-21T13:31:14Z</time>
      </trkpt>
      <trkpt lat="60.018381" lon="17.7468774">
        <ele>41.474</ele>
        <time>2014-06-21T13:31:15Z</time>
      </trkpt>
      <trkpt lat="60.0184374" lon="17.7469032">
        <ele>40.9934</ele>
        <time>2014-06-21T13:31:16Z</time>
      </trkpt>
      <trkpt lat="60.018497" lon="17.7469183">
        <ele>41.474</ele>
        <time>2014-06-21T13:31:17Z</time>
      </trkpt>
      <trkpt lat="60.0185512" lon="17.7469167">
        <ele>40.5128</ele>
        <time>2014-06-21T13:31:18Z</time>
      </trkpt>
      <trkpt lat="60.01861" lon="17.7469068">
        <ele>40.9934</ele>
        <time>2014-06-21T13:31:19Z</time>
      </trkpt>
      <trkpt lat="60.0186648" lon="17.7468892">
        <ele>41.474</ele>
        <time>2014-06-21T13:31:20Z</time>
      </trkpt>
      <trkpt lat="60.0187165" lon="17.7468732">
        <ele>41.474</ele>
        <time>2014-06-21T13:31:21Z</time>
      </trkpt>
      <trkpt lat="60.0187605" lon="17.7468542">
        <ele>41.474</ele>
        <time>2014-06-21T13:31:22Z</time>
      </trkpt>
      <trkpt lat="60.0188006" lon="17.7468381">
        <ele>41.474</ele>
        <time>2014-06-21T13:31:23Z</time>
      </trkpt>
      <trkpt lat="60.0188436" lon="17.7468293">
        <ele>41.474</ele>
        <time>2014-06-21T13:31:24Z</time>
      </trkpt>
      <trkpt lat="60.0188849" lon="17.7468137">
        <ele>41.9547</ele>
        <time>2014-06-21T13:31:25Z</time>
      </trkpt>
      <trkpt lat="60.0189274" lon="17.7467939">
        <ele>41.474</ele>
        <time>2014-06-21T13:31:26Z</time>
      </trkpt>
      <trkpt lat="60.018971" lon="17.7467749">
        <ele>41.474</ele>
        <time>2014-06-21T13:31:27Z</time>
      </trkpt>
      <trkpt lat="60.0190176" lon="17.7467613">
        <ele>41.9547</ele>
        <time>2014-06-21T13:31:28Z</time>
      </trkpt>
      <trkpt lat="60.0190699" lon="17.7467467">
        <ele>42.4354</ele>
        <time>2014-06-21T13:31:29Z</time>
      </trkpt>
      <trkpt lat="60.019127" lon="17.7467313">
        <ele>42.4354</ele>
        <time>2014-06-21T13:31:30Z</time>
      </trkpt>
      <trkpt lat="60.01919" lon="17.7467119">
        <ele>42.4354</ele>
        <time>2014-06-21T13:31:31Z</time>
      </trkpt>
      <trkpt lat="60.0192562" lon="17.7466912">
        <ele>42.916</ele>
        <time>2014-06-21T13:31:32Z</time>
      </trkpt>
      <trkpt lat="60.0193243" lon="17.7466785">
        <ele>42.916</ele>
        <time>2014-06-21T13:31:33Z</time>
      </trkpt>
      <trkpt lat="60.0193906" lon="17.7466744">
        <ele>42.4354</ele>
        <time>2014-06-21T13:31:34Z</time>
      </trkpt>
      <trkpt lat="60.0194543" lon="17.7466862">
        <ele>40.9934</ele>
        <time>2014-06-21T13:31:35Z</time>
      </trkpt>
      <trkpt lat="60.0195216" lon="17.7467088">
        <ele>40.5128</ele>
        <time>2014-06-21T13:31:36Z</time>
      </trkpt>
      <trkpt lat="60.0195912" lon="17.7467254">
        <ele>40.0321</ele>
        <time>2014-06-21T13:31:37Z</time>
      </trkpt>
      <trkpt lat="60.0196616" lon="17.7467383">
        <ele>39.0707</ele>
        <time>2014-06-21T13:31:38Z</time>
      </trkpt>
      <trkpt lat="60.0197335" lon="17.7467571">
        <ele>38.5901</ele>
        <time>2014-06-21T13:31:39Z</time>
      </trkpt>
      <trkpt lat="60.0197998" lon="17.7467753">
        <ele>38.1094</ele>
        <time>2014-06-21T13:31:40Z</time>
      </trkpt>
      <trkpt lat="60.0198645" lon="17.7468022">
        <ele>38.1094</ele>
        <time>2014-06-21T13:31:41Z</time>
      </trkpt>
      <trkpt lat="60.0199278" lon="17.7468389">
        <ele>37.6287</ele>
        <time>2014-06-21T13:31:42Z</time>
      </trkpt>
      <trkpt lat="60.01999" lon="17.746888">
        <ele>38.1094</ele>
        <time>2014-06-21T13:31:43Z</time>
      </trkpt>
      <trkpt lat="60.020049" lon="17.7469598">
        <ele>39.0707</ele>
        <time>2014-06-21T13:31:44Z</time>
      </trkpt>
      <trkpt lat="60.0200857" lon="17.7470621">
        <ele>39.0707</ele>
        <time>2014-06-21T13:31:45Z</time>
      </trkpt>
      <trkpt lat="60.0201173" lon="17.7471722">
        <ele>39.0707</ele>
        <time>2014-06-21T13:31:46Z</time>
      </trkpt>
      <trkpt lat="60.0201536" lon="17.747281">
        <ele>40.0321</ele>
        <time>2014-06-21T13:31:47Z</time>
      </trkpt>
      <trkpt lat="60.0201892" lon="17.7473888">
        <ele>40.0321</ele>
        <time>2014-06-21T13:31:48Z</time>
      </trkpt>
      <trkpt lat="60.0202204" lon="17.7475026">
        <ele>40.5128</ele>
        <time>2014-06-21T13:31:49Z</time>
      </trkpt>
      <trkpt lat="60.0202452" lon="17.7476192">
        <ele>41.474</ele>
        <time>2014-06-21T13:31:50Z</time>
      </trkpt>
      <trkpt lat="60.020258" lon="17.7477409">
        <ele>41.474</ele>
        <time>2014-06-21T13:31:51Z</time>
      </trkpt>
      <trkpt lat="60.0202705" lon="17.74785">
        <ele>41.474</ele>
        <time>2014-06-21T13:31:52Z</time>
      </trkpt>
      <trkpt lat="60.0202711" lon="17.7479528">
        <ele>41.474</ele>
        <time>2014-06-21T13:31:53Z</time>
      </trkpt>
      <trkpt lat="60.020269" lon="17.7480461">
        <ele>41.9547</ele>
        <time>2014-06-21T13:31:54Z</time>
      </trkpt>
      <trkpt lat="60.020263" lon="17.7481342">
        <ele>42.4354</ele>
        <time>2014-06-21T13:31:55Z</time>
      </trkpt>
      <trkpt lat="60.0202582" lon="17.7482138">
        <ele>42.916</ele>
        <time>2014-06-21T13:31:56Z</time>
      </trkpt>
      <trkpt lat="60.0202592" lon="17.7482909">
        <ele>43.8773</ele>
        <time>2014-06-21T13:31:57Z</time>
      </trkpt>
      <trkpt lat="60.020262" lon="17.7483724">
        <ele>44.8386</ele>
        <time>2014-06-21T13:31:58Z</time>
      </trkpt>
      <trkpt lat="60.0202706" lon="17.7484501">
        <ele>45.7999</ele>
        <time>2014-06-21T13:31:59Z</time>
      </trkpt>
      <trkpt lat="60.020284" lon="17.7485257">
        <ele>46.7612</ele>
        <time>2014-06-21T13:32:00Z</time>
      </trkpt>
      <trkpt lat="60.0203" lon="17.7485961">
        <ele>47.2418</ele>
        <time>2014-06-21T13:32:01Z</time>
      </trkpt>
      <trkpt lat="60.0203205" lon="17.7486568">
        <ele>47.2418</ele>
        <time>2014-06-21T13:32:02Z</time>
      </trkpt>
      <trkpt lat="60.0203467" lon="17.7487107">
        <ele>47.2418</ele>
        <time>2014-06-21T13:32:03Z</time>
      </trkpt>
      <trkpt lat="60.0203774" lon="17.7487629">
        <ele>47.7225</ele>
        <time>2014-06-21T13:32:04Z</time>
      </trkpt>
      <trkpt lat="60.0204099" lon="17.7488167">
        <ele>48.684</ele>
        <time>2014-06-21T13:32:05Z</time>
      </trkpt>
      <trkpt lat="60.0204447" lon="17.7488632">
        <ele>49.6453</ele>
        <time>2014-06-21T13:32:06Z</time>
      </trkpt>
      <trkpt lat="60.0204759" lon="17.7489117">
        <ele>50.126</ele>
        <time>2014-06-21T13:32:07Z</time>
      </trkpt>
      <trkpt lat="60.0205094" lon="17.7489581">
        <ele>51.0872</ele>
        <time>2014-06-21T13:32:08Z</time>
      </trkpt>
      <trkpt lat="60.0205456" lon="17.7490088">
        <ele>52.0486</ele>
        <time>2014-06-21T13:32:09Z</time>
      </trkpt>
      <trkpt lat="60.0205844" lon="17.7490591">
        <ele>52.0486</ele>
        <time>2014-06-21T13:32:10Z</time>
      </trkpt>
      <trkpt lat="60.0206272" lon="17.749114">
        <ele>52.5292</ele>
        <time>2014-06-21T13:32:11Z</time>
      </trkpt>
      <trkpt lat="60.0206747" lon="17.7491764">
        <ele>53.0098</ele>
        <time>2014-06-21T13:32:12Z</time>
      </trkpt>
      <trkpt lat="60.0207249" lon="17.7492343">
        <ele>53.0098</ele>
        <time>2014-06-21T13:32:13Z</time>
      </trkpt>
      <trkpt lat="60.0207737" lon="17.7492922">
        <ele>53.4905</ele>
        <time>2014-06-21T13:32:14Z</time>
      </trkpt>
      <trkpt lat="60.0208224" lon="17.7493544">
        <ele>53.4905</ele>
        <time>2014-06-21T13:32:15Z</time>
      </trkpt>
      <trkpt lat="60.0208704" lon="17.7494285">
        <ele>54.9324</ele>
        <time>2014-06-21T13:32:16Z</time>
      </trkpt>
      <trkpt lat="60.0209166" lon="17.7495032">
        <ele>55.4131</ele>
        <time>2014-06-21T13:32:17Z</time>
      </trkpt>
      <trkpt lat="60.0209594" lon="17.7495853">
        <ele>55.4131</ele>
        <time>2014-06-21T13:32:18Z</time>
      </trkpt>
      <trkpt lat="60.0210017" lon="17.7496662">
        <ele>54.9324</ele>
        <time>2014-06-21T13:32:19Z</time>
      </trkpt>
      <trkpt lat="60.0210446" lon="17.7497367">
        <ele>54.9324</ele>
        <time>2014-06-21T13:32:20Z</time>
      </trkpt>
      <trkpt lat="60.0210891" lon="17.7497785">
        <ele>54.4518</ele>
        <time>2014-06-21T13:32:21Z</time>
      </trkpt>
      <trkpt lat="60.0211374" lon="17.7497956">
        <ele>53.9712</ele>
        <time>2014-06-21T13:32:22Z</time>
      </trkpt>
      <trkpt lat="60.0211853" lon="17.7498025">
        <ele>53.4905</ele>
        <time>2014-06-21T13:32:23Z</time>
      </trkpt>
      <trkpt lat="60.0212279" lon="17.7498162">
        <ele>52.5292</ele>
        <time>2014-06-21T13:32:24Z</time>
      </trkpt>
      <trkpt lat="60.0212718" lon="17.749836">
        <ele>52.0486</ele>
        <time>2014-06-21T13:32:25Z</time>
      </trkpt>
      <trkpt lat="60.0213181" lon="17.7498638">
        <ele>52.0486</ele>
        <time>2014-06-21T13:32:26Z</time>
      </trkpt>
      <trkpt lat="60.021365" lon="17.7498891">
        <ele>51.5679</ele>
        <time>2014-06-21T13:32:27Z</time>
      </trkpt>
      <trkpt lat="60.0214132" lon="17.7499065">
        <ele>51.0872</ele>
        <time>2014-06-21T13:32:28Z</time>
      </trkpt>
      <trkpt lat="60.0214626" lon="17.7499005">
        <ele>50.6066</ele>
        <time>2014-06-21T13:32:29Z</time>
      </trkpt>
      <trkpt lat="60.0215075" lon="17.7498584">
        <ele>48.684</ele>
        <time>2014-06-21T13:32:30Z</time>
      </trkpt>
      <trkpt lat="60.0215515" lon="17.7498014">
        <ele>47.7225</ele>
        <time>2014-06-21T13:32:31Z</time>
      </trkpt>
      <trkpt lat="60.021599" lon="17.7497405">
        <ele>47.7225</ele>
        <time>2014-06-21T13:32:32Z</time>
      </trkpt>
      <trkpt lat="60.0216471" lon="17.7496905">
        <ele>47.7225</ele>
        <time>2014-06-21T13:32:33Z</time>
      </trkpt>
      <trkpt lat="60.0217023" lon="17.7496434">
        <ele>48.2034</ele>
        <time>2014-06-21T13:32:34Z</time>
      </trkpt>
      <trkpt lat="60.0217546" lon="17.7495819">
        <ele>49.1646</ele>
        <time>2014-06-21T13:32:35Z</time>
      </trkpt>
      <trkpt lat="60.0218066" lon="17.7495223">
        <ele>49.1646</ele>
        <time>2014-06-21T13:32:36Z</time>
      </trkpt>
      <trkpt lat="60.0218532" lon="17.7494538">
        <ele>47.2418</ele>
        <time>2014-06-21T13:32:37Z</time>
      </trkpt>
      <trkpt lat="60.0219033" lon="17.7493923">
        <ele>46.7612</ele>
        <time>2014-06-21T13:32:38Z</time>
      </trkpt>
      <trkpt lat="60.0219569" lon="17.7493393">
        <ele>46.7612</ele>
        <time>2014-06-21T13:32:39Z</time>
      </trkpt>
      <trkpt lat="60.0220071" lon="17.7492737">
        <ele>45.3192</ele>
        <time>2014-06-21T13:32:40Z</time>
      </trkpt>
      <trkpt lat="60.0220537" lon="17.7492044">
        <ele>44.358</ele>
        <time>2014-06-21T13:32:41Z</time>
      </trkpt>
      <trkpt lat="60.0220988" lon="17.7491357">
        <ele>43.8773</ele>
        <time>2014-06-21T13:32:42Z</time>
      </trkpt>
      <trkpt lat="60.0221442" lon="17.7490696">
        <ele>43.8773</ele>
        <time>2014-06-21T13:32:43Z</time>
      </trkpt>
      <trkpt lat="60.0221861" lon="17.7490055">
        <ele>43.3966</ele>
        <time>2014-06-21T13:32:44Z</time>
      </trkpt>
      <trkpt lat="60.0222299" lon="17.7489386">
        <ele>42.916</ele>
        <time>2014-06-21T13:32:45Z</time>
      </trkpt>
      <trkpt lat="60.0222681" lon="17.7488649">
        <ele>41.9547</ele>
        <time>2014-06-21T13:32:46Z</time>
      </trkpt>
      <trkpt lat="60.0222992" lon="17.7487819">
        <ele>40.5128</ele>
        <time>2014-06-21T13:32:47Z</time>
      </trkpt>
      <trkpt lat="60.0223241" lon="17.7486904">
        <ele>39.0707</ele>
        <time>2014-06-21T13:32:48Z</time>
      </trkpt>
      <trkpt lat="60.0223557" lon="17.7486112">
        <ele>38.5901</ele>
        <time>2014-06-21T13:32:49Z</time>
      </trkpt>
      <trkpt lat="60.0223856" lon="17.7485231">
        <ele>37.6287</ele>
        <time>2014-06-21T13:32:50Z</time>
      </trkpt>
      <trkpt lat="60.0224236" lon="17.7484309">
        <ele>38.1094</ele>
        <time>2014-06-21T13:32:51Z</time>
      </trkpt>
      <trkpt lat="60.0224603" lon="17.7483333">
        <ele>36.6675</ele>
        <time>2014-06-21T13:32:52Z</time>
      </trkpt>
      <trkpt lat="60.0225037" lon="17.7482297">
        <ele>36.6675</ele>
        <time>2014-06-21T13:32:53Z</time>
      </trkpt>
      <trkpt lat="60.0225476" lon="17.7481192">
        <ele>37.6287</ele>
        <time>2014-06-21T13:32:54Z</time>
      </trkpt>
      <trkpt lat="60.0225887" lon="17.7480041">
        <ele>37.6287</ele>
        <time>2014-06-21T13:32:55Z</time>
      </trkpt>
      <trkpt lat="60.0226243" lon="17.7478847">
        <ele>36.6675</ele>
        <time>2014-06-21T13:32:56Z</time>
      </trkpt>
      <trkpt lat="60.0226566" lon="17.7477684">
        <ele>35.7061</ele>
        <time>2014-06-21T13:32:57Z</time>
      </trkpt>
      <trkpt lat="60.0226846" lon="17.7476549">
        <ele>35.2255</ele>
        <time>2014-06-21T13:32:58Z</time>
      </trkpt>
      <trkpt lat="60.0226793" lon="17.7474107">
        <ele>35.2255</ele>
        <time>2014-06-21T13:32:59Z</time>
      </trkpt>
      <trkpt lat="60.0226956" lon="17.7472964">
        <ele>35.2255</ele>
        <time>2014-06-21T13:33:00Z</time>
      </trkpt>
      <trkpt lat="60.022707" lon="17.7471965">
        <ele>35.2255</ele>
        <time>2014-06-21T13:33:01Z</time>
      </trkpt>
      <trkpt lat="60.0227198" lon="17.7471255">
        <ele>35.2255</ele>
        <time>2014-06-21T13:33:02Z</time>
      </trkpt>
      <trkpt lat="60.0227279" lon="17.7470844">
        <ele>35.7061</ele>
        <time>2014-06-21T13:33:03Z</time>
      </trkpt>
      <trkpt lat="60.0227265" lon="17.7470685">
        <ele>36.1868</ele>
        <time>2014-06-21T13:33:04Z</time>
      </trkpt>
      <trkpt lat="60.0227244" lon="17.7470398">
        <ele>36.6675</ele>
        <time>2014-06-21T13:33:05Z</time>
      </trkpt>
      <trkpt lat="60.0227292" lon="17.7470053">
        <ele>36.6675</ele>
        <time>2014-06-21T13:33:06Z</time>
      </trkpt>
      <trkpt lat="60.0227447" lon="17.746967">
        <ele>36.6675</ele>
        <time>2014-06-21T13:33:07Z</time>
      </trkpt>
      <trkpt lat="60.0227638" lon="17.7469157">
        <ele>36.6675</ele>
        <time>2014-06-21T13:33:08Z</time>
      </trkpt>
      <trkpt lat="60.0227815" lon="17.746848">
        <ele>36.6675</ele>
        <time>2014-06-21T13:33:09Z</time>
      </trkpt>
      <trkpt lat="60.0227981" lon="17.7467707">
        <ele>37.1481</ele>
        <time>2014-06-21T13:33:10Z</time>
      </trkpt>
      <trkpt lat="60.0228135" lon="17.7466856">
        <ele>37.1481</ele>
        <time>2014-06-21T13:33:11Z</time>
      </trkpt>
      <trkpt lat="60.0228294" lon="17.7465951">
        <ele>37.1481</ele>
        <time>2014-06-21T13:33:12Z</time>
      </trkpt>
      <trkpt lat="60.0228456" lon="17.7465023">
        <ele>37.1481</ele>
        <time>2014-06-21T13:33:13Z</time>
      </trkpt>
      <trkpt lat="60.0228618" lon="17.7464043">
        <ele>37.1481</ele>
        <time>2014-06-21T13:33:14Z</time>
      </trkpt>
      <trkpt lat="60.0228758" lon="17.7463007">
        <ele>36.6675</ele>
        <time>2014-06-21T13:33:15Z</time>
      </trkpt>
      <trkpt lat="60.022887" lon="17.7461911">
        <ele>36.6675</ele>
        <time>2014-06-21T13:33:16Z</time>
      </trkpt>
      <trkpt lat="60.0228965" lon="17.7460754">
        <ele>36.6675</ele>
        <time>2014-06-21T13:33:17Z</time>
      </trkpt>
      <trkpt lat="60.0229043" lon="17.7459548">
        <ele>36.6675</ele>
        <time>2014-06-21T13:33:18Z</time>
      </trkpt>
      <trkpt lat="60.0229085" lon="17.7458309">
        <ele>36.6675</ele>
        <time>2014-06-21T13:33:19Z</time>
      </trkpt>
      <trkpt lat="60.0229099" lon="17.7457019">
        <ele>36.6675</ele>
        <time>2014-06-21T13:33:20Z</time>
      </trkpt>
      <trkpt lat="60.0229088" lon="17.7455676">
        <ele>36.1868</ele>
        <time>2014-06-21T13:33:21Z</time>
      </trkpt>
      <trkpt lat="60.0229056" lon="17.7454283">
        <ele>36.1868</ele>
        <time>2014-06-21T13:33:22Z</time>
      </trkpt>
      <trkpt lat="60.0229011" lon="17.7452866">
        <ele>36.1868</ele>
        <time>2014-06-21T13:33:23Z</time>
      </trkpt>
      <trkpt lat="60.0228961" lon="17.7451436">
        <ele>36.1868</ele>
        <time>2014-06-21T13:33:24Z</time>
      </trkpt>
      <trkpt lat="60.0228912" lon="17.7449984">
        <ele>35.7061</ele>
        <time>2014-06-21T13:33:25Z</time>
      </trkpt>
      <trkpt lat="60.0228864" lon="17.7448512">
        <ele>35.7061</ele>
        <time>2014-06-21T13:33:26Z</time>
      </trkpt>
      <trkpt lat="60.0228805" lon="17.7447016">
        <ele>35.7061</ele>
        <time>2014-06-21T13:33:27Z</time>
      </trkpt>
      <trkpt lat="60.0228753" lon="17.7445489">
        <ele>35.7061</ele>
        <time>2014-06-21T13:33:28Z</time>
      </trkpt>
      <trkpt lat="60.0228716" lon="17.7443934">
        <ele>35.7061</ele>
        <time>2014-06-21T13:33:29Z</time>
      </trkpt>
      <trkpt lat="60.0228667" lon="17.7442367">
        <ele>35.7061</ele>
        <time>2014-06-21T13:33:30Z</time>
      </trkpt>
      <trkpt lat="60.0228607" lon="17.7440805">
        <ele>35.7061</ele>
        <time>2014-06-21T13:33:31Z</time>
      </trkpt>
      <trkpt lat="60.022855" lon="17.743925">
        <ele>35.7061</ele>
        <time>2014-06-21T13:33:32Z</time>
      </trkpt>
      <trkpt lat="60.0228505" lon="17.7437705">
        <ele>35.7061</ele>
        <time>2014-06-21T13:33:33Z</time>
      </trkpt>
      <trkpt lat="60.0228478" lon="17.7436182">
        <ele>35.7061</ele>
        <time>2014-06-21T13:33:34Z</time>
      </trkpt>
      <trkpt lat="60.0228468" lon="17.7434672">
        <ele>35.7061</ele>
        <time>2014-06-21T13:33:35Z</time>
      </trkpt>
      <trkpt lat="60.0228477" lon="17.7433159">
        <ele>35.2255</ele>
        <time>2014-06-21T13:33:36Z</time>
      </trkpt>
      <trkpt lat="60.0228502" lon="17.7431646">
        <ele>35.2255</ele>
        <time>2014-06-21T13:33:37Z</time>
      </trkpt>
      <trkpt lat="60.022853" lon="17.7430134">
        <ele>35.2255</ele>
        <time>2014-06-21T13:33:38Z</time>
      </trkpt>
      <trkpt lat="60.0228545" lon="17.7428618">
        <ele>35.2255</ele>
        <time>2014-06-21T13:33:39Z</time>
      </trkpt>
      <trkpt lat="60.022854" lon="17.7427099">
        <ele>35.2255</ele>
        <time>2014-06-21T13:33:40Z</time>
      </trkpt>
      <trkpt lat="60.0228512" lon="17.7425556">
        <ele>35.2255</ele>
        <time>2014-06-21T13:33:41Z</time>
      </trkpt>
      <trkpt lat="60.0228446" lon="17.7424016">
        <ele>35.2255</ele>
        <time>2014-06-21T13:33:42Z</time>
      </trkpt>
      <trkpt lat="60.0228328" lon="17.7422509">
        <ele>35.2255</ele>
        <time>2014-06-21T13:33:43Z</time>
      </trkpt>
      <trkpt lat="60.0228162" lon="17.7421047">
        <ele>34.7449</ele>
        <time>2014-06-21T13:33:44Z</time>
      </trkpt>
      <trkpt lat="60.022794" lon="17.7419639">
        <ele>34.7449</ele>
        <time>2014-06-21T13:33:45Z</time>
      </trkpt>
      <trkpt lat="60.0227649" lon="17.7418317">
        <ele>34.7449</ele>
        <time>2014-06-21T13:33:46Z</time>
      </trkpt>
      <trkpt lat="60.0227305" lon="17.7417091">
        <ele>34.7449</ele>
        <time>2014-06-21T13:33:47Z</time>
      </trkpt>
      <trkpt lat="60.0226933" lon="17.7415933">
        <ele>34.2642</ele>
        <time>2014-06-21T13:33:48Z</time>
      </trkpt>
      <trkpt lat="60.0226536" lon="17.7414844">
        <ele>34.2642</ele>
        <time>2014-06-21T13:33:49Z</time>
      </trkpt>
      <trkpt lat="60.022609" lon="17.7413817">
        <ele>33.7834</ele>
        <time>2014-06-21T13:33:50Z</time>
      </trkpt>
      <trkpt lat="60.0225633" lon="17.741286">
        <ele>33.7834</ele>
        <time>2014-06-21T13:33:51Z</time>
      </trkpt>
      <trkpt lat="60.022516" lon="17.7411917">
        <ele>33.7834</ele>
        <time>2014-06-21T13:33:52Z</time>
      </trkpt>
      <trkpt lat="60.0224676" lon="17.7410979">
        <ele>33.3029</ele>
        <time>2014-06-21T13:33:53Z</time>
      </trkpt>
      <trkpt lat="60.0224183" lon="17.7410083">
        <ele>33.3029</ele>
        <time>2014-06-21T13:33:54Z</time>
      </trkpt>
      <trkpt lat="60.0223684" lon="17.7409211">
        <ele>33.3029</ele>
        <time>2014-06-21T13:33:55Z</time>
      </trkpt>
      <trkpt lat="60.0223189" lon="17.7408338">
        <ele>33.3029</ele>
        <time>2014-06-21T13:33:56Z</time>
      </trkpt>
      <trkpt lat="60.0222684" lon="17.7407505">
        <ele>33.3029</ele>
        <time>2014-06-21T13:33:57Z</time>
      </trkpt>
      <trkpt lat="60.0222148" lon="17.7406728">
        <ele>33.3029</ele>
        <time>2014-06-21T13:33:58Z</time>
      </trkpt>
      <trkpt lat="60.0221584" lon="17.7406022">
        <ele>33.3029</ele>
        <time>2014-06-21T13:33:59Z</time>
      </trkpt>
      <trkpt lat="60.0220993" lon="17.7405369">
        <ele>33.3029</ele>
        <time>2014-06-21T13:34:00Z</time>
      </trkpt>
      <trkpt lat="60.0220386" lon="17.740474">
        <ele>32.8223</ele>
        <time>2014-06-21T13:34:01Z</time>
      </trkpt>
      <trkpt lat="60.0219771" lon="17.7404116">
        <ele>32.8223</ele>
        <time>2014-06-21T13:34:02Z</time>
      </trkpt>
      <trkpt lat="60.0219147" lon="17.7403485">
        <ele>32.8223</ele>
        <time>2014-06-21T13:34:03Z</time>
      </trkpt>
      <trkpt lat="60.0218522" lon="17.7402867">
        <ele>32.8223</ele>
        <time>2014-06-21T13:34:04Z</time>
      </trkpt>
      <trkpt lat="60.0217883" lon="17.7402287">
        <ele>32.8223</ele>
        <time>2014-06-21T13:34:05Z</time>
      </trkpt>
      <trkpt lat="60.0217237" lon="17.7401717">
        <ele>32.3416</ele>
        <time>2014-06-21T13:34:06Z</time>
      </trkpt>
      <trkpt lat="60.0216596" lon="17.7401101">
        <ele>32.3416</ele>
        <time>2014-06-21T13:34:07Z</time>
      </trkpt>
      <trkpt lat="60.0215962" lon="17.7400438">
        <ele>32.3416</ele>
        <time>2014-06-21T13:34:08Z</time>
      </trkpt>
      <trkpt lat="60.0215325" lon="17.7399773">
        <ele>31.8607</ele>
        <time>2014-06-21T13:34:09Z</time>
      </trkpt>
      <trkpt lat="60.0214694" lon="17.7399089">
        <ele>31.8607</ele>
        <time>2014-06-21T13:34:10Z</time>
      </trkpt>
      <trkpt lat="60.0214072" lon="17.7398382">
        <ele>31.8607</ele>
        <time>2014-06-21T13:34:11Z</time>
      </trkpt>
      <trkpt lat="60.021346" lon="17.7397675">
        <ele>31.8607</ele>
        <time>2014-06-21T13:34:12Z</time>
      </trkpt>
      <trkpt lat="60.0212848" lon="17.7396994">
        <ele>31.3801</ele>
        <time>2014-06-21T13:34:13Z</time>
      </trkpt>
      <trkpt lat="60.0212238" lon="17.7396304">
        <ele>31.8607</ele>
        <time>2014-06-21T13:34:14Z</time>
      </trkpt>
      <trkpt lat="60.021163" lon="17.7395585">
        <ele>31.8607</ele>
        <time>2014-06-21T13:34:15Z</time>
      </trkpt>
      <trkpt lat="60.0211016" lon="17.7394867">
        <ele>31.3801</ele>
        <time>2014-06-21T13:34:16Z</time>
      </trkpt>
      <trkpt lat="60.0210397" lon="17.7394137">
        <ele>31.3801</ele>
        <time>2014-06-21T13:34:17Z</time>
      </trkpt>
      <trkpt lat="60.0209767" lon="17.7393384">
        <ele>31.8607</ele>
        <time>2014-06-21T13:34:18Z</time>
      </trkpt>
      <trkpt lat="60.0209144" lon="17.7392605">
        <ele>31.8607</ele>
        <time>2014-06-21T13:34:19Z</time>
      </trkpt>
      <trkpt lat="60.0208545" lon="17.7391777">
        <ele>31.8607</ele>
        <time>2014-06-21T13:34:20Z</time>
      </trkpt>
      <trkpt lat="60.0207966" lon="17.7390891">
        <ele>31.8607</ele>
        <time>2014-06-21T13:34:21Z</time>
      </trkpt>
      <trkpt lat="60.0207405" lon="17.7389944">
        <ele>32.3416</ele>
        <time>2014-06-21T13:34:22Z</time>
      </trkpt>
      <trkpt lat="60.0206857" lon="17.7388965">
        <ele>32.3416</ele>
        <time>2014-06-21T13:34:23Z</time>
      </trkpt>
      <trkpt lat="60.0206308" lon="17.738799">
        <ele>32.3416</ele>
        <time>2014-06-21T13:34:24Z</time>
      </trkpt>
      <trkpt lat="60.0205762" lon="17.7387011">
        <ele>32.8223</ele>
        <time>2014-06-21T13:34:25Z</time>
      </trkpt>
      <trkpt lat="60.0205229" lon="17.738599">
        <ele>32.8223</ele>
        <time>2014-06-21T13:34:26Z</time>
      </trkpt>
      <trkpt lat="60.0204717" lon="17.7384908">
        <ele>32.8223</ele>
        <time>2014-06-21T13:34:27Z</time>
      </trkpt>
      <trkpt lat="60.0204239" lon="17.7383762">
        <ele>32.8223</ele>
        <time>2014-06-21T13:34:28Z</time>
      </trkpt>
      <trkpt lat="60.0203794" lon="17.7382564">
        <ele>32.8223</ele>
        <time>2014-06-21T13:34:29Z</time>
      </trkpt>
      <trkpt lat="60.0203379" lon="17.7381342">
        <ele>32.8223</ele>
        <time>2014-06-21T13:34:30Z</time>
      </trkpt>
      <trkpt lat="60.0202993" lon="17.7380109">
        <ele>32.8223</ele>
        <time>2014-06-21T13:34:31Z</time>
      </trkpt>
      <trkpt lat="60.0202627" lon="17.7378874">
        <ele>32.8223</ele>
        <time>2014-06-21T13:34:32Z</time>
      </trkpt>
      <trkpt lat="60.0202271" lon="17.737764">
        <ele>32.8223</ele>
        <time>2014-06-21T13:34:33Z</time>
      </trkpt>
      <trkpt lat="60.0201921" lon="17.7376405">
        <ele>33.3029</ele>
        <time>2014-06-21T13:34:34Z</time>
      </trkpt>
      <trkpt lat="60.0201578" lon="17.7375181">
        <ele>33.3029</ele>
        <time>2014-06-21T13:34:35Z</time>
      </trkpt>
      <trkpt lat="60.0201239" lon="17.7373968">
        <ele>33.7834</ele>
        <time>2014-06-21T13:34:36Z</time>
      </trkpt>
      <trkpt lat="60.0200897" lon="17.7372762">
        <ele>33.7834</ele>
        <time>2014-06-21T13:34:37Z</time>
      </trkpt>
      <trkpt lat="60.0200542" lon="17.7371574">
        <ele>33.7834</ele>
        <time>2014-06-21T13:34:38Z</time>
      </trkpt>
      <trkpt lat="60.0200167" lon="17.7370419">
        <ele>33.7834</ele>
        <time>2014-06-21T13:34:39Z</time>
      </trkpt>
      <trkpt lat="60.019975" lon="17.7369304">
        <ele>34.2642</ele>
        <time>2014-06-21T13:34:40Z</time>
      </trkpt>
      <trkpt lat="60.0199294" lon="17.7368249">
        <ele>34.2642</ele>
        <time>2014-06-21T13:34:41Z</time>
      </trkpt>
      <trkpt lat="60.0198799" lon="17.7367288">
        <ele>34.2642</ele>
        <time>2014-06-21T13:34:42Z</time>
      </trkpt>
      <trkpt lat="60.0198267" lon="17.736641">
        <ele>34.7449</ele>
        <time>2014-06-21T13:34:43Z</time>
      </trkpt>
      <trkpt lat="60.0197711" lon="17.7365606">
        <ele>34.7449</ele>
        <time>2014-06-21T13:34:44Z</time>
      </trkpt>
      <trkpt lat="60.0197137" lon="17.7364866">
        <ele>34.7449</ele>
        <time>2014-06-21T13:34:45Z</time>
      </trkpt>
      <trkpt lat="60.0196558" lon="17.7364165">
        <ele>34.7449</ele>
        <time>2014-06-21T13:34:46Z</time>
      </trkpt>
      <trkpt lat="60.0195988" lon="17.7363478">
        <ele>35.2255</ele>
        <time>2014-06-21T13:34:47Z</time>
      </trkpt>
      <trkpt lat="60.019544" lon="17.7362759">
        <ele>35.2255</ele>
        <time>2014-06-21T13:34:48Z</time>
      </trkpt>
      <trkpt lat="60.0194925" lon="17.7361976">
        <ele>35.2255</ele>
        <time>2014-06-21T13:34:49Z</time>
      </trkpt>
      <trkpt lat="60.0194427" lon="17.7361162">
        <ele>35.7061</ele>
        <time>2014-06-21T13:34:50Z</time>
      </trkpt>
      <trkpt lat="60.0193921" lon="17.7360353">
        <ele>35.7061</ele>
        <time>2014-06-21T13:34:51Z</time>
      </trkpt>
      <trkpt lat="60.019341" lon="17.7359556">
        <ele>35.7061</ele>
        <time>2014-06-21T13:34:52Z</time>
      </trkpt>
      <trkpt lat="60.0192896" lon="17.7358775">
        <ele>35.7061</ele>
        <time>2014-06-21T13:34:53Z</time>
      </trkpt>
      <trkpt lat="60.0192386" lon="17.7357986">
        <ele>35.7061</ele>
        <time>2014-06-21T13:34:54Z</time>
      </trkpt>
      <trkpt lat="60.0191881" lon="17.7357168">
        <ele>36.1868</ele>
        <time>2014-06-21T13:34:55Z</time>
      </trkpt>
      <trkpt lat="60.0191373" lon="17.7356344">
        <ele>36.1868</ele>
        <time>2014-06-21T13:34:56Z</time>
      </trkpt>
      <trkpt lat="60.0190848" lon="17.7355552">
        <ele>36.1868</ele>
        <time>2014-06-21T13:34:57Z</time>
      </trkpt>
      <trkpt lat="60.0190298" lon="17.7354797">
        <ele>36.1868</ele>
        <time>2014-06-21T13:34:58Z</time>
      </trkpt>
      <trkpt lat="60.0189734" lon="17.7354046">
        <ele>36.1868</ele>
        <time>2014-06-21T13:34:59Z</time>
      </trkpt>
      <trkpt lat="60.0189164" lon="17.7353288">
        <ele>36.1868</ele>
        <time>2014-06-21T13:35:00Z</time>
      </trkpt>
      <trkpt lat="60.0188596" lon="17.7352527">
        <ele>36.1868</ele>
        <time>2014-06-21T13:35:01Z</time>
      </trkpt>
      <trkpt lat="60.0188032" lon="17.7351784">
        <ele>36.1868</ele>
        <time>2014-06-21T13:35:02Z</time>
      </trkpt>
      <trkpt lat="60.0187462" lon="17.7351055">
        <ele>36.1868</ele>
        <time>2014-06-21T13:35:03Z</time>
      </trkpt>
      <trkpt lat="60.018689" lon="17.735034">
        <ele>36.1868</ele>
        <time>2014-06-21T13:35:04Z</time>
      </trkpt>
      <trkpt lat="60.0186321" lon="17.7349647">
        <ele>36.6675</ele>
        <time>2014-06-21T13:35:05Z</time>
      </trkpt>
      <trkpt lat="60.0185756" lon="17.7348987">
        <ele>36.6675</ele>
        <time>2014-06-21T13:35:06Z</time>
      </trkpt>
      <trkpt lat="60.0185184" lon="17.7348389">
        <ele>36.6675</ele>
        <time>2014-06-21T13:35:07Z</time>
      </trkpt>
      <trkpt lat="60.0184616" lon="17.7347873">
        <ele>36.6675</ele>
        <time>2014-06-21T13:35:08Z</time>
      </trkpt>
      <trkpt lat="60.018406" lon="17.7347429">
        <ele>37.1481</ele>
        <time>2014-06-21T13:35:09Z</time>
      </trkpt>
      <trkpt lat="60.0183523" lon="17.7346979">
        <ele>37.1481</ele>
        <time>2014-06-21T13:35:10Z</time>
      </trkpt>
      <trkpt lat="60.0183003" lon="17.7346508">
        <ele>37.1481</ele>
        <time>2014-06-21T13:35:11Z</time>
      </trkpt>
      <trkpt lat="60.0182493" lon="17.7346012">
        <ele>37.1481</ele>
        <time>2014-06-21T13:35:12Z</time>
      </trkpt>
      <trkpt lat="60.0181989" lon="17.7345508">
        <ele>36.6675</ele>
        <time>2014-06-21T13:35:13Z</time>
      </trkpt>
      <trkpt lat="60.0181489" lon="17.734499">
        <ele>37.1481</ele>
        <time>2014-06-21T13:35:14Z</time>
      </trkpt>
      <trkpt lat="60.0180996" lon="17.7344454">
        <ele>37.1481</ele>
        <time>2014-06-21T13:35:15Z</time>
      </trkpt>
      <trkpt lat="60.0180474" lon="17.7343909">
        <ele>37.1481</ele>
        <time>2014-06-21T13:35:16Z</time>
      </trkpt>
      <trkpt lat="60.0179936" lon="17.7343348">
        <ele>37.1481</ele>
        <time>2014-06-21T13:35:17Z</time>
      </trkpt>
      <trkpt lat="60.0179381" lon="17.7342777">
        <ele>36.6675</ele>
        <time>2014-06-21T13:35:18Z</time>
      </trkpt>
      <trkpt lat="60.0178786" lon="17.7342235">
        <ele>36.1868</ele>
        <time>2014-06-21T13:35:19Z</time>
      </trkpt>
      <trkpt lat="60.0178163" lon="17.7341738">
        <ele>36.1868</ele>
        <time>2014-06-21T13:35:20Z</time>
      </trkpt>
      <trkpt lat="60.0177527" lon="17.7341264">
        <ele>35.7061</ele>
        <time>2014-06-21T13:35:21Z</time>
      </trkpt>
      <trkpt lat="60.0176884" lon="17.734081">
        <ele>35.7061</ele>
        <time>2014-06-21T13:35:22Z</time>
      </trkpt>
      <trkpt lat="60.0176217" lon="17.7340391">
        <ele>35.2255</ele>
        <time>2014-06-21T13:35:23Z</time>
      </trkpt>
      <trkpt lat="60.0175542" lon="17.7340002">
        <ele>35.2255</ele>
        <time>2014-06-21T13:35:24Z</time>
      </trkpt>
      <trkpt lat="60.0174869" lon="17.7339656">
        <ele>35.2255</ele>
        <time>2014-06-21T13:35:25Z</time>
      </trkpt>
      <trkpt lat="60.017419" lon="17.7339366">
        <ele>34.7449</ele>
        <time>2014-06-21T13:35:26Z</time>
      </trkpt>
      <trkpt lat="60.01735" lon="17.7339121">
        <ele>34.7449</ele>
        <time>2014-06-21T13:35:27Z</time>
      </trkpt>
      <trkpt lat="60.0172798" lon="17.7338939">
        <ele>34.7449</ele>
        <time>2014-06-21T13:35:28Z</time>
      </trkpt>
      <trkpt lat="60.0172085" lon="17.733879">
        <ele>34.2642</ele>
        <time>2014-06-21T13:35:29Z</time>
      </trkpt>
      <trkpt lat="60.0171362" lon="17.7338629">
        <ele>34.2642</ele>
        <time>2014-06-21T13:35:30Z</time>
      </trkpt>
      <trkpt lat="60.0170638" lon="17.7338457">
        <ele>34.2642</ele>
        <time>2014-06-21T13:35:31Z</time>
      </trkpt>
      <trkpt lat="60.0169913" lon="17.7338252">
        <ele>34.2642</ele>
        <time>2014-06-21T13:35:32Z</time>
      </trkpt>
      <trkpt lat="60.0169187" lon="17.7337991">
        <ele>33.7834</ele>
        <time>2014-06-21T13:35:33Z</time>
      </trkpt>
      <trkpt lat="60.0168455" lon="17.733769">
        <ele>33.7834</ele>
        <time>2014-06-21T13:35:34Z</time>
      </trkpt>
      <trkpt lat="60.0167711" lon="17.7337399">
        <ele>33.3029</ele>
        <time>2014-06-21T13:35:35Z</time>
      </trkpt>
      <trkpt lat="60.0166962" lon="17.7337141">
        <ele>33.3029</ele>
        <time>2014-06-21T13:35:36Z</time>
      </trkpt>
      <trkpt lat="60.0166211" lon="17.7336882">
        <ele>33.3029</ele>
        <time>2014-06-21T13:35:37Z</time>
      </trkpt>
      <trkpt lat="60.0165461" lon="17.7336598">
        <ele>32.8223</ele>
        <time>2014-06-21T13:35:38Z</time>
      </trkpt>
      <trkpt lat="60.0164701" lon="17.7336314">
        <ele>32.8223</ele>
        <time>2014-06-21T13:35:39Z</time>
      </trkpt>
      <trkpt lat="60.0163934" lon="17.733604">
        <ele>32.8223</ele>
        <time>2014-06-21T13:35:40Z</time>
      </trkpt>
      <trkpt lat="60.0163162" lon="17.7335785">
        <ele>32.8223</ele>
        <time>2014-06-21T13:35:41Z</time>
      </trkpt>
      <trkpt lat="60.016239" lon="17.7335561">
        <ele>32.8223</ele>
        <time>2014-06-21T13:35:42Z</time>
      </trkpt>
      <trkpt lat="60.0161628" lon="17.7335344">
        <ele>32.8223</ele>
        <time>2014-06-21T13:35:43Z</time>
      </trkpt>
      <trkpt lat="60.0160883" lon="17.7335105">
        <ele>32.3416</ele>
        <time>2014-06-21T13:35:44Z</time>
      </trkpt>
      <trkpt lat="60.016015" lon="17.7334878">
        <ele>32.3416</ele>
        <time>2014-06-21T13:35:45Z</time>
      </trkpt>
      <trkpt lat="60.0159423" lon="17.7334692">
        <ele>32.3416</ele>
        <time>2014-06-21T13:35:46Z</time>
      </trkpt>
      <trkpt lat="60.0158697" lon="17.7334516">
        <ele>31.8607</ele>
        <time>2014-06-21T13:35:47Z</time>
      </trkpt>
      <trkpt lat="60.0157967" lon="17.7334345">
        <ele>31.8607</ele>
        <time>2014-06-21T13:35:48Z</time>
      </trkpt>
      <trkpt lat="60.0157231" lon="17.7334205">
        <ele>31.8607</ele>
        <time>2014-06-21T13:35:49Z</time>
      </trkpt>
      <trkpt lat="60.0156493" lon="17.7334073">
        <ele>31.8607</ele>
        <time>2014-06-21T13:35:50Z</time>
      </trkpt>
      <trkpt lat="60.0155754" lon="17.7333925">
        <ele>31.3801</ele>
        <time>2014-06-21T13:35:51Z</time>
      </trkpt>
      <trkpt lat="60.0155015" lon="17.7333761">
        <ele>31.3801</ele>
        <time>2014-06-21T13:35:52Z</time>
      </trkpt>
      <trkpt lat="60.0154261" lon="17.7333583">
        <ele>30.8995</ele>
        <time>2014-06-21T13:35:53Z</time>
      </trkpt>
      <trkpt lat="60.0153491" lon="17.7333405">
        <ele>30.8995</ele>
        <time>2014-06-21T13:35:54Z</time>
      </trkpt>
      <trkpt lat="60.0152719" lon="17.7333226">
        <ele>30.4188</ele>
        <time>2014-06-21T13:35:55Z</time>
      </trkpt>
      <trkpt lat="60.0151932" lon="17.7333024">
        <ele>30.4188</ele>
        <time>2014-06-21T13:35:56Z</time>
      </trkpt>
      <trkpt lat="60.0151134" lon="17.7332776">
        <ele>30.4188</ele>
        <time>2014-06-21T13:35:57Z</time>
      </trkpt>
      <trkpt lat="60.0150331" lon="17.7332455">
        <ele>29.9381</ele>
        <time>2014-06-21T13:35:58Z</time>
      </trkpt>
      <trkpt lat="60.0149538" lon="17.7332019">
        <ele>29.9381</ele>
        <time>2014-06-21T13:35:59Z</time>
      </trkpt>
      <trkpt lat="60.0148761" lon="17.7331444">
        <ele>29.9381</ele>
        <time>2014-06-21T13:36:00Z</time>
      </trkpt>
      <trkpt lat="60.0148" lon="17.7330777">
        <ele>29.9381</ele>
        <time>2014-06-21T13:36:01Z</time>
      </trkpt>
      <trkpt lat="60.0147253" lon="17.7330066">
        <ele>29.9381</ele>
        <time>2014-06-21T13:36:02Z</time>
      </trkpt>
      <trkpt lat="60.0146542" lon="17.732936">
        <ele>29.4575</ele>
        <time>2014-06-21T13:36:03Z</time>
      </trkpt>
      <trkpt lat="60.0145851" lon="17.732872">
        <ele>29.4575</ele>
        <time>2014-06-21T13:36:04Z</time>
      </trkpt>
      <trkpt lat="60.014515" lon="17.732817">
        <ele>29.4575</ele>
        <time>2014-06-21T13:36:05Z</time>
      </trkpt>
      <trkpt lat="60.0144439" lon="17.73277">
        <ele>29.4575</ele>
        <time>2014-06-21T13:36:06Z</time>
      </trkpt>
      <trkpt lat="60.0143716" lon="17.7327336">
        <ele>29.4575</ele>
        <time>2014-06-21T13:36:07Z</time>
      </trkpt>
      <trkpt lat="60.0143002" lon="17.7327051">
        <ele>29.4575</ele>
        <time>2014-06-21T13:36:08Z</time>
      </trkpt>
      <trkpt lat="60.0142307" lon="17.732674">
        <ele>29.9381</ele>
        <time>2014-06-21T13:36:09Z</time>
      </trkpt>
      <trkpt lat="60.0141612" lon="17.7326352">
        <ele>29.4575</ele>
        <time>2014-06-21T13:36:10Z</time>
      </trkpt>
      <trkpt lat="60.0140922" lon="17.7325951">
        <ele>29.4575</ele>
        <time>2014-06-21T13:36:11Z</time>
      </trkpt>
      <trkpt lat="60.0140214" lon="17.7325575">
        <ele>29.4575</ele>
        <time>2014-06-21T13:36:12Z</time>
      </trkpt>
      <trkpt lat="60.0139493" lon="17.7325231">
        <ele>28.9769</ele>
        <time>2014-06-21T13:36:13Z</time>
      </trkpt>
      <trkpt lat="60.0138756" lon="17.7324903">
        <ele>28.9769</ele>
        <time>2014-06-21T13:36:14Z</time>
      </trkpt>
      <trkpt lat="60.0138013" lon="17.7324606">
        <ele>28.4962</ele>
        <time>2014-06-21T13:36:15Z</time>
      </trkpt>
      <trkpt lat="60.0137267" lon="17.7324352">
        <ele>28.4962</ele>
        <time>2014-06-21T13:36:16Z</time>
      </trkpt>
      <trkpt lat="60.0136527" lon="17.7324148">
        <ele>28.9769</ele>
        <time>2014-06-21T13:36:17Z</time>
      </trkpt>
      <trkpt lat="60.0135804" lon="17.7323988">
        <ele>28.9769</ele>
        <time>2014-06-21T13:36:18Z</time>
      </trkpt>
      <trkpt lat="60.0135099" lon="17.7323871">
        <ele>28.9769</ele>
        <time>2014-06-21T13:36:19Z</time>
      </trkpt>
      <trkpt lat="60.0134423" lon="17.7323784">
        <ele>29.4575</ele>
        <time>2014-06-21T13:36:20Z</time>
      </trkpt>
      <trkpt lat="60.0133774" lon="17.7323721">
        <ele>29.4575</ele>
        <time>2014-06-21T13:36:21Z</time>
      </trkpt>
      <trkpt lat="60.0133144" lon="17.7323679">
        <ele>29.9381</ele>
        <time>2014-06-21T13:36:22Z</time>
      </trkpt>
      <trkpt lat="60.0132535" lon="17.7323653">
        <ele>29.9381</ele>
        <time>2014-06-21T13:36:23Z</time>
      </trkpt>
      <trkpt lat="60.0131947" lon="17.7323638">
        <ele>30.4188</ele>
        <time>2014-06-21T13:36:24Z</time>
      </trkpt>
      <trkpt lat="60.013138" lon="17.7323653">
        <ele>30.4188</ele>
        <time>2014-06-21T13:36:25Z</time>
      </trkpt>
      <trkpt lat="60.0130828" lon="17.7323719">
        <ele>30.4188</ele>
        <time>2014-06-21T13:36:26Z</time>
      </trkpt>
      <trkpt lat="60.0130288" lon="17.7323798">
        <ele>30.8995</ele>
        <time>2014-06-21T13:36:27Z</time>
      </trkpt>
      <trkpt lat="60.0129761" lon="17.7323879">
        <ele>30.8995</ele>
        <time>2014-06-21T13:36:28Z</time>
      </trkpt>
      <trkpt lat="60.0129244" lon="17.7323984">
        <ele>31.3801</ele>
        <time>2014-06-21T13:36:29Z</time>
      </trkpt>
      <trkpt lat="60.0128736" lon="17.7324113">
        <ele>31.3801</ele>
        <time>2014-06-21T13:36:30Z</time>
      </trkpt>
      <trkpt lat="60.0128236" lon="17.7324259">
        <ele>31.3801</ele>
        <time>2014-06-21T13:36:31Z</time>
      </trkpt>
      <trkpt lat="60.0127731" lon="17.7324383">
        <ele>31.8607</ele>
        <time>2014-06-21T13:36:32Z</time>
      </trkpt>
      <trkpt lat="60.0127232" lon="17.7324482">
        <ele>31.8607</ele>
        <time>2014-06-21T13:36:33Z</time>
      </trkpt>
      <trkpt lat="60.012673" lon="17.7324599">
        <ele>32.3416</ele>
        <time>2014-06-21T13:36:34Z</time>
      </trkpt>
      <trkpt lat="60.0126232" lon="17.7324784">
        <ele>32.3416</ele>
        <time>2014-06-21T13:36:35Z</time>
      </trkpt>
      <trkpt lat="60.0125726" lon="17.7325017">
        <ele>32.8223</ele>
        <time>2014-06-21T13:36:36Z</time>
      </trkpt>
      <trkpt lat="60.0125216" lon="17.7325245">
        <ele>32.8223</ele>
        <time>2014-06-21T13:36:37Z</time>
      </trkpt>
      <trkpt lat="60.0124695" lon="17.7325435">
        <ele>32.8223</ele>
        <time>2014-06-21T13:36:38Z</time>
      </trkpt>
      <trkpt lat="60.012417" lon="17.7325618">
        <ele>32.8223</ele>
        <time>2014-06-21T13:36:39Z</time>
      </trkpt>
      <trkpt lat="60.0123636" lon="17.7325801">
        <ele>32.8223</ele>
        <time>2014-06-21T13:36:40Z</time>
      </trkpt>
      <trkpt lat="60.0123104" lon="17.7326005">
        <ele>33.3029</ele>
        <time>2014-06-21T13:36:41Z</time>
      </trkpt>
      <trkpt lat="60.012257" lon="17.7326202">
        <ele>33.3029</ele>
        <time>2014-06-21T13:36:42Z</time>
      </trkpt>
      <trkpt lat="60.0122032" lon="17.7326393">
        <ele>33.3029</ele>
        <time>2014-06-21T13:36:43Z</time>
      </trkpt>
      <trkpt lat="60.0121489" lon="17.7326593">
        <ele>33.3029</ele>
        <time>2014-06-21T13:36:44Z</time>
      </trkpt>
      <trkpt lat="60.0120952" lon="17.7326782">
        <ele>33.3029</ele>
        <time>2014-06-21T13:36:45Z</time>
      </trkpt>
      <trkpt lat="60.0120408" lon="17.7326958">
        <ele>33.7834</ele>
        <time>2014-06-21T13:36:46Z</time>
      </trkpt>
      <trkpt lat="60.0119877" lon="17.7327139">
        <ele>33.7834</ele>
        <time>2014-06-21T13:36:47Z</time>
      </trkpt>
      <trkpt lat="60.0119348" lon="17.7327311">
        <ele>33.7834</ele>
        <time>2014-06-21T13:36:48Z</time>
      </trkpt>
      <trkpt lat="60.0118805" lon="17.7327475">
        <ele>33.7834</ele>
        <time>2014-06-21T13:36:49Z</time>
      </trkpt>
      <trkpt lat="60.011825" lon="17.7327591">
        <ele>34.2642</ele>
        <time>2014-06-21T13:36:50Z</time>
      </trkpt>
      <trkpt lat="60.0117687" lon="17.732765">
        <ele>34.2642</ele>
        <time>2014-06-21T13:36:51Z</time>
      </trkpt>
      <trkpt lat="60.0117104" lon="17.7327666">
        <ele>34.2642</ele>
        <time>2014-06-21T13:36:52Z</time>
      </trkpt>
      <trkpt lat="60.0116547" lon="17.7327664">
        <ele>34.2642</ele>
        <time>2014-06-21T13:36:53Z</time>
      </trkpt>
      <trkpt lat="60.0116026" lon="17.7327651">
        <ele>34.2642</ele>
        <time>2014-06-21T13:36:54Z</time>
      </trkpt>
      <trkpt lat="60.0115474" lon="17.7327602">
        <ele>34.2642</ele>
        <time>2014-06-21T13:36:55Z</time>
      </trkpt>
      <trkpt lat="60.0114909" lon="17.73275">
        <ele>34.2642</ele>
        <time>2014-06-21T13:36:56Z</time>
      </trkpt>
      <trkpt lat="60.0114341" lon="17.7327357">
        <ele>34.2642</ele>
        <time>2014-06-21T13:36:57Z</time>
      </trkpt>
      <trkpt lat="60.011377" lon="17.7327161">
        <ele>34.2642</ele>
        <time>2014-06-21T13:36:58Z</time>
      </trkpt>
      <trkpt lat="60.0113204" lon="17.7326927">
        <ele>34.2642</ele>
        <time>2014-06-21T13:36:59Z</time>
      </trkpt>
      <trkpt lat="60.0112631" lon="17.7326694">
        <ele>34.2642</ele>
        <time>2014-06-21T13:37:00Z</time>
      </trkpt>
      <trkpt lat="60.011205" lon="17.7326462">
        <ele>34.2642</ele>
        <time>2014-06-21T13:37:01Z</time>
      </trkpt>
      <trkpt lat="60.0111464" lon="17.7326202">
        <ele>34.2642</ele>
        <time>2014-06-21T13:37:02Z</time>
      </trkpt>
      <trkpt lat="60.0110875" lon="17.7325895">
        <ele>34.2642</ele>
        <time>2014-06-21T13:37:03Z</time>
      </trkpt>
      <trkpt lat="60.0110274" lon="17.7325544">
        <ele>34.2642</ele>
        <time>2014-06-21T13:37:04Z</time>
      </trkpt>
      <trkpt lat="60.0109662" lon="17.7325162">
        <ele>34.7449</ele>
        <time>2014-06-21T13:37:05Z</time>
      </trkpt>
      <trkpt lat="60.0109052" lon="17.7324711">
        <ele>34.7449</ele>
        <time>2014-06-21T13:37:06Z</time>
      </trkpt>
      <trkpt lat="60.0108459" lon="17.7324212">
        <ele>34.7449</ele>
        <time>2014-06-21T13:37:07Z</time>
      </trkpt>
      <trkpt lat="60.0107873" lon="17.7323682">
        <ele>34.7449</ele>
        <time>2014-06-21T13:37:08Z</time>
      </trkpt>
      <trkpt lat="60.010733" lon="17.7322898">
        <ele>34.7449</ele>
        <time>2014-06-21T13:37:09Z</time>
      </trkpt>
      <trkpt lat="60.0106907" lon="17.7321809">
        <ele>34.2642</ele>
        <time>2014-06-21T13:37:10Z</time>
      </trkpt>
      <trkpt lat="60.0106466" lon="17.7320735">
        <ele>34.2642</ele>
        <time>2014-06-21T13:37:11Z</time>
      </trkpt>
      <trkpt lat="60.0105915" lon="17.731982">
        <ele>34.2642</ele>
        <time>2014-06-21T13:37:12Z</time>
      </trkpt>
      <trkpt lat="60.0105324" lon="17.7318997">
        <ele>34.2642</ele>
        <time>2014-06-21T13:37:13Z</time>
      </trkpt>
      <trkpt lat="60.0104725" lon="17.7318222">
        <ele>34.2642</ele>
        <time>2014-06-21T13:37:14Z</time>
      </trkpt>
      <trkpt lat="60.0104133" lon="17.7317443">
        <ele>34.2642</ele>
        <time>2014-06-21T13:37:15Z</time>
      </trkpt>
      <trkpt lat="60.010354" lon="17.731666">
        <ele>34.2642</ele>
        <time>2014-06-21T13:37:16Z</time>
      </trkpt>
      <trkpt lat="60.0102948" lon="17.7315887">
        <ele>34.2642</ele>
        <time>2014-06-21T13:37:17Z</time>
      </trkpt>
      <trkpt lat="60.0102363" lon="17.731513">
        <ele>33.7834</ele>
        <time>2014-06-21T13:37:18Z</time>
      </trkpt>
      <trkpt lat="60.01018" lon="17.7314369">
        <ele>34.2642</ele>
        <time>2014-06-21T13:37:19Z</time>
      </trkpt>
      <trkpt lat="60.0101244" lon="17.7313604">
        <ele>34.2642</ele>
        <time>2014-06-21T13:37:20Z</time>
      </trkpt>
      <trkpt lat="60.0100681" lon="17.7312843">
        <ele>34.2642</ele>
        <time>2014-06-21T13:37:21Z</time>
      </trkpt>
      <trkpt lat="60.0100119" lon="17.731205">
        <ele>33.7834</ele>
        <time>2014-06-21T13:37:22Z</time>
      </trkpt>
      <trkpt lat="60.0099581" lon="17.7311237">
        <ele>33.7834</ele>
        <time>2014-06-21T13:37:23Z</time>
      </trkpt>
      <trkpt lat="60.0099053" lon="17.7310439">
        <ele>33.7834</ele>
        <time>2014-06-21T13:37:24Z</time>
      </trkpt>
      <trkpt lat="60.0098548" lon="17.730965">
        <ele>33.7834</ele>
        <time>2014-06-21T13:37:25Z</time>
      </trkpt>
      <trkpt lat="60.0098064" lon="17.7308832">
        <ele>33.7834</ele>
        <time>2014-06-21T13:37:26Z</time>
      </trkpt>
      <trkpt lat="60.0097614" lon="17.7307902">
        <ele>33.7834</ele>
        <time>2014-06-21T13:37:27Z</time>
      </trkpt>
      <trkpt lat="60.0097228" lon="17.7306865">
        <ele>33.7834</ele>
        <time>2014-06-21T13:37:28Z</time>
      </trkpt>
      <trkpt lat="60.0096863" lon="17.7305798">
        <ele>33.7834</ele>
        <time>2014-06-21T13:37:29Z</time>
      </trkpt>
      <trkpt lat="60.0096493" lon="17.7304746">
        <ele>33.3029</ele>
        <time>2014-06-21T13:37:30Z</time>
      </trkpt>
      <trkpt lat="60.0096112" lon="17.7303677">
        <ele>33.3029</ele>
        <time>2014-06-21T13:37:31Z</time>
      </trkpt>
      <trkpt lat="60.0095725" lon="17.730257">
        <ele>33.3029</ele>
        <time>2014-06-21T13:37:32Z</time>
      </trkpt>
      <trkpt lat="60.0095318" lon="17.7301437">
        <ele>32.8223</ele>
        <time>2014-06-21T13:37:33Z</time>
      </trkpt>
      <trkpt lat="60.0094883" lon="17.7300261">
        <ele>32.3416</ele>
        <time>2014-06-21T13:37:34Z</time>
      </trkpt>
      <trkpt lat="60.0094449" lon="17.729896">
        <ele>31.8607</ele>
        <time>2014-06-21T13:37:35Z</time>
      </trkpt>
      <trkpt lat="60.0094035" lon="17.7297644">
        <ele>31.3801</ele>
        <time>2014-06-21T13:37:36Z</time>
      </trkpt>
      <trkpt lat="60.0093589" lon="17.7296306">
        <ele>30.8995</ele>
        <time>2014-06-21T13:37:37Z</time>
      </trkpt>
      <trkpt lat="60.0093125" lon="17.7294975">
        <ele>30.4188</ele>
        <time>2014-06-21T13:37:38Z</time>
      </trkpt>
      <trkpt lat="60.009264" lon="17.729364">
        <ele>29.9381</ele>
        <time>2014-06-21T13:37:39Z</time>
      </trkpt>
      <trkpt lat="60.0092148" lon="17.7292283">
        <ele>29.9381</ele>
        <time>2014-06-21T13:37:40Z</time>
      </trkpt>
      <trkpt lat="60.0091651" lon="17.7290889">
        <ele>29.4575</ele>
        <time>2014-06-21T13:37:41Z</time>
      </trkpt>
      <trkpt lat="60.0091156" lon="17.7289457">
        <ele>28.9769</ele>
        <time>2014-06-21T13:37:42Z</time>
      </trkpt>
      <trkpt lat="60.0090664" lon="17.7287999">
        <ele>28.4962</ele>
        <time>2014-06-21T13:37:43Z</time>
      </trkpt>
      <trkpt lat="60.0090158" lon="17.7286533">
        <ele>28.4962</ele>
        <time>2014-06-21T13:37:44Z</time>
      </trkpt>
      <trkpt lat="60.0089619" lon="17.728508">
        <ele>28.0155</ele>
        <time>2014-06-21T13:37:45Z</time>
      </trkpt>
      <trkpt lat="60.008904" lon="17.7283671">
        <ele>28.0155</ele>
        <time>2014-06-21T13:37:46Z</time>
      </trkpt>
      <trkpt lat="60.0088416" lon="17.7282341">
        <ele>27.5349</ele>
        <time>2014-06-21T13:37:47Z</time>
      </trkpt>
      <trkpt lat="60.0087734" lon="17.7281126">
        <ele>27.5349</ele>
        <time>2014-06-21T13:37:48Z</time>
      </trkpt>
      <trkpt lat="60.0087002" lon="17.7280035">
        <ele>27.5349</ele>
        <time>2014-06-21T13:37:49Z</time>
      </trkpt>
      <trkpt lat="60.0086243" lon="17.7278981">
        <ele>27.0543</ele>
        <time>2014-06-21T13:37:50Z</time>
      </trkpt>
      <trkpt lat="60.0085464" lon="17.7277909">
        <ele>26.5736</ele>
        <time>2014-06-21T13:37:51Z</time>
      </trkpt>
      <trkpt lat="60.0084664" lon="17.7276821">
        <ele>26.0929</ele>
        <time>2014-06-21T13:37:52Z</time>
      </trkpt>
      <trkpt lat="60.0083851" lon="17.7275692">
        <ele>26.0929</ele>
        <time>2014-06-21T13:37:53Z</time>
      </trkpt>
      <trkpt lat="60.0083048" lon="17.727452">
        <ele>25.6123</ele>
        <time>2014-06-21T13:37:54Z</time>
      </trkpt>
      <trkpt lat="60.0082255" lon="17.7273326">
        <ele>25.6123</ele>
        <time>2014-06-21T13:37:55Z</time>
      </trkpt>
      <trkpt lat="60.0081455" lon="17.7272146">
        <ele>25.1317</ele>
        <time>2014-06-21T13:37:56Z</time>
      </trkpt>
      <trkpt lat="60.0080626" lon="17.7271017">
        <ele>25.1317</ele>
        <time>2014-06-21T13:37:57Z</time>
      </trkpt>
      <trkpt lat="60.0079782" lon="17.7269976">
        <ele>25.1317</ele>
        <time>2014-06-21T13:37:58Z</time>
      </trkpt>
      <trkpt lat="60.0078934" lon="17.7269043">
        <ele>25.1317</ele>
        <time>2014-06-21T13:37:59Z</time>
      </trkpt>
      <trkpt lat="60.0078069" lon="17.7268273">
        <ele>25.6123</ele>
        <time>2014-06-21T13:38:00Z</time>
      </trkpt>
      <trkpt lat="60.0077188" lon="17.7267694">
        <ele>25.6123</ele>
        <time>2014-06-21T13:38:01Z</time>
      </trkpt>
      <trkpt lat="60.0076324" lon="17.7267292">
        <ele>26.0929</ele>
        <time>2014-06-21T13:38:02Z</time>
      </trkpt>
      <trkpt lat="60.0075473" lon="17.7267074">
        <ele>26.5736</ele>
        <time>2014-06-21T13:38:03Z</time>
      </trkpt>
      <trkpt lat="60.0074669" lon="17.7267112">
        <ele>26.5736</ele>
        <time>2014-06-21T13:38:04Z</time>
      </trkpt>
      <trkpt lat="60.0073971" lon="17.7267388">
        <ele>26.5736</ele>
        <time>2014-06-21T13:38:05Z</time>
      </trkpt>
      <trkpt lat="60.0073339" lon="17.7267761">
        <ele>27.0543</ele>
        <time>2014-06-21T13:38:06Z</time>
      </trkpt>
      <trkpt lat="60.0072767" lon="17.726817">
        <ele>26.5736</ele>
        <time>2014-06-21T13:38:07Z</time>
      </trkpt>
      <trkpt lat="60.0072184" lon="17.7268583">
        <ele>26.5736</ele>
        <time>2014-06-21T13:38:08Z</time>
      </trkpt>
      <trkpt lat="60.0071578" lon="17.7269061">
        <ele>26.0929</ele>
        <time>2014-06-21T13:38:09Z</time>
      </trkpt>
      <trkpt lat="60.0070962" lon="17.7269526">
        <ele>26.5736</ele>
        <time>2014-06-21T13:38:10Z</time>
      </trkpt>
      <trkpt lat="60.0070355" lon="17.7269863">
        <ele>27.0543</ele>
        <time>2014-06-21T13:38:11Z</time>
      </trkpt>
      <trkpt lat="60.0069732" lon="17.7270126">
        <ele>27.0543</ele>
        <time>2014-06-21T13:38:12Z</time>
      </trkpt>
      <trkpt lat="60.0069158" lon="17.7270432">
        <ele>27.5349</ele>
        <time>2014-06-21T13:38:13Z</time>
      </trkpt>
      <trkpt lat="60.0068559" lon="17.7270763">
        <ele>28.0155</ele>
        <time>2014-06-21T13:38:14Z</time>
      </trkpt>
      <trkpt lat="60.0067989" lon="17.7271095">
        <ele>28.4962</ele>
        <time>2014-06-21T13:38:15Z</time>
      </trkpt>
      <trkpt lat="60.0067397" lon="17.7271408">
        <ele>27.5349</ele>
        <time>2014-06-21T13:38:16Z</time>
      </trkpt>
      <trkpt lat="60.0066842" lon="17.7271726">
        <ele>27.5349</ele>
        <time>2014-06-21T13:38:17Z</time>
      </trkpt>
      <trkpt lat="60.0066325" lon="17.7272019">
        <ele>28.0155</ele>
        <time>2014-06-21T13:38:18Z</time>
      </trkpt>
      <trkpt lat="60.0065837" lon="17.7272339">
        <ele>28.4962</ele>
        <time>2014-06-21T13:38:19Z</time>
      </trkpt>
      <trkpt lat="60.0065347" lon="17.7272665">
        <ele>28.4962</ele>
        <time>2014-06-21T13:38:20Z</time>
      </trkpt>
      <trkpt lat="60.006486" lon="17.7272997">
        <ele>28.9769</ele>
        <time>2014-06-21T13:38:21Z</time>
      </trkpt>
      <trkpt lat="60.0064367" lon="17.7273347">
        <ele>29.4575</ele>
        <time>2014-06-21T13:38:22Z</time>
      </trkpt>
      <trkpt lat="60.006388" lon="17.7273692">
        <ele>29.4575</ele>
        <time>2014-06-21T13:38:23Z</time>
      </trkpt>
      <trkpt lat="60.0063403" lon="17.7274027">
        <ele>29.9381</ele>
        <time>2014-06-21T13:38:24Z</time>
      </trkpt>
      <trkpt lat="60.0062911" lon="17.7274404">
        <ele>29.9381</ele>
        <time>2014-06-21T13:38:25Z</time>
      </trkpt>
      <trkpt lat="60.0062475" lon="17.7274873">
        <ele>30.4188</ele>
        <time>2014-06-21T13:38:26Z</time>
      </trkpt>
      <trkpt lat="60.0062065" lon="17.7275404">
        <ele>30.8995</ele>
        <time>2014-06-21T13:38:27Z</time>
      </trkpt>
      <trkpt lat="60.0061667" lon="17.727595">
        <ele>30.8995</ele>
        <time>2014-06-21T13:38:28Z</time>
      </trkpt>
      <trkpt lat="60.0061269" lon="17.727649">
        <ele>31.3801</ele>
        <time>2014-06-21T13:38:29Z</time>
      </trkpt>
      <trkpt lat="60.0060875" lon="17.7277042">
        <ele>31.3801</ele>
        <time>2014-06-21T13:38:30Z</time>
      </trkpt>
      <trkpt lat="60.0060487" lon="17.7277602">
        <ele>31.3801</ele>
        <time>2014-06-21T13:38:31Z</time>
      </trkpt>
      <trkpt lat="60.0060089" lon="17.7278139">
        <ele>31.8607</ele>
        <time>2014-06-21T13:38:32Z</time>
      </trkpt>
      <trkpt lat="60.0059714" lon="17.7278712">
        <ele>32.3416</ele>
        <time>2014-06-21T13:38:33Z</time>
      </trkpt>
      <trkpt lat="60.0059291" lon="17.7279305">
        <ele>32.8223</ele>
        <time>2014-06-21T13:38:34Z</time>
      </trkpt>
      <trkpt lat="60.0058872" lon="17.7279803">
        <ele>33.3029</ele>
        <time>2014-06-21T13:38:35Z</time>
      </trkpt>
      <trkpt lat="60.0058423" lon="17.7280172">
        <ele>32.8223</ele>
        <time>2014-06-21T13:38:36Z</time>
      </trkpt>
      <trkpt lat="60.0057932" lon="17.7280261">
        <ele>33.3029</ele>
        <time>2014-06-21T13:38:37Z</time>
      </trkpt>
      <trkpt lat="60.0057341" lon="17.7280335">
        <ele>33.3029</ele>
        <time>2014-06-21T13:38:38Z</time>
      </trkpt>
      <trkpt lat="60.0056835" lon="17.7280535">
        <ele>34.7449</ele>
        <time>2014-06-21T13:38:39Z</time>
      </trkpt>
      <trkpt lat="60.0056276" lon="17.7280596">
        <ele>35.2255</ele>
        <time>2014-06-21T13:38:40Z</time>
      </trkpt>
      <trkpt lat="60.0055769" lon="17.7280456">
        <ele>36.1868</ele>
        <time>2014-06-21T13:38:41Z</time>
      </trkpt>
      <trkpt lat="60.0055215" lon="17.7280229">
        <ele>36.6675</ele>
        <time>2014-06-21T13:38:42Z</time>
      </trkpt>
      <trkpt lat="60.005466" lon="17.7280024">
        <ele>36.1868</ele>
        <time>2014-06-21T13:38:43Z</time>
      </trkpt>
      <trkpt lat="60.005408" lon="17.7279933">
        <ele>36.1868</ele>
        <time>2014-06-21T13:38:44Z</time>
      </trkpt>
      <trkpt lat="60.0053508" lon="17.727972">
        <ele>35.2255</ele>
        <time>2014-06-21T13:38:45Z</time>
      </trkpt>
      <trkpt lat="60.0052969" lon="17.727957">
        <ele>34.7449</ele>
        <time>2014-06-21T13:38:46Z</time>
      </trkpt>
      <trkpt lat="60.0052449" lon="17.7279533">
        <ele>35.2255</ele>
        <time>2014-06-21T13:38:47Z</time>
      </trkpt>
      <trkpt lat="60.00519" lon="17.7279608">
        <ele>35.2255</ele>
        <time>2014-06-21T13:38:48Z</time>
      </trkpt>
      <trkpt lat="60.0051345" lon="17.7279696">
        <ele>34.7449</ele>
        <time>2014-06-21T13:38:49Z</time>
      </trkpt>
      <trkpt lat="60.0050832" lon="17.7279834">
        <ele>34.7449</ele>
        <time>2014-06-21T13:38:50Z</time>
      </trkpt>
      <trkpt lat="60.0050345" lon="17.7279993">
        <ele>34.2642</ele>
        <time>2014-06-21T13:38:51Z</time>
      </trkpt>
      <trkpt lat="60.0049898" lon="17.7280235">
        <ele>34.7449</ele>
        <time>2014-06-21T13:38:52Z</time>
      </trkpt>
      <trkpt lat="60.0049426" lon="17.7280459">
        <ele>34.7449</ele>
        <time>2014-06-21T13:38:53Z</time>
      </trkpt>
      <trkpt lat="60.0048972" lon="17.7280649">
        <ele>34.2642</ele>
        <time>2014-06-21T13:38:54Z</time>
      </trkpt>
      <trkpt lat="60.004854" lon="17.7280876">
        <ele>34.2642</ele>
        <time>2014-06-21T13:38:55Z</time>
      </trkpt>
      <trkpt lat="60.0048112" lon="17.7281093">
        <ele>34.2642</ele>
        <time>2014-06-21T13:38:56Z</time>
      </trkpt>
      <trkpt lat="60.0047666" lon="17.728128">
        <ele>34.2642</ele>
        <time>2014-06-21T13:38:57Z</time>
      </trkpt>
      <trkpt lat="60.004724" lon="17.7281483">
        <ele>34.2642</ele>
        <time>2014-06-21T13:38:58Z</time>
      </trkpt>
      <trkpt lat="60.0046813" lon="17.7281658">
        <ele>34.2642</ele>
        <time>2014-06-21T13:38:59Z</time>
      </trkpt>
      <trkpt lat="60.0046357" lon="17.7281798">
        <ele>34.7449</ele>
        <time>2014-06-21T13:39:00Z</time>
      </trkpt>
      <trkpt lat="60.0045952" lon="17.7281937">
        <ele>35.2255</ele>
        <time>2014-06-21T13:39:01Z</time>
      </trkpt>
      <trkpt lat="60.0045553" lon="17.7282156">
        <ele>35.7061</ele>
        <time>2014-06-21T13:39:02Z</time>
      </trkpt>
      <trkpt lat="60.0045164" lon="17.7282425">
        <ele>36.1868</ele>
        <time>2014-06-21T13:39:03Z</time>
      </trkpt>
      <trkpt lat="60.0044761" lon="17.7282684">
        <ele>35.7061</ele>
        <time>2014-06-21T13:39:04Z</time>
      </trkpt>
      <trkpt lat="60.004431" lon="17.7282953">
        <ele>35.7061</ele>
        <time>2014-06-21T13:39:05Z</time>
      </trkpt>
      <trkpt lat="60.0043858" lon="17.7283159">
        <ele>35.7061</ele>
        <time>2014-06-21T13:39:06Z</time>
      </trkpt>
      <trkpt lat="60.0043434" lon="17.7283306">
        <ele>35.7061</ele>
        <time>2014-06-21T13:39:07Z</time>
      </trkpt>
      <trkpt lat="60.0043019" lon="17.7283424">
        <ele>35.2255</ele>
        <time>2014-06-21T13:39:08Z</time>
      </trkpt>
      <trkpt lat="60.0042637" lon="17.7283576">
        <ele>36.1868</ele>
        <time>2014-06-21T13:39:09Z</time>
      </trkpt>
      <trkpt lat="60.0042325" lon="17.7283709">
        <ele>36.6675</ele>
        <time>2014-06-21T13:39:10Z</time>
      </trkpt>
      <trkpt lat="60.0041994" lon="17.7283829">
        <ele>36.1868</ele>
        <time>2014-06-21T13:39:11Z</time>
      </trkpt>
      <trkpt lat="60.0041624" lon="17.7283782">
        <ele>35.7061</ele>
        <time>2014-06-21T13:39:12Z</time>
      </trkpt>
      <trkpt lat="60.0041465" lon="17.7283749">
        <ele>36.1868</ele>
        <time>2014-06-21T13:39:13Z</time>
      </trkpt>
      <trkpt lat="60.0041285" lon="17.7283804">
        <ele>36.1868</ele>
        <time>2014-06-21T13:39:14Z</time>
      </trkpt>
      <trkpt lat="60.0041119" lon="17.728373">
        <ele>36.6675</ele>
        <time>2014-06-21T13:39:15Z</time>
      </trkpt>
      <trkpt lat="60.0040912" lon="17.728345">
        <ele>36.1868</ele>
        <time>2014-06-21T13:39:16Z</time>
      </trkpt>
      <trkpt lat="60.0040734" lon="17.7283274">
        <ele>36.1868</ele>
        <time>2014-06-21T13:39:17Z</time>
      </trkpt>
      <trkpt lat="60.0040523" lon="17.7283243">
        <ele>35.7061</ele>
        <time>2014-06-21T13:39:18Z</time>
      </trkpt>
      <trkpt lat="60.0040325" lon="17.7283348">
        <ele>35.7061</ele>
        <time>2014-06-21T13:39:19Z</time>
      </trkpt>
      <trkpt lat="60.0040125" lon="17.7283593">
        <ele>35.7061</ele>
        <time>2014-06-21T13:39:20Z</time>
      </trkpt>
      <trkpt lat="60.0039951" lon="17.7283968">
        <ele>35.2255</ele>
        <time>2014-06-21T13:39:21Z</time>
      </trkpt>
      <trkpt lat="60.0039825" lon="17.7284497">
        <ele>35.2255</ele>
        <time>2014-06-21T13:39:22Z</time>
      </trkpt>
      <trkpt lat="60.0039706" lon="17.7285103">
        <ele>34.7449</ele>
        <time>2014-06-21T13:39:23Z</time>
      </trkpt>
      <trkpt lat="60.0039554" lon="17.728575">
        <ele>34.7449</ele>
        <time>2014-06-21T13:39:24Z</time>
      </trkpt>
      <trkpt lat="60.0039338" lon="17.7286365">
        <ele>34.7449</ele>
        <time>2014-06-21T13:39:25Z</time>
      </trkpt>
      <trkpt lat="60.0039104" lon="17.7286917">
        <ele>34.7449</ele>
        <time>2014-06-21T13:39:26Z</time>
      </trkpt>
      <trkpt lat="60.0038872" lon="17.7287485">
        <ele>34.7449</ele>
        <time>2014-06-21T13:39:27Z</time>
      </trkpt>
      <trkpt lat="60.0038642" lon="17.7288072">
        <ele>34.7449</ele>
        <time>2014-06-21T13:39:28Z</time>
      </trkpt>
      <trkpt lat="60.0038398" lon="17.7288672">
        <ele>35.2255</ele>
        <time>2014-06-21T13:39:29Z</time>
      </trkpt>
      <trkpt lat="60.0038149" lon="17.7289278">
        <ele>35.7061</ele>
        <time>2014-06-21T13:39:30Z</time>
      </trkpt>
      <trkpt lat="60.0037838" lon="17.7289852">
        <ele>35.7061</ele>
        <time>2014-06-21T13:39:31Z</time>
      </trkpt>
      <trkpt lat="60.0037494" lon="17.7290408">
        <ele>35.7061</ele>
        <time>2014-06-21T13:39:32Z</time>
      </trkpt>
      <trkpt lat="60.003716" lon="17.7291013">
        <ele>35.7061</ele>
        <time>2014-06-21T13:39:33Z</time>
      </trkpt>
      <trkpt lat="60.0036803" lon="17.7291655">
        <ele>35.7061</ele>
        <time>2014-06-21T13:39:34Z</time>
      </trkpt>
      <trkpt lat="60.0036436" lon="17.7292324">
        <ele>35.7061</ele>
        <time>2014-06-21T13:39:35Z</time>
      </trkpt>
      <trkpt lat="60.0036071" lon="17.7293054">
        <ele>36.1868</ele>
        <time>2014-06-21T13:39:36Z</time>
      </trkpt>
      <trkpt lat="60.0035717" lon="17.7293815">
        <ele>37.1481</ele>
        <time>2014-06-21T13:39:37Z</time>
      </trkpt>
      <trkpt lat="60.0035354" lon="17.7294558">
        <ele>37.1481</ele>
        <time>2014-06-21T13:39:38Z</time>
      </trkpt>
      <trkpt lat="60.003499" lon="17.7295292">
        <ele>37.1481</ele>
        <time>2014-06-21T13:39:39Z</time>
      </trkpt>
      <trkpt lat="60.0034649" lon="17.7296075">
        <ele>37.6287</ele>
        <time>2014-06-21T13:39:40Z</time>
      </trkpt>
      <trkpt lat="60.003429" lon="17.729682">
        <ele>38.1094</ele>
        <time>2014-06-21T13:39:41Z</time>
      </trkpt>
      <trkpt lat="60.0033891" lon="17.7297489">
        <ele>37.6287</ele>
        <time>2014-06-21T13:39:42Z</time>
      </trkpt>
      <trkpt lat="60.0033509" lon="17.7298156">
        <ele>37.6287</ele>
        <time>2014-06-21T13:39:43Z</time>
      </trkpt>
      <trkpt lat="60.0033119" lon="17.729882">
        <ele>37.6287</ele>
        <time>2014-06-21T13:39:44Z</time>
      </trkpt>
      <trkpt lat="60.0032768" lon="17.7299522">
        <ele>38.1094</ele>
        <time>2014-06-21T13:39:45Z</time>
      </trkpt>
      <trkpt lat="60.0032404" lon="17.7300203">
        <ele>38.5901</ele>
        <time>2014-06-21T13:39:46Z</time>
      </trkpt>
      <trkpt lat="60.0032055" lon="17.7300901">
        <ele>39.0707</ele>
        <time>2014-06-21T13:39:47Z</time>
      </trkpt>
      <trkpt lat="60.0031692" lon="17.7301591">
        <ele>39.5513</ele>
        <time>2014-06-21T13:39:48Z</time>
      </trkpt>
      <trkpt lat="60.0031282" lon="17.7302337">
        <ele>40.5128</ele>
        <time>2014-06-21T13:39:49Z</time>
      </trkpt>
      <trkpt lat="60.0030905" lon="17.7303">
        <ele>40.9934</ele>
        <time>2014-06-21T13:39:50Z</time>
      </trkpt>
      <trkpt lat="60.0030448" lon="17.730356">
        <ele>40.5128</ele>
        <time>2014-06-21T13:39:51Z</time>
      </trkpt>
      <trkpt lat="60.0030066" lon="17.7304222">
        <ele>40.9934</ele>
        <time>2014-06-21T13:39:52Z</time>
      </trkpt>
      <trkpt lat="60.0029645" lon="17.7304827">
        <ele>40.9934</ele>
        <time>2014-06-21T13:39:53Z</time>
      </trkpt>
      <trkpt lat="60.0029232" lon="17.7305476">
        <ele>40.5128</ele>
        <time>2014-06-21T13:39:54Z</time>
      </trkpt>
      <trkpt lat="60.0028802" lon="17.7306145">
        <ele>40.0321</ele>
        <time>2014-06-21T13:39:55Z</time>
      </trkpt>
      <trkpt lat="60.0028415" lon="17.7306842">
        <ele>40.0321</ele>
        <time>2014-06-21T13:39:56Z</time>
      </trkpt>
      <trkpt lat="60.0028049" lon="17.7307575">
        <ele>40.0321</ele>
        <time>2014-06-21T13:39:57Z</time>
      </trkpt>
      <trkpt lat="60.0027675" lon="17.7308347">
        <ele>40.5128</ele>
        <time>2014-06-21T13:39:58Z</time>
      </trkpt>
      <trkpt lat="60.0027303" lon="17.7309109">
        <ele>40.5128</ele>
        <time>2014-06-21T13:39:59Z</time>
      </trkpt>
      <trkpt lat="60.0026956" lon="17.7309901">
        <ele>40.5128</ele>
        <time>2014-06-21T13:40:00Z</time>
      </trkpt>
      <trkpt lat="60.002662" lon="17.7310719">
        <ele>40.5128</ele>
        <time>2014-06-21T13:40:01Z</time>
      </trkpt>
      <trkpt lat="60.0026289" lon="17.7311511">
        <ele>40.5128</ele>
        <time>2014-06-21T13:40:02Z</time>
      </trkpt>
      <trkpt lat="60.0025955" lon="17.7312331">
        <ele>40.0321</ele>
        <time>2014-06-21T13:40:03Z</time>
      </trkpt>
      <trkpt lat="60.0025646" lon="17.7313199">
        <ele>40.0321</ele>
        <time>2014-06-21T13:40:04Z</time>
      </trkpt>
      <trkpt lat="60.0025352" lon="17.731408">
        <ele>40.0321</ele>
        <time>2014-06-21T13:40:05Z</time>
      </trkpt>
      <trkpt lat="60.0025041" lon="17.7314977">
        <ele>40.0321</ele>
        <time>2014-06-21T13:40:06Z</time>
      </trkpt>
      <trkpt lat="60.0024773" lon="17.7315931">
        <ele>40.0321</ele>
        <time>2014-06-21T13:40:07Z</time>
      </trkpt>
      <trkpt lat="60.0024491" lon="17.7316893">
        <ele>40.0321</ele>
        <time>2014-06-21T13:40:08Z</time>
      </trkpt>
      <trkpt lat="60.0024191" lon="17.7317852">
        <ele>40.0321</ele>
        <time>2014-06-21T13:40:09Z</time>
      </trkpt>
      <trkpt lat="60.0023921" lon="17.7318837">
        <ele>40.0321</ele>
        <time>2014-06-21T13:40:10Z</time>
      </trkpt>
      <trkpt lat="60.0023636" lon="17.731985">
        <ele>40.0321</ele>
        <time>2014-06-21T13:40:11Z</time>
      </trkpt>
      <trkpt lat="60.0023367" lon="17.7320882">
        <ele>39.5513</ele>
        <time>2014-06-21T13:40:12Z</time>
      </trkpt>
      <trkpt lat="60.0023118" lon="17.7321943">
        <ele>39.5513</ele>
        <time>2014-06-21T13:40:13Z</time>
      </trkpt>
      <trkpt lat="60.0022883" lon="17.7323001">
        <ele>40.0321</ele>
        <time>2014-06-21T13:40:14Z</time>
      </trkpt>
      <trkpt lat="60.0022667" lon="17.732404">
        <ele>40.0321</ele>
        <time>2014-06-21T13:40:15Z</time>
      </trkpt>
      <trkpt lat="60.0022474" lon="17.7325047">
        <ele>40.0321</ele>
        <time>2014-06-21T13:40:16Z</time>
      </trkpt>
      <trkpt lat="60.0022356" lon="17.7325984">
        <ele>40.5128</ele>
        <time>2014-06-21T13:40:17Z</time>
      </trkpt>
      <trkpt lat="60.0022272" lon="17.7326896">
        <ele>40.9934</ele>
        <time>2014-06-21T13:40:18Z</time>
      </trkpt>
      <trkpt lat="60.0022191" lon="17.7327816">
        <ele>40.9934</ele>
        <time>2014-06-21T13:40:19Z</time>
      </trkpt>
      <trkpt lat="60.0022128" lon="17.7328708">
        <ele>40.9934</ele>
        <time>2014-06-21T13:40:20Z</time>
      </trkpt>
      <trkpt lat="60.0022062" lon="17.732952">
        <ele>40.9934</ele>
        <time>2014-06-21T13:40:21Z</time>
      </trkpt>
      <trkpt lat="60.002207" lon="17.7330344">
        <ele>40.9934</ele>
        <time>2014-06-21T13:40:22Z</time>
      </trkpt>
      <trkpt lat="60.0022087" lon="17.7331154">
        <ele>40.9934</ele>
        <time>2014-06-21T13:40:23Z</time>
      </trkpt>
      <trkpt lat="60.0022128" lon="17.7331947">
        <ele>40.9934</ele>
        <time>2014-06-21T13:40:24Z</time>
      </trkpt>
      <trkpt lat="60.0022205" lon="17.7332727">
        <ele>41.474</ele>
        <time>2014-06-21T13:40:25Z</time>
      </trkpt>
      <trkpt lat="60.0022275" lon="17.733347">
        <ele>41.9547</ele>
        <time>2014-06-21T13:40:26Z</time>
      </trkpt>
      <trkpt lat="60.0022305" lon="17.7334165">
        <ele>41.9547</ele>
        <time>2014-06-21T13:40:27Z</time>
      </trkpt>
      <trkpt lat="60.0022326" lon="17.7334836">
        <ele>42.4354</ele>
        <time>2014-06-21T13:40:28Z</time>
      </trkpt>
      <trkpt lat="60.0022345" lon="17.7335479">
        <ele>42.916</ele>
        <time>2014-06-21T13:40:29Z</time>
      </trkpt>
      <trkpt lat="60.0022356" lon="17.7336106">
        <ele>42.916</ele>
        <time>2014-06-21T13:40:30Z</time>
      </trkpt>
      <trkpt lat="60.0022339" lon="17.7336712">
        <ele>43.3966</ele>
        <time>2014-06-21T13:40:31Z</time>
      </trkpt>
      <trkpt lat="60.0022301" lon="17.7337297">
        <ele>43.3966</ele>
        <time>2014-06-21T13:40:32Z</time>
      </trkpt>
      <trkpt lat="60.0022261" lon="17.7337861">
        <ele>43.8773</ele>
        <time>2014-06-21T13:40:33Z</time>
      </trkpt>
      <trkpt lat="60.0022206" lon="17.7338396">
        <ele>44.358</ele>
        <time>2014-06-21T13:40:34Z</time>
      </trkpt>
      <trkpt lat="60.002215" lon="17.733892">
        <ele>44.358</ele>
        <time>2014-06-21T13:40:35Z</time>
      </trkpt>
      <trkpt lat="60.0022097" lon="17.7339428">
        <ele>44.358</ele>
        <time>2014-06-21T13:40:36Z</time>
      </trkpt>
      <trkpt lat="60.0022012" lon="17.7339912">
        <ele>44.358</ele>
        <time>2014-06-21T13:40:37Z</time>
      </trkpt>
      <trkpt lat="60.0021926" lon="17.734042">
        <ele>44.358</ele>
        <time>2014-06-21T13:40:38Z</time>
      </trkpt>
      <trkpt lat="60.0021834" lon="17.734096">
        <ele>44.358</ele>
        <time>2014-06-21T13:40:39Z</time>
      </trkpt>
      <trkpt lat="60.0021723" lon="17.734151">
        <ele>44.358</ele>
        <time>2014-06-21T13:40:40Z</time>
      </trkpt>
      <trkpt lat="60.0021614" lon="17.7342124">
        <ele>44.358</ele>
        <time>2014-06-21T13:40:41Z</time>
      </trkpt>
      <trkpt lat="60.0021494" lon="17.7342761">
        <ele>43.8773</ele>
        <time>2014-06-21T13:40:42Z</time>
      </trkpt>
      <trkpt lat="60.0021367" lon="17.734342">
        <ele>43.3966</ele>
        <time>2014-06-21T13:40:43Z</time>
      </trkpt>
      <trkpt lat="60.0021227" lon="17.7344087">
        <ele>42.916</ele>
        <time>2014-06-21T13:40:44Z</time>
      </trkpt>
      <trkpt lat="60.0021082" lon="17.7344813">
        <ele>42.916</ele>
        <time>2014-06-21T13:40:45Z</time>
      </trkpt>
      <trkpt lat="60.0020931" lon="17.734557">
        <ele>42.4354</ele>
        <time>2014-06-21T13:40:46Z</time>
      </trkpt>
      <trkpt lat="60.0020795" lon="17.7346327">
        <ele>42.4354</ele>
        <time>2014-06-21T13:40:47Z</time>
      </trkpt>
      <trkpt lat="60.002065" lon="17.7347088">
        <ele>42.4354</ele>
        <time>2014-06-21T13:40:48Z</time>
      </trkpt>
      <trkpt lat="60.0020496" lon="17.7347842">
        <ele>42.4354</ele>
        <time>2014-06-21T13:40:49Z</time>
      </trkpt>
      <trkpt lat="60.0020326" lon="17.7348576">
        <ele>42.4354</ele>
        <time>2014-06-21T13:40:50Z</time>
      </trkpt>
      <trkpt lat="60.0020158" lon="17.7349273">
        <ele>41.9547</ele>
        <time>2014-06-21T13:40:51Z</time>
      </trkpt>
      <trkpt lat="60.0019984" lon="17.7350019">
        <ele>41.9547</ele>
        <time>2014-06-21T13:40:52Z</time>
      </trkpt>
      <trkpt lat="60.0019782" lon="17.7350735">
        <ele>41.9547</ele>
        <time>2014-06-21T13:40:53Z</time>
      </trkpt>
      <trkpt lat="60.0019589" lon="17.7351443">
        <ele>42.4354</ele>
        <time>2014-06-21T13:40:54Z</time>
      </trkpt>
      <trkpt lat="60.0019351" lon="17.7352128">
        <ele>42.916</ele>
        <time>2014-06-21T13:40:55Z</time>
      </trkpt>
      <trkpt lat="60.0019099" lon="17.7352803">
        <ele>43.3966</ele>
        <time>2014-06-21T13:40:56Z</time>
      </trkpt>
      <trkpt lat="60.0018863" lon="17.7353443">
        <ele>43.8773</ele>
        <time>2014-06-21T13:40:57Z</time>
      </trkpt>
      <trkpt lat="60.001862" lon="17.7353976">
        <ele>43.8773</ele>
        <time>2014-06-21T13:40:58Z</time>
      </trkpt>
      <trkpt lat="60.0018373" lon="17.7354489">
        <ele>44.358</ele>
        <time>2014-06-21T13:40:59Z</time>
      </trkpt>
      <trkpt lat="60.0018102" lon="17.7354994">
        <ele>44.8386</ele>
        <time>2014-06-21T13:41:00Z</time>
      </trkpt>
      <trkpt lat="60.0017819" lon="17.7355459">
        <ele>45.3192</ele>
        <time>2014-06-21T13:41:01Z</time>
      </trkpt>
      <trkpt lat="60.0017527" lon="17.7355842">
        <ele>45.3192</ele>
        <time>2014-06-21T13:41:02Z</time>
      </trkpt>
      <trkpt lat="60.001726" lon="17.7356351">
        <ele>46.7612</ele>
        <time>2014-06-21T13:41:03Z</time>
      </trkpt>
      <trkpt lat="60.0016977" lon="17.735683">
        <ele>48.2034</ele>
        <time>2014-06-21T13:41:04Z</time>
      </trkpt>
      <trkpt lat="60.0016699" lon="17.7357258">
        <ele>48.684</ele>
        <time>2014-06-21T13:41:05Z</time>
      </trkpt>
      <trkpt lat="60.001641" lon="17.7357702">
        <ele>49.6453</ele>
        <time>2014-06-21T13:41:06Z</time>
      </trkpt>
      <trkpt lat="60.0016126" lon="17.7358116">
        <ele>49.6453</ele>
        <time>2014-06-21T13:41:07Z</time>
      </trkpt>
      <trkpt lat="60.0015846" lon="17.7358546">
        <ele>50.6066</ele>
        <time>2014-06-21T13:41:08Z</time>
      </trkpt>
      <trkpt lat="60.0015565" lon="17.7358949">
        <ele>51.5679</ele>
        <time>2014-06-21T13:41:09Z</time>
      </trkpt>
      <trkpt lat="60.0015275" lon="17.7359406">
        <ele>52.5292</ele>
        <time>2014-06-21T13:41:10Z</time>
      </trkpt>
      <trkpt lat="60.0014984" lon="17.7359851">
        <ele>53.0098</ele>
        <time>2014-06-21T13:41:11Z</time>
      </trkpt>
      <trkpt lat="60.0014677" lon="17.7360287">
        <ele>53.4905</ele>
        <time>2014-06-21T13:41:12Z</time>
      </trkpt>
      <trkpt lat="60.0014358" lon="17.7360675">
        <ele>53.4905</ele>
        <time>2014-06-21T13:41:13Z</time>
      </trkpt>
      <trkpt lat="60.0014002" lon="17.736109">
        <ele>53.4905</ele>
        <time>2014-06-21T13:41:14Z</time>
      </trkpt>
      <trkpt lat="60.0013623" lon="17.7361564">
        <ele>53.9712</ele>
        <time>2014-06-21T13:41:15Z</time>
      </trkpt>
      <trkpt lat="60.0013178" lon="17.7361976">
        <ele>53.9712</ele>
        <time>2014-06-21T13:41:16Z</time>
      </trkpt>
      <trkpt lat="60.001269" lon="17.7362385">
        <ele>53.9712</ele>
        <time>2014-06-21T13:41:17Z</time>
      </trkpt>
      <trkpt lat="60.0012183" lon="17.7362731">
        <ele>53.4905</ele>
        <time>2014-06-21T13:41:18Z</time>
      </trkpt>
      <trkpt lat="60.0011606" lon="17.7362971">
        <ele>52.5292</ele>
        <time>2014-06-21T13:41:19Z</time>
      </trkpt>
      <trkpt lat="60.0011006" lon="17.7363161">
        <ele>51.0872</ele>
        <time>2014-06-21T13:41:20Z</time>
      </trkpt>
      <trkpt lat="60.0010414" lon="17.7363353">
        <ele>50.6066</ele>
        <time>2014-06-21T13:41:21Z</time>
      </trkpt>
      <trkpt lat="60.0009826" lon="17.7363567">
        <ele>49.6453</ele>
        <time>2014-06-21T13:41:22Z</time>
      </trkpt>
      <trkpt lat="60.0009246" lon="17.7363846">
        <ele>48.684</ele>
        <time>2014-06-21T13:41:23Z</time>
      </trkpt>
      <trkpt lat="60.0008708" lon="17.7364254">
        <ele>49.1646</ele>
        <time>2014-06-21T13:41:24Z</time>
      </trkpt>
      <trkpt lat="60.0008158" lon="17.7364674">
        <ele>49.1646</ele>
        <time>2014-06-21T13:41:25Z</time>
      </trkpt>
      <trkpt lat="60.0007571" lon="17.7365047">
        <ele>48.684</ele>
        <time>2014-06-21T13:41:26Z</time>
      </trkpt>
      <trkpt lat="60.0006987" lon="17.7365488">
        <ele>48.684</ele>
        <time>2014-06-21T13:41:27Z</time>
      </trkpt>
      <trkpt lat="60.0006408" lon="17.7365948">
        <ele>48.684</ele>
        <time>2014-06-21T13:41:28Z</time>
      </trkpt>
      <trkpt lat="60.0005828" lon="17.7366379">
        <ele>48.684</ele>
        <time>2014-06-21T13:41:29Z</time>
      </trkpt>
      <trkpt lat="60.0005271" lon="17.7366803">
        <ele>48.684</ele>
        <time>2014-06-21T13:41:30Z</time>
      </trkpt>
      <trkpt lat="60.0004733" lon="17.7367227">
        <ele>49.1646</ele>
        <time>2014-06-21T13:41:31Z</time>
      </trkpt>
      <trkpt lat="60.0004185" lon="17.736757">
        <ele>48.684</ele>
        <time>2014-06-21T13:41:32Z</time>
      </trkpt>
      <trkpt lat="60.0003665" lon="17.7367845">
        <ele>48.684</ele>
        <time>2014-06-21T13:41:33Z</time>
      </trkpt>
      <trkpt lat="60.0003155" lon="17.7368083">
        <ele>48.684</ele>
        <time>2014-06-21T13:41:34Z</time>
      </trkpt>
      <trkpt lat="60.0002676" lon="17.7368263">
        <ele>49.1646</ele>
        <time>2014-06-21T13:41:35Z</time>
      </trkpt>
      <trkpt lat="60.0002207" lon="17.7368407">
        <ele>49.1646</ele>
        <time>2014-06-21T13:41:36Z</time>
      </trkpt>
      <trkpt lat="60.000176" lon="17.7368542">
        <ele>49.1646</ele>
        <time>2014-06-21T13:41:37Z</time>
      </trkpt>
      <trkpt lat="60.0001345" lon="17.7368658">
        <ele>49.6453</ele>
        <time>2014-06-21T13:41:38Z</time>
      </trkpt>
      <trkpt lat="60.0000947" lon="17.7368708">
        <ele>49.6453</ele>
        <time>2014-06-21T13:41:39Z</time>
      </trkpt>
      <trkpt lat="60.0000579" lon="17.7368726">
        <ele>50.126</ele>
        <time>2014-06-21T13:41:40Z</time>
      </trkpt>
      <trkpt lat="60.0000232" lon="17.736875">
        <ele>50.126</ele>
        <time>2014-06-21T13:41:41Z</time>
      </trkpt>
      <trkpt lat="59.9999905" lon="17.7368771">
        <ele>50.6066</ele>
        <time>2014-06-21T13:41:42Z</time>
      </trkpt>
      <trkpt lat="59.9999601" lon="17.7368765">
        <ele>50.6066</ele>
        <time>2014-06-21T13:41:43Z</time>
      </trkpt>
      <trkpt lat="59.9999315" lon="17.7368725">
        <ele>51.0872</ele>
        <time>2014-06-21T13:41:44Z</time>
      </trkpt>
      <trkpt lat="59.999898" lon="17.7368677">
        <ele>51.0872</ele>
        <time>2014-06-21T13:41:45Z</time>
      </trkpt>
      <trkpt lat="59.9998641" lon="17.7368652">
        <ele>51.0872</ele>
        <time>2014-06-21T13:41:46Z</time>
      </trkpt>
      <trkpt lat="59.9998267" lon="17.7368616">
        <ele>51.0872</ele>
        <time>2014-06-21T13:41:47Z</time>
      </trkpt>
      <trkpt lat="59.9997854" lon="17.7368537">
        <ele>50.6066</ele>
        <time>2014-06-21T13:41:48Z</time>
      </trkpt>
      <trkpt lat="59.9997448" lon="17.7368517">
        <ele>50.6066</ele>
        <time>2014-06-21T13:41:49Z</time>
      </trkpt>
      <trkpt lat="59.9997008" lon="17.7368462">
        <ele>50.126</ele>
        <time>2014-06-21T13:41:50Z</time>
      </trkpt>
      <trkpt lat="59.9996576" lon="17.7368425">
        <ele>49.6453</ele>
        <time>2014-06-21T13:41:51Z</time>
      </trkpt>
      <trkpt lat="59.9996109" lon="17.7368351">
        <ele>48.684</ele>
        <time>2014-06-21T13:41:52Z</time>
      </trkpt>
      <trkpt lat="59.999557" lon="17.7368228">
        <ele>48.2034</ele>
        <time>2014-06-21T13:41:53Z</time>
      </trkpt>
      <trkpt lat="59.9994991" lon="17.7368169">
        <ele>48.2034</ele>
        <time>2014-06-21T13:41:54Z</time>
      </trkpt>
      <trkpt lat="59.9994425" lon="17.7368092">
        <ele>47.2418</ele>
        <time>2014-06-21T13:41:55Z</time>
      </trkpt>
      <trkpt lat="59.9993814" lon="17.7368016">
        <ele>46.2806</ele>
        <time>2014-06-21T13:41:56Z</time>
      </trkpt>
      <trkpt lat="59.9993185" lon="17.7367983">
        <ele>45.3192</ele>
        <time>2014-06-21T13:41:57Z</time>
      </trkpt>
      <trkpt lat="59.9992612" lon="17.736806">
        <ele>44.358</ele>
        <time>2014-06-21T13:41:58Z</time>
      </trkpt>
      <trkpt lat="59.9992015" lon="17.7368159">
        <ele>43.8773</ele>
        <time>2014-06-21T13:41:59Z</time>
      </trkpt>
      <trkpt lat="59.9991385" lon="17.7368184">
        <ele>42.916</ele>
        <time>2014-06-21T13:42:00Z</time>
      </trkpt>
      <trkpt lat="59.9990745" lon="17.7368184">
        <ele>42.4354</ele>
        <time>2014-06-21T13:42:01Z</time>
      </trkpt>
      <trkpt lat="59.9990065" lon="17.7368134">
        <ele>41.9547</ele>
        <time>2014-06-21T13:42:02Z</time>
      </trkpt>
      <trkpt lat="59.9989373" lon="17.7368009">
        <ele>41.9547</ele>
        <time>2014-06-21T13:42:03Z</time>
      </trkpt>
      <trkpt lat="59.9988645" lon="17.7367803">
        <ele>40.9934</ele>
        <time>2014-06-21T13:42:04Z</time>
      </trkpt>
      <trkpt lat="59.9987927" lon="17.7367597">
        <ele>40.5128</ele>
        <time>2014-06-21T13:42:05Z</time>
      </trkpt>
      <trkpt lat="59.9987213" lon="17.736738">
        <ele>40.9934</ele>
        <time>2014-06-21T13:42:06Z</time>
      </trkpt>
      <trkpt lat="59.9986541" lon="17.736716">
        <ele>41.474</ele>
        <time>2014-06-21T13:42:07Z</time>
      </trkpt>
      <trkpt lat="59.9985889" lon="17.7367005">
        <ele>41.474</ele>
        <time>2014-06-21T13:42:08Z</time>
      </trkpt>
      <trkpt lat="59.9985265" lon="17.7366866">
        <ele>41.9547</ele>
        <time>2014-06-21T13:42:09Z</time>
      </trkpt>
      <trkpt lat="59.9984646" lon="17.7366696">
        <ele>42.4354</ele>
        <time>2014-06-21T13:42:10Z</time>
      </trkpt>
      <trkpt lat="59.998408" lon="17.7366574">
        <ele>42.916</ele>
        <time>2014-06-21T13:42:11Z</time>
      </trkpt>
      <trkpt lat="59.9983494" lon="17.7366416">
        <ele>43.3966</ele>
        <time>2014-06-21T13:42:12Z</time>
      </trkpt>
      <trkpt lat="59.9982956" lon="17.7366291">
        <ele>43.3966</ele>
        <time>2014-06-21T13:42:13Z</time>
      </trkpt>
      <trkpt lat="59.9982435" lon="17.7366214">
        <ele>43.3966</ele>
        <time>2014-06-21T13:42:14Z</time>
      </trkpt>
      <trkpt lat="59.998191" lon="17.7366157">
        <ele>43.8773</ele>
        <time>2014-06-21T13:42:15Z</time>
      </trkpt>
      <trkpt lat="59.9981442" lon="17.7366095">
        <ele>44.358</ele>
        <time>2014-06-21T13:42:16Z</time>
      </trkpt>
      <trkpt lat="59.9980945" lon="17.7366038">
        <ele>44.8386</ele>
        <time>2014-06-21T13:42:17Z</time>
      </trkpt>
      <trkpt lat="59.9980425" lon="17.7366001">
        <ele>45.3192</ele>
        <time>2014-06-21T13:42:18Z</time>
      </trkpt>
      <trkpt lat="59.997992" lon="17.7365963">
        <ele>45.7999</ele>
        <time>2014-06-21T13:42:19Z</time>
      </trkpt>
      <trkpt lat="59.9979448" lon="17.7365995">
        <ele>46.2806</ele>
        <time>2014-06-21T13:42:20Z</time>
      </trkpt>
      <trkpt lat="59.9978911" lon="17.7366055">
        <ele>46.7612</ele>
        <time>2014-06-21T13:42:21Z</time>
      </trkpt>
      <trkpt lat="59.9978384" lon="17.7366109">
        <ele>47.2418</ele>
        <time>2014-06-21T13:42:22Z</time>
      </trkpt>
      <trkpt lat="59.9977864" lon="17.7366123">
        <ele>48.2034</ele>
        <time>2014-06-21T13:42:23Z</time>
      </trkpt>
      <trkpt lat="59.99773" lon="17.7366095">
        <ele>48.2034</ele>
        <time>2014-06-21T13:42:24Z</time>
      </trkpt>
      <trkpt lat="59.9976724" lon="17.7366073">
        <ele>48.684</ele>
        <time>2014-06-21T13:42:25Z</time>
      </trkpt>
      <trkpt lat="59.997612" lon="17.7366015">
        <ele>48.684</ele>
        <time>2014-06-21T13:42:26Z</time>
      </trkpt>
      <trkpt lat="59.9975467" lon="17.7365937">
        <ele>49.1646</ele>
        <time>2014-06-21T13:42:27Z</time>
      </trkpt>
      <trkpt lat="59.9974819" lon="17.736589">
        <ele>49.1646</ele>
        <time>2014-06-21T13:42:28Z</time>
      </trkpt>
      <trkpt lat="59.9974205" lon="17.7365808">
        <ele>49.1646</ele>
        <time>2014-06-21T13:42:29Z</time>
      </trkpt>
      <trkpt lat="59.9973533" lon="17.7365699">
        <ele>49.1646</ele>
        <time>2014-06-21T13:42:30Z</time>
      </trkpt>
      <trkpt lat="59.9972839" lon="17.7365626">
        <ele>49.1646</ele>
        <time>2014-06-21T13:42:31Z</time>
      </trkpt>
      <trkpt lat="59.9972213" lon="17.7365546">
        <ele>49.1646</ele>
        <time>2014-06-21T13:42:32Z</time>
      </trkpt>
      <trkpt lat="59.9971529" lon="17.7365472">
        <ele>49.1646</ele>
        <time>2014-06-21T13:42:33Z</time>
      </trkpt>
      <trkpt lat="59.9970828" lon="17.7365364">
        <ele>49.1646</ele>
        <time>2014-06-21T13:42:34Z</time>
      </trkpt>
      <trkpt lat="59.997012" lon="17.7365264">
        <ele>49.1646</ele>
        <time>2014-06-21T13:42:35Z</time>
      </trkpt>
      <trkpt lat="59.9969381" lon="17.7365095">
        <ele>48.684</ele>
        <time>2014-06-21T13:42:36Z</time>
      </trkpt>
      <trkpt lat="59.9968633" lon="17.736483">
        <ele>49.1646</ele>
        <time>2014-06-21T13:42:37Z</time>
      </trkpt>
      <trkpt lat="59.9967774" lon="17.7364483">
        <ele>48.2034</ele>
        <time>2014-06-21T13:42:38Z</time>
      </trkpt>
      <trkpt lat="59.9966914" lon="17.7364053">
        <ele>47.7225</ele>
        <time>2014-06-21T13:42:39Z</time>
      </trkpt>
      <trkpt lat="59.9966099" lon="17.7363581">
        <ele>47.2418</ele>
        <time>2014-06-21T13:42:40Z</time>
      </trkpt>
      <trkpt lat="59.9965298" lon="17.7363108">
        <ele>46.7612</ele>
        <time>2014-06-21T13:42:41Z</time>
      </trkpt>
      <trkpt lat="59.996452" lon="17.7362618">
        <ele>46.7612</ele>
        <time>2014-06-21T13:42:42Z</time>
      </trkpt>
      <trkpt lat="59.99638" lon="17.7362183">
        <ele>46.7612</ele>
        <time>2014-06-21T13:42:43Z</time>
      </trkpt>
      <trkpt lat="59.9963113" lon="17.7361816">
        <ele>46.7612</ele>
        <time>2014-06-21T13:42:44Z</time>
      </trkpt>
      <trkpt lat="59.9962356" lon="17.7361499">
        <ele>46.2806</ele>
        <time>2014-06-21T13:42:45Z</time>
      </trkpt>
      <trkpt lat="59.996161" lon="17.7361321">
        <ele>46.2806</ele>
        <time>2014-06-21T13:42:46Z</time>
      </trkpt>
      <trkpt lat="59.9960868" lon="17.7361235">
        <ele>46.2806</ele>
        <time>2014-06-21T13:42:47Z</time>
      </trkpt>
      <trkpt lat="59.9960105" lon="17.7361248">
        <ele>45.7999</ele>
        <time>2014-06-21T13:42:48Z</time>
      </trkpt>
      <trkpt lat="59.995932" lon="17.7361255">
        <ele>46.2806</ele>
        <time>2014-06-21T13:42:49Z</time>
      </trkpt>
      <trkpt lat="59.9958598" lon="17.7361274">
        <ele>45.7999</ele>
        <time>2014-06-21T13:42:50Z</time>
      </trkpt>
      <trkpt lat="59.9957854" lon="17.736127">
        <ele>45.3192</ele>
        <time>2014-06-21T13:42:51Z</time>
      </trkpt>
      <trkpt lat="59.9957139" lon="17.7361255">
        <ele>45.3192</ele>
        <time>2014-06-21T13:42:52Z</time>
      </trkpt>
      <trkpt lat="59.995641" lon="17.7361271">
        <ele>45.3192</ele>
        <time>2014-06-21T13:42:53Z</time>
      </trkpt>
      <trkpt lat="59.9955657" lon="17.7361286">
        <ele>44.8386</ele>
        <time>2014-06-21T13:42:54Z</time>
      </trkpt>
      <trkpt lat="59.9954844" lon="17.7361228">
        <ele>44.358</ele>
        <time>2014-06-21T13:42:55Z</time>
      </trkpt>
      <trkpt lat="59.9954078" lon="17.736121">
        <ele>44.358</ele>
        <time>2014-06-21T13:42:56Z</time>
      </trkpt>
      <trkpt lat="59.9953298" lon="17.7361162">
        <ele>44.358</ele>
        <time>2014-06-21T13:42:57Z</time>
      </trkpt>
      <trkpt lat="59.995253" lon="17.7361096">
        <ele>44.358</ele>
        <time>2014-06-21T13:42:58Z</time>
      </trkpt>
      <trkpt lat="59.9951713" lon="17.7360933">
        <ele>43.8773</ele>
        <time>2014-06-21T13:42:59Z</time>
      </trkpt>
      <trkpt lat="59.9950959" lon="17.7360806">
        <ele>44.358</ele>
        <time>2014-06-21T13:43:00Z</time>
      </trkpt>
      <trkpt lat="59.9950244" lon="17.7360645">
        <ele>43.8773</ele>
        <time>2014-06-21T13:43:01Z</time>
      </trkpt>
      <trkpt lat="59.9949612" lon="17.7360416">
        <ele>43.8773</ele>
        <time>2014-06-21T13:43:02Z</time>
      </trkpt>
      <trkpt lat="59.9949043" lon="17.7360127">
        <ele>43.8773</ele>
        <time>2014-06-21T13:43:03Z</time>
      </trkpt>
      <trkpt lat="59.9948372" lon="17.7359666">
        <ele>43.8773</ele>
        <time>2014-06-21T13:43:04Z</time>
      </trkpt>
      <trkpt lat="59.9947738" lon="17.7359211">
        <ele>43.8773</ele>
        <time>2014-06-21T13:43:05Z</time>
      </trkpt>
      <trkpt lat="59.9947134" lon="17.7358759">
        <ele>43.8773</ele>
        <time>2014-06-21T13:43:06Z</time>
      </trkpt>
      <trkpt lat="59.9946525" lon="17.7358324">
        <ele>43.3966</ele>
        <time>2014-06-21T13:43:07Z</time>
      </trkpt>
      <trkpt lat="59.9945938" lon="17.7357881">
        <ele>43.3966</ele>
        <time>2014-06-21T13:43:08Z</time>
      </trkpt>
      <trkpt lat="59.9945357" lon="17.7357484">
        <ele>43.3966</ele>
        <time>2014-06-21T13:43:09Z</time>
      </trkpt>
      <trkpt lat="59.9944729" lon="17.735707">
        <ele>43.3966</ele>
        <time>2014-06-21T13:43:10Z</time>
      </trkpt>
      <trkpt lat="59.9944162" lon="17.7356739">
        <ele>42.916</ele>
        <time>2014-06-21T13:43:11Z</time>
      </trkpt>
      <trkpt lat="59.9943598" lon="17.7356505">
        <ele>42.916</ele>
        <time>2014-06-21T13:43:12Z</time>
      </trkpt>
      <trkpt lat="59.9943011" lon="17.7356329">
        <ele>42.916</ele>
        <time>2014-06-21T13:43:13Z</time>
      </trkpt>
      <trkpt lat="59.9942508" lon="17.7356221">
        <ele>42.916</ele>
        <time>2014-06-21T13:43:14Z</time>
      </trkpt>
      <trkpt lat="59.9941998" lon="17.735612">
        <ele>43.3966</ele>
        <time>2014-06-21T13:43:15Z</time>
      </trkpt>
      <trkpt lat="59.9941448" lon="17.7355993">
        <ele>43.3966</ele>
        <time>2014-06-21T13:43:16Z</time>
      </trkpt>
      <trkpt lat="59.994092" lon="17.7355863">
        <ele>42.916</ele>
        <time>2014-06-21T13:43:17Z</time>
      </trkpt>
      <trkpt lat="59.9940344" lon="17.7355718">
        <ele>43.3966</ele>
        <time>2014-06-21T13:43:18Z</time>
      </trkpt>
      <trkpt lat="59.9939765" lon="17.7355604">
        <ele>43.3966</ele>
        <time>2014-06-21T13:43:19Z</time>
      </trkpt>
      <trkpt lat="59.9939174" lon="17.7355532">
        <ele>43.3966</ele>
        <time>2014-06-21T13:43:20Z</time>
      </trkpt>
      <trkpt lat="59.9938613" lon="17.7355452">
        <ele>43.3966</ele>
        <time>2014-06-21T13:43:21Z</time>
      </trkpt>
      <trkpt lat="59.9938064" lon="17.7355411">
        <ele>43.8773</ele>
        <time>2014-06-21T13:43:22Z</time>
      </trkpt>
      <trkpt lat="59.9937505" lon="17.7355327">
        <ele>44.358</ele>
        <time>2014-06-21T13:43:23Z</time>
      </trkpt>
      <trkpt lat="59.9936929" lon="17.7355293">
        <ele>45.3192</ele>
        <time>2014-06-21T13:43:24Z</time>
      </trkpt>
      <trkpt lat="59.9936331" lon="17.7355331">
        <ele>45.3192</ele>
        <time>2014-06-21T13:43:25Z</time>
      </trkpt>
      <trkpt lat="59.9935801" lon="17.7355421">
        <ele>45.7999</ele>
        <time>2014-06-21T13:43:26Z</time>
      </trkpt>
      <trkpt lat="59.9935346" lon="17.7355651">
        <ele>46.2806</ele>
        <time>2014-06-21T13:43:27Z</time>
      </trkpt>
      <trkpt lat="59.9934874" lon="17.7355936">
        <ele>46.2806</ele>
        <time>2014-06-21T13:43:28Z</time>
      </trkpt>
      <trkpt lat="59.993442" lon="17.7356267">
        <ele>46.7612</ele>
        <time>2014-06-21T13:43:29Z</time>
      </trkpt>
      <trkpt lat="59.9933974" lon="17.7356579">
        <ele>46.7612</ele>
        <time>2014-06-21T13:43:30Z</time>
      </trkpt>
      <trkpt lat="59.9933552" lon="17.7356973">
        <ele>46.7612</ele>
        <time>2014-06-21T13:43:31Z</time>
      </trkpt>
      <trkpt lat="59.9933139" lon="17.7357438">
        <ele>47.2418</ele>
        <time>2014-06-21T13:43:32Z</time>
      </trkpt>
      <trkpt lat="59.9932746" lon="17.7358009">
        <ele>48.2034</ele>
        <time>2014-06-21T13:43:33Z</time>
      </trkpt>
      <trkpt lat="59.9932404" lon="17.7358733">
        <ele>49.1646</ele>
        <time>2014-06-21T13:43:34Z</time>
      </trkpt>
      <trkpt lat="59.9932021" lon="17.7359395">
        <ele>49.6453</ele>
        <time>2014-06-21T13:43:35Z</time>
      </trkpt>
      <trkpt lat="59.9931704" lon="17.7360251">
        <ele>51.0872</ele>
        <time>2014-06-21T13:43:36Z</time>
      </trkpt>
      <trkpt lat="59.9931333" lon="17.7361063">
        <ele>51.0872</ele>
        <time>2014-06-21T13:43:37Z</time>
      </trkpt>
      <trkpt lat="59.9930954" lon="17.7361958">
        <ele>52.5292</ele>
        <time>2014-06-21T13:43:38Z</time>
      </trkpt>
      <trkpt lat="59.9930535" lon="17.7362777">
        <ele>53.0098</ele>
        <time>2014-06-21T13:43:39Z</time>
      </trkpt>
      <trkpt lat="59.9930064" lon="17.736353">
        <ele>52.5292</ele>
        <time>2014-06-21T13:43:40Z</time>
      </trkpt>
      <trkpt lat="59.9929658" lon="17.7364406">
        <ele>53.0098</ele>
        <time>2014-06-21T13:43:41Z</time>
      </trkpt>
      <trkpt lat="59.9929261" lon="17.7365444">
        <ele>54.4518</ele>
        <time>2014-06-21T13:43:42Z</time>
      </trkpt>
      <trkpt lat="59.9928831" lon="17.7366597">
        <ele>56.8551</ele>
        <time>2014-06-21T13:43:43Z</time>
      </trkpt>
      <trkpt lat="59.9928467" lon="17.7367601">
        <ele>58.2971</ele>
        <time>2014-06-21T13:43:44Z</time>
      </trkpt>
      <trkpt lat="59.9928105" lon="17.7368487">
        <ele>59.7391</ele>
        <time>2014-06-21T13:43:45Z</time>
      </trkpt>
      <trkpt lat="59.9927685" lon="17.7369197">
        <ele>59.7391</ele>
        <time>2014-06-21T13:43:46Z</time>
      </trkpt>
      <trkpt lat="59.9927328" lon="17.7369966">
        <ele>60.7003</ele>
        <time>2014-06-21T13:43:47Z</time>
      </trkpt>
      <trkpt lat="59.9926948" lon="17.7370599">
        <ele>60.7003</ele>
        <time>2014-06-21T13:43:48Z</time>
      </trkpt>
      <trkpt lat="59.992657" lon="17.737116">
        <ele>60.2197</ele>
        <time>2014-06-21T13:43:49Z</time>
      </trkpt>
      <trkpt lat="59.9926078" lon="17.7371563">
        <ele>58.7777</ele>
        <time>2014-06-21T13:43:50Z</time>
      </trkpt>
      <trkpt lat="59.9925556" lon="17.7371931">
        <ele>56.8551</ele>
        <time>2014-06-21T13:43:51Z</time>
      </trkpt>
      <trkpt lat="59.9925018" lon="17.7372367">
        <ele>55.4131</ele>
        <time>2014-06-21T13:43:52Z</time>
      </trkpt>
      <trkpt lat="59.9924437" lon="17.7372807">
        <ele>53.9712</ele>
        <time>2014-06-21T13:43:53Z</time>
      </trkpt>
      <trkpt lat="59.9923898" lon="17.7373282">
        <ele>53.4905</ele>
        <time>2014-06-21T13:43:54Z</time>
      </trkpt>
      <trkpt lat="59.9923309" lon="17.7373779">
        <ele>53.4905</ele>
        <time>2014-06-21T13:43:55Z</time>
      </trkpt>
      <trkpt lat="59.9922732" lon="17.7374159">
        <ele>53.0098</ele>
        <time>2014-06-21T13:43:56Z</time>
      </trkpt>
      <trkpt lat="59.9922194" lon="17.7374536">
        <ele>53.0098</ele>
        <time>2014-06-21T13:43:57Z</time>
      </trkpt>
      <trkpt lat="59.9921607" lon="17.7374833">
        <ele>52.5292</ele>
        <time>2014-06-21T13:43:58Z</time>
      </trkpt>
      <trkpt lat="59.9921017" lon="17.7375106">
        <ele>52.5292</ele>
        <time>2014-06-21T13:43:59Z</time>
      </trkpt>
      <trkpt lat="59.9920428" lon="17.7375343">
        <ele>52.5292</ele>
        <time>2014-06-21T13:44:00Z</time>
      </trkpt>
      <trkpt lat="59.9919838" lon="17.7375573">
        <ele>53.0098</ele>
        <time>2014-06-21T13:44:01Z</time>
      </trkpt>
      <trkpt lat="59.9919205" lon="17.7375719">
        <ele>52.0486</ele>
        <time>2014-06-21T13:44:02Z</time>
      </trkpt>
      <trkpt lat="59.9918654" lon="17.7375901">
        <ele>52.0486</ele>
        <time>2014-06-21T13:44:03Z</time>
      </trkpt>
      <trkpt lat="59.9918133" lon="17.7376064">
        <ele>51.5679</ele>
        <time>2014-06-21T13:44:04Z</time>
      </trkpt>
      <trkpt lat="59.991766" lon="17.7376226">
        <ele>51.5679</ele>
        <time>2014-06-21T13:44:05Z</time>
      </trkpt>
      <trkpt lat="59.9917115" lon="17.7376322">
        <ele>51.0872</ele>
        <time>2014-06-21T13:44:06Z</time>
      </trkpt>
      <trkpt lat="59.9916585" lon="17.7376319">
        <ele>50.6066</ele>
        <time>2014-06-21T13:44:07Z</time>
      </trkpt>
      <trkpt lat="59.9916061" lon="17.7376266">
        <ele>50.126</ele>
        <time>2014-06-21T13:44:08Z</time>
      </trkpt>
      <trkpt lat="59.9915484" lon="17.7376269">
        <ele>51.0872</ele>
        <time>2014-06-21T13:44:09Z</time>
      </trkpt>
      <trkpt lat="59.991487" lon="17.7376308">
        <ele>51.0872</ele>
        <time>2014-06-21T13:44:10Z</time>
      </trkpt>
      <trkpt lat="59.9914329" lon="17.7376381">
        <ele>51.0872</ele>
        <time>2014-06-21T13:44:11Z</time>
      </trkpt>
      <trkpt lat="59.9913731" lon="17.7376484">
        <ele>50.6066</ele>
        <time>2014-06-21T13:44:12Z</time>
      </trkpt>
      <trkpt lat="59.9913145" lon="17.7376582">
        <ele>50.126</ele>
        <time>2014-06-21T13:44:13Z</time>
      </trkpt>
      <trkpt lat="59.9912567" lon="17.7376768">
        <ele>50.126</ele>
        <time>2014-06-21T13:44:14Z</time>
      </trkpt>
      <trkpt lat="59.9911974" lon="17.7376905">
        <ele>50.126</ele>
        <time>2014-06-21T13:44:15Z</time>
      </trkpt>
      <trkpt lat="59.9911347" lon="17.7377168">
        <ele>50.6066</ele>
        <time>2014-06-21T13:44:16Z</time>
      </trkpt>
      <trkpt lat="59.9910687" lon="17.7377417">
        <ele>50.126</ele>
        <time>2014-06-21T13:44:17Z</time>
      </trkpt>
      <trkpt lat="59.9910021" lon="17.7377853">
        <ele>49.1646</ele>
        <time>2014-06-21T13:44:18Z</time>
      </trkpt>
      <trkpt lat="59.9909454" lon="17.7378265">
        <ele>49.1646</ele>
        <time>2014-06-21T13:44:19Z</time>
      </trkpt>
      <trkpt lat="59.990884" lon="17.7378633">
        <ele>49.1646</ele>
        <time>2014-06-21T13:44:20Z</time>
      </trkpt>
      <trkpt lat="59.9908216" lon="17.7379013">
        <ele>48.684</ele>
        <time>2014-06-21T13:44:21Z</time>
      </trkpt>
      <trkpt lat="59.9907607" lon="17.737942">
        <ele>49.6453</ele>
        <time>2014-06-21T13:44:22Z</time>
      </trkpt>
      <trkpt lat="59.9907007" lon="17.7379774">
        <ele>49.6453</ele>
        <time>2014-06-21T13:44:23Z</time>
      </trkpt>
      <trkpt lat="59.99064" lon="17.7380059">
        <ele>49.6453</ele>
        <time>2014-06-21T13:44:24Z</time>
      </trkpt>
      <trkpt lat="59.99058" lon="17.7380298">
        <ele>49.6453</ele>
        <time>2014-06-21T13:44:25Z</time>
      </trkpt>
      <trkpt lat="59.9905219" lon="17.7380598">
        <ele>50.6066</ele>
        <time>2014-06-21T13:44:26Z</time>
      </trkpt>
      <trkpt lat="59.9904585" lon="17.7380887">
        <ele>50.6066</ele>
        <time>2014-06-21T13:44:27Z</time>
      </trkpt>
      <trkpt lat="59.9903896" lon="17.7381132">
        <ele>50.126</ele>
        <time>2014-06-21T13:44:28Z</time>
      </trkpt>
      <trkpt lat="59.9903249" lon="17.73814">
        <ele>50.126</ele>
        <time>2014-06-21T13:44:29Z</time>
      </trkpt>
      <trkpt lat="59.9902627" lon="17.7381712">
        <ele>51.0872</ele>
        <time>2014-06-21T13:44:30Z</time>
      </trkpt>
      <trkpt lat="59.9902007" lon="17.7382008">
        <ele>51.5679</ele>
        <time>2014-06-21T13:44:31Z</time>
      </trkpt>
      <trkpt lat="59.9901366" lon="17.7382223">
        <ele>52.0486</ele>
        <time>2014-06-21T13:44:32Z</time>
      </trkpt>
      <trkpt lat="59.9900718" lon="17.738243">
        <ele>52.0486</ele>
        <time>2014-06-21T13:44:33Z</time>
      </trkpt>
      <trkpt lat="59.9900085" lon="17.7382669">
        <ele>52.5292</ele>
        <time>2014-06-21T13:44:34Z</time>
      </trkpt>
      <trkpt lat="59.989941" lon="17.7382845">
        <ele>53.0098</ele>
        <time>2014-06-21T13:44:35Z</time>
      </trkpt>
      <trkpt lat="59.9898776" lon="17.7383122">
        <ele>53.0098</ele>
        <time>2014-06-21T13:44:36Z</time>
      </trkpt>
      <trkpt lat="59.9898141" lon="17.7383287">
        <ele>52.5292</ele>
        <time>2014-06-21T13:44:37Z</time>
      </trkpt>
      <trkpt lat="59.9897526" lon="17.7383473">
        <ele>52.5292</ele>
        <time>2014-06-21T13:44:38Z</time>
      </trkpt>
      <trkpt lat="59.9896936" lon="17.7383679">
        <ele>53.0098</ele>
        <time>2014-06-21T13:44:39Z</time>
      </trkpt>
      <trkpt lat="59.9896355" lon="17.7383868">
        <ele>53.0098</ele>
        <time>2014-06-21T13:44:40Z</time>
      </trkpt>
      <trkpt lat="59.9895781" lon="17.7384025">
        <ele>52.5292</ele>
        <time>2014-06-21T13:44:41Z</time>
      </trkpt>
      <trkpt lat="59.9895258" lon="17.7384191">
        <ele>53.0098</ele>
        <time>2014-06-21T13:44:42Z</time>
      </trkpt>
      <trkpt lat="59.9894779" lon="17.7384333">
        <ele>53.0098</ele>
        <time>2014-06-21T13:44:43Z</time>
      </trkpt>
      <trkpt lat="59.989433" lon="17.7384504">
        <ele>53.0098</ele>
        <time>2014-06-21T13:44:44Z</time>
      </trkpt>
      <trkpt lat="59.9893889" lon="17.7384733">
        <ele>53.0098</ele>
        <time>2014-06-21T13:44:45Z</time>
      </trkpt>
      <trkpt lat="59.989345" lon="17.7384976">
        <ele>53.0098</ele>
        <time>2014-06-21T13:44:46Z</time>
      </trkpt>
      <trkpt lat="59.9892992" lon="17.7385227">
        <ele>53.0098</ele>
        <time>2014-06-21T13:44:47Z</time>
      </trkpt>
      <trkpt lat="59.989252" lon="17.7385503">
        <ele>53.0098</ele>
        <time>2014-06-21T13:44:48Z</time>
      </trkpt>
      <trkpt lat="59.9892035" lon="17.7385798">
        <ele>53.0098</ele>
        <time>2014-06-21T13:44:49Z</time>
      </trkpt>
      <trkpt lat="59.9891534" lon="17.7386167">
        <ele>53.0098</ele>
        <time>2014-06-21T13:44:50Z</time>
      </trkpt>
      <trkpt lat="59.9891058" lon="17.7386563">
        <ele>53.4905</ele>
        <time>2014-06-21T13:44:51Z</time>
      </trkpt>
      <trkpt lat="59.9890584" lon="17.7387011">
        <ele>53.4905</ele>
        <time>2014-06-21T13:44:52Z</time>
      </trkpt>
      <trkpt lat="59.9890094" lon="17.738742">
        <ele>53.4905</ele>
        <time>2014-06-21T13:44:53Z</time>
      </trkpt>
      <trkpt lat="59.9889601" lon="17.7387871">
        <ele>53.9712</ele>
        <time>2014-06-21T13:44:54Z</time>
      </trkpt>
      <trkpt lat="59.9889067" lon="17.7388208">
        <ele>53.9712</ele>
        <time>2014-06-21T13:44:55Z</time>
      </trkpt>
      <trkpt lat="59.9888464" lon="17.7388599">
        <ele>53.9712</ele>
        <time>2014-06-21T13:44:56Z</time>
      </trkpt>
      <trkpt lat="59.9887898" lon="17.7389051">
        <ele>53.9712</ele>
        <time>2014-06-21T13:44:57Z</time>
      </trkpt>
      <trkpt lat="59.9887373" lon="17.7389492">
        <ele>53.9712</ele>
        <time>2014-06-21T13:44:58Z</time>
      </trkpt>
      <trkpt lat="59.9886813" lon="17.7389916">
        <ele>53.4905</ele>
        <time>2014-06-21T13:44:59Z</time>
      </trkpt>
      <trkpt lat="59.9886105" lon="17.7390392">
        <ele>53.4905</ele>
        <time>2014-06-21T13:45:00Z</time>
      </trkpt>
      <trkpt lat="59.9885365" lon="17.7390803">
        <ele>53.0098</ele>
        <time>2014-06-21T13:45:01Z</time>
      </trkpt>
      <trkpt lat="59.9884638" lon="17.7391172">
        <ele>52.5292</ele>
        <time>2014-06-21T13:45:02Z</time>
      </trkpt>
      <trkpt lat="59.9883991" lon="17.7391449">
        <ele>51.5679</ele>
        <time>2014-06-21T13:45:03Z</time>
      </trkpt>
      <trkpt lat="59.988328" lon="17.7391664">
        <ele>51.0872</ele>
        <time>2014-06-21T13:45:04Z</time>
      </trkpt>
      <trkpt lat="59.9882623" lon="17.7391878">
        <ele>50.6066</ele>
        <time>2014-06-21T13:45:05Z</time>
      </trkpt>
      <trkpt lat="59.988201" lon="17.7392165">
        <ele>50.126</ele>
        <time>2014-06-21T13:45:06Z</time>
      </trkpt>
      <trkpt lat="59.9881358" lon="17.7391968">
        <ele>50.126</ele>
        <time>2014-06-21T13:45:07Z</time>
      </trkpt>
      <trkpt lat="59.9880663" lon="17.7392049">
        <ele>49.6453</ele>
        <time>2014-06-21T13:45:08Z</time>
      </trkpt>
      <trkpt lat="59.987986" lon="17.7392274">
        <ele>48.2034</ele>
        <time>2014-06-21T13:45:09Z</time>
      </trkpt>
      <trkpt lat="59.9879097" lon="17.7392422">
        <ele>48.2034</ele>
        <time>2014-06-21T13:45:10Z</time>
      </trkpt>
      <trkpt lat="59.9878319" lon="17.7392563">
        <ele>47.7225</ele>
        <time>2014-06-21T13:45:11Z</time>
      </trkpt>
      <trkpt lat="59.9877597" lon="17.7392616">
        <ele>47.7225</ele>
        <time>2014-06-21T13:45:12Z</time>
      </trkpt>
      <trkpt lat="59.9876822" lon="17.7392746">
        <ele>47.7225</ele>
        <time>2014-06-21T13:45:13Z</time>
      </trkpt>
      <trkpt lat="59.9876086" lon="17.7392823">
        <ele>47.7225</ele>
        <time>2014-06-21T13:45:14Z</time>
      </trkpt>
      <trkpt lat="59.9875304" lon="17.739291">
        <ele>47.7225</ele>
        <time>2014-06-21T13:45:15Z</time>
      </trkpt>
      <trkpt lat="59.9874465" lon="17.7392963">
        <ele>47.7225</ele>
        <time>2014-06-21T13:45:16Z</time>
      </trkpt>
      <trkpt lat="59.9873663" lon="17.7393051">
        <ele>47.2418</ele>
        <time>2014-06-21T13:45:17Z</time>
      </trkpt>
      <trkpt lat="59.9872915" lon="17.739317">
        <ele>46.7612</ele>
        <time>2014-06-21T13:45:18Z</time>
      </trkpt>
      <trkpt lat="59.9872154" lon="17.7393313">
        <ele>46.7612</ele>
        <time>2014-06-21T13:45:19Z</time>
      </trkpt>
      <trkpt lat="59.9871372" lon="17.7393336">
        <ele>46.7612</ele>
        <time>2014-06-21T13:45:20Z</time>
      </trkpt>
      <trkpt lat="59.9870646" lon="17.7393206">
        <ele>46.7612</ele>
        <time>2014-06-21T13:45:21Z</time>
      </trkpt>
      <trkpt lat="59.9869973" lon="17.7392954">
        <ele>47.2418</ele>
        <time>2014-06-21T13:45:22Z</time>
      </trkpt>
      <trkpt lat="59.9869345" lon="17.7392614">
        <ele>48.2034</ele>
        <time>2014-06-21T13:45:23Z</time>
      </trkpt>
      <trkpt lat="59.9868726" lon="17.7392097">
        <ele>48.2034</ele>
        <time>2014-06-21T13:45:24Z</time>
      </trkpt>
      <trkpt lat="59.986812" lon="17.7391526">
        <ele>48.2034</ele>
        <time>2014-06-21T13:45:25Z</time>
      </trkpt>
      <trkpt lat="59.9867486" lon="17.7390936">
        <ele>47.7225</ele>
        <time>2014-06-21T13:45:26Z</time>
      </trkpt>
      <trkpt lat="59.9866841" lon="17.7390412">
        <ele>48.2034</ele>
        <time>2014-06-21T13:45:27Z</time>
      </trkpt>
      <trkpt lat="59.9866159" lon="17.7389829">
        <ele>47.7225</ele>
        <time>2014-06-21T13:45:28Z</time>
      </trkpt>
      <trkpt lat="59.9865467" lon="17.7389177">
        <ele>47.7225</ele>
        <time>2014-06-21T13:45:29Z</time>
      </trkpt>
      <trkpt lat="59.9864769" lon="17.7388566">
        <ele>47.2418</ele>
        <time>2014-06-21T13:45:30Z</time>
      </trkpt>
      <trkpt lat="59.9864019" lon="17.7387969">
        <ele>46.7612</ele>
        <time>2014-06-21T13:45:31Z</time>
      </trkpt>
      <trkpt lat="59.9863292" lon="17.7387383">
        <ele>46.7612</ele>
        <time>2014-06-21T13:45:32Z</time>
      </trkpt>
      <trkpt lat="59.9862525" lon="17.7386757">
        <ele>46.7612</ele>
        <time>2014-06-21T13:45:33Z</time>
      </trkpt>
      <trkpt lat="59.9861749" lon="17.7386203">
        <ele>46.7612</ele>
        <time>2014-06-21T13:45:34Z</time>
      </trkpt>
      <trkpt lat="59.9860915" lon="17.7385631">
        <ele>46.2806</ele>
        <time>2014-06-21T13:45:35Z</time>
      </trkpt>
      <trkpt lat="59.9860081" lon="17.7385188">
        <ele>45.3192</ele>
        <time>2014-06-21T13:45:36Z</time>
      </trkpt>
      <trkpt lat="59.9859239" lon="17.7384733">
        <ele>45.7999</ele>
        <time>2014-06-21T13:45:37Z</time>
      </trkpt>
      <trkpt lat="59.9858422" lon="17.7384329">
        <ele>45.7999</ele>
        <time>2014-06-21T13:45:38Z</time>
      </trkpt>
      <trkpt lat="59.9857619" lon="17.7383872">
        <ele>45.7999</ele>
        <time>2014-06-21T13:45:39Z</time>
      </trkpt>
      <trkpt lat="59.9856772" lon="17.7383489">
        <ele>45.3192</ele>
        <time>2014-06-21T13:45:40Z</time>
      </trkpt>
      <trkpt lat="59.9855916" lon="17.7383062">
        <ele>44.8386</ele>
        <time>2014-06-21T13:45:41Z</time>
      </trkpt>
      <trkpt lat="59.9855123" lon="17.7382742">
        <ele>44.8386</ele>
        <time>2014-06-21T13:45:42Z</time>
      </trkpt>
      <trkpt lat="59.9854336" lon="17.7382484">
        <ele>45.3192</ele>
        <time>2014-06-21T13:45:43Z</time>
      </trkpt>
      <trkpt lat="59.985353" lon="17.7382318">
        <ele>45.3192</ele>
        <time>2014-06-21T13:45:44Z</time>
      </trkpt>
      <trkpt lat="59.9852706" lon="17.7382121">
        <ele>45.3192</ele>
        <time>2014-06-21T13:45:45Z</time>
      </trkpt>
      <trkpt lat="59.9851891" lon="17.7381904">
        <ele>45.3192</ele>
        <time>2014-06-21T13:45:46Z</time>
      </trkpt>
      <trkpt lat="59.9851091" lon="17.7381765">
        <ele>45.3192</ele>
        <time>2014-06-21T13:45:47Z</time>
      </trkpt>
      <trkpt lat="59.9850294" lon="17.7381619">
        <ele>45.3192</ele>
        <time>2014-06-21T13:45:48Z</time>
      </trkpt>
      <trkpt lat="59.9849517" lon="17.7381459">
        <ele>44.8386</ele>
        <time>2014-06-21T13:45:49Z</time>
      </trkpt>
      <trkpt lat="59.9848725" lon="17.7381261">
        <ele>44.8386</ele>
        <time>2014-06-21T13:45:50Z</time>
      </trkpt>
      <trkpt lat="59.9847966" lon="17.738108">
        <ele>44.8386</ele>
        <time>2014-06-21T13:45:51Z</time>
      </trkpt>
      <trkpt lat="59.9847228" lon="17.7380939">
        <ele>44.8386</ele>
        <time>2014-06-21T13:45:52Z</time>
      </trkpt>
      <trkpt lat="59.9846544" lon="17.7380763">
        <ele>44.358</ele>
        <time>2014-06-21T13:45:53Z</time>
      </trkpt>
      <trkpt lat="59.9845755" lon="17.7380577">
        <ele>44.358</ele>
        <time>2014-06-21T13:45:54Z</time>
      </trkpt>
      <trkpt lat="59.9844998" lon="17.7380392">
        <ele>44.358</ele>
        <time>2014-06-21T13:45:55Z</time>
      </trkpt>
      <trkpt lat="59.9844316" lon="17.7380351">
        <ele>44.358</ele>
        <time>2014-06-21T13:45:56Z</time>
      </trkpt>
      <trkpt lat="59.9843586" lon="17.7380178">
        <ele>43.8773</ele>
        <time>2014-06-21T13:45:57Z</time>
      </trkpt>
      <trkpt lat="59.9842887" lon="17.7379975">
        <ele>44.358</ele>
        <time>2014-06-21T13:45:58Z</time>
      </trkpt>
      <trkpt lat="59.9842203" lon="17.7379843">
        <ele>43.8773</ele>
        <time>2014-06-21T13:45:59Z</time>
      </trkpt>
      <trkpt lat="59.9841598" lon="17.73798">
        <ele>43.3966</ele>
        <time>2014-06-21T13:46:00Z</time>
      </trkpt>
      <trkpt lat="59.9840891" lon="17.7379759">
        <ele>42.916</ele>
        <time>2014-06-21T13:46:01Z</time>
      </trkpt>
      <trkpt lat="59.9840197" lon="17.7379738">
        <ele>42.4354</ele>
        <time>2014-06-21T13:46:02Z</time>
      </trkpt>
      <trkpt lat="59.9839525" lon="17.7379814">
        <ele>43.3966</ele>
        <time>2014-06-21T13:46:03Z</time>
      </trkpt>
      <trkpt lat="59.9838737" lon="17.7379956">
        <ele>43.3966</ele>
        <time>2014-06-21T13:46:04Z</time>
      </trkpt>
      <trkpt lat="59.9837924" lon="17.7380164">
        <ele>43.8773</ele>
        <time>2014-06-21T13:46:05Z</time>
      </trkpt>
      <trkpt lat="59.9837128" lon="17.7380349">
        <ele>44.358</ele>
        <time>2014-06-21T13:46:06Z</time>
      </trkpt>
      <trkpt lat="59.983626" lon="17.7380482">
        <ele>43.3966</ele>
        <time>2014-06-21T13:46:07Z</time>
      </trkpt>
      <trkpt lat="59.9835421" lon="17.7380607">
        <ele>43.3966</ele>
        <time>2014-06-21T13:46:08Z</time>
      </trkpt>
      <trkpt lat="59.9834594" lon="17.7380734">
        <ele>42.916</ele>
        <time>2014-06-21T13:46:09Z</time>
      </trkpt>
      <trkpt lat="59.9833779" lon="17.7380862">
        <ele>43.3966</ele>
        <time>2014-06-21T13:46:10Z</time>
      </trkpt>
      <trkpt lat="59.9832962" lon="17.738096">
        <ele>42.916</ele>
        <time>2014-06-21T13:46:11Z</time>
      </trkpt>
      <trkpt lat="59.9832183" lon="17.7381052">
        <ele>43.3966</ele>
        <time>2014-06-21T13:46:12Z</time>
      </trkpt>
      <trkpt lat="59.9831471" lon="17.7381138">
        <ele>43.8773</ele>
        <time>2014-06-21T13:46:13Z</time>
      </trkpt>
      <trkpt lat="59.9830733" lon="17.7381132">
        <ele>44.358</ele>
        <time>2014-06-21T13:46:14Z</time>
      </trkpt>
      <trkpt lat="59.9830022" lon="17.7381085">
        <ele>44.8386</ele>
        <time>2014-06-21T13:46:15Z</time>
      </trkpt>
      <trkpt lat="59.9829299" lon="17.7381028">
        <ele>44.8386</ele>
        <time>2014-06-21T13:46:16Z</time>
      </trkpt>
      <trkpt lat="59.9828578" lon="17.7380934">
        <ele>44.358</ele>
        <time>2014-06-21T13:46:17Z</time>
      </trkpt>
      <trkpt lat="59.982788" lon="17.7380887">
        <ele>44.8386</ele>
        <time>2014-06-21T13:46:18Z</time>
      </trkpt>
      <trkpt lat="59.9827154" lon="17.7380805">
        <ele>45.3192</ele>
        <time>2014-06-21T13:46:19Z</time>
      </trkpt>
      <trkpt lat="59.9826451" lon="17.7380721">
        <ele>45.7999</ele>
        <time>2014-06-21T13:46:20Z</time>
      </trkpt>
      <trkpt lat="59.9825734" lon="17.7380679">
        <ele>45.7999</ele>
        <time>2014-06-21T13:46:21Z</time>
      </trkpt>
      <trkpt lat="59.9825099" lon="17.7380695">
        <ele>45.7999</ele>
        <time>2014-06-21T13:46:22Z</time>
      </trkpt>
      <trkpt lat="59.9824425" lon="17.738076">
        <ele>45.3192</ele>
        <time>2014-06-21T13:46:23Z</time>
      </trkpt>
      <trkpt lat="59.9823726" lon="17.738082">
        <ele>45.3192</ele>
        <time>2014-06-21T13:46:24Z</time>
      </trkpt>
      <trkpt lat="59.982303" lon="17.7380929">
        <ele>44.8386</ele>
        <time>2014-06-21T13:46:25Z</time>
      </trkpt>
      <trkpt lat="59.9822368" lon="17.7381152">
        <ele>44.8386</ele>
        <time>2014-06-21T13:46:26Z</time>
      </trkpt>
      <trkpt lat="59.9821741" lon="17.7381454">
        <ele>44.8386</ele>
        <time>2014-06-21T13:46:27Z</time>
      </trkpt>
      <trkpt lat="59.9821121" lon="17.738172">
        <ele>44.8386</ele>
        <time>2014-06-21T13:46:28Z</time>
      </trkpt>
      <trkpt lat="59.9820474" lon="17.7381898">
        <ele>44.8386</ele>
        <time>2014-06-21T13:46:29Z</time>
      </trkpt>
      <trkpt lat="59.9819882" lon="17.7382116">
        <ele>44.8386</ele>
        <time>2014-06-21T13:46:30Z</time>
      </trkpt>
      <trkpt lat="59.9819315" lon="17.7382338">
        <ele>44.8386</ele>
        <time>2014-06-21T13:46:31Z</time>
      </trkpt>
      <trkpt lat="59.9818815" lon="17.738258">
        <ele>45.3192</ele>
        <time>2014-06-21T13:46:32Z</time>
      </trkpt>
      <trkpt lat="59.9818338" lon="17.7382831">
        <ele>45.7999</ele>
        <time>2014-06-21T13:46:33Z</time>
      </trkpt>
      <trkpt lat="59.9817862" lon="17.7383109">
        <ele>45.7999</ele>
        <time>2014-06-21T13:46:34Z</time>
      </trkpt>
      <trkpt lat="59.9817396" lon="17.7383376">
        <ele>45.7999</ele>
        <time>2014-06-21T13:46:35Z</time>
      </trkpt>
      <trkpt lat="59.9816959" lon="17.7383633">
        <ele>45.7999</ele>
        <time>2014-06-21T13:46:36Z</time>
      </trkpt>
      <trkpt lat="59.9816493" lon="17.7383783">
        <ele>45.7999</ele>
        <time>2014-06-21T13:46:37Z</time>
      </trkpt>
      <trkpt lat="59.9815955" lon="17.7383873">
        <ele>45.3192</ele>
        <time>2014-06-21T13:46:38Z</time>
      </trkpt>
      <trkpt lat="59.9815417" lon="17.7383982">
        <ele>45.3192</ele>
        <time>2014-06-21T13:46:39Z</time>
      </trkpt>
      <trkpt lat="59.9814837" lon="17.7384129">
        <ele>44.8386</ele>
        <time>2014-06-21T13:46:40Z</time>
      </trkpt>
      <trkpt lat="59.981418" lon="17.7384308">
        <ele>44.358</ele>
        <time>2014-06-21T13:46:41Z</time>
      </trkpt>
      <trkpt lat="59.9813552" lon="17.7384555">
        <ele>44.358</ele>
        <time>2014-06-21T13:46:42Z</time>
      </trkpt>
      <trkpt lat="59.981292" lon="17.738475">
        <ele>43.8773</ele>
        <time>2014-06-21T13:46:43Z</time>
      </trkpt>
      <trkpt lat="59.9812245" lon="17.7384965">
        <ele>43.3966</ele>
        <time>2014-06-21T13:46:44Z</time>
      </trkpt>
      <trkpt lat="59.9811568" lon="17.7385173">
        <ele>42.4354</ele>
        <time>2014-06-21T13:46:45Z</time>
      </trkpt>
      <trkpt lat="59.9810849" lon="17.7385357">
        <ele>42.4354</ele>
        <time>2014-06-21T13:46:46Z</time>
      </trkpt>
      <trkpt lat="59.9810107" lon="17.7385522">
        <ele>41.474</ele>
        <time>2014-06-21T13:46:47Z</time>
      </trkpt>
      <trkpt lat="59.9809361" lon="17.7385716">
        <ele>40.5128</ele>
        <time>2014-06-21T13:46:48Z</time>
      </trkpt>
      <trkpt lat="59.9808578" lon="17.7385927">
        <ele>40.5128</ele>
        <time>2014-06-21T13:46:49Z</time>
      </trkpt>
      <trkpt lat="59.9807796" lon="17.7386177">
        <ele>40.5128</ele>
        <time>2014-06-21T13:46:50Z</time>
      </trkpt>
      <trkpt lat="59.9807061" lon="17.7386452">
        <ele>40.0321</ele>
        <time>2014-06-21T13:46:51Z</time>
      </trkpt>
      <trkpt lat="59.9806292" lon="17.7386769">
        <ele>40.0321</ele>
        <time>2014-06-21T13:46:52Z</time>
      </trkpt>
      <trkpt lat="59.980558" lon="17.7387014">
        <ele>40.0321</ele>
        <time>2014-06-21T13:46:53Z</time>
      </trkpt>
      <trkpt lat="59.9804889" lon="17.7387201">
        <ele>40.5128</ele>
        <time>2014-06-21T13:46:54Z</time>
      </trkpt>
      <trkpt lat="59.9804155" lon="17.7387291">
        <ele>39.5513</ele>
        <time>2014-06-21T13:46:55Z</time>
      </trkpt>
      <trkpt lat="59.9803472" lon="17.7387359">
        <ele>39.0707</ele>
        <time>2014-06-21T13:46:56Z</time>
      </trkpt>
      <trkpt lat="59.9802771" lon="17.7387317">
        <ele>38.5901</ele>
        <time>2014-06-21T13:46:57Z</time>
      </trkpt>
      <trkpt lat="59.9802088" lon="17.7387415">
        <ele>38.1094</ele>
        <time>2014-06-21T13:46:58Z</time>
      </trkpt>
      <trkpt lat="59.9801418" lon="17.7387399">
        <ele>37.6287</ele>
        <time>2014-06-21T13:46:59Z</time>
      </trkpt>
      <trkpt lat="59.9800699" lon="17.7387332">
        <ele>37.1481</ele>
        <time>2014-06-21T13:47:00Z</time>
      </trkpt>
      <trkpt lat="59.9799919" lon="17.7387367">
        <ele>36.6675</ele>
        <time>2014-06-21T13:47:01Z</time>
      </trkpt>
      <trkpt lat="59.9799182" lon="17.7387394">
        <ele>36.1868</ele>
        <time>2014-06-21T13:47:02Z</time>
      </trkpt>
      <trkpt lat="59.9798453" lon="17.7387498">
        <ele>35.2255</ele>
        <time>2014-06-21T13:47:03Z</time>
      </trkpt>
      <trkpt lat="59.9797747" lon="17.7387662">
        <ele>34.7449</ele>
        <time>2014-06-21T13:47:04Z</time>
      </trkpt>
      <trkpt lat="59.9797069" lon="17.7387819">
        <ele>33.7834</ele>
        <time>2014-06-21T13:47:05Z</time>
      </trkpt>
      <trkpt lat="59.9796459" lon="17.7387999">
        <ele>33.3029</ele>
        <time>2014-06-21T13:47:06Z</time>
      </trkpt>
      <trkpt lat="59.9795841" lon="17.7388203">
        <ele>32.8223</ele>
        <time>2014-06-21T13:47:07Z</time>
      </trkpt>
      <trkpt lat="59.9795229" lon="17.7388545">
        <ele>32.3416</ele>
        <time>2014-06-21T13:47:08Z</time>
      </trkpt>
      <trkpt lat="59.9794587" lon="17.7388985">
        <ele>32.8223</ele>
        <time>2014-06-21T13:47:09Z</time>
      </trkpt>
      <trkpt lat="59.9793953" lon="17.7389461">
        <ele>32.8223</ele>
        <time>2014-06-21T13:47:10Z</time>
      </trkpt>
      <trkpt lat="59.9793378" lon="17.7390003">
        <ele>33.3029</ele>
        <time>2014-06-21T13:47:11Z</time>
      </trkpt>
      <trkpt lat="59.9792738" lon="17.7390513">
        <ele>33.3029</ele>
        <time>2014-06-21T13:47:12Z</time>
      </trkpt>
      <trkpt lat="59.9792105" lon="17.7390993">
        <ele>33.3029</ele>
        <time>2014-06-21T13:47:13Z</time>
      </trkpt>
      <trkpt lat="59.9791472" lon="17.7391456">
        <ele>33.7834</ele>
        <time>2014-06-21T13:47:14Z</time>
      </trkpt>
      <trkpt lat="59.9790863" lon="17.7391839">
        <ele>33.7834</ele>
        <time>2014-06-21T13:47:15Z</time>
      </trkpt>
      <trkpt lat="59.9790314" lon="17.7392132">
        <ele>33.7834</ele>
        <time>2014-06-21T13:47:16Z</time>
      </trkpt>
      <trkpt lat="59.9789863" lon="17.7392388">
        <ele>34.2642</ele>
        <time>2014-06-21T13:47:17Z</time>
      </trkpt>
      <trkpt lat="59.9789485" lon="17.7392708">
        <ele>34.2642</ele>
        <time>2014-06-21T13:47:18Z</time>
      </trkpt>
      <trkpt lat="59.9789205" lon="17.7393082">
        <ele>34.2642</ele>
        <time>2014-06-21T13:47:19Z</time>
      </trkpt>
      <trkpt lat="59.9789075" lon="17.7393631">
        <ele>33.7834</ele>
        <time>2014-06-21T13:47:20Z</time>
      </trkpt>
      <trkpt lat="59.9789157" lon="17.7394266">
        <ele>33.7834</ele>
        <time>2014-06-21T13:47:21Z</time>
      </trkpt>
      <trkpt lat="59.9789366" lon="17.7394889">
        <ele>33.7834</ele>
        <time>2014-06-21T13:47:22Z</time>
      </trkpt>
      <trkpt lat="59.9789577" lon="17.7395517">
        <ele>33.7834</ele>
        <time>2014-06-21T13:47:23Z</time>
      </trkpt>
      <trkpt lat="59.9789699" lon="17.7396176">
        <ele>34.2642</ele>
        <time>2014-06-21T13:47:24Z</time>
      </trkpt>
      <trkpt lat="59.9789704" lon="17.7396733">
        <ele>34.2642</ele>
        <time>2014-06-21T13:47:25Z</time>
      </trkpt>
      <trkpt lat="59.9789615" lon="17.7397177">
        <ele>34.7449</ele>
        <time>2014-06-21T13:47:26Z</time>
      </trkpt>
      <trkpt lat="59.9789519" lon="17.7397563">
        <ele>34.7449</ele>
        <time>2014-06-21T13:47:27Z</time>
      </trkpt>
      <trkpt lat="59.9789506" lon="17.7397966">
        <ele>35.2255</ele>
        <time>2014-06-21T13:47:28Z</time>
      </trkpt>
      <trkpt lat="59.9789502" lon="17.7398288">
        <ele>35.7061</ele>
        <time>2014-06-21T13:47:29Z</time>
      </trkpt>
      <trkpt lat="59.9789478" lon="17.7398512">
        <ele>35.7061</ele>
        <time>2014-06-21T13:47:30Z</time>
      </trkpt>
      <trkpt lat="59.9789469" lon="17.7398723">
        <ele>35.7061</ele>
        <time>2014-06-21T13:47:31Z</time>
      </trkpt>
      <trkpt lat="59.9789433" lon="17.7399066">
        <ele>35.7061</ele>
        <time>2014-06-21T13:47:32Z</time>
      </trkpt>
      <trkpt lat="59.9789317" lon="17.7399444">
        <ele>36.1868</ele>
        <time>2014-06-21T13:47:33Z</time>
      </trkpt>
      <trkpt lat="59.9789253" lon="17.7399748">
        <ele>37.1481</ele>
        <time>2014-06-21T13:47:34Z</time>
      </trkpt>
      <trkpt lat="59.9789199" lon="17.7399892">
        <ele>37.1481</ele>
        <time>2014-06-21T13:47:35Z</time>
      </trkpt>
      <trkpt lat="59.9789174" lon="17.7399888">
        <ele>37.1481</ele>
        <time>2014-06-21T13:47:36Z</time>
      </trkpt>
      <trkpt lat="59.9789106" lon="17.7399947">
        <ele>37.6287</ele>
        <time>2014-06-21T13:47:37Z</time>
      </trkpt>
      <trkpt lat="59.9789108" lon="17.7399811">
        <ele>37.6287</ele>
        <time>2014-06-21T13:47:38Z</time>
      </trkpt>
      <trkpt lat="59.9789102" lon="17.7399716">
        <ele>37.6287</ele>
        <time>2014-06-21T13:47:39Z</time>
      </trkpt>
      <trkpt lat="59.9789097" lon="17.739968">
        <ele>37.6287</ele>
        <time>2014-06-21T13:47:40Z</time>
      </trkpt>
      <trkpt lat="59.9789102" lon="17.7399713">
        <ele>37.6287</ele>
        <time>2014-06-21T13:47:41Z</time>
      </trkpt>
    </trkseg>
  </trk>
</gpx>